<?xml version='1.0' encoding='UTF-8'?><gpx version="1.1" creator="JPX - https://github.com/jenetics/jpx" xmlns="http://www.topografix.com/GPX/1/1"><trk><trkseg><trkpt lat="46.41540538843915" lon="12.924068490017621"><ele>362.99999999999994</ele><time>2026-05-03T15:23:50.561Z</time></trkpt><trkpt lat="46.415330364082386" lon="12.924004408614017"><ele>363.0</ele><time>2026-05-03T15:23:52.996Z</time></trkpt><trkpt lat="46.41526272695377" lon="12.923992605699977"><ele>363.0</ele><time>2026-05-03T15:24:00.997Z</time></trkpt><trkpt lat="46.415256945038216" lon="12.924086072855449"><ele>363.0</ele><time>2026-05-03T15:24:07.998Z</time></trkpt><trkpt lat="46.4152391960852" lon="12.924189845343163"><ele>363.0</ele><time>2026-05-03T15:24:45Z</time></trkpt><trkpt lat="46.415264167703015" lon="12.92427660857392"><ele>362.99999999999994</ele><time>2026-05-03T15:25:53Z</time></trkpt><trkpt lat="46.4152858551063" lon="12.924181546150901"><ele>363.0</ele><time>2026-05-03T15:25:55Z</time></trkpt><trkpt lat="46.41533744896514" lon="12.924103581325085"><ele>363.0</ele><time>2026-05-03T15:25:59Z</time></trkpt><trkpt lat="46.415409322809616" lon="12.924078942676632"><ele>363.0</ele><time>2026-05-03T15:26:08Z</time></trkpt><trkpt lat="46.415493726756196" lon="12.924147040885645"><ele>363.0</ele><time>2026-05-03T15:26:11Z</time></trkpt><trkpt lat="46.41555151917291" lon="12.924201718472665"><ele>363.0</ele><time>2026-05-03T15:26:15Z</time></trkpt><trkpt lat="46.41564463547373" lon="12.924241693974318"><ele>363.0</ele><time>2026-05-03T15:26:45Z</time></trkpt><trkpt lat="46.415704791387036" lon="12.924282180364598"><ele>363.0</ele><time>2026-05-03T15:26:46Z</time></trkpt><trkpt lat="46.41579283672239" lon="12.924335349289581"><ele>363.0</ele><time>2026-05-03T15:26:48Z</time></trkpt><trkpt lat="46.41586340256491" lon="12.92438999810647"><ele>363.0</ele><time>2026-05-03T15:26:50Z</time></trkpt><trkpt lat="46.415909116412585" lon="12.924463404938129"><ele>363.0</ele><time>2026-05-03T15:27:05Z</time></trkpt><trkpt lat="46.41593981555703" lon="12.924565406080394"><ele>363.0</ele><time>2026-05-03T15:27:11Z</time></trkpt><trkpt lat="46.415922619700666" lon="12.92467436092052"><ele>363.0</ele><time>2026-05-03T15:27:12Z</time></trkpt><trkpt lat="46.4158929892529" lon="12.924802528162648"><ele>363.0</ele><time>2026-05-03T15:27:13Z</time></trkpt><trkpt lat="46.41587688287591" lon="12.924936664458256"><ele>362.8333333333333</ele><time>2026-05-03T15:27:14Z</time></trkpt><trkpt lat="46.41587484420854" lon="12.925071169549083"><ele>362.6666666666667</ele><time>2026-05-03T15:27:15Z</time></trkpt><trkpt lat="46.41586350263447" lon="12.925199517985272"><ele>362.5</ele><time>2026-05-03T15:27:16Z</time></trkpt><trkpt lat="46.41584313375826" lon="12.925316464754596"><ele>362.33333333333337</ele><time>2026-05-03T15:27:17Z</time></trkpt><trkpt lat="46.41582115734067" lon="12.925429663111073"><ele>362.1666666666667</ele><time>2026-05-03T15:27:18Z</time></trkpt><trkpt lat="46.41579446818651" lon="12.92555499991345"><ele>362.0</ele><time>2026-05-03T15:27:19Z</time></trkpt><trkpt lat="46.41576636503195" lon="12.925692711744363"><ele>362.0</ele><time>2026-05-03T15:27:20Z</time></trkpt><trkpt lat="46.41574383389671" lon="12.92583723252224"><ele>362.0</ele><time>2026-05-03T15:27:21Z</time></trkpt><trkpt lat="46.41572354465286" lon="12.925984553827481"><ele>362.0</ele><time>2026-05-03T15:27:22Z</time></trkpt><trkpt lat="46.41570793601301" lon="12.92613719471413"><ele>362.0</ele><time>2026-05-03T15:27:23Z</time></trkpt><trkpt lat="46.41569713020216" lon="12.926293499151027"><ele>362.0</ele><time>2026-05-03T15:27:24Z</time></trkpt><trkpt lat="46.4156879579968" lon="12.926450972567686"><ele>362.0</ele><time>2026-05-03T15:27:25Z</time></trkpt><trkpt lat="46.4156761713266" lon="12.92661206426422"><ele>362.0</ele><time>2026-05-03T15:27:26Z</time></trkpt><trkpt lat="46.41565988244523" lon="12.926772189439523"><ele>362.0</ele><time>2026-05-03T15:27:27Z</time></trkpt><trkpt lat="46.415645597437646" lon="12.926929433278099"><ele>362.0</ele><time>2026-05-03T15:27:28Z</time></trkpt><trkpt lat="46.41563677101349" lon="12.927090098519452"><ele>362.0</ele><time>2026-05-03T15:27:29Z</time></trkpt><trkpt lat="46.41562551784729" lon="12.927250391984018"><ele>362.0</ele><time>2026-05-03T15:27:30Z</time></trkpt><trkpt lat="46.41561719488775" lon="12.927400775449298"><ele>362.0</ele><time>2026-05-03T15:27:31Z</time></trkpt><trkpt lat="46.41560655948097" lon="12.927554993545685"><ele>362.0</ele><time>2026-05-03T15:27:32Z</time></trkpt><trkpt lat="46.415597694521985" lon="12.927723527780634"><ele>362.0</ele><time>2026-05-03T15:27:33Z</time></trkpt><trkpt lat="46.415587864842536" lon="12.927895939011089"><ele>362.0</ele><time>2026-05-03T15:27:34Z</time></trkpt><trkpt lat="46.41557716213151" lon="12.928073307564157"><ele>364.0</ele><time>2026-05-03T15:27:35Z</time></trkpt><trkpt lat="46.41556481670065" lon="12.928251636417661"><ele>366.0</ele><time>2026-05-03T15:27:36Z</time></trkpt><trkpt lat="46.415552390440745" lon="12.928437311712312"><ele>368.0</ele><time>2026-05-03T15:27:37Z</time></trkpt><trkpt lat="46.41553357498849" lon="12.928619382906742"><ele>370.0</ele><time>2026-05-03T15:27:38Z</time></trkpt><trkpt lat="46.41550459222325" lon="12.92879983670951"><ele>368.75</ele><time>2026-05-03T15:27:39Z</time></trkpt><trkpt lat="46.41547675705617" lon="12.928982286501503"><ele>367.5</ele><time>2026-05-03T15:27:40Z</time></trkpt><trkpt lat="46.415446658676856" lon="12.929166559740906"><ele>366.25</ele><time>2026-05-03T15:27:41Z</time></trkpt><trkpt lat="46.41541135328203" lon="12.92934117896303"><ele>365.0</ele><time>2026-05-03T15:27:42Z</time></trkpt><trkpt lat="46.415374262756394" lon="12.929522630930126"><ele>365.0</ele><time>2026-05-03T15:27:43Z</time></trkpt><trkpt lat="46.415332830364484" lon="12.929697413106403"><ele>365.0</ele><time>2026-05-03T15:27:44Z</time></trkpt><trkpt lat="46.41529568178343" lon="12.929867382114224"><ele>365.0</ele><time>2026-05-03T15:27:45Z</time></trkpt><trkpt lat="46.415253174539984" lon="12.930043077316578"><ele>365.0</ele><time>2026-05-03T15:27:46Z</time></trkpt><trkpt lat="46.415202662866164" lon="12.930213135900237"><ele>365.5</ele><time>2026-05-03T15:27:47Z</time></trkpt><trkpt lat="46.41513710345016" lon="12.930378033966198"><ele>366.0</ele><time>2026-05-03T15:27:48Z</time></trkpt><trkpt lat="46.41505892566726" lon="12.930535025730533"><ele>366.5</ele><time>2026-05-03T15:27:49Z</time></trkpt><trkpt lat="46.41497290131668" lon="12.930689043321255"><ele>367.0</ele><time>2026-05-03T15:27:50Z</time></trkpt><trkpt lat="46.41488874221211" lon="12.930846509789506"><ele>369.0</ele><time>2026-05-03T15:27:51Z</time></trkpt><trkpt lat="46.41480343604107" lon="12.931009708080381"><ele>371.0</ele><time>2026-05-03T15:27:52Z</time></trkpt><trkpt lat="46.414718469552696" lon="12.931177975150819"><ele>373.0</ele><time>2026-05-03T15:27:53Z</time></trkpt><trkpt lat="46.414636722641966" lon="12.931350172845248"><ele>375.0</ele><time>2026-05-03T15:27:54Z</time></trkpt><trkpt lat="46.41455330020714" lon="12.931519335097061"><ele>371.0</ele><time>2026-05-03T15:27:55Z</time></trkpt><trkpt lat="46.41446823621224" lon="12.93168729088612"><ele>367.0</ele><time>2026-05-03T15:27:56Z</time></trkpt><trkpt lat="46.41437977618063" lon="12.931852815569117"><ele>363.0</ele><time>2026-05-03T15:27:57Z</time></trkpt><trkpt lat="46.414288355337476" lon="12.93201449239509"><ele>359.0</ele><time>2026-05-03T15:27:58Z</time></trkpt><trkpt lat="46.414187887820454" lon="12.932166358932065"><ele>359.0</ele><time>2026-05-03T15:27:59Z</time></trkpt><trkpt lat="46.41408885649553" lon="12.932318154158748"><ele>359.0</ele><time>2026-05-03T15:28:00Z</time></trkpt><trkpt lat="46.413988019352324" lon="12.932470174115698"><ele>359.0</ele><time>2026-05-03T15:28:01Z</time></trkpt><trkpt lat="46.41389007611861" lon="12.932614475367204"><ele>359.0</ele><time>2026-05-03T15:28:02Z</time></trkpt><trkpt lat="46.41379234693678" lon="12.932768928365157"><ele>358.75</ele><time>2026-05-03T15:28:03Z</time></trkpt><trkpt lat="46.41370075878539" lon="12.932919504258402"><ele>358.5</ele><time>2026-05-03T15:28:04Z</time></trkpt><trkpt lat="46.41361107079092" lon="12.933068625135558"><ele>358.25</ele><time>2026-05-03T15:28:05Z</time></trkpt><trkpt lat="46.413530316788325" lon="12.933226204982635"><ele>358.0</ele><time>2026-05-03T15:28:06Z</time></trkpt><trkpt lat="46.41346003839554" lon="12.933389952614325"><ele>358.0</ele><time>2026-05-03T15:28:07Z</time></trkpt><trkpt lat="46.41340002844643" lon="12.933546902852028"><ele>358.0</ele><time>2026-05-03T15:28:08Z</time></trkpt><trkpt lat="46.4133448129101" lon="12.933704000623166"><ele>358.0</ele><time>2026-05-03T15:28:09Z</time></trkpt><trkpt lat="46.41329821022863" lon="12.933864154667978"><ele>358.0</ele><time>2026-05-03T15:28:10Z</time></trkpt><trkpt lat="46.41325507198012" lon="12.93402035630484"><ele>358.0</ele><time>2026-05-03T15:28:11Z</time></trkpt><trkpt lat="46.41319519868873" lon="12.934201038853802"><ele>358.0</ele><time>2026-05-03T15:28:12Z</time></trkpt><trkpt lat="46.413152983460314" lon="12.934382671487565"><ele>358.0</ele><time>2026-05-03T15:28:13Z</time></trkpt><trkpt lat="46.41309605222943" lon="12.934541972347137"><ele>358.0</ele><time>2026-05-03T15:28:14Z</time></trkpt><trkpt lat="46.41304725620892" lon="12.934710487378302"><ele>357.5</ele><time>2026-05-03T15:28:15Z</time></trkpt><trkpt lat="46.41300726499765" lon="12.934870510841519"><ele>357.0</ele><time>2026-05-03T15:28:16Z</time></trkpt><trkpt lat="46.41296198926966" lon="12.93502343086054"><ele>356.5</ele><time>2026-05-03T15:28:17Z</time></trkpt><trkpt lat="46.41291079873908" lon="12.93519138874956"><ele>356.0</ele><time>2026-05-03T15:28:18Z</time></trkpt><trkpt lat="46.412863061052256" lon="12.935351509316003"><ele>356.0</ele><time>2026-05-03T15:28:19Z</time></trkpt><trkpt lat="46.41281995368305" lon="12.935499647983375"><ele>356.0</ele><time>2026-05-03T15:28:20Z</time></trkpt><trkpt lat="46.41278009569031" lon="12.935638604215736"><ele>356.0</ele><time>2026-05-03T15:28:21Z</time></trkpt><trkpt lat="46.41274031159994" lon="12.935767502903216"><ele>356.0</ele><time>2026-05-03T15:28:22Z</time></trkpt><trkpt lat="46.412700467664585" lon="12.935898300772209"><ele>356.0</ele><time>2026-05-03T15:28:23Z</time></trkpt><trkpt lat="46.412661956848424" lon="12.936027802315673"><ele>356.0</ele><time>2026-05-03T15:28:24Z</time></trkpt><trkpt lat="46.41262729799834" lon="12.936159922264169"><ele>356.0</ele><time>2026-05-03T15:28:25Z</time></trkpt><trkpt lat="46.41259280780237" lon="12.936283642020607"><ele>356.0</ele><time>2026-05-03T15:28:26Z</time></trkpt><trkpt lat="46.4125580311957" lon="12.936398396601236"><ele>356.0</ele><time>2026-05-03T15:28:27Z</time></trkpt><trkpt lat="46.412523741271634" lon="12.936509092750638"><ele>356.0</ele><time>2026-05-03T15:28:28Z</time></trkpt><trkpt lat="46.41248827672448" lon="12.936617843995915"><ele>356.0</ele><time>2026-05-03T15:28:29Z</time></trkpt><trkpt lat="46.41245059467764" lon="12.936712183125664"><ele>356.5</ele><time>2026-05-03T15:28:30Z</time></trkpt><trkpt lat="46.41241153918023" lon="12.936801947553455"><ele>357.0</ele><time>2026-05-03T15:28:31Z</time></trkpt><trkpt lat="46.412370456489256" lon="12.936884506204281"><ele>357.5</ele><time>2026-05-03T15:28:32Z</time></trkpt><trkpt lat="46.41232465689805" lon="12.936978042982021"><ele>358.0</ele><time>2026-05-03T15:28:33Z</time></trkpt><trkpt lat="46.41226366868262" lon="12.937089776978963"><ele>358.5</ele><time>2026-05-03T15:28:34Z</time></trkpt><trkpt lat="46.41218635993772" lon="12.937188373876305"><ele>359.0</ele><time>2026-05-03T15:28:35Z</time></trkpt><trkpt lat="46.41210294244555" lon="12.937250983640824"><ele>357.83333333333337</ele><time>2026-05-03T15:28:36Z</time></trkpt><trkpt lat="46.4120204210569" lon="12.937282428569848"><ele>356.6666666666667</ele><time>2026-05-03T15:28:37Z</time></trkpt><trkpt lat="46.4119574013551" lon="12.937345695115283"><ele>355.5</ele><time>2026-05-03T15:28:38Z</time></trkpt><trkpt lat="46.411918875400715" lon="12.937468332904091"><ele>354.3333333333333</ele><time>2026-05-03T15:28:39Z</time></trkpt><trkpt lat="46.41191132561073" lon="12.93760517343955"><ele>353.16666666666663</ele><time>2026-05-03T15:28:40Z</time></trkpt><trkpt lat="46.41193518331141" lon="12.937743155978204"><ele>352.0</ele><time>2026-05-03T15:28:41Z</time></trkpt><trkpt lat="46.41195969526646" lon="12.93788303927787"><ele>352.0</ele><time>2026-05-03T15:28:42Z</time></trkpt><trkpt lat="46.411980854354496" lon="12.938036662983778"><ele>352.0</ele><time>2026-05-03T15:28:43Z</time></trkpt><trkpt lat="46.41200090568789" lon="12.938194283018426"><ele>352.0</ele><time>2026-05-03T15:28:44Z</time></trkpt><trkpt lat="46.41201609296848" lon="12.938366333766124"><ele>352.0</ele><time>2026-05-03T15:28:45Z</time></trkpt><trkpt lat="46.41202910659092" lon="12.938544179299027"><ele>351.25</ele><time>2026-05-03T15:28:46Z</time></trkpt><trkpt lat="46.41204339479117" lon="12.938719219516589"><ele>350.5</ele><time>2026-05-03T15:28:47Z</time></trkpt><trkpt lat="46.41205744791206" lon="12.938897181206736"><ele>349.75</ele><time>2026-05-03T15:28:48Z</time></trkpt><trkpt lat="46.412073064586416" lon="12.939078537352978"><ele>349.0</ele><time>2026-05-03T15:28:49Z</time></trkpt><trkpt lat="46.412087976679246" lon="12.939258142952486"><ele>348.5</ele><time>2026-05-03T15:28:50Z</time></trkpt><trkpt lat="46.41210267238153" lon="12.939439057495601"><ele>348.0</ele><time>2026-05-03T15:28:51Z</time></trkpt><trkpt lat="46.4121152628473" lon="12.939613020201099"><ele>347.5</ele><time>2026-05-03T15:28:52Z</time></trkpt><trkpt lat="46.41212518293449" lon="12.939796699522057"><ele>347.0</ele><time>2026-05-03T15:28:53Z</time></trkpt><trkpt lat="46.41213565025564" lon="12.939994033607706"><ele>346.75</ele><time>2026-05-03T15:28:54Z</time></trkpt><trkpt lat="46.41214752141183" lon="12.940185802933186"><ele>346.5</ele><time>2026-05-03T15:28:55Z</time></trkpt><trkpt lat="46.41216337718699" lon="12.94039823453331"><ele>346.25</ele><time>2026-05-03T15:28:56Z</time></trkpt><trkpt lat="46.41217842656479" lon="12.940617890669293"><ele>346.0</ele><time>2026-05-03T15:28:57Z</time></trkpt><trkpt lat="46.4121955465103" lon="12.940840631801775"><ele>349.0</ele><time>2026-05-03T15:28:58Z</time></trkpt><trkpt lat="46.4122126157303" lon="12.941063959752086"><ele>352.0</ele><time>2026-05-03T15:28:59Z</time></trkpt><trkpt lat="46.41222623069371" lon="12.94127987730609"><ele>355.0</ele><time>2026-05-03T15:29:00Z</time></trkpt><trkpt lat="46.41224098572587" lon="12.941483004861423"><ele>358.0</ele><time>2026-05-03T15:29:01Z</time></trkpt><trkpt lat="46.41225697658859" lon="12.94167727568876"><ele>358.25</ele><time>2026-05-03T15:29:02Z</time></trkpt><trkpt lat="46.41227178151039" lon="12.941870050701244"><ele>358.5</ele><time>2026-05-03T15:29:03Z</time></trkpt><trkpt lat="46.41228455299668" lon="12.942070575225824"><ele>358.75</ele><time>2026-05-03T15:29:04Z</time></trkpt><trkpt lat="46.41229634886414" lon="12.942277751760537"><ele>359.0</ele><time>2026-05-03T15:29:05Z</time></trkpt><trkpt lat="46.41230512186499" lon="12.942482412003876"><ele>360.75</ele><time>2026-05-03T15:29:06Z</time></trkpt><trkpt lat="46.4123033806565" lon="12.942685766387955"><ele>362.5</ele><time>2026-05-03T15:29:07Z</time></trkpt><trkpt lat="46.41228316783027" lon="12.942894258579429"><ele>364.25</ele><time>2026-05-03T15:29:08Z</time></trkpt><trkpt lat="46.41225316010904" lon="12.943113936244231"><ele>366.0</ele><time>2026-05-03T15:29:09Z</time></trkpt><trkpt lat="46.412212434713275" lon="12.943337318787295"><ele>367.6666666666667</ele><time>2026-05-03T15:29:10Z</time></trkpt><trkpt lat="46.412165115411646" lon="12.94354941207655"><ele>369.33333333333337</ele><time>2026-05-03T15:29:11Z</time></trkpt><trkpt lat="46.41211866868711" lon="12.943772457067555"><ele>371.0</ele><time>2026-05-03T15:29:12Z</time></trkpt><trkpt lat="46.41207939867956" lon="12.943977114309902"><ele>365.25</ele><time>2026-05-03T15:29:13Z</time></trkpt><trkpt lat="46.412033939790604" lon="12.944176000815515"><ele>359.5</ele><time>2026-05-03T15:29:14Z</time></trkpt><trkpt lat="46.411979788549615" lon="12.9443495972477"><ele>353.75</ele><time>2026-05-03T15:29:15Z</time></trkpt><trkpt lat="46.41192484384793" lon="12.944518236146058"><ele>348.0</ele><time>2026-05-03T15:29:16Z</time></trkpt><trkpt lat="46.41186756575538" lon="12.944684222677399"><ele>348.0</ele><time>2026-05-03T15:29:17Z</time></trkpt><trkpt lat="46.41180804628084" lon="12.944850437860971"><ele>348.0</ele><time>2026-05-03T15:29:18Z</time></trkpt><trkpt lat="46.41174509736966" lon="12.945020212555225"><ele>348.0</ele><time>2026-05-03T15:29:19Z</time></trkpt><trkpt lat="46.41166498774148" lon="12.945193170918355"><ele>348.0</ele><time>2026-05-03T15:29:20Z</time></trkpt><trkpt lat="46.41157877246927" lon="12.94536417356012"><ele>347.25</ele><time>2026-05-03T15:29:21Z</time></trkpt><trkpt lat="46.41149379951281" lon="12.945538433311222"><ele>346.5</ele><time>2026-05-03T15:29:22Z</time></trkpt><trkpt lat="46.41141859262256" lon="12.945724790155408"><ele>345.75</ele><time>2026-05-03T15:29:23Z</time></trkpt><trkpt lat="46.41136026723127" lon="12.945919847561688"><ele>345.0</ele><time>2026-05-03T15:29:24Z</time></trkpt><trkpt lat="46.41130963826287" lon="12.946114001922057"><ele>345.0</ele><time>2026-05-03T15:29:25Z</time></trkpt><trkpt lat="46.41126654005366" lon="12.946315276997845"><ele>345.0</ele><time>2026-05-03T15:29:26Z</time></trkpt><trkpt lat="46.41122820508325" lon="12.946519540916478"><ele>345.0</ele><time>2026-05-03T15:29:27Z</time></trkpt><trkpt lat="46.41118909484498" lon="12.946729866468006"><ele>345.0</ele><time>2026-05-03T15:29:28Z</time></trkpt><trkpt lat="46.41114329930581" lon="12.946937864053838"><ele>346.0</ele><time>2026-05-03T15:29:29Z</time></trkpt><trkpt lat="46.41108217234854" lon="12.94713843019174"><ele>347.0</ele><time>2026-05-03T15:29:30Z</time></trkpt><trkpt lat="46.41101069001871" lon="12.947331352320033"><ele>348.0</ele><time>2026-05-03T15:29:31Z</time></trkpt><trkpt lat="46.41093106582476" lon="12.947511075172056"><ele>349.0</ele><time>2026-05-03T15:29:32Z</time></trkpt><trkpt lat="46.41084838773705" lon="12.947673240344656"><ele>351.5</ele><time>2026-05-03T15:29:33Z</time></trkpt><trkpt lat="46.41077071043457" lon="12.947829223096054"><ele>354.0</ele><time>2026-05-03T15:29:34Z</time></trkpt><trkpt lat="46.41069525267743" lon="12.947977273557312"><ele>356.5</ele><time>2026-05-03T15:29:35Z</time></trkpt><trkpt lat="46.410620487264495" lon="12.948113228539805"><ele>359.0</ele><time>2026-05-03T15:29:36Z</time></trkpt><trkpt lat="46.41055664522945" lon="12.948237320533853"><ele>359.0</ele><time>2026-05-03T15:29:37Z</time></trkpt><trkpt lat="46.410506329998285" lon="12.94834445215331"><ele>359.0</ele><time>2026-05-03T15:29:38Z</time></trkpt><trkpt lat="46.4104690525741" lon="12.948433588988491"><ele>359.0</ele><time>2026-05-03T15:29:39Z</time></trkpt><trkpt lat="46.41042253022756" lon="12.948541813256425"><ele>359.0</ele><time>2026-05-03T15:29:41Z</time></trkpt><trkpt lat="46.4104031891309" lon="12.948652566596332"><ele>359.0</ele><time>2026-05-03T15:30:25.999Z</time></trkpt><trkpt lat="46.410384545110546" lon="12.948741506571375"><ele>359.0</ele><time>2026-05-03T15:30:36.999Z</time></trkpt><trkpt lat="46.410380148503776" lon="12.94884719643406"><ele>356.0</ele><time>2026-05-03T15:31:10Z</time></trkpt><trkpt lat="46.41036677389158" lon="12.948993111228527"><ele>353.0</ele><time>2026-05-03T15:31:12Z</time></trkpt><trkpt lat="46.41036093047611" lon="12.949099228226148"><ele>350.0</ele><time>2026-05-03T15:31:13Z</time></trkpt><trkpt lat="46.41035573767074" lon="12.949210195516132"><ele>347.0</ele><time>2026-05-03T15:31:14Z</time></trkpt><trkpt lat="46.41034990396369" lon="12.94933005115339"><ele>344.0</ele><time>2026-05-03T15:31:15Z</time></trkpt><trkpt lat="46.410348779312166" lon="12.949436538422038"><ele>341.0</ele><time>2026-05-03T15:31:16Z</time></trkpt><trkpt lat="46.41034822026061" lon="12.949542113228658"><ele>340.83333333333337</ele><time>2026-05-03T15:31:17Z</time></trkpt><trkpt lat="46.41034569550685" lon="12.949643040218172"><ele>340.6666666666667</ele><time>2026-05-03T15:31:18Z</time></trkpt><trkpt lat="46.41034859570758" lon="12.949755486648842"><ele>340.5</ele><time>2026-05-03T15:31:19Z</time></trkpt><trkpt lat="46.41034933049754" lon="12.949883435945905"><ele>340.3333333333333</ele><time>2026-05-03T15:31:20Z</time></trkpt><trkpt lat="46.410349809082426" lon="12.950014518134413"><ele>340.16666666666663</ele><time>2026-05-03T15:31:21Z</time></trkpt><trkpt lat="46.410350754967986" lon="12.950149589203997"><ele>340.0</ele><time>2026-05-03T15:31:22Z</time></trkpt><trkpt lat="46.410349092770424" lon="12.950287677337982"><ele>340.0</ele><time>2026-05-03T15:31:23Z</time></trkpt><trkpt lat="46.41034648410274" lon="12.950450817817254"><ele>340.0</ele><time>2026-05-03T15:31:24Z</time></trkpt><trkpt lat="46.41034674140508" lon="12.950662296153466"><ele>340.0</ele><time>2026-05-03T15:31:25Z</time></trkpt><trkpt lat="46.410347376659224" lon="12.950897419108669"><ele>340.0</ele><time>2026-05-03T15:31:26Z</time></trkpt><trkpt lat="46.41035324685703" lon="12.951116426614306"><ele>340.0</ele><time>2026-05-03T15:31:27Z</time></trkpt><trkpt lat="46.410372056027526" lon="12.951343430372287"><ele>340.0</ele><time>2026-05-03T15:31:28Z</time></trkpt><trkpt lat="46.41040870326982" lon="12.951594848891641"><ele>340.0</ele><time>2026-05-03T15:31:29Z</time></trkpt><trkpt lat="46.41047103823763" lon="12.951880826743725"><ele>342.3333333333333</ele><time>2026-05-03T15:31:30Z</time></trkpt><trkpt lat="46.41054701728444" lon="12.952190394516977"><ele>344.6666666666667</ele><time>2026-05-03T15:31:31Z</time></trkpt><trkpt lat="46.41061372296291" lon="12.952476836786811"><ele>347.0</ele><time>2026-05-03T15:31:32Z</time></trkpt><trkpt lat="46.41067394660764" lon="12.952737400731719"><ele>347.0</ele><time>2026-05-03T15:31:33Z</time></trkpt><trkpt lat="46.41072484675769" lon="12.952985694718596"><ele>347.0</ele><time>2026-05-03T15:31:34Z</time></trkpt><trkpt lat="46.41077338616559" lon="12.953221676834781"><ele>347.0</ele><time>2026-05-03T15:31:35Z</time></trkpt><trkpt lat="46.410807718850876" lon="12.953444336998732"><ele>346.6666666666667</ele><time>2026-05-03T15:31:36Z</time></trkpt><trkpt lat="46.410825129037015" lon="12.953662951392594"><ele>346.3333333333333</ele><time>2026-05-03T15:31:37Z</time></trkpt><trkpt lat="46.41083396000506" lon="12.953883983469096"><ele>346.0</ele><time>2026-05-03T15:31:38Z</time></trkpt><trkpt lat="46.41083638805837" lon="12.954111611504818"><ele>346.0</ele><time>2026-05-03T15:31:39Z</time></trkpt><trkpt lat="46.410836010900034" lon="12.954339619305415"><ele>346.0</ele><time>2026-05-03T15:31:40Z</time></trkpt><trkpt lat="46.4108361150356" lon="12.954578941446966"><ele>346.0</ele><time>2026-05-03T15:31:41Z</time></trkpt><trkpt lat="46.410838567006216" lon="12.95482354618173"><ele>346.0</ele><time>2026-05-03T15:31:42Z</time></trkpt><trkpt lat="46.410840552098094" lon="12.955075015969095"><ele>346.0</ele><time>2026-05-03T15:31:43Z</time></trkpt><trkpt lat="46.41084166904538" lon="12.955331296161019"><ele>346.0</ele><time>2026-05-03T15:31:44Z</time></trkpt><trkpt lat="46.41084373588736" lon="12.955593075214702"><ele>346.0</ele><time>2026-05-03T15:31:45Z</time></trkpt><trkpt lat="46.41084598578911" lon="12.955846395194143"><ele>346.0</ele><time>2026-05-03T15:31:46Z</time></trkpt><trkpt lat="46.41084479525122" lon="12.956078743216487"><ele>346.0</ele><time>2026-05-03T15:31:47Z</time></trkpt><trkpt lat="46.41084834095478" lon="12.956311019714674"><ele>343.66666666666663</ele><time>2026-05-03T15:31:48Z</time></trkpt><trkpt lat="46.41085060649869" lon="12.956556413557378"><ele>341.3333333333333</ele><time>2026-05-03T15:31:49Z</time></trkpt><trkpt lat="46.41085824114301" lon="12.956849347976396"><ele>339.0</ele><time>2026-05-03T15:31:50Z</time></trkpt><trkpt lat="46.410872574970796" lon="12.957154225765317"><ele>338.6666666666667</ele><time>2026-05-03T15:31:51Z</time></trkpt><trkpt lat="46.41088331463841" lon="12.957419310028182"><ele>338.33333333333337</ele><time>2026-05-03T15:31:52Z</time></trkpt><trkpt lat="46.4108956706259" lon="12.957667380026297"><ele>338.0</ele><time>2026-05-03T15:31:53Z</time></trkpt><trkpt lat="46.41090460141013" lon="12.95792430275462"><ele>337.6666666666667</ele><time>2026-05-03T15:31:54Z</time></trkpt><trkpt lat="46.41091527142629" lon="12.958186786972668"><ele>337.3333333333333</ele><time>2026-05-03T15:31:55Z</time></trkpt><trkpt lat="46.41092469984682" lon="12.95844976197802"><ele>337.0</ele><time>2026-05-03T15:31:56Z</time></trkpt><trkpt lat="46.410928093175464" lon="12.958714457690139"><ele>336.66666666666663</ele><time>2026-05-03T15:31:57Z</time></trkpt><trkpt lat="46.41092150087301" lon="12.9589799026144"><ele>336.3333333333333</ele><time>2026-05-03T15:31:58Z</time></trkpt><trkpt lat="46.4108945995363" lon="12.959241832398233"><ele>336.0</ele><time>2026-05-03T15:31:59Z</time></trkpt><trkpt lat="46.41085180278862" lon="12.959496417093357"><ele>335.6666666666667</ele><time>2026-05-03T15:32:00Z</time></trkpt><trkpt lat="46.410792925361086" lon="12.959754674251233"><ele>335.33333333333337</ele><time>2026-05-03T15:32:01Z</time></trkpt><trkpt lat="46.41072890933745" lon="12.960018115639441"><ele>335.0</ele><time>2026-05-03T15:32:02Z</time></trkpt><trkpt lat="46.41065267312489" lon="12.960267748831859"><ele>336.0</ele><time>2026-05-03T15:32:03Z</time></trkpt><trkpt lat="46.41058057279475" lon="12.96050587838005"><ele>337.0</ele><time>2026-05-03T15:32:04Z</time></trkpt><trkpt lat="46.410508000286036" lon="12.96076397800683"><ele>338.0</ele><time>2026-05-03T15:32:05Z</time></trkpt><trkpt lat="46.410437036687235" lon="12.961029763668858"><ele>338.0</ele><time>2026-05-03T15:32:06Z</time></trkpt><trkpt lat="46.410381437997856" lon="12.961313931948862"><ele>338.0</ele><time>2026-05-03T15:32:07Z</time></trkpt><trkpt lat="46.41035012746612" lon="12.961609861798216"><ele>338.0</ele><time>2026-05-03T15:32:08Z</time></trkpt><trkpt lat="46.41032976268879" lon="12.961906189519302"><ele>338.0</ele><time>2026-05-03T15:32:09Z</time></trkpt><trkpt lat="46.41032438240905" lon="12.962209192578536"><ele>338.0</ele><time>2026-05-03T15:32:10Z</time></trkpt><trkpt lat="46.41033133778707" lon="12.962517471955865"><ele>338.0</ele><time>2026-05-03T15:32:11Z</time></trkpt><trkpt lat="46.41034498143042" lon="12.962829621871034"><ele>337.6666666666667</ele><time>2026-05-03T15:32:12Z</time></trkpt><trkpt lat="46.41035986143662" lon="12.963149105232603"><ele>337.3333333333333</ele><time>2026-05-03T15:32:13Z</time></trkpt><trkpt lat="46.410370661059645" lon="12.963469319381202"><ele>337.0</ele><time>2026-05-03T15:32:14Z</time></trkpt><trkpt lat="46.41037550829023" lon="12.963791923478801"><ele>337.0</ele><time>2026-05-03T15:32:15Z</time></trkpt><trkpt lat="46.41037096753893" lon="12.964120797959051"><ele>337.0</ele><time>2026-05-03T15:32:16Z</time></trkpt><trkpt lat="46.410357918592254" lon="12.964444213982178"><ele>337.0</ele><time>2026-05-03T15:32:16.999Z</time></trkpt><trkpt lat="46.41033319524571" lon="12.964756407517804"><ele>337.0</ele><time>2026-05-03T15:32:17.999Z</time></trkpt><trkpt lat="46.41029674665339" lon="12.96509005533562"><ele>336.0</ele><time>2026-05-03T15:32:18.999Z</time></trkpt><trkpt lat="46.41026049836318" lon="12.965435602824426"><ele>335.0</ele><time>2026-05-03T15:32:19.999Z</time></trkpt><trkpt lat="46.410223465238815" lon="12.965789215736976"><ele>334.0</ele><time>2026-05-03T15:32:20.999Z</time></trkpt><trkpt lat="46.41017845204012" lon="12.966125352294396"><ele>333.0</ele><time>2026-05-03T15:32:21.999Z</time></trkpt><trkpt lat="46.41012375242155" lon="12.966440382567296"><ele>334.0</ele><time>2026-05-03T15:32:22.999Z</time></trkpt><trkpt lat="46.41005768317591" lon="12.96674763842097"><ele>335.0</ele><time>2026-05-03T15:32:23.999Z</time></trkpt><trkpt lat="46.409978506528006" lon="12.96705405119043"><ele>336.0</ele><time>2026-05-03T15:32:24.999Z</time></trkpt><trkpt lat="46.40989397653743" lon="12.967364275555438"><ele>340.0</ele><time>2026-05-03T15:32:25.999Z</time></trkpt><trkpt lat="46.40980178123165" lon="12.967669678131479"><ele>344.0</ele><time>2026-05-03T15:32:26.999Z</time></trkpt><trkpt lat="46.40970887544571" lon="12.96797511178125"><ele>340.0</ele><time>2026-05-03T15:32:27.999Z</time></trkpt><trkpt lat="46.40962039569039" lon="12.968268399980168"><ele>336.0</ele><time>2026-05-03T15:32:28.999Z</time></trkpt><trkpt lat="46.40953341248004" lon="12.968551444500275"><ele>332.0</ele><time>2026-05-03T15:32:29.999Z</time></trkpt><trkpt lat="46.40945214516698" lon="12.968822260436307"><ele>332.0</ele><time>2026-05-03T15:32:30.999Z</time></trkpt><trkpt lat="46.409372055122915" lon="12.969086538196894"><ele>332.0</ele><time>2026-05-03T15:32:31.999Z</time></trkpt><trkpt lat="46.40929578159399" lon="12.969340131211263"><ele>332.0</ele><time>2026-05-03T15:32:32.999Z</time></trkpt><trkpt lat="46.409218484166644" lon="12.969591496239543"><ele>333.0</ele><time>2026-05-03T15:32:33.999Z</time></trkpt><trkpt lat="46.40913332676893" lon="12.96986223563066"><ele>334.0</ele><time>2026-05-03T15:32:34.999Z</time></trkpt><trkpt lat="46.409051114776254" lon="12.97013274938741"><ele>335.0</ele><time>2026-05-03T15:32:35.999Z</time></trkpt><trkpt lat="46.40896867986332" lon="12.970402140404852"><ele>333.6666666666667</ele><time>2026-05-03T15:32:36.999Z</time></trkpt><trkpt lat="46.408884643516274" lon="12.970679955670313"><ele>332.3333333333333</ele><time>2026-05-03T15:32:37.999Z</time></trkpt><trkpt lat="46.408799131389344" lon="12.970958796458289"><ele>331.0</ele><time>2026-05-03T15:32:38.999Z</time></trkpt><trkpt lat="46.40871176690013" lon="12.971241886057285"><ele>331.0</ele><time>2026-05-03T15:32:39.999Z</time></trkpt><trkpt lat="46.408633011958464" lon="12.971512385210188"><ele>331.0</ele><time>2026-05-03T15:32:41Z</time></trkpt><trkpt lat="46.40854759452625" lon="12.971793117158699"><ele>331.0</ele><time>2026-05-03T15:32:42Z</time></trkpt><trkpt lat="46.40846656140042" lon="12.972061710854451"><ele>331.3333333333333</ele><time>2026-05-03T15:32:43Z</time></trkpt><trkpt lat="46.40839038059861" lon="12.972322769219994"><ele>331.6666666666667</ele><time>2026-05-03T15:32:44Z</time></trkpt><trkpt lat="46.40831689024351" lon="12.972577066373958"><ele>332.0</ele><time>2026-05-03T15:32:45Z</time></trkpt><trkpt lat="46.40824279461136" lon="12.972836321131842"><ele>333.33333333333337</ele><time>2026-05-03T15:32:46Z</time></trkpt><trkpt lat="46.408170180850426" lon="12.973093918176252"><ele>334.6666666666667</ele><time>2026-05-03T15:32:47Z</time></trkpt><trkpt lat="46.40810395142565" lon="12.973349585701312"><ele>336.0</ele><time>2026-05-03T15:32:48Z</time></trkpt><trkpt lat="46.40804001075805" lon="12.973593700877702"><ele>333.0</ele><time>2026-05-03T15:32:49Z</time></trkpt><trkpt lat="46.40798125270965" lon="12.973830202704693"><ele>330.0</ele><time>2026-05-03T15:32:50Z</time></trkpt><trkpt lat="46.40792102725452" lon="12.974070427611204"><ele>327.0</ele><time>2026-05-03T15:32:51Z</time></trkpt><trkpt lat="46.40786630435309" lon="12.974313385722734"><ele>327.0</ele><time>2026-05-03T15:32:52Z</time></trkpt><trkpt lat="46.40781527429152" lon="12.9745523121772"><ele>327.0</ele><time>2026-05-03T15:32:53Z</time></trkpt><trkpt lat="46.407765355972295" lon="12.974794061938239"><ele>327.0</ele><time>2026-05-03T15:32:54Z</time></trkpt><trkpt lat="46.40771769269856" lon="12.975030939725613"><ele>327.0</ele><time>2026-05-03T15:32:55Z</time></trkpt><trkpt lat="46.407673648824066" lon="12.975255236468682"><ele>327.0</ele><time>2026-05-03T15:32:56Z</time></trkpt><trkpt lat="46.407629778252954" lon="12.975472661417722"><ele>327.0</ele><time>2026-05-03T15:32:57Z</time></trkpt><trkpt lat="46.40758687635252" lon="12.975694272156497"><ele>328.0</ele><time>2026-05-03T15:32:58Z</time></trkpt><trkpt lat="46.407543614635294" lon="12.97591905233314"><ele>329.0</ele><time>2026-05-03T15:32:59Z</time></trkpt><trkpt lat="46.407501711232165" lon="12.976147826000831"><ele>330.0</ele><time>2026-05-03T15:33:00Z</time></trkpt><trkpt lat="46.4074621049697" lon="12.976378334561764"><ele>330.0</ele><time>2026-05-03T15:33:01Z</time></trkpt><trkpt lat="46.407423153862766" lon="12.97661276160391"><ele>330.0</ele><time>2026-05-03T15:33:02Z</time></trkpt><trkpt lat="46.40738476636347" lon="12.97685460865399"><ele>330.0</ele><time>2026-05-03T15:33:03Z</time></trkpt><trkpt lat="46.40734885280127" lon="12.977099932742828"><ele>330.3333333333333</ele><time>2026-05-03T15:33:04Z</time></trkpt><trkpt lat="46.40731500656834" lon="12.977349830145707"><ele>330.66666666666663</ele><time>2026-05-03T15:33:05Z</time></trkpt><trkpt lat="46.407285906598744" lon="12.977610697270261"><ele>331.0</ele><time>2026-05-03T15:33:06Z</time></trkpt><trkpt lat="46.40726088439995" lon="12.977881765249107"><ele>331.3333333333333</ele><time>2026-05-03T15:33:07Z</time></trkpt><trkpt lat="46.40723305539781" lon="12.978160796653855"><ele>331.6666666666667</ele><time>2026-05-03T15:33:08Z</time></trkpt><trkpt lat="46.40720177484446" lon="12.978435116641595"><ele>332.0</ele><time>2026-05-03T15:33:09Z</time></trkpt><trkpt lat="46.40716974182831" lon="12.978708300862499"><ele>331.0</ele><time>2026-05-03T15:33:10Z</time></trkpt><trkpt lat="46.40713831792848" lon="12.978980265542424"><ele>330.0</ele><time>2026-05-03T15:33:11Z</time></trkpt><trkpt lat="46.40710934182864" lon="12.979252070188592"><ele>329.0</ele><time>2026-05-03T15:33:12Z</time></trkpt><trkpt lat="46.40708230272412" lon="12.979523062843764"><ele>328.6666666666667</ele><time>2026-05-03T15:33:13Z</time></trkpt><trkpt lat="46.407054669422195" lon="12.979796772035229"><ele>328.3333333333333</ele><time>2026-05-03T15:33:14Z</time></trkpt><trkpt lat="46.40702846308124" lon="12.9800757187933"><ele>328.0</ele><time>2026-05-03T15:33:15Z</time></trkpt><trkpt lat="46.407004343079976" lon="12.980354216050147"><ele>327.3333333333333</ele><time>2026-05-03T15:33:16Z</time></trkpt><trkpt lat="46.40697917367613" lon="12.980630119861504"><ele>326.6666666666667</ele><time>2026-05-03T15:33:17Z</time></trkpt><trkpt lat="46.40695371494922" lon="12.980905955066865"><ele>326.0</ele><time>2026-05-03T15:33:18Z</time></trkpt><trkpt lat="46.406926048145095" lon="12.98117779932386"><ele>326.33333333333337</ele><time>2026-05-03T15:33:19Z</time></trkpt><trkpt lat="46.40689828016737" lon="12.98144703294348"><ele>326.6666666666667</ele><time>2026-05-03T15:33:20Z</time></trkpt><trkpt lat="46.406872079758905" lon="12.981721750526496"><ele>327.0</ele><time>2026-05-03T15:33:21Z</time></trkpt><trkpt lat="46.4068475091016" lon="12.981998939641857"><ele>327.0</ele><time>2026-05-03T15:33:22Z</time></trkpt><trkpt lat="46.406822213668924" lon="12.982279821767078"><ele>327.0</ele><time>2026-05-03T15:33:23Z</time></trkpt><trkpt lat="46.40679303426398" lon="12.98256135716373"><ele>327.0</ele><time>2026-05-03T15:33:24Z</time></trkpt><trkpt lat="46.40676561670961" lon="12.982846511281231"><ele>327.3333333333333</ele><time>2026-05-03T15:33:25Z</time></trkpt><trkpt lat="46.406742854155944" lon="12.983131233960194"><ele>327.66666666666663</ele><time>2026-05-03T15:33:26Z</time></trkpt><trkpt lat="46.40672204610988" lon="12.98341490022191"><ele>328.0</ele><time>2026-05-03T15:33:27Z</time></trkpt><trkpt lat="46.40670034868708" lon="12.983697776271091"><ele>328.0</ele><time>2026-05-03T15:33:28Z</time></trkpt><trkpt lat="46.40667314722755" lon="12.983978368594755"><ele>328.0</ele><time>2026-05-03T15:33:29Z</time></trkpt><trkpt lat="46.40664569168801" lon="12.98425889615147"><ele>328.0</ele><time>2026-05-03T15:33:30Z</time></trkpt><trkpt lat="46.40661653963583" lon="12.98453857447047"><ele>328.66666666666663</ele><time>2026-05-03T15:33:31Z</time></trkpt><trkpt lat="46.40658559482003" lon="12.984816685891278"><ele>329.3333333333333</ele><time>2026-05-03T15:33:32Z</time></trkpt><trkpt lat="46.40655653806407" lon="12.985094863760049"><ele>330.0</ele><time>2026-05-03T15:33:33Z</time></trkpt><trkpt lat="46.406522436254825" lon="12.985369406948431"><ele>331.3333333333333</ele><time>2026-05-03T15:33:34Z</time></trkpt><trkpt lat="46.40648923277686" lon="12.985643425771734"><ele>332.66666666666663</ele><time>2026-05-03T15:33:35Z</time></trkpt><trkpt lat="46.40645205166135" lon="12.985916028871724"><ele>334.0</ele><time>2026-05-03T15:33:36Z</time></trkpt><trkpt lat="46.40641141072241" lon="12.986185835087124"><ele>334.0</ele><time>2026-05-03T15:33:37Z</time></trkpt><trkpt lat="46.40637098595041" lon="12.98645422397186"><ele>334.0</ele><time>2026-05-03T15:33:38Z</time></trkpt><trkpt lat="46.40632452329003" lon="12.98671869672897"><ele>334.0</ele><time>2026-05-03T15:33:39Z</time></trkpt><trkpt lat="46.406278255438146" lon="12.986981293977008"><ele>330.3333333333333</ele><time>2026-05-03T15:33:40Z</time></trkpt><trkpt lat="46.40622866669904" lon="12.987243604176987"><ele>326.6666666666667</ele><time>2026-05-03T15:33:41Z</time></trkpt><trkpt lat="46.40617814030589" lon="12.987516306992918"><ele>323.0</ele><time>2026-05-03T15:33:42Z</time></trkpt><trkpt lat="46.40613079374367" lon="12.987802770960672"><ele>323.0</ele><time>2026-05-03T15:33:43Z</time></trkpt><trkpt lat="46.406075258764375" lon="12.988081964770293"><ele>323.0</ele><time>2026-05-03T15:33:44Z</time></trkpt><trkpt lat="46.40600637577091" lon="12.988379058936804"><ele>323.0</ele><time>2026-05-03T15:33:45Z</time></trkpt><trkpt lat="46.40594438587634" lon="12.988651541127478"><ele>322.33333333333337</ele><time>2026-05-03T15:33:46Z</time></trkpt><trkpt lat="46.405881619957825" lon="12.98891370251379"><ele>321.6666666666667</ele><time>2026-05-03T15:33:47Z</time></trkpt><trkpt lat="46.405820122927395" lon="12.989176439938078"><ele>321.0</ele><time>2026-05-03T15:33:48Z</time></trkpt><trkpt lat="46.405761909539756" lon="12.989424897010013"><ele>320.3333333333333</ele><time>2026-05-03T15:33:49Z</time></trkpt><trkpt lat="46.40570123264097" lon="12.989662507675353"><ele>319.66666666666663</ele><time>2026-05-03T15:33:50Z</time></trkpt><trkpt lat="46.405644893578945" lon="12.98989001698851"><ele>319.0</ele><time>2026-05-03T15:33:51Z</time></trkpt><trkpt lat="46.4055835388195" lon="12.99011808591472"><ele>318.66666666666663</ele><time>2026-05-03T15:33:52Z</time></trkpt><trkpt lat="46.40552278876404" lon="12.99033881415011"><ele>318.3333333333333</ele><time>2026-05-03T15:33:53Z</time></trkpt><trkpt lat="46.40545930494015" lon="12.990566695618131"><ele>318.0</ele><time>2026-05-03T15:33:54Z</time></trkpt><trkpt lat="46.40539182502058" lon="12.990796380244543"><ele>318.3333333333333</ele><time>2026-05-03T15:33:55Z</time></trkpt><trkpt lat="46.40532378806219" lon="12.991026181268875"><ele>318.66666666666663</ele><time>2026-05-03T15:33:56Z</time></trkpt><trkpt lat="46.40525177890757" lon="12.991253976855653"><ele>319.0</ele><time>2026-05-03T15:33:57Z</time></trkpt><trkpt lat="46.4051808615953" lon="12.991482410460865"><ele>318.66666666666663</ele><time>2026-05-03T15:33:58Z</time></trkpt><trkpt lat="46.40510802485392" lon="12.991713219358074"><ele>318.3333333333333</ele><time>2026-05-03T15:33:59Z</time></trkpt><trkpt lat="46.40503104439483" lon="12.991949437038077"><ele>318.0</ele><time>2026-05-03T15:34:00Z</time></trkpt><trkpt lat="46.40495322145253" lon="12.992181930603403"><ele>318.0</ele><time>2026-05-03T15:34:01Z</time></trkpt><trkpt lat="46.40487974041284" lon="12.992400136076355"><ele>318.0</ele><time>2026-05-03T15:34:02Z</time></trkpt><trkpt lat="46.40480525649611" lon="12.992615405923129"><ele>318.0</ele><time>2026-05-03T15:34:03Z</time></trkpt><trkpt lat="46.40473059831746" lon="12.992833013693977"><ele>318.0</ele><time>2026-05-03T15:34:04Z</time></trkpt><trkpt lat="46.404652799091785" lon="12.993050695722483"><ele>318.0</ele><time>2026-05-03T15:34:05Z</time></trkpt><trkpt lat="46.404568366216054" lon="12.99326396151458"><ele>318.0</ele><time>2026-05-03T15:34:06Z</time></trkpt><trkpt lat="46.40448137946725" lon="12.993477658781227"><ele>318.3333333333333</ele><time>2026-05-03T15:34:07Z</time></trkpt><trkpt lat="46.40439579477665" lon="12.993684764859566"><ele>318.66666666666663</ele><time>2026-05-03T15:34:08Z</time></trkpt><trkpt lat="46.404310437651766" lon="12.993879073437329"><ele>319.0</ele><time>2026-05-03T15:34:09Z</time></trkpt><trkpt lat="46.4042318457294" lon="12.994096509805614"><ele>319.0</ele><time>2026-05-03T15:34:10Z</time></trkpt><trkpt lat="46.40413074754778" lon="12.9942968955985"><ele>319.0</ele><time>2026-05-03T15:34:11Z</time></trkpt><trkpt lat="46.40404043493511" lon="12.994520404250736"><ele>319.0</ele><time>2026-05-03T15:34:12.001Z</time></trkpt><trkpt lat="46.40394399014314" lon="12.994730576039276"><ele>319.0</ele><time>2026-05-03T15:34:13.001Z</time></trkpt><trkpt lat="46.403836250865005" lon="12.994931845234863"><ele>319.0</ele><time>2026-05-03T15:34:14.001Z</time></trkpt><trkpt lat="46.40375919385883" lon="12.99515131866652"><ele>319.0</ele><time>2026-05-03T15:34:15.001Z</time></trkpt><trkpt lat="46.403649131613925" lon="12.995333071532325"><ele>319.0</ele><time>2026-05-03T15:34:16.001Z</time></trkpt><trkpt lat="46.40355288688103" lon="12.995537753641283"><ele>319.0</ele><time>2026-05-03T15:34:17.001Z</time></trkpt><trkpt lat="46.403458699417975" lon="12.995747789931476"><ele>319.0</ele><time>2026-05-03T15:34:18.001Z</time></trkpt><trkpt lat="46.40334792318285" lon="12.995944575312977"><ele>319.3333333333333</ele><time>2026-05-03T15:34:19.001Z</time></trkpt><trkpt lat="46.40324866830216" lon="12.99616323748679"><ele>319.6666666666667</ele><time>2026-05-03T15:34:20.001Z</time></trkpt><trkpt lat="46.40314280855679" lon="12.996362140629113"><ele>320.0</ele><time>2026-05-03T15:34:21.001Z</time></trkpt><trkpt lat="46.40303512018557" lon="12.996559542889674"><ele>320.33333333333337</ele><time>2026-05-03T15:34:22.001Z</time></trkpt><trkpt lat="46.40292963977918" lon="12.99676925149068"><ele>320.6666666666667</ele><time>2026-05-03T15:34:22.999Z</time></trkpt><trkpt lat="46.40282463448058" lon="12.99697450379218"><ele>321.0</ele><time>2026-05-03T15:34:23.999Z</time></trkpt><trkpt lat="46.40272375279501" lon="12.997175422721638"><ele>321.0</ele><time>2026-05-03T15:34:24.999Z</time></trkpt><trkpt lat="46.402629273905234" lon="12.997376195270107"><ele>321.0</ele><time>2026-05-03T15:34:25.999Z</time></trkpt><trkpt lat="46.402539662280475" lon="12.997579183039397"><ele>321.0</ele><time>2026-05-03T15:34:26.999Z</time></trkpt><trkpt lat="46.402455428100204" lon="12.997785998843161"><ele>320.6666666666667</ele><time>2026-05-03T15:34:27.999Z</time></trkpt><trkpt lat="46.402379405767014" lon="12.998010827402178"><ele>320.33333333333337</ele><time>2026-05-03T15:34:28.999Z</time></trkpt><trkpt lat="46.402306500176394" lon="12.998254360488884"><ele>320.0</ele><time>2026-05-03T15:34:29.999Z</time></trkpt><trkpt lat="46.40223375596979" lon="12.998495035120023"><ele>319.6666666666667</ele><time>2026-05-03T15:34:30.999Z</time></trkpt><trkpt lat="46.40216000268972" lon="12.99871947087847"><ele>319.3333333333333</ele><time>2026-05-03T15:34:31.999Z</time></trkpt><trkpt lat="46.40210461288294" lon="12.99895744559732"><ele>319.0</ele><time>2026-05-03T15:34:32.999Z</time></trkpt><trkpt lat="46.402050836658105" lon="12.999185623734556"><ele>318.3333333333333</ele><time>2026-05-03T15:34:33.999Z</time></trkpt><trkpt lat="46.401980630439375" lon="12.999405658172842"><ele>317.6666666666667</ele><time>2026-05-03T15:34:34.999Z</time></trkpt><trkpt lat="46.40194118177004" lon="12.999645311849733"><ele>317.0</ele><time>2026-05-03T15:34:36Z</time></trkpt><trkpt lat="46.40187639918964" lon="12.99987936552716"><ele>317.0</ele><time>2026-05-03T15:34:37Z</time></trkpt><trkpt lat="46.40182062764607" lon="13.000120824707126"><ele>317.0</ele><time>2026-05-03T15:34:38Z</time></trkpt><trkpt lat="46.401777378357146" lon="13.000359565412078"><ele>317.0</ele><time>2026-05-03T15:34:39Z</time></trkpt><trkpt lat="46.401712826185225" lon="13.000580341542214"><ele>317.0</ele><time>2026-05-03T15:34:40Z</time></trkpt><trkpt lat="46.40167590440727" lon="13.000802705280648"><ele>317.0</ele><time>2026-05-03T15:34:41Z</time></trkpt><trkpt lat="46.40161882645816" lon="13.001006628360626"><ele>317.0</ele><time>2026-05-03T15:34:42Z</time></trkpt><trkpt lat="46.40158828600652" lon="13.00121019231046"><ele>317.0</ele><time>2026-05-03T15:34:43Z</time></trkpt><trkpt lat="46.401532215519914" lon="13.001389698576011"><ele>317.0</ele><time>2026-05-03T15:34:44Z</time></trkpt><trkpt lat="46.4015022951801" lon="13.00157818480912"><ele>317.0</ele><time>2026-05-03T15:34:45Z</time></trkpt><trkpt lat="46.40145054983455" lon="13.001748535316274"><ele>317.0</ele><time>2026-05-03T15:34:46Z</time></trkpt><trkpt lat="46.40141744540119" lon="13.00190564771794"><ele>317.0</ele><time>2026-05-03T15:34:47Z</time></trkpt><trkpt lat="46.40138799814506" lon="13.002028417121133"><ele>317.0</ele><time>2026-05-03T15:34:48Z</time></trkpt><trkpt lat="46.40135780541691" lon="13.002145830935925"><ele>317.0</ele><time>2026-05-03T15:34:49Z</time></trkpt><trkpt lat="46.40132925214354" lon="13.00227823781228"><ele>317.0</ele><time>2026-05-03T15:34:50Z</time></trkpt><trkpt lat="46.40127609948062" lon="13.002380232932918"><ele>317.0</ele><time>2026-05-03T15:34:51Z</time></trkpt><trkpt lat="46.40122551636673" lon="13.002471132267512"><ele>317.0</ele><time>2026-05-03T15:34:52Z</time></trkpt><trkpt lat="46.40117839456346" lon="13.002550213076436"><ele>317.33333333333337</ele><time>2026-05-03T15:34:53Z</time></trkpt><trkpt lat="46.401087619904175" lon="13.002628100938036"><ele>317.6666666666667</ele><time>2026-05-03T15:34:55Z</time></trkpt><trkpt lat="46.40102060236907" lon="13.002673790258928"><ele>318.0</ele><time>2026-05-03T15:34:57Z</time></trkpt><trkpt lat="46.400929641393056" lon="13.002677643400377"><ele>318.3333333333333</ele><time>2026-05-03T15:34:59Z</time></trkpt><trkpt lat="46.4008619841003" lon="13.00270868167365"><ele>318.66666666666663</ele><time>2026-05-03T15:35:00Z</time></trkpt><trkpt lat="46.40076714183378" lon="13.00272574200849"><ele>319.0</ele><time>2026-05-03T15:35:01Z</time></trkpt><trkpt lat="46.40064894183739" lon="13.002675159983298"><ele>319.0</ele><time>2026-05-03T15:35:02Z</time></trkpt><trkpt lat="46.400532177938864" lon="13.002658118176084"><ele>319.0</ele><time>2026-05-03T15:35:03Z</time></trkpt><trkpt lat="46.40043019283185" lon="13.0026413103296"><ele>319.0</ele><time>2026-05-03T15:35:04Z</time></trkpt><trkpt lat="46.40032757450513" lon="13.002663298672614"><ele>319.0</ele><time>2026-05-03T15:35:05Z</time></trkpt><trkpt lat="46.40021976793905" lon="13.002682958086416"><ele>319.0</ele><time>2026-05-03T15:35:06Z</time></trkpt><trkpt lat="46.40010598531091" lon="13.00270482981072"><ele>319.0</ele><time>2026-05-03T15:35:07Z</time></trkpt><trkpt lat="46.40001840363375" lon="13.00279999681907"><ele>319.0</ele><time>2026-05-03T15:35:08Z</time></trkpt><trkpt lat="46.399948950929584" lon="13.002923230910394"><ele>319.0</ele><time>2026-05-03T15:35:09Z</time></trkpt><trkpt lat="46.39990462105317" lon="13.003073697767512"><ele>319.0</ele><time>2026-05-03T15:35:10Z</time></trkpt><trkpt lat="46.399881818319365" lon="13.003231523627376"><ele>319.0</ele><time>2026-05-03T15:35:11Z</time></trkpt><trkpt lat="46.39988439396073" lon="13.003382513588777"><ele>319.0</ele><time>2026-05-03T15:35:12Z</time></trkpt><trkpt lat="46.39991727579911" lon="13.003522833108594"><ele>319.0</ele><time>2026-05-03T15:35:13Z</time></trkpt><trkpt lat="46.39997383812479" lon="13.00365050773477"><ele>319.0</ele><time>2026-05-03T15:35:14Z</time></trkpt><trkpt lat="46.400050030548925" lon="13.003759097222495"><ele>319.0</ele><time>2026-05-03T15:35:15Z</time></trkpt><trkpt lat="46.40014693525324" lon="13.00384978308711"><ele>319.0</ele><time>2026-05-03T15:35:16Z</time></trkpt><trkpt lat="46.400264772250516" lon="13.003923587708453"><ele>319.0</ele><time>2026-05-03T15:35:17Z</time></trkpt><trkpt lat="46.40039214408272" lon="13.003978980795608"><ele>319.0</ele><time>2026-05-03T15:35:18Z</time></trkpt><trkpt lat="46.400523969170415" lon="13.004020645272982"><ele>319.0</ele><time>2026-05-03T15:35:19Z</time></trkpt><trkpt lat="46.40064671338911" lon="13.004062863060579"><ele>319.0</ele><time>2026-05-03T15:35:20Z</time></trkpt><trkpt lat="46.40075611248777" lon="13.004103845742014"><ele>319.16666666666663</ele><time>2026-05-03T15:35:21Z</time></trkpt><trkpt lat="46.40085069490693" lon="13.004131965808778"><ele>319.3333333333333</ele><time>2026-05-03T15:35:22Z</time></trkpt><trkpt lat="46.40092856619176" lon="13.004161355010572"><ele>319.5</ele><time>2026-05-03T15:35:23Z</time></trkpt><trkpt lat="46.40099885325157" lon="13.004215209720796"><ele>319.6666666666667</ele><time>2026-05-03T15:35:24Z</time></trkpt><trkpt lat="46.40105591294855" lon="13.004292725329904"><ele>319.83333333333337</ele><time>2026-05-03T15:35:25Z</time></trkpt><trkpt lat="46.40110297740951" lon="13.004392767093208"><ele>320.0</ele><time>2026-05-03T15:35:26Z</time></trkpt><trkpt lat="46.401138880276214" lon="13.00450727352177"><ele>319.4</ele><time>2026-05-03T15:35:27Z</time></trkpt><trkpt lat="46.40118959579226" lon="13.004615945819564"><ele>318.8</ele><time>2026-05-03T15:35:28Z</time></trkpt><trkpt lat="46.401175515463095" lon="13.004787277417579"><ele>318.2</ele><time>2026-05-03T15:35:29Z</time></trkpt><trkpt lat="46.4011926776191" lon="13.004930997473249"><ele>317.6</ele><time>2026-05-03T15:35:30Z</time></trkpt><trkpt lat="46.40121022103415" lon="13.005077076322657"><ele>317.0</ele><time>2026-05-03T15:35:31Z</time></trkpt><trkpt lat="46.401220805191755" lon="13.005204139035497"><ele>316.5</ele><time>2026-05-03T15:35:32Z</time></trkpt><trkpt lat="46.40122349140336" lon="13.005302890047064"><ele>316.0</ele><time>2026-05-03T15:35:34Z</time></trkpt><trkpt lat="46.40121907470417" lon="13.005416573999534"><ele>315.5</ele><time>2026-05-03T15:35:36Z</time></trkpt><trkpt lat="46.40119884245619" lon="13.005506704797538"><ele>315.0</ele><time>2026-05-03T15:35:37Z</time></trkpt><trkpt lat="46.40114811274317" lon="13.005602755003572"><ele>314.5</ele><time>2026-05-03T15:35:38Z</time></trkpt><trkpt lat="46.401069269432035" lon="13.00568326630101"><ele>314.0</ele><time>2026-05-03T15:35:39Z</time></trkpt><trkpt lat="46.4009705544696" lon="13.005766048757138"><ele>314.0</ele><time>2026-05-03T15:35:40.001Z</time></trkpt><trkpt lat="46.40084198281087" lon="13.005788876325191"><ele>314.0</ele><time>2026-05-03T15:35:41.001Z</time></trkpt><trkpt lat="46.40072854990984" lon="13.005842940575404"><ele>314.0</ele><time>2026-05-03T15:35:42.001Z</time></trkpt><trkpt lat="46.4006031676951" lon="13.00593224362507"><ele>314.0</ele><time>2026-05-03T15:35:43.001Z</time></trkpt><trkpt lat="46.400464926156246" lon="13.00605017322076"><ele>313.6666666666667</ele><time>2026-05-03T15:35:44.001Z</time></trkpt><trkpt lat="46.40034378213397" lon="13.006159837668852"><ele>313.3333333333333</ele><time>2026-05-03T15:35:45.001Z</time></trkpt><trkpt lat="46.400213697502906" lon="13.006279041776624"><ele>313.0</ele><time>2026-05-03T15:35:46.001Z</time></trkpt><trkpt lat="46.40007583067734" lon="13.00640200027645"><ele>313.0</ele><time>2026-05-03T15:35:47.001Z</time></trkpt><trkpt lat="46.399938909929865" lon="13.006534675539353"><ele>313.0</ele><time>2026-05-03T15:35:48.001Z</time></trkpt><trkpt lat="46.39978457455597" lon="13.00664388667108"><ele>313.0</ele><time>2026-05-03T15:35:49.001Z</time></trkpt><trkpt lat="46.399636792835075" lon="13.00679539597188"><ele>313.0</ele><time>2026-05-03T15:35:50.001Z</time></trkpt><trkpt lat="46.399471344788445" lon="13.006926961003993"><ele>313.0</ele><time>2026-05-03T15:35:51.001Z</time></trkpt><trkpt lat="46.39932266347113" lon="13.007069188794837"><ele>313.0</ele><time>2026-05-03T15:35:52.001Z</time></trkpt><trkpt lat="46.399178112144256" lon="13.007195406534988"><ele>313.0</ele><time>2026-05-03T15:35:53.001Z</time></trkpt><trkpt lat="46.39904374084394" lon="13.007323809563868"><ele>313.0</ele><time>2026-05-03T15:35:54.001Z</time></trkpt><trkpt lat="46.398911080496646" lon="13.007445941437084"><ele>313.0</ele><time>2026-05-03T15:35:55.001Z</time></trkpt><trkpt lat="46.39878000242355" lon="13.007565722884847"><ele>312.66666666666663</ele><time>2026-05-03T15:35:56.001Z</time></trkpt><trkpt lat="46.39864545168686" lon="13.007681948877538"><ele>312.3333333333333</ele><time>2026-05-03T15:35:57.001Z</time></trkpt><trkpt lat="46.39851258014382" lon="13.007806256710651"><ele>312.0</ele><time>2026-05-03T15:35:58.001Z</time></trkpt><trkpt lat="46.398374531667955" lon="13.007926380527154"><ele>312.0</ele><time>2026-05-03T15:35:59.001Z</time></trkpt><trkpt lat="46.398235243200006" lon="13.008041105861263"><ele>312.0</ele><time>2026-05-03T15:36:00.001Z</time></trkpt><trkpt lat="46.398100499240314" lon="13.00816614460074"><ele>312.0</ele><time>2026-05-03T15:36:01.001Z</time></trkpt><trkpt lat="46.397962502942946" lon="13.008288133038793"><ele>311.3333333333333</ele><time>2026-05-03T15:36:02.001Z</time></trkpt><trkpt lat="46.39782444570742" lon="13.008406068456482"><ele>310.66666666666663</ele><time>2026-05-03T15:36:03.001Z</time></trkpt><trkpt lat="46.39768966801974" lon="13.008524319829386"><ele>310.0</ele><time>2026-05-03T15:36:04.001Z</time></trkpt><trkpt lat="46.397555752386765" lon="13.008639732478539"><ele>310.0</ele><time>2026-05-03T15:36:05.001Z</time></trkpt><trkpt lat="46.397422265499614" lon="13.008754513511162"><ele>310.0</ele><time>2026-05-03T15:36:06.001Z</time></trkpt><trkpt lat="46.39729382532843" lon="13.008867563986362"><ele>310.0</ele><time>2026-05-03T15:36:07.001Z</time></trkpt><trkpt lat="46.397171490801135" lon="13.008972516822295"><ele>310.0</ele><time>2026-05-03T15:36:08.001Z</time></trkpt><trkpt lat="46.39705522471794" lon="13.00907459021017"><ele>309.6</ele><time>2026-05-03T15:36:09.001Z</time></trkpt><trkpt lat="46.396950248558824" lon="13.00916714732222"><ele>309.2</ele><time>2026-05-03T15:36:10.001Z</time></trkpt><trkpt lat="46.396855197582866" lon="13.00925448173986"><ele>308.8</ele><time>2026-05-03T15:36:11.001Z</time></trkpt><trkpt lat="46.39677554000768" lon="13.00932648260614"><ele>308.4</ele><time>2026-05-03T15:36:12.001Z</time></trkpt><trkpt lat="46.39669826213512" lon="13.009395482176876"><ele>308.0</ele><time>2026-05-03T15:36:13.001Z</time></trkpt><trkpt lat="46.396620214689264" lon="13.009463647018881"><ele>308.0</ele><time>2026-05-03T15:36:14.001Z</time></trkpt><trkpt lat="46.396542871613214" lon="13.009535955418809"><ele>308.0</ele><time>2026-05-03T15:36:15.001Z</time></trkpt><trkpt lat="46.39645896269216" lon="13.009621438466214"><ele>308.0</ele><time>2026-05-03T15:36:16.001Z</time></trkpt><trkpt lat="46.39637463181183" lon="13.009683895483331"><ele>308.0</ele><time>2026-05-03T15:36:17.001Z</time></trkpt><trkpt lat="46.39629480578804" lon="13.009765645069086"><ele>308.0</ele><time>2026-05-03T15:36:18.001Z</time></trkpt><trkpt lat="46.396212685896664" lon="13.009819845145113"><ele>308.0</ele><time>2026-05-03T15:36:19.001Z</time></trkpt><trkpt lat="46.39612752968081" lon="13.009897250894412"><ele>308.0</ele><time>2026-05-03T15:36:20.001Z</time></trkpt><trkpt lat="46.39604500399159" lon="13.009982711708789"><ele>308.0</ele><time>2026-05-03T15:36:21.001Z</time></trkpt><trkpt lat="46.39594952967338" lon="13.010051248413609"><ele>308.0</ele><time>2026-05-03T15:36:22.001Z</time></trkpt><trkpt lat="46.39585503229576" lon="13.010136355279249"><ele>308.0</ele><time>2026-05-03T15:36:23.001Z</time></trkpt><trkpt lat="46.395763760085465" lon="13.010235080412059"><ele>308.0</ele><time>2026-05-03T15:36:24.001Z</time></trkpt><trkpt lat="46.395678295326235" lon="13.010334901768024"><ele>308.0</ele><time>2026-05-03T15:36:25.001Z</time></trkpt><trkpt lat="46.39560306849391" lon="13.010433945447119"><ele>308.0</ele><time>2026-05-03T15:36:26.001Z</time></trkpt><trkpt lat="46.39551332115579" lon="13.01054359757639"><ele>308.0</ele><time>2026-05-03T15:36:27.001Z</time></trkpt><trkpt lat="46.39541655748787" lon="13.01067274083699"><ele>308.0</ele><time>2026-05-03T15:36:28.001Z</time></trkpt><trkpt lat="46.39531723585089" lon="13.010816848298058"><ele>308.0</ele><time>2026-05-03T15:36:29Z</time></trkpt><trkpt lat="46.39522556132936" lon="13.010987858477145"><ele>308.0</ele><time>2026-05-03T15:36:30Z</time></trkpt><trkpt lat="46.39511428077057" lon="13.011172419732478"><ele>308.0</ele><time>2026-05-03T15:36:31Z</time></trkpt><trkpt lat="46.39500943522748" lon="13.011393188745835"><ele>308.0</ele><time>2026-05-03T15:36:32Z</time></trkpt><trkpt lat="46.39488168473604" lon="13.011612977706726"><ele>308.0</ele><time>2026-05-03T15:36:33Z</time></trkpt><trkpt lat="46.394762415096096" lon="13.011869775691562"><ele>306.0</ele><time>2026-05-03T15:36:34Z</time></trkpt><trkpt lat="46.394619946172945" lon="13.012134373760562"><ele>304.0</ele><time>2026-05-03T15:36:35Z</time></trkpt><trkpt lat="46.39446554625421" lon="13.012427074648134"><ele>304.5</ele><time>2026-05-03T15:36:36Z</time></trkpt><trkpt lat="46.39429930402285" lon="13.01274567786061"><ele>305.0</ele><time>2026-05-03T15:36:37Z</time></trkpt><trkpt lat="46.39412995124305" lon="13.013072923544414"><ele>305.0</ele><time>2026-05-03T15:36:38Z</time></trkpt><trkpt lat="46.393980774465426" lon="13.013360005268463"><ele>305.0</ele><time>2026-05-03T15:36:39Z</time></trkpt><trkpt lat="46.39384209313868" lon="13.013610457334185"><ele>305.6666666666667</ele><time>2026-05-03T15:36:40Z</time></trkpt><trkpt lat="46.3937281088148" lon="13.013829616389224"><ele>306.3333333333333</ele><time>2026-05-03T15:36:41Z</time></trkpt><trkpt lat="46.39361448527451" lon="13.014050805938098"><ele>307.0</ele><time>2026-05-03T15:36:42Z</time></trkpt><trkpt lat="46.39348194568603" lon="13.014253940551317"><ele>307.0</ele><time>2026-05-03T15:36:43Z</time></trkpt><trkpt lat="46.3933259589241" lon="13.014409273665159"><ele>307.0</ele><time>2026-05-03T15:36:44Z</time></trkpt><trkpt lat="46.39315435121028" lon="13.014521376329991"><ele>307.0</ele><time>2026-05-03T15:36:45Z</time></trkpt><trkpt lat="46.39297011363538" lon="13.014586853373034"><ele>306.0</ele><time>2026-05-03T15:36:46Z</time></trkpt><trkpt lat="46.392768215814854" lon="13.014577380262882"><ele>305.0</ele><time>2026-05-03T15:36:47Z</time></trkpt><trkpt lat="46.392556904517804" lon="13.014512090508928"><ele>304.0</ele><time>2026-05-03T15:36:48Z</time></trkpt><trkpt lat="46.392329132311936" lon="13.014401708474045"><ele>302.5</ele><time>2026-05-03T15:36:49Z</time></trkpt><trkpt lat="46.392088948326574" lon="13.014292008810417"><ele>301.0</ele><time>2026-05-03T15:36:50Z</time></trkpt><trkpt lat="46.39189041850041" lon="13.014152406626517"><ele>299.5</ele><time>2026-05-03T15:36:51Z</time></trkpt><trkpt lat="46.39166899390278" lon="13.013970995133803"><ele>298.0</ele><time>2026-05-03T15:36:52Z</time></trkpt><trkpt lat="46.39142200494986" lon="13.013732524475747"><ele>298.0</ele><time>2026-05-03T15:36:53Z</time></trkpt><trkpt lat="46.39115550561684" lon="13.013487260871258"><ele>298.0</ele><time>2026-05-03T15:36:54Z</time></trkpt><trkpt lat="46.39085466990699" lon="13.013209689821817"><ele>298.0</ele><time>2026-05-03T15:36:55Z</time></trkpt><trkpt lat="46.39053248019872" lon="13.012924757147795"><ele>298.0</ele><time>2026-05-03T15:36:56Z</time></trkpt><trkpt lat="46.390193084484885" lon="13.012626444717663"><ele>298.0</ele><time>2026-05-03T15:36:57Z</time></trkpt><trkpt lat="46.38986408695748" lon="13.012320046037077"><ele>298.0</ele><time>2026-05-03T15:36:58Z</time></trkpt><trkpt lat="46.38958127170787" lon="13.012063558938182"><ele>298.0</ele><time>2026-05-03T15:36:59Z</time></trkpt><trkpt lat="46.38933225168346" lon="13.011840947311915"><ele>298.0</ele><time>2026-05-03T15:37:00Z</time></trkpt><trkpt lat="46.389112966829664" lon="13.011652842845889"><ele>300.0</ele><time>2026-05-03T15:37:01Z</time></trkpt><trkpt lat="46.38894290414724" lon="13.011504855911411"><ele>302.0</ele><time>2026-05-03T15:37:02Z</time></trkpt><trkpt lat="46.38881988174425" lon="13.011388438097358"><ele>304.0</ele><time>2026-05-03T15:37:03Z</time></trkpt><trkpt lat="46.388718658686386" lon="13.01130415658892"><ele>304.2</ele><time>2026-05-03T15:37:04Z</time></trkpt><trkpt lat="46.38865034009081" lon="13.011206536460069"><ele>304.4</ele><time>2026-05-03T15:37:05Z</time></trkpt><trkpt lat="46.38861167283327" lon="13.01106852010251"><ele>304.6</ele><time>2026-05-03T15:37:06Z</time></trkpt><trkpt lat="46.38859437371102" lon="13.010927186547793"><ele>304.8</ele><time>2026-05-03T15:37:07Z</time></trkpt><trkpt lat="46.38857594664645" lon="13.010806660057094"><ele>305.0</ele><time>2026-05-03T15:37:08.001Z</time></trkpt><trkpt lat="46.38850883340077" lon="13.010719742131803"><ele>305.0</ele><time>2026-05-03T15:37:09.001Z</time></trkpt><trkpt lat="46.388418567365534" lon="13.010688843504909"><ele>305.0</ele><time>2026-05-03T15:37:10.001Z</time></trkpt><trkpt lat="46.38833493620252" lon="13.010743264203153"><ele>305.0</ele><time>2026-05-03T15:37:11Z</time></trkpt><trkpt lat="46.38827139762251" lon="13.010869958594482"><ele>305.0</ele><time>2026-05-03T15:37:12Z</time></trkpt><trkpt lat="46.38822947246717" lon="13.011026507883106"><ele>305.0</ele><time>2026-05-03T15:37:13Z</time></trkpt><trkpt lat="46.388146170026744" lon="13.011168124418809"><ele>305.0</ele><time>2026-05-03T15:37:14Z</time></trkpt><trkpt lat="46.388016851737135" lon="13.0112577674843"><ele>305.0</ele><time>2026-05-03T15:37:15Z</time></trkpt><trkpt lat="46.38784672931423" lon="13.011332927706754"><ele>305.0</ele><time>2026-05-03T15:37:16Z</time></trkpt><trkpt lat="46.38764662685943" lon="13.011403517009661"><ele>306.0</ele><time>2026-05-03T15:37:17Z</time></trkpt><trkpt lat="46.387434718589226" lon="13.011446804070886"><ele>307.0</ele><time>2026-05-03T15:37:18Z</time></trkpt><trkpt lat="46.38720685602973" lon="13.011499204671525"><ele>308.0</ele><time>2026-05-03T15:37:19Z</time></trkpt><trkpt lat="46.38698166526777" lon="13.011564119793379"><ele>308.0</ele><time>2026-05-03T15:37:20Z</time></trkpt><trkpt lat="46.386772985923024" lon="13.011590176603885"><ele>308.0</ele><time>2026-05-03T15:37:21Z</time></trkpt><trkpt lat="46.38655168569492" lon="13.011560679289893"><ele>308.0</ele><time>2026-05-03T15:37:22Z</time></trkpt><trkpt lat="46.38630748994194" lon="13.011489134125307"><ele>308.0</ele><time>2026-05-03T15:37:23Z</time></trkpt><trkpt lat="46.38606982301302" lon="13.011422718702327"><ele>308.0</ele><time>2026-05-03T15:37:24Z</time></trkpt><trkpt lat="46.385860159010136" lon="13.011357005229305"><ele>308.0</ele><time>2026-05-03T15:37:25Z</time></trkpt><trkpt lat="46.38567690768343" lon="13.011304563976637"><ele>308.0</ele><time>2026-05-03T15:37:26Z</time></trkpt><trkpt lat="46.38550487793905" lon="13.011284538146995"><ele>308.0</ele><time>2026-05-03T15:37:27Z</time></trkpt><trkpt lat="46.385326951909974" lon="13.011335811370293"><ele>308.6666666666667</ele><time>2026-05-03T15:37:28Z</time></trkpt><trkpt lat="46.385153109276956" lon="13.011448336960894"><ele>309.3333333333333</ele><time>2026-05-03T15:37:29Z</time></trkpt><trkpt lat="46.38499638775786" lon="13.011628162734276"><ele>310.0</ele><time>2026-05-03T15:37:30Z</time></trkpt><trkpt lat="46.38485118177503" lon="13.011882398125204"><ele>307.5</ele><time>2026-05-03T15:37:31Z</time></trkpt><trkpt lat="46.38470613823254" lon="13.012179793384778"><ele>305.0</ele><time>2026-05-03T15:37:32Z</time></trkpt><trkpt lat="46.38455352886012" lon="13.012503784209887"><ele>317.0</ele><time>2026-05-03T15:37:33Z</time></trkpt><trkpt lat="46.3844152773931" lon="13.012815122955617"><ele>329.0</ele><time>2026-05-03T15:37:34Z</time></trkpt><trkpt lat="46.38431665180512" lon="13.013094089665994"><ele>327.6666666666667</ele><time>2026-05-03T15:37:35Z</time></trkpt><trkpt lat="46.384271187377664" lon="13.013378657493062"><ele>326.3333333333333</ele><time>2026-05-03T15:37:36Z</time></trkpt><trkpt lat="46.384268144996526" lon="13.013703645023885"><ele>325.0</ele><time>2026-05-03T15:37:37Z</time></trkpt><trkpt lat="46.384265315213725" lon="13.014077827423462"><ele>322.5</ele><time>2026-05-03T15:37:38Z</time></trkpt><trkpt lat="46.38421447081266" lon="13.014443812282773"><ele>320.0</ele><time>2026-05-03T15:37:39Z</time></trkpt><trkpt lat="46.38412839685831" lon="13.014803729514167"><ele>314.5</ele><time>2026-05-03T15:37:40Z</time></trkpt><trkpt lat="46.38401606754151" lon="13.015158662223733"><ele>309.0</ele><time>2026-05-03T15:37:41Z</time></trkpt><trkpt lat="46.38387684301772" lon="13.01549773528466"><ele>315.0</ele><time>2026-05-03T15:37:42Z</time></trkpt><trkpt lat="46.38370885514322" lon="13.015826159586107"><ele>321.0</ele><time>2026-05-03T15:37:43Z</time></trkpt><trkpt lat="46.383522087633004" lon="13.01614405149157"><ele>321.0</ele><time>2026-05-03T15:37:44Z</time></trkpt><trkpt lat="46.38333683111246" lon="13.016411000775054"><ele>321.0</ele><time>2026-05-03T15:37:45Z</time></trkpt><trkpt lat="46.383144233707725" lon="13.016618497395674"><ele>313.5</ele><time>2026-05-03T15:37:46Z</time></trkpt><trkpt lat="46.382914677206024" lon="13.016789348345602"><ele>306.0</ele><time>2026-05-03T15:37:47Z</time></trkpt><trkpt lat="46.38266694745915" lon="13.016954908616054"><ele>306.0</ele><time>2026-05-03T15:37:48Z</time></trkpt><trkpt lat="46.38241954280529" lon="13.01716402037092"><ele>306.0</ele><time>2026-05-03T15:37:49Z</time></trkpt><trkpt lat="46.382170598254035" lon="13.017421747395547"><ele>305.5</ele><time>2026-05-03T15:37:50Z</time></trkpt><trkpt lat="46.38191899921229" lon="13.017672727065039"><ele>305.0</ele><time>2026-05-03T15:37:51Z</time></trkpt><trkpt lat="46.38170225094919" lon="13.017887979658065"><ele>305.0</ele><time>2026-05-03T15:37:52Z</time></trkpt><trkpt lat="46.38150901704867" lon="13.018078476832384"><ele>305.0</ele><time>2026-05-03T15:37:53Z</time></trkpt><trkpt lat="46.381343545078465" lon="13.018248875217733"><ele>305.0</ele><time>2026-05-03T15:37:54Z</time></trkpt><trkpt lat="46.38119873585522" lon="13.018437054065945"><ele>309.33333333333337</ele><time>2026-05-03T15:37:55Z</time></trkpt><trkpt lat="46.381087956193525" lon="13.018651257157229"><ele>313.6666666666667</ele><time>2026-05-03T15:37:56Z</time></trkpt><trkpt lat="46.38100189338018" lon="13.018899730984012"><ele>318.0</ele><time>2026-05-03T15:37:57Z</time></trkpt><trkpt lat="46.38091368608017" lon="13.019180834143544"><ele>319.6666666666667</ele><time>2026-05-03T15:37:58Z</time></trkpt><trkpt lat="46.38082376175547" lon="13.019435505918342"><ele>321.33333333333337</ele><time>2026-05-03T15:37:59Z</time></trkpt><trkpt lat="46.380773585489045" lon="13.019664794655554"><ele>323.0</ele><time>2026-05-03T15:38:00Z</time></trkpt><trkpt lat="46.38074992995867" lon="13.019882214266005"><ele>323.0</ele><time>2026-05-03T15:38:01Z</time></trkpt><trkpt lat="46.38077623760367" lon="13.020099425290727"><ele>323.0</ele><time>2026-05-03T15:38:02Z</time></trkpt><trkpt lat="46.38087520025454" lon="13.020322273289112"><ele>323.0</ele><time>2026-05-03T15:38:03Z</time></trkpt><trkpt lat="46.38101494805457" lon="13.0204868259875"><ele>323.0</ele><time>2026-05-03T15:38:04Z</time></trkpt><trkpt lat="46.38112143716215" lon="13.020600877433894"><ele>323.0</ele><time>2026-05-03T15:38:05Z</time></trkpt><trkpt lat="46.381210087266155" lon="13.02069603292033"><ele>323.0</ele><time>2026-05-03T15:38:06Z</time></trkpt><trkpt lat="46.38127000664843" lon="13.020816407406706"><ele>323.0</ele><time>2026-05-03T15:38:07Z</time></trkpt><trkpt lat="46.38133382945721" lon="13.02092685157532"><ele>323.0</ele><time>2026-05-03T15:38:08Z</time></trkpt><trkpt lat="46.381360613508605" lon="13.021076777155105"><ele>325.5</ele><time>2026-05-03T15:38:09Z</time></trkpt><trkpt lat="46.38134803228423" lon="13.021232264135966"><ele>328.0</ele><time>2026-05-03T15:38:10Z</time></trkpt><trkpt lat="46.38130516202897" lon="13.021388442020468"><ele>330.5</ele><time>2026-05-03T15:38:11Z</time></trkpt><trkpt lat="46.38121533867268" lon="13.021572695574777"><ele>333.0</ele><time>2026-05-03T15:38:12Z</time></trkpt><trkpt lat="46.38108172306809" lon="13.021783535099688"><ele>333.6666666666667</ele><time>2026-05-03T15:38:13Z</time></trkpt><trkpt lat="46.38092466945783" lon="13.022005044759547"><ele>334.33333333333337</ele><time>2026-05-03T15:38:14Z</time></trkpt><trkpt lat="46.38096020549194" lon="13.021882960997287"><ele>335.0</ele><time>2026-05-03T15:38:15Z</time></trkpt><trkpt lat="46.38058882403272" lon="13.022437048480425"><ele>337.6666666666667</ele><time>2026-05-03T15:38:16Z</time></trkpt><trkpt lat="46.38038744561265" lon="13.022604891494806"><ele>340.3333333333333</ele><time>2026-05-03T15:38:17Z</time></trkpt><trkpt lat="46.38022012554993" lon="13.022784890472053"><ele>343.0</ele><time>2026-05-03T15:38:18Z</time></trkpt><trkpt lat="46.38009603226376" lon="13.022985707902173"><ele>343.0</ele><time>2026-05-03T15:38:19Z</time></trkpt><trkpt lat="46.37998787952421" lon="13.023177362410953"><ele>343.0</ele><time>2026-05-03T15:38:20Z</time></trkpt><trkpt lat="46.37989417515646" lon="13.023504445402923"><ele>343.0</ele><time>2026-05-03T15:38:21Z</time></trkpt><trkpt lat="46.37978567039341" lon="13.023842748166798"><ele>342.5</ele><time>2026-05-03T15:38:22Z</time></trkpt><trkpt lat="46.379685228600046" lon="13.024278468974202"><ele>342.0</ele><time>2026-05-03T15:38:23Z</time></trkpt><trkpt lat="46.37960515474014" lon="13.024586708163136"><ele>342.0</ele><time>2026-05-03T15:38:24Z</time></trkpt><trkpt lat="46.379547924972876" lon="13.024891202273244"><ele>342.0</ele><time>2026-05-03T15:38:25Z</time></trkpt><trkpt lat="46.379526056937095" lon="13.025174112461865"><ele>342.0</ele><time>2026-05-03T15:38:26Z</time></trkpt><trkpt lat="46.37954719656564" lon="13.02549401992201"><ele>334.6666666666667</ele><time>2026-05-03T15:38:27Z</time></trkpt><trkpt lat="46.37959299877629" lon="13.025747423506719"><ele>327.33333333333337</ele><time>2026-05-03T15:38:28Z</time></trkpt><trkpt lat="46.37961733901371" lon="13.025987754020749"><ele>320.0</ele><time>2026-05-03T15:38:29Z</time></trkpt><trkpt lat="46.37956054514216" lon="13.026140282323567"><ele>316.75</ele><time>2026-05-03T15:38:30Z</time></trkpt><trkpt lat="46.37947857881284" lon="13.026251178556514"><ele>313.5</ele><time>2026-05-03T15:38:31.001Z</time></trkpt><trkpt lat="46.37936614432639" lon="13.026306759026834"><ele>310.25</ele><time>2026-05-03T15:38:32.001Z</time></trkpt><trkpt lat="46.379216446584294" lon="13.026463570612686"><ele>307.0</ele><time>2026-05-03T15:38:33.001Z</time></trkpt><trkpt lat="46.3790591852435" lon="13.026619609594439"><ele>308.0</ele><time>2026-05-03T15:38:34.001Z</time></trkpt><trkpt lat="46.378929019765614" lon="13.02688837424625"><ele>309.0</ele><time>2026-05-03T15:38:34.999Z</time></trkpt><trkpt lat="46.37880612590816" lon="13.027112123306589"><ele>310.0</ele><time>2026-05-03T15:38:35.999Z</time></trkpt><trkpt lat="46.37869411588686" lon="13.027276524986064"><ele>307.0</ele><time>2026-05-03T15:38:36.999Z</time></trkpt><trkpt lat="46.378605911457484" lon="13.027476797054602"><ele>304.0</ele><time>2026-05-03T15:38:37.999Z</time></trkpt><trkpt lat="46.37855617742356" lon="13.027762405269488"><ele>301.0</ele><time>2026-05-03T15:38:38.999Z</time></trkpt><trkpt lat="46.37850657640683" lon="13.02808080069893"><ele>299.66666666666663</ele><time>2026-05-03T15:38:39.999Z</time></trkpt><trkpt lat="46.3784586642689" lon="13.028328985949887"><ele>298.3333333333333</ele><time>2026-05-03T15:38:40.999Z</time></trkpt><trkpt lat="46.37841628159219" lon="13.028561450931894"><ele>297.0</ele><time>2026-05-03T15:38:41.999Z</time></trkpt><trkpt lat="46.37832279161272" lon="13.028751414139755"><ele>297.0</ele><time>2026-05-03T15:38:42.999Z</time></trkpt><trkpt lat="46.37817553087898" lon="13.028905586161027"><ele>297.0</ele><time>2026-05-03T15:38:43.999Z</time></trkpt><trkpt lat="46.37798223682001" lon="13.02903089863114"><ele>297.0</ele><time>2026-05-03T15:38:44.999Z</time></trkpt><trkpt lat="46.37775081120968" lon="13.029182444678478"><ele>297.0</ele><time>2026-05-03T15:38:45.999Z</time></trkpt><trkpt lat="46.377521475829994" lon="13.029341675201664"><ele>297.0</ele><time>2026-05-03T15:38:46.999Z</time></trkpt><trkpt lat="46.37726970269199" lon="13.029507537908222"><ele>293.0</ele><time>2026-05-03T15:38:47.999Z</time></trkpt><trkpt lat="46.37702404334737" lon="13.02962853667605"><ele>289.0</ele><time>2026-05-03T15:38:48.999Z</time></trkpt><trkpt lat="46.37678157641083" lon="13.029698800412275"><ele>289.0</ele><time>2026-05-03T15:38:50Z</time></trkpt><trkpt lat="46.37648273206749" lon="13.029722012066225"><ele>289.0</ele><time>2026-05-03T15:38:51Z</time></trkpt><trkpt lat="46.37616388229443" lon="13.029739438013348"><ele>291.5</ele><time>2026-05-03T15:38:52Z</time></trkpt><trkpt lat="46.37581974304484" lon="13.029730972307817"><ele>294.0</ele><time>2026-05-03T15:38:53Z</time></trkpt><trkpt lat="46.375495401484365" lon="13.029758288083158"><ele>294.5</ele><time>2026-05-03T15:38:54Z</time></trkpt><trkpt lat="46.375158084045566" lon="13.029787018207884"><ele>295.0</ele><time>2026-05-03T15:38:55Z</time></trkpt><trkpt lat="46.37479919652491" lon="13.029864103597303"><ele>293.5</ele><time>2026-05-03T15:38:56Z</time></trkpt><trkpt lat="46.37444237328441" lon="13.029905508598471"><ele>292.0</ele><time>2026-05-03T15:38:57Z</time></trkpt><trkpt lat="46.374137451268695" lon="13.029937336829338"><ele>292.0</ele><time>2026-05-03T15:38:58Z</time></trkpt><trkpt lat="46.3738651505152" lon="13.029972035085558"><ele>292.0</ele><time>2026-05-03T15:38:59Z</time></trkpt><trkpt lat="46.37360908909694" lon="13.030031739896046"><ele>291.5</ele><time>2026-05-03T15:39:00Z</time></trkpt><trkpt lat="46.3733327892455" lon="13.030146340550521"><ele>291.0</ele><time>2026-05-03T15:39:01Z</time></trkpt><trkpt lat="46.37302776668575" lon="13.03030888831021"><ele>288.5</ele><time>2026-05-03T15:39:02Z</time></trkpt><trkpt lat="46.37271169492824" lon="13.030492269544764"><ele>286.0</ele><time>2026-05-03T15:39:03Z</time></trkpt><trkpt lat="46.37237246932309" lon="13.0306886975262"><ele>285.5</ele><time>2026-05-03T15:39:04Z</time></trkpt><trkpt lat="46.372036472916655" lon="13.03085977057546"><ele>285.0</ele><time>2026-05-03T15:39:05Z</time></trkpt><trkpt lat="46.371748908351115" lon="13.031017012548238"><ele>285.0</ele><time>2026-05-03T15:39:06Z</time></trkpt><trkpt lat="46.371489637510074" lon="13.031167858213012"><ele>285.0</ele><time>2026-05-03T15:39:07Z</time></trkpt><trkpt lat="46.371264403864735" lon="13.0312954896371"><ele>285.0</ele><time>2026-05-03T15:39:08Z</time></trkpt><trkpt lat="46.371049814193135" lon="13.031417522341592"><ele>285.0</ele><time>2026-05-03T15:39:09Z</time></trkpt><trkpt lat="46.37085089339483" lon="13.031527948733743"><ele>285.0</ele><time>2026-05-03T15:39:10Z</time></trkpt><trkpt lat="46.37065671951452" lon="13.031623895976127"><ele>286.3333333333333</ele><time>2026-05-03T15:39:11Z</time></trkpt><trkpt lat="46.3704642336887" lon="13.031734400089874"><ele>287.66666666666663</ele><time>2026-05-03T15:39:12Z</time></trkpt><trkpt lat="46.37029796980163" lon="13.03188005325227"><ele>289.0</ele><time>2026-05-03T15:39:13Z</time></trkpt><trkpt lat="46.370147546538306" lon="13.032093850223657"><ele>289.0</ele><time>2026-05-03T15:39:14Z</time></trkpt><trkpt lat="46.36999278321916" lon="13.032330272292585"><ele>289.0</ele><time>2026-05-03T15:39:15Z</time></trkpt><trkpt lat="46.36983702449786" lon="13.032502400431513"><ele>289.0</ele><time>2026-05-03T15:39:16Z</time></trkpt><trkpt lat="46.36963313040381" lon="13.032615128476253"><ele>288.5</ele><time>2026-05-03T15:39:17Z</time></trkpt><trkpt lat="46.369389110831584" lon="13.032693989951193"><ele>288.0</ele><time>2026-05-03T15:39:18Z</time></trkpt><trkpt lat="46.369122916839586" lon="13.032765785648774"><ele>286.0</ele><time>2026-05-03T15:39:19Z</time></trkpt><trkpt lat="46.368841164892345" lon="13.032864175015673"><ele>284.0</ele><time>2026-05-03T15:39:20Z</time></trkpt><trkpt lat="46.368542214411825" lon="13.032972149712602"><ele>284.0</ele><time>2026-05-03T15:39:21Z</time></trkpt><trkpt lat="46.36824247015525" lon="13.033082523116365"><ele>284.0</ele><time>2026-05-03T15:39:22Z</time></trkpt><trkpt lat="46.36793654614421" lon="13.033200309036955"><ele>285.0</ele><time>2026-05-03T15:39:23Z</time></trkpt><trkpt lat="46.36762496258123" lon="13.033325833428542"><ele>286.0</ele><time>2026-05-03T15:39:24Z</time></trkpt><trkpt lat="46.3673262885937" lon="13.033506683873368"><ele>284.5</ele><time>2026-05-03T15:39:25Z</time></trkpt><trkpt lat="46.36705092231175" lon="13.03371576443948"><ele>283.0</ele><time>2026-05-03T15:39:26Z</time></trkpt><trkpt lat="46.366814412753705" lon="13.033929571912768"><ele>283.5</ele><time>2026-05-03T15:39:27Z</time></trkpt><trkpt lat="46.36661328608034" lon="13.034157429713291"><ele>284.0</ele><time>2026-05-03T15:39:28Z</time></trkpt><trkpt lat="46.36644061377599" lon="13.034395760040814"><ele>285.5</ele><time>2026-05-03T15:39:29Z</time></trkpt><trkpt lat="46.36627977796886" lon="13.034637729140401"><ele>287.0</ele><time>2026-05-03T15:39:30Z</time></trkpt><trkpt lat="46.366137226809094" lon="13.034883633260709"><ele>287.33333333333337</ele><time>2026-05-03T15:39:31Z</time></trkpt><trkpt lat="46.366013105707594" lon="13.035126324159306"><ele>287.6666666666667</ele><time>2026-05-03T15:39:32Z</time></trkpt><trkpt lat="46.36590060315357" lon="13.035365338649811"><ele>288.0</ele><time>2026-05-03T15:39:33Z</time></trkpt><trkpt lat="46.365786227729025" lon="13.035626552818824"><ele>288.5</ele><time>2026-05-03T15:39:34Z</time></trkpt><trkpt lat="46.365683052404066" lon="13.03593966819122"><ele>289.0</ele><time>2026-05-03T15:39:35Z</time></trkpt><trkpt lat="46.365576592957645" lon="13.036305786609665"><ele>288.5</ele><time>2026-05-03T15:39:36Z</time></trkpt><trkpt lat="46.36546719577191" lon="13.036716461326131"><ele>288.0</ele><time>2026-05-03T15:39:37Z</time></trkpt><trkpt lat="46.36534506103038" lon="13.03716320376716"><ele>287.5</ele><time>2026-05-03T15:39:38Z</time></trkpt><trkpt lat="46.36520079052813" lon="13.0376562422736"><ele>287.0</ele><time>2026-05-03T15:39:39Z</time></trkpt><trkpt lat="46.36504286264292" lon="13.038174000096816"><ele>286.5</ele><time>2026-05-03T15:39:40Z</time></trkpt><trkpt lat="46.364885788596474" lon="13.038706748627154"><ele>286.0</ele><time>2026-05-03T15:39:41Z</time></trkpt><trkpt lat="46.36473204373811" lon="13.039247504003123"><ele>292.0</ele><time>2026-05-03T15:39:42Z</time></trkpt><trkpt lat="46.36459378070411" lon="13.039764697632853"><ele>298.0</ele><time>2026-05-03T15:39:43Z</time></trkpt><trkpt lat="46.36446596814189" lon="13.040217839747799"><ele>298.0</ele><time>2026-05-03T15:39:44Z</time></trkpt><trkpt lat="46.364344870831246" lon="13.040635403942938"><ele>298.0</ele><time>2026-05-03T15:39:45Z</time></trkpt><trkpt lat="46.364199517251436" lon="13.04105345221832"><ele>294.5</ele><time>2026-05-03T15:39:46Z</time></trkpt><trkpt lat="46.3640296046299" lon="13.041493700178767"><ele>291.0</ele><time>2026-05-03T15:39:47Z</time></trkpt><trkpt lat="46.3638510583833" lon="13.041951192658551"><ele>300.5</ele><time>2026-05-03T15:39:48Z</time></trkpt><trkpt lat="46.36367809267486" lon="13.04239049841931"><ele>310.0</ele><time>2026-05-03T15:39:49Z</time></trkpt><trkpt lat="46.36352029251823" lon="13.042782486053248"><ele>310.0</ele><time>2026-05-03T15:39:50Z</time></trkpt><trkpt lat="46.363369959125365" lon="13.043108624851843"><ele>310.0</ele><time>2026-05-03T15:39:51Z</time></trkpt><trkpt lat="46.36320468835064" lon="13.043402596361467"><ele>312.0</ele><time>2026-05-03T15:39:52Z</time></trkpt><trkpt lat="46.36300781254648" lon="13.04370509126824"><ele>314.0</ele><time>2026-05-03T15:39:53Z</time></trkpt><trkpt lat="46.3627878629781" lon="13.044005660033143"><ele>308.5</ele><time>2026-05-03T15:39:54Z</time></trkpt><trkpt lat="46.36256960671634" lon="13.044300568694435"><ele>303.0</ele><time>2026-05-03T15:39:55Z</time></trkpt><trkpt lat="46.362380388228985" lon="13.044545585730976"><ele>303.0</ele><time>2026-05-03T15:39:56Z</time></trkpt><trkpt lat="46.362216213330846" lon="13.044758874322456"><ele>303.0</ele><time>2026-05-03T15:39:57Z</time></trkpt><trkpt lat="46.362061834107735" lon="13.044964793030227"><ele>303.0</ele><time>2026-05-03T15:39:58Z</time></trkpt><trkpt lat="46.36186705341617" lon="13.045122815539285"><ele>303.0</ele><time>2026-05-03T15:39:59Z</time></trkpt><trkpt lat="46.36166101710639" lon="13.04526851364815"><ele>303.0</ele><time>2026-05-03T15:40:00Z</time></trkpt><trkpt lat="46.36145696144351" lon="13.045388420780657"><ele>303.0</ele><time>2026-05-03T15:40:01Z</time></trkpt><trkpt lat="46.361281849919536" lon="13.045528715543943"><ele>303.0</ele><time>2026-05-03T15:40:02Z</time></trkpt><trkpt lat="46.36108519154799" lon="13.045430461159233"><ele>303.0</ele><time>2026-05-03T15:40:03Z</time></trkpt><trkpt lat="46.36095870792009" lon="13.045480303828919"><ele>303.0</ele><time>2026-05-03T15:40:04Z</time></trkpt><trkpt lat="46.36087765319422" lon="13.045521891960396"><ele>303.0</ele><time>2026-05-03T15:40:05Z</time></trkpt><trkpt lat="46.36077155564737" lon="13.045591362454934"><ele>303.0</ele><time>2026-05-03T15:40:06Z</time></trkpt><trkpt lat="46.3607088706203" lon="13.045712373945646"><ele>303.0</ele><time>2026-05-03T15:40:07Z</time></trkpt><trkpt lat="46.36066198550158" lon="13.045824498416398"><ele>303.0</ele><time>2026-05-03T15:40:08Z</time></trkpt><trkpt lat="46.36065835226492" lon="13.04601990894925"><ele>303.0</ele><time>2026-05-03T15:40:09.001Z</time></trkpt><trkpt lat="46.360641519693154" lon="13.04631771398864"><ele>303.0</ele><time>2026-05-03T15:40:10.001Z</time></trkpt><trkpt lat="46.360599800002284" lon="13.046599220477518"><ele>303.0</ele><time>2026-05-03T15:40:11.001Z</time></trkpt><trkpt lat="46.36055445337366" lon="13.0469355000714"><ele>303.0</ele><time>2026-05-03T15:40:12.001Z</time></trkpt><trkpt lat="46.36045779292195" lon="13.04734617876599"><ele>292.0</ele><time>2026-05-03T15:40:13.001Z</time></trkpt><trkpt lat="46.36035558303751" lon="13.047704683581895"><ele>281.0</ele><time>2026-05-03T15:40:14.001Z</time></trkpt><trkpt lat="46.36026184775913" lon="13.048055086581401"><ele>284.0</ele><time>2026-05-03T15:40:15.001Z</time></trkpt><trkpt lat="46.36021873851273" lon="13.048470908018837"><ele>287.0</ele><time>2026-05-03T15:40:16.001Z</time></trkpt><trkpt lat="46.360142308951936" lon="13.048956307949718"><ele>288.0</ele><time>2026-05-03T15:40:17.001Z</time></trkpt><trkpt lat="46.360065693161324" lon="13.04944456196461"><ele>289.0</ele><time>2026-05-03T15:40:18.001Z</time></trkpt><trkpt lat="46.35999538579843" lon="13.04987488484406"><ele>292.5</ele><time>2026-05-03T15:40:19.001Z</time></trkpt><trkpt lat="46.359921010063665" lon="13.050284691340455"><ele>296.0</ele><time>2026-05-03T15:40:20.001Z</time></trkpt><trkpt lat="46.359862677184175" lon="13.050613130732708"><ele>297.0</ele><time>2026-05-03T15:40:21.001Z</time></trkpt><trkpt lat="46.359792140713424" lon="13.050972508435853"><ele>298.0</ele><time>2026-05-03T15:40:22.001Z</time></trkpt><trkpt lat="46.35968421194052" lon="13.051243094783626"><ele>288.5</ele><time>2026-05-03T15:40:23.001Z</time></trkpt><trkpt lat="46.359546690667656" lon="13.051527268785593"><ele>279.0</ele><time>2026-05-03T15:40:24.001Z</time></trkpt><trkpt lat="46.35940711576123" lon="13.051803721181859"><ele>279.0</ele><time>2026-05-03T15:40:25.001Z</time></trkpt><trkpt lat="46.359262157797204" lon="13.052086169243"><ele>279.0</ele><time>2026-05-03T15:40:26.001Z</time></trkpt><trkpt lat="46.359093061023614" lon="13.052366922664497"><ele>278.5</ele><time>2026-05-03T15:40:27.001Z</time></trkpt><trkpt lat="46.35888553365891" lon="13.052662430801252"><ele>278.0</ele><time>2026-05-03T15:40:28.001Z</time></trkpt><trkpt lat="46.35863481133103" lon="13.05297205582182"><ele>278.0</ele><time>2026-05-03T15:40:29.001Z</time></trkpt><trkpt lat="46.35839067206086" lon="13.053286152600677"><ele>278.0</ele><time>2026-05-03T15:40:30.001Z</time></trkpt><trkpt lat="46.358130794382724" lon="13.053515738836841"><ele>286.5</ele><time>2026-05-03T15:40:31.001Z</time></trkpt><trkpt lat="46.35789990211309" lon="13.053709035921537"><ele>295.0</ele><time>2026-05-03T15:40:32.001Z</time></trkpt><trkpt lat="46.35769965679855" lon="13.053872755482"><ele>295.0</ele><time>2026-05-03T15:40:33.001Z</time></trkpt><trkpt lat="46.357516888680316" lon="13.05400077131282"><ele>295.0</ele><time>2026-05-03T15:40:34.001Z</time></trkpt><trkpt lat="46.3573765209536" lon="13.054196128448257"><ele>295.0</ele><time>2026-05-03T15:40:35.001Z</time></trkpt><trkpt lat="46.35727445148098" lon="13.054406481509103"><ele>295.3333333333333</ele><time>2026-05-03T15:40:36.001Z</time></trkpt><trkpt lat="46.357222656383286" lon="13.054657028421417"><ele>295.6666666666667</ele><time>2026-05-03T15:40:37.001Z</time></trkpt><trkpt lat="46.357216212754075" lon="13.054944644903122"><ele>296.0</ele><time>2026-05-03T15:40:38.001Z</time></trkpt><trkpt lat="46.3572503933831" lon="13.055264541378161"><ele>296.0</ele><time>2026-05-03T15:40:39.001Z</time></trkpt><trkpt lat="46.357300098424446" lon="13.055595227861069"><ele>296.0</ele><time>2026-05-03T15:40:40.001Z</time></trkpt><trkpt lat="46.357303757863455" lon="13.055932927446658"><ele>299.5</ele><time>2026-05-03T15:40:41Z</time></trkpt><trkpt lat="46.35727114557335" lon="13.056263549406395"><ele>303.0</ele><time>2026-05-03T15:40:42Z</time></trkpt><trkpt lat="46.35720508332885" lon="13.056617335488475"><ele>319.5</ele><time>2026-05-03T15:40:43Z</time></trkpt><trkpt lat="46.35710432373374" lon="13.056951985296822"><ele>336.0</ele><time>2026-05-03T15:40:44Z</time></trkpt><trkpt lat="46.35703168845794" lon="13.057249748475435"><ele>335.3333333333333</ele><time>2026-05-03T15:40:45Z</time></trkpt><trkpt lat="46.35696441580456" lon="13.057533224213723"><ele>334.66666666666663</ele><time>2026-05-03T15:40:46Z</time></trkpt><trkpt lat="46.35689919971962" lon="13.05784022213689"><ele>334.0</ele><time>2026-05-03T15:40:47Z</time></trkpt><trkpt lat="46.35683581093631" lon="13.058177928218688"><ele>332.0</ele><time>2026-05-03T15:40:48Z</time></trkpt><trkpt lat="46.356768205912935" lon="13.058535856117636"><ele>330.0</ele><time>2026-05-03T15:40:49Z</time></trkpt><trkpt lat="46.356693634985604" lon="13.058907893212533"><ele>325.0</ele><time>2026-05-03T15:40:50Z</time></trkpt><trkpt lat="46.356601475810685" lon="13.059293816462526"><ele>320.0</ele><time>2026-05-03T15:40:51Z</time></trkpt><trkpt lat="46.35649559159226" lon="13.059684304538578"><ele>312.0</ele><time>2026-05-03T15:40:52Z</time></trkpt><trkpt lat="46.356354241259325" lon="13.06007837161144"><ele>304.0</ele><time>2026-05-03T15:40:53Z</time></trkpt><trkpt lat="46.356228230764934" lon="13.060494997531638"><ele>296.5</ele><time>2026-05-03T15:40:54Z</time></trkpt><trkpt lat="46.356134459386915" lon="13.060940127816556"><ele>289.0</ele><time>2026-05-03T15:40:55Z</time></trkpt><trkpt lat="46.35605687397648" lon="13.061359972711859"><ele>287.5</ele><time>2026-05-03T15:40:56Z</time></trkpt><trkpt lat="46.35598568927245" lon="13.061742554893128"><ele>286.0</ele><time>2026-05-03T15:40:57Z</time></trkpt><trkpt lat="46.35592473033797" lon="13.062082994893329"><ele>286.0</ele><time>2026-05-03T15:40:58Z</time></trkpt><trkpt lat="46.3558777392317" lon="13.062398471164865"><ele>286.0</ele><time>2026-05-03T15:40:59Z</time></trkpt><trkpt lat="46.35584780049703" lon="13.062699642645663"><ele>286.0</ele><time>2026-05-03T15:41:00Z</time></trkpt><trkpt lat="46.35583785768854" lon="13.062967598651664"><ele>286.25</ele><time>2026-05-03T15:41:01Z</time></trkpt><trkpt lat="46.35584019291795" lon="13.063193775978666"><ele>286.5</ele><time>2026-05-03T15:41:02Z</time></trkpt><trkpt lat="46.355820274237914" lon="13.063385642061267"><ele>286.75</ele><time>2026-05-03T15:41:03Z</time></trkpt><trkpt lat="46.35575097531498" lon="13.06351647620784"><ele>287.0</ele><time>2026-05-03T15:41:04Z</time></trkpt><trkpt lat="46.355643458999936" lon="13.063606785863673"><ele>287.75</ele><time>2026-05-03T15:41:05Z</time></trkpt><trkpt lat="46.355506643651786" lon="13.063626968743515"><ele>288.5</ele><time>2026-05-03T15:41:06Z</time></trkpt><trkpt lat="46.3553728698921" lon="13.063545310791532"><ele>289.25</ele><time>2026-05-03T15:41:07Z</time></trkpt><trkpt lat="46.355300321422" lon="13.063342770053449"><ele>290.0</ele><time>2026-05-03T15:41:08Z</time></trkpt><trkpt lat="46.355211561406975" lon="13.063157936195463"><ele>283.6666666666667</ele><time>2026-05-03T15:41:09Z</time></trkpt><trkpt lat="46.35513084548679" lon="13.06296978168645"><ele>277.3333333333333</ele><time>2026-05-03T15:41:10Z</time></trkpt><trkpt lat="46.35500620551406" lon="13.06286693273783"><ele>271.0</ele><time>2026-05-03T15:41:11Z</time></trkpt><trkpt lat="46.35484862583917" lon="13.062838649310386"><ele>268.5</ele><time>2026-05-03T15:41:12Z</time></trkpt><trkpt lat="46.35461125678722" lon="13.062820453260935"><ele>266.0</ele><time>2026-05-03T15:41:13Z</time></trkpt><trkpt lat="46.35435290571757" lon="13.062800813142033"><ele>266.0</ele><time>2026-05-03T15:41:14Z</time></trkpt><trkpt lat="46.35412728607988" lon="13.062826897643545"><ele>266.0</ele><time>2026-05-03T15:41:15Z</time></trkpt><trkpt lat="46.35391445504684" lon="13.062866859710228"><ele>266.0</ele><time>2026-05-03T15:41:16Z</time></trkpt><trkpt lat="46.35368791995936" lon="13.062984422144337"><ele>268.0</ele><time>2026-05-03T15:41:17Z</time></trkpt><trkpt lat="46.35345757932391" lon="13.06315995560541"><ele>270.0</ele><time>2026-05-03T15:41:18Z</time></trkpt><trkpt lat="46.35323382190074" lon="13.063383322904766"><ele>270.0</ele><time>2026-05-03T15:41:19Z</time></trkpt><trkpt lat="46.35303071392242" lon="13.063621073871111"><ele>270.0</ele><time>2026-05-03T15:41:20Z</time></trkpt><trkpt lat="46.35285253605634" lon="13.063859272515453"><ele>265.0</ele><time>2026-05-03T15:41:21Z</time></trkpt><trkpt lat="46.35266333049288" lon="13.06413798621885"><ele>260.0</ele><time>2026-05-03T15:41:22Z</time></trkpt><trkpt lat="46.3525046247734" lon="13.064474795085152"><ele>260.0</ele><time>2026-05-03T15:41:23Z</time></trkpt><trkpt lat="46.35234887246459" lon="13.064810512479495"><ele>260.0</ele><time>2026-05-03T15:41:24Z</time></trkpt><trkpt lat="46.352209619817046" lon="13.065084817398903"><ele>261.0</ele><time>2026-05-03T15:41:25Z</time></trkpt><trkpt lat="46.35205836530111" lon="13.065317884081505"><ele>262.0</ele><time>2026-05-03T15:41:26Z</time></trkpt><trkpt lat="46.35190391000365" lon="13.065486007918008"><ele>263.0</ele><time>2026-05-03T15:41:27Z</time></trkpt><trkpt lat="46.351712753263534" lon="13.065596947791038"><ele>263.0</ele><time>2026-05-03T15:41:28Z</time></trkpt><trkpt lat="46.35149432238455" lon="13.065724709785906"><ele>263.0</ele><time>2026-05-03T15:41:29Z</time></trkpt><trkpt lat="46.3512625288221" lon="13.065896020949666"><ele>264.5</ele><time>2026-05-03T15:41:30Z</time></trkpt><trkpt lat="46.351037288575995" lon="13.06612783834191"><ele>266.0</ele><time>2026-05-03T15:41:31Z</time></trkpt><trkpt lat="46.350824451571114" lon="13.066399161411058"><ele>259.5</ele><time>2026-05-03T15:41:32Z</time></trkpt><trkpt lat="46.35065272546736" lon="13.0666547322978"><ele>253.0</ele><time>2026-05-03T15:41:33Z</time></trkpt><trkpt lat="46.35051720017975" lon="13.066900645426022"><ele>251.33333333333331</ele><time>2026-05-03T15:41:34Z</time></trkpt><trkpt lat="46.35042062184478" lon="13.067139638370714"><ele>249.66666666666669</ele><time>2026-05-03T15:41:35Z</time></trkpt><trkpt lat="46.35032027738862" lon="13.067353669666774"><ele>248.0</ele><time>2026-05-03T15:41:36Z</time></trkpt><trkpt lat="46.35017947888929" lon="13.067451101761817"><ele>246.0</ele><time>2026-05-03T15:41:37Z</time></trkpt><trkpt lat="46.349983444379696" lon="13.067528166862836"><ele>244.0</ele><time>2026-05-03T15:41:38Z</time></trkpt><trkpt lat="46.34978033804608" lon="13.067600118531232"><ele>242.0</ele><time>2026-05-03T15:41:39Z</time></trkpt><trkpt lat="46.34960673410058" lon="13.067619403898465"><ele>238.8</ele><time>2026-05-03T15:41:40.001Z</time></trkpt><trkpt lat="46.34949844722949" lon="13.067666023548027"><ele>235.6</ele><time>2026-05-03T15:41:41.001Z</time></trkpt><trkpt lat="46.349392502305314" lon="13.067702656595786"><ele>232.40000000000003</ele><time>2026-05-03T15:41:42.001Z</time></trkpt><trkpt lat="46.34929234041299" lon="13.06774128205903"><ele>229.20000000000002</ele><time>2026-05-03T15:41:43.001Z</time></trkpt><trkpt lat="46.34920345728669" lon="13.067770670529107"><ele>226.0</ele><time>2026-05-03T15:41:44.001Z</time></trkpt><trkpt lat="46.34913979365294" lon="13.067787398461824"><ele>226.0</ele><time>2026-05-03T15:41:45.001Z</time></trkpt><trkpt lat="46.34903453822849" lon="13.06781193922657"><ele>226.00000000000003</ele><time>2026-05-03T15:41:47.001Z</time></trkpt><trkpt lat="46.34893366653424" lon="13.067770031198947"><ele>226.00000000000003</ele><time>2026-05-03T15:41:49.001Z</time></trkpt><trkpt lat="46.34890951183031" lon="13.067608025697995"><ele>226.0</ele><time>2026-05-03T15:41:51.001Z</time></trkpt><trkpt lat="46.348979169799335" lon="13.067470349091222"><ele>226.0</ele><time>2026-05-03T15:41:53.001Z</time></trkpt><trkpt lat="46.34904324115123" lon="13.067403327010288"><ele>227.0</ele><time>2026-05-03T15:41:54.001Z</time></trkpt><trkpt lat="46.34909631576807" lon="13.067332716727156"><ele>228.00000000000003</ele><time>2026-05-03T15:41:55.001Z</time></trkpt><trkpt lat="46.34913182506411" lon="13.067209589284673"><ele>229.00000000000003</ele><time>2026-05-03T15:41:56.001Z</time></trkpt><trkpt lat="46.34912988914361" lon="13.067069846774798"><ele>230.0</ele><time>2026-05-03T15:41:57.001Z</time></trkpt><trkpt lat="46.349076880542334" lon="13.06694151826821"><ele>231.0</ele><time>2026-05-03T15:41:58.001Z</time></trkpt><trkpt lat="46.34902236025519" lon="13.066822078547789"><ele>231.0</ele><time>2026-05-03T15:41:59.001Z</time></trkpt><trkpt lat="46.348967783332235" lon="13.066701526478102"><ele>231.00000000000003</ele><time>2026-05-03T15:42:00.001Z</time></trkpt><trkpt lat="46.34890821523679" lon="13.066577959590687"><ele>231.00000000000003</ele><time>2026-05-03T15:42:01.001Z</time></trkpt><trkpt lat="46.34883963820212" lon="13.066477772872508"><ele>231.0</ele><time>2026-05-03T15:42:02.001Z</time></trkpt><trkpt lat="46.34878018129582" lon="13.066349640731758"><ele>231.0</ele><time>2026-05-03T15:42:03.001Z</time></trkpt><trkpt lat="46.34871131129802" lon="13.06622168952548"><ele>230.20000000000002</ele><time>2026-05-03T15:42:04.001Z</time></trkpt><trkpt lat="46.34864803741498" lon="13.066087807347152"><ele>229.40000000000003</ele><time>2026-05-03T15:42:05.001Z</time></trkpt><trkpt lat="46.348570357815795" lon="13.066007991563442"><ele>228.6</ele><time>2026-05-03T15:42:06.001Z</time></trkpt><trkpt lat="46.34846591156407" lon="13.06595505709789"><ele>227.8</ele><time>2026-05-03T15:42:07.001Z</time></trkpt><trkpt lat="46.348351685462596" lon="13.065939893344442"><ele>227.0</ele><time>2026-05-03T15:42:08.001Z</time></trkpt><trkpt lat="46.348233310233994" lon="13.065955799368991"><ele>227.0</ele><time>2026-05-03T15:42:09.001Z</time></trkpt><trkpt lat="46.3481208822907" lon="13.066012756362866"><ele>227.0</ele><time>2026-05-03T15:42:10.001Z</time></trkpt><trkpt lat="46.34801731714798" lon="13.066074981996252"><ele>227.0</ele><time>2026-05-03T15:42:11.001Z</time></trkpt><trkpt lat="46.34792001341049" lon="13.066184431436824"><ele>227.0</ele><time>2026-05-03T15:42:12.001Z</time></trkpt><trkpt lat="46.347823517907266" lon="13.066302275572228"><ele>223.0</ele><time>2026-05-03T15:42:13.001Z</time></trkpt><trkpt lat="46.34773625596013" lon="13.066432634099483"><ele>219.0</ele><time>2026-05-03T15:42:14.001Z</time></trkpt><trkpt lat="46.34764158376626" lon="13.066548125518095"><ele>215.0</ele><time>2026-05-03T15:42:15.001Z</time></trkpt><trkpt lat="46.34755247112124" lon="13.06664146956437"><ele>211.0</ele><time>2026-05-03T15:42:16.001Z</time></trkpt><trkpt lat="46.347468536638125" lon="13.066731641273813"><ele>209.20000000000002</ele><time>2026-05-03T15:42:17.001Z</time></trkpt><trkpt lat="46.34738591091868" lon="13.066817722844958"><ele>207.4</ele><time>2026-05-03T15:42:18.001Z</time></trkpt><trkpt lat="46.347306152121654" lon="13.066899590279714"><ele>205.6</ele><time>2026-05-03T15:42:19.001Z</time></trkpt><trkpt lat="46.34722775998072" lon="13.066976857526953"><ele>203.8</ele><time>2026-05-03T15:42:20.001Z</time></trkpt><trkpt lat="46.347147583138764" lon="13.067057188856786"><ele>202.0</ele><time>2026-05-03T15:42:21.001Z</time></trkpt><trkpt lat="46.34706500942785" lon="13.067132980000158"><ele>201.75</ele><time>2026-05-03T15:42:22.001Z</time></trkpt><trkpt lat="46.346989309396676" lon="13.067213615262013"><ele>201.5</ele><time>2026-05-03T15:42:23.001Z</time></trkpt><trkpt lat="46.34691431553904" lon="13.067339925996942"><ele>201.25</ele><time>2026-05-03T15:42:24.001Z</time></trkpt><trkpt lat="46.34685129536301" lon="13.067523926234768"><ele>201.0</ele><time>2026-05-03T15:42:25.001Z</time></trkpt><trkpt lat="46.346778658852394" lon="13.067671210223441"><ele>201.25</ele><time>2026-05-03T15:42:26.001Z</time></trkpt><trkpt lat="46.34677610050873" lon="13.067874486497773"><ele>201.5</ele><time>2026-05-03T15:42:27.001Z</time></trkpt><trkpt lat="46.34674590589585" lon="13.06803793319326"><ele>201.75</ele><time>2026-05-03T15:42:28.001Z</time></trkpt><trkpt lat="46.346715270282296" lon="13.068199677871126"><ele>202.0</ele><time>2026-05-03T15:42:29.001Z</time></trkpt><trkpt lat="46.346683701173944" lon="13.068364728754585"><ele>202.0</ele><time>2026-05-03T15:42:30.001Z</time></trkpt><trkpt lat="46.34665320521833" lon="13.068527167302651"><ele>202.0</ele><time>2026-05-03T15:42:31.001Z</time></trkpt><trkpt lat="46.34661727795081" lon="13.06869824422322"><ele>202.0</ele><time>2026-05-03T15:42:32.001Z</time></trkpt><trkpt lat="46.34656951637433" lon="13.068888214287908"><ele>202.0</ele><time>2026-05-03T15:42:33.001Z</time></trkpt><trkpt lat="46.34651368007317" lon="13.069088493885316"><ele>203.0</ele><time>2026-05-03T15:42:34.001Z</time></trkpt><trkpt lat="46.34645237735146" lon="13.069288203930876"><ele>204.0</ele><time>2026-05-03T15:42:35.001Z</time></trkpt><trkpt lat="46.3463768665756" lon="13.069492117938633"><ele>205.0</ele><time>2026-05-03T15:42:36.001Z</time></trkpt><trkpt lat="46.346284357801565" lon="13.069720931281168"><ele>203.5</ele><time>2026-05-03T15:42:37.001Z</time></trkpt><trkpt lat="46.34617398130853" lon="13.06999706966951"><ele>202.0</ele><time>2026-05-03T15:42:38.001Z</time></trkpt><trkpt lat="46.34602263094479" lon="13.070309011460667"><ele>202.0</ele><time>2026-05-03T15:42:39.001Z</time></trkpt><trkpt lat="46.34583748119491" lon="13.070660087762574"><ele>202.0</ele><time>2026-05-03T15:42:40.001Z</time></trkpt><trkpt lat="46.345630498960446" lon="13.07100802814949"><ele>202.5</ele><time>2026-05-03T15:42:41.001Z</time></trkpt><trkpt lat="46.3454154155658" lon="13.071428442045626"><ele>203.0</ele><time>2026-05-03T15:42:42.001Z</time></trkpt><trkpt lat="46.34520701252601" lon="13.071833729815602"><ele>203.0</ele><time>2026-05-03T15:42:43.001Z</time></trkpt><trkpt lat="46.345030216643224" lon="13.072185897730897"><ele>203.0</ele><time>2026-05-03T15:42:44.001Z</time></trkpt><trkpt lat="46.34487556410515" lon="13.072543881288228"><ele>203.0</ele><time>2026-05-03T15:42:45.001Z</time></trkpt><trkpt lat="46.344770980346006" lon="13.07289125128519"><ele>203.0</ele><time>2026-05-03T15:42:46Z</time></trkpt><trkpt lat="46.34468830496376" lon="13.073222021124549"><ele>201.0</ele><time>2026-05-03T15:42:47Z</time></trkpt><trkpt lat="46.344615988581" lon="13.073506734951792"><ele>199.0</ele><time>2026-05-03T15:42:48Z</time></trkpt><trkpt lat="46.34451081649396" lon="13.073750050857019"><ele>197.0</ele><time>2026-05-03T15:42:49Z</time></trkpt><trkpt lat="46.344333868883105" lon="13.073975524480959"><ele>196.0</ele><time>2026-05-03T15:42:50Z</time></trkpt><trkpt lat="46.344058674961595" lon="13.074155339506724"><ele>195.0</ele><time>2026-05-03T15:42:51Z</time></trkpt><trkpt lat="46.34378942151722" lon="13.074390838894422"><ele>195.0</ele><time>2026-05-03T15:42:52Z</time></trkpt><trkpt lat="46.343496219086376" lon="13.074618956587466"><ele>195.0</ele><time>2026-05-03T15:42:53Z</time></trkpt><trkpt lat="46.34319149310659" lon="13.074822376664482"><ele>197.0</ele><time>2026-05-03T15:42:54Z</time></trkpt><trkpt lat="46.34293308707949" lon="13.074966136902503"><ele>199.0</ele><time>2026-05-03T15:42:55Z</time></trkpt><trkpt lat="46.34270707343973" lon="13.07506848132946"><ele>199.0</ele><time>2026-05-03T15:42:56Z</time></trkpt><trkpt lat="46.34249237422464" lon="13.075164751308163"><ele>199.0</ele><time>2026-05-03T15:42:57Z</time></trkpt><trkpt lat="46.342292358060085" lon="13.075268472664872"><ele>199.0</ele><time>2026-05-03T15:42:58Z</time></trkpt><trkpt lat="46.34208362435388" lon="13.075364536431971"><ele>197.66666666666666</ele><time>2026-05-03T15:42:59Z</time></trkpt><trkpt lat="46.3418898004246" lon="13.075467687515603"><ele>196.33333333333331</ele><time>2026-05-03T15:43:00Z</time></trkpt><trkpt lat="46.341674820544014" lon="13.075555198179396"><ele>195.0</ele><time>2026-05-03T15:43:01Z</time></trkpt><trkpt lat="46.34142985178785" lon="13.07565971293032"><ele>193.0</ele><time>2026-05-03T15:43:02Z</time></trkpt><trkpt lat="46.3411629691833" lon="13.075749608895242"><ele>191.0</ele><time>2026-05-03T15:43:03Z</time></trkpt><trkpt lat="46.3409227372102" lon="13.075826548227983"><ele>192.33333333333331</ele><time>2026-05-03T15:43:04Z</time></trkpt><trkpt lat="46.34071757205168" lon="13.07586610334506"><ele>193.66666666666666</ele><time>2026-05-03T15:43:05Z</time></trkpt><trkpt lat="46.340531307054206" lon="13.075915660076824"><ele>195.0</ele><time>2026-05-03T15:43:06Z</time></trkpt><trkpt lat="46.34035533701596" lon="13.076031730238478"><ele>195.0</ele><time>2026-05-03T15:43:07Z</time></trkpt><trkpt lat="46.34020113124752" lon="13.076225956721187"><ele>195.0</ele><time>2026-05-03T15:43:08Z</time></trkpt><trkpt lat="46.34006703004742" lon="13.076500851355442"><ele>195.0</ele><time>2026-05-03T15:43:09Z</time></trkpt><trkpt lat="46.33993159655078" lon="13.076809771838274"><ele>196.33333333333331</ele><time>2026-05-03T15:43:10Z</time></trkpt><trkpt lat="46.33981604264533" lon="13.077092186895975"><ele>197.66666666666666</ele><time>2026-05-03T15:43:11Z</time></trkpt><trkpt lat="46.339675609308415" lon="13.077337064160233"><ele>199.0</ele><time>2026-05-03T15:43:12Z</time></trkpt><trkpt lat="46.33948064650239" lon="13.077535265881938"><ele>199.0</ele><time>2026-05-03T15:43:13Z</time></trkpt><trkpt lat="46.33925236043515" lon="13.077692361306061"><ele>199.0</ele><time>2026-05-03T15:43:14Z</time></trkpt><trkpt lat="46.33898332928172" lon="13.077804996189624"><ele>196.0</ele><time>2026-05-03T15:43:15Z</time></trkpt><trkpt lat="46.338687023719544" lon="13.077907841289498"><ele>193.0</ele><time>2026-05-03T15:43:16Z</time></trkpt><trkpt lat="46.33837737135663" lon="13.078039235187571"><ele>191.0</ele><time>2026-05-03T15:43:17.001Z</time></trkpt><trkpt lat="46.338048889395324" lon="13.078206643857595"><ele>189.0</ele><time>2026-05-03T15:43:18.001Z</time></trkpt><trkpt lat="46.337685183358246" lon="13.078354503257387"><ele>191.0</ele><time>2026-05-03T15:43:19.001Z</time></trkpt><trkpt lat="46.33732854149392" lon="13.07852830985967"><ele>193.0</ele><time>2026-05-03T15:43:20.001Z</time></trkpt><trkpt lat="46.336942253926374" lon="13.078649163654749"><ele>193.0</ele><time>2026-05-03T15:43:21.001Z</time></trkpt><trkpt lat="46.33657021693405" lon="13.07884674448734"><ele>193.0</ele><time>2026-05-03T15:43:22.001Z</time></trkpt><trkpt lat="46.33617285148428" lon="13.07906368243791"><ele>200.0</ele><time>2026-05-03T15:43:23.001Z</time></trkpt><trkpt lat="46.335773128700644" lon="13.079305734702107"><ele>207.0</ele><time>2026-05-03T15:43:24.001Z</time></trkpt><trkpt lat="46.3354093694177" lon="13.079541681199691"><ele>208.5</ele><time>2026-05-03T15:43:25.001Z</time></trkpt><trkpt lat="46.33510195282148" lon="13.079716105240163"><ele>210.0</ele><time>2026-05-03T15:43:26.001Z</time></trkpt><trkpt lat="46.334795851236365" lon="13.079866055589715"><ele>213.5</ele><time>2026-05-03T15:43:27.001Z</time></trkpt><trkpt lat="46.33448106070378" lon="13.07999868526848"><ele>217.0</ele><time>2026-05-03T15:43:28.001Z</time></trkpt><trkpt lat="46.33416639392378" lon="13.080134161408624"><ele>208.0</ele><time>2026-05-03T15:43:29.001Z</time></trkpt><trkpt lat="46.33386955252618" lon="13.080317623413858"><ele>199.0</ele><time>2026-05-03T15:43:30.001Z</time></trkpt><trkpt lat="46.333589722980335" lon="13.080514113308709"><ele>199.0</ele><time>2026-05-03T15:43:31.001Z</time></trkpt><trkpt lat="46.33333082796552" lon="13.080720991804395"><ele>199.0</ele><time>2026-05-03T15:43:32.001Z</time></trkpt><trkpt lat="46.33307489549426" lon="13.080945754782705"><ele>208.5</ele><time>2026-05-03T15:43:33.001Z</time></trkpt><trkpt lat="46.33280993427598" lon="13.081167585643758"><ele>218.0</ele><time>2026-05-03T15:43:34.001Z</time></trkpt><trkpt lat="46.33255209553115" lon="13.08140523165457"><ele>227.5</ele><time>2026-05-03T15:43:35.001Z</time></trkpt><trkpt lat="46.332301070077904" lon="13.081645730274541"><ele>237.0</ele><time>2026-05-03T15:43:36.001Z</time></trkpt><trkpt lat="46.33205413796129" lon="13.08188370557156"><ele>237.0</ele><time>2026-05-03T15:43:37.001Z</time></trkpt><trkpt lat="46.331799628312524" lon="13.082101414634092"><ele>237.0</ele><time>2026-05-03T15:43:38.001Z</time></trkpt><trkpt lat="46.33154895438312" lon="13.082323297310245"><ele>265.5</ele><time>2026-05-03T15:43:39.001Z</time></trkpt><trkpt lat="46.33129347168909" lon="13.08254872812197"><ele>294.0</ele><time>2026-05-03T15:43:40.001Z</time></trkpt><trkpt lat="46.33102896145259" lon="13.082785215410496"><ele>294.0</ele><time>2026-05-03T15:43:41.07Z</time></trkpt><trkpt lat="46.33078566275746" lon="13.082993724797314"><ele>294.0</ele><time>2026-05-03T15:43:42.061Z</time></trkpt><trkpt lat="46.330533180959584" lon="13.083147065992467"><ele>311.5</ele><time>2026-05-03T15:43:43.054Z</time></trkpt><trkpt lat="46.330272739669574" lon="13.083275210772404"><ele>329.0</ele><time>2026-05-03T15:43:44.057Z</time></trkpt><trkpt lat="46.33002620656786" lon="13.08336592187036"><ele>252.0</ele><time>2026-05-03T15:43:45.05Z</time></trkpt><trkpt lat="46.32853237477235" lon="13.08323712357137"><ele>252.0</ele><time>2026-05-03T15:43:48.529Z</time></trkpt><trkpt lat="46.32811959580085" lon="13.082980400083715"><ele>252.0</ele><time>2026-05-03T15:43:49.529Z</time></trkpt><trkpt lat="46.327670035718086" lon="13.082515392766243"><ele>245.5</ele><time>2026-05-03T15:43:56.001Z</time></trkpt><trkpt lat="46.32750619737522" lon="13.082301204138634"><ele>239.0</ele><time>2026-05-03T15:43:57.001Z</time></trkpt><trkpt lat="46.32730580643137" lon="13.081867891151031"><ele>243.5</ele><time>2026-05-03T15:43:58.001Z</time></trkpt><trkpt lat="46.327090965508546" lon="13.081484836494997"><ele>248.0</ele><time>2026-05-03T15:43:59.001Z</time></trkpt><trkpt lat="46.326953036944026" lon="13.081216643223927"><ele>248.0</ele><time>2026-05-03T15:44:00.001Z</time></trkpt><trkpt lat="46.32684067856909" lon="13.080959556485341"><ele>248.0</ele><time>2026-05-03T15:44:01.001Z</time></trkpt><trkpt lat="46.3267536041397" lon="13.08070932819061"><ele>248.0</ele><time>2026-05-03T15:44:02.001Z</time></trkpt><trkpt lat="46.32668111100818" lon="13.080520738108435"><ele>248.5</ele><time>2026-05-03T15:44:03.001Z</time></trkpt><trkpt lat="46.32665131798877" lon="13.080316979880704"><ele>249.0</ele><time>2026-05-03T15:44:04.001Z</time></trkpt><trkpt lat="46.326716466544006" lon="13.080131563308877"><ele>249.5</ele><time>2026-05-03T15:44:05.001Z</time></trkpt><trkpt lat="46.32682298608017" lon="13.079957002944068"><ele>250.0</ele><time>2026-05-03T15:44:06.001Z</time></trkpt><trkpt lat="46.32690661935117" lon="13.07975984033002"><ele>247.66666666666666</ele><time>2026-05-03T15:44:07.001Z</time></trkpt><trkpt lat="46.326903040991525" lon="13.079538711498392"><ele>245.33333333333331</ele><time>2026-05-03T15:44:08.001Z</time></trkpt><trkpt lat="46.326846245962344" lon="13.079362474577472"><ele>243.0</ele><time>2026-05-03T15:44:09.001Z</time></trkpt><trkpt lat="46.32673338994563" lon="13.07913828896272"><ele>244.33333333333331</ele><time>2026-05-03T15:44:10.001Z</time></trkpt><trkpt lat="46.32659498294569" lon="13.078945841742861"><ele>245.66666666666666</ele><time>2026-05-03T15:44:11.001Z</time></trkpt><trkpt lat="46.32644317403495" lon="13.078729969105487"><ele>247.0</ele><time>2026-05-03T15:44:12.001Z</time></trkpt><trkpt lat="46.32624995935754" lon="13.078589034962969"><ele>247.0</ele><time>2026-05-03T15:44:13Z</time></trkpt><trkpt lat="46.326035784447306" lon="13.078432778479613"><ele>247.0</ele><time>2026-05-03T15:44:14Z</time></trkpt><trkpt lat="46.325852676564764" lon="13.078233850114069"><ele>243.0</ele><time>2026-05-03T15:44:15Z</time></trkpt><trkpt lat="46.32564015438158" lon="13.077997178576801"><ele>239.0</ele><time>2026-05-03T15:44:16Z</time></trkpt><trkpt lat="46.325375871021976" lon="13.077654534506758"><ele>225.5</ele><time>2026-05-03T15:44:17Z</time></trkpt><trkpt lat="46.32508320628232" lon="13.077273720690322"><ele>212.0</ele><time>2026-05-03T15:44:18Z</time></trkpt><trkpt lat="46.32481698339251" lon="13.076932314040198"><ele>211.0</ele><time>2026-05-03T15:44:19Z</time></trkpt><trkpt lat="46.32460162172522" lon="13.076617754444992"><ele>210.0</ele><time>2026-05-03T15:44:20Z</time></trkpt><trkpt lat="46.32437170611199" lon="13.076319531815132"><ele>210.0</ele><time>2026-05-03T15:44:21Z</time></trkpt><trkpt lat="46.32414242324441" lon="13.076097722025887"><ele>210.0</ele><time>2026-05-03T15:44:22Z</time></trkpt><trkpt lat="46.32392607376163" lon="13.075879750701171"><ele>210.0</ele><time>2026-05-03T15:44:23Z</time></trkpt><trkpt lat="46.323721160132905" lon="13.07565341394887"><ele>210.0</ele><time>2026-05-03T15:44:24Z</time></trkpt><trkpt lat="46.323536975614566" lon="13.075418267113802"><ele>210.0</ele><time>2026-05-03T15:44:25Z</time></trkpt><trkpt lat="46.32339780528907" lon="13.075133259041598"><ele>210.0</ele><time>2026-05-03T15:44:26Z</time></trkpt><trkpt lat="46.323258394610704" lon="13.074862096284328"><ele>206.66666666666669</ele><time>2026-05-03T15:44:27Z</time></trkpt><trkpt lat="46.323131897487706" lon="13.074622286030278"><ele>203.33333333333334</ele><time>2026-05-03T15:44:28Z</time></trkpt><trkpt lat="46.32299678831776" lon="13.074381838971696"><ele>200.0</ele><time>2026-05-03T15:44:29Z</time></trkpt><trkpt lat="46.32286458292518" lon="13.074147519563079"><ele>200.33333333333334</ele><time>2026-05-03T15:44:30Z</time></trkpt><trkpt lat="46.32273513480939" lon="13.07391197127576"><ele>200.66666666666669</ele><time>2026-05-03T15:44:31Z</time></trkpt><trkpt lat="46.32261212959408" lon="13.073681533408916"><ele>201.0</ele><time>2026-05-03T15:44:32.001Z</time></trkpt><trkpt lat="46.322489719359844" lon="13.07345031597156"><ele>198.0</ele><time>2026-05-03T15:44:33.001Z</time></trkpt><trkpt lat="46.322370555171936" lon="13.073235733648223"><ele>195.0</ele><time>2026-05-03T15:44:34.001Z</time></trkpt><trkpt lat="46.32225275519766" lon="13.073032993394605"><ele>192.0</ele><time>2026-05-03T15:44:35.001Z</time></trkpt><trkpt lat="46.32213926402565" lon="13.072837129144748"><ele>195.33333333333331</ele><time>2026-05-03T15:44:36.001Z</time></trkpt><trkpt lat="46.32202836553576" lon="13.072652434166372"><ele>198.66666666666666</ele><time>2026-05-03T15:44:37.001Z</time></trkpt><trkpt lat="46.32192692306855" lon="13.072473748950628"><ele>202.0</ele><time>2026-05-03T15:44:38.001Z</time></trkpt><trkpt lat="46.32182543924523" lon="13.072306639752801"><ele>202.0</ele><time>2026-05-03T15:44:39.001Z</time></trkpt><trkpt lat="46.321729209237446" lon="13.072146334712084"><ele>202.0</ele><time>2026-05-03T15:44:40.001Z</time></trkpt><trkpt lat="46.321631805923516" lon="13.071998933866837"><ele>202.0</ele><time>2026-05-03T15:44:41.001Z</time></trkpt><trkpt lat="46.32153333485153" lon="13.071835524383403"><ele>202.0</ele><time>2026-05-03T15:44:42.001Z</time></trkpt><trkpt lat="46.32143102902331" lon="13.071674258457353"><ele>201.5</ele><time>2026-05-03T15:44:43.001Z</time></trkpt><trkpt lat="46.321334687553204" lon="13.071515548502653"><ele>201.0</ele><time>2026-05-03T15:44:44.001Z</time></trkpt><trkpt lat="46.321237674526124" lon="13.071362839032366"><ele>200.5</ele><time>2026-05-03T15:44:45.001Z</time></trkpt><trkpt lat="46.32114874585719" lon="13.071211210298836"><ele>200.0</ele><time>2026-05-03T15:44:46.001Z</time></trkpt><trkpt lat="46.32105687467072" lon="13.071079349475756"><ele>200.0</ele><time>2026-05-03T15:44:47.001Z</time></trkpt><trkpt lat="46.32097020974149" lon="13.070949318304171"><ele>200.0</ele><time>2026-05-03T15:44:48.001Z</time></trkpt><trkpt lat="46.32087635265443" lon="13.070835074531269"><ele>200.0</ele><time>2026-05-03T15:44:49.001Z</time></trkpt><trkpt lat="46.320792356678446" lon="13.070716677356105"><ele>200.0</ele><time>2026-05-03T15:44:50.001Z</time></trkpt><trkpt lat="46.320701293578736" lon="13.070614337463473"><ele>200.4</ele><time>2026-05-03T15:44:51.001Z</time></trkpt><trkpt lat="46.32061324997605" lon="13.070517867186519"><ele>200.8</ele><time>2026-05-03T15:44:52Z</time></trkpt><trkpt lat="46.32053038698817" lon="13.070422821867602"><ele>201.2</ele><time>2026-05-03T15:44:53Z</time></trkpt><trkpt lat="46.32044609047087" lon="13.070356901575323"><ele>201.6</ele><time>2026-05-03T15:44:54Z</time></trkpt><trkpt lat="46.32035779869921" lon="13.070262931736016"><ele>202.0</ele><time>2026-05-03T15:44:55Z</time></trkpt><trkpt lat="46.320293754744945" lon="13.070159264270407"><ele>201.99999999999997</ele><time>2026-05-03T15:44:56Z</time></trkpt><trkpt lat="46.320231455385766" lon="13.070067624285494"><ele>202.0</ele><time>2026-05-03T15:44:57Z</time></trkpt><trkpt lat="46.320171717988664" lon="13.069984129171223"><ele>202.0</ele><time>2026-05-03T15:44:58Z</time></trkpt><trkpt lat="46.32011804534258" lon="13.069919973122653"><ele>202.0</ele><time>2026-05-03T15:44:59Z</time></trkpt><trkpt lat="46.32004719637489" lon="13.069808975551547"><ele>201.99999999999997</ele><time>2026-05-03T15:45:01Z</time></trkpt><trkpt lat="46.319987244248225" lon="13.06972511654834"><ele>202.0</ele><time>2026-05-03T15:45:04Z</time></trkpt><trkpt lat="46.31993748488009" lon="13.069662470622198"><ele>202.2</ele><time>2026-05-03T15:45:07Z</time></trkpt><trkpt lat="46.31988517002888" lon="13.069576924441161"><ele>202.39999999999998</ele><time>2026-05-03T15:47:55.001Z</time></trkpt><trkpt lat="46.319815747944205" lon="13.069525547295378"><ele>202.60000000000002</ele><time>2026-05-03T15:47:56.001Z</time></trkpt><trkpt lat="46.319731968443925" lon="13.069464713855032"><ele>202.8</ele><time>2026-05-03T15:47:57.001Z</time></trkpt><trkpt lat="46.31963716327106" lon="13.069377142426351"><ele>203.0</ele><time>2026-05-03T15:47:58.001Z</time></trkpt><trkpt lat="46.31952206750024" lon="13.069271451373433"><ele>203.0</ele><time>2026-05-03T15:47:59.001Z</time></trkpt><trkpt lat="46.319382244498634" lon="13.069152302610389"><ele>203.0</ele><time>2026-05-03T15:48:00.001Z</time></trkpt><trkpt lat="46.31922400567058" lon="13.069022526148387"><ele>203.0</ele><time>2026-05-03T15:48:01.001Z</time></trkpt><trkpt lat="46.31904732893199" lon="13.068867335311422"><ele>206.33333333333334</ele><time>2026-05-03T15:48:02.001Z</time></trkpt><trkpt lat="46.318869827744706" lon="13.068697152343743"><ele>209.66666666666669</ele><time>2026-05-03T15:48:03.001Z</time></trkpt><trkpt lat="46.31871155478239" lon="13.0685554135377"><ele>213.0</ele><time>2026-05-03T15:48:04.001Z</time></trkpt><trkpt lat="46.31855800466191" lon="13.068418914215698"><ele>208.66666666666669</ele><time>2026-05-03T15:48:05.001Z</time></trkpt><trkpt lat="46.3184191722208" lon="13.068272970538413"><ele>204.33333333333334</ele><time>2026-05-03T15:48:06.001Z</time></trkpt><trkpt lat="46.318291368589456" lon="13.068139118078395"><ele>200.0</ele><time>2026-05-03T15:48:07.001Z</time></trkpt><trkpt lat="46.31816720032492" lon="13.068007341031095"><ele>202.66666666666669</ele><time>2026-05-03T15:48:08.001Z</time></trkpt><trkpt lat="46.31804147462339" lon="13.067864072346874"><ele>205.33333333333331</ele><time>2026-05-03T15:48:09.001Z</time></trkpt><trkpt lat="46.31791636681691" lon="13.067713057533153"><ele>208.0</ele><time>2026-05-03T15:48:10.001Z</time></trkpt><trkpt lat="46.31779399226877" lon="13.06755621154173"><ele>204.0</ele><time>2026-05-03T15:48:11.001Z</time></trkpt><trkpt lat="46.31767008270135" lon="13.067388324047467"><ele>200.0</ele><time>2026-05-03T15:48:12.001Z</time></trkpt><trkpt lat="46.317542618942454" lon="13.0672178322197"><ele>196.0</ele><time>2026-05-03T15:48:13.001Z</time></trkpt><trkpt lat="46.317411821451216" lon="13.067043433125248"><ele>196.0</ele><time>2026-05-03T15:48:14.001Z</time></trkpt><trkpt lat="46.31727899030959" lon="13.066867383168708"><ele>196.0</ele><time>2026-05-03T15:48:15.001Z</time></trkpt><trkpt lat="46.31714471137338" lon="13.06668967875899"><ele>196.0</ele><time>2026-05-03T15:48:16.001Z</time></trkpt><trkpt lat="46.31701200622461" lon="13.066506642261876"><ele>197.66666666666666</ele><time>2026-05-03T15:48:17.001Z</time></trkpt><trkpt lat="46.31688068636963" lon="13.066319009607692"><ele>199.33333333333331</ele><time>2026-05-03T15:48:18.001Z</time></trkpt><trkpt lat="46.316748506599396" lon="13.066132367032242"><ele>201.0</ele><time>2026-05-03T15:48:19.001Z</time></trkpt><trkpt lat="46.31661553703242" lon="13.065941490022674"><ele>200.66666666666669</ele><time>2026-05-03T15:48:20.001Z</time></trkpt><trkpt lat="46.31647586427282" lon="13.06575139543907"><ele>200.33333333333334</ele><time>2026-05-03T15:48:21.001Z</time></trkpt><trkpt lat="46.31634080902114" lon="13.065570976027695"><ele>200.0</ele><time>2026-05-03T15:48:22.001Z</time></trkpt><trkpt lat="46.31621772588117" lon="13.06540680294996"><ele>200.0</ele><time>2026-05-03T15:48:23.001Z</time></trkpt><trkpt lat="46.31610065557629" lon="13.06524856160398"><ele>200.0</ele><time>2026-05-03T15:48:24.001Z</time></trkpt><trkpt lat="46.315991422213536" lon="13.065089211323361"><ele>200.0</ele><time>2026-05-03T15:48:25.001Z</time></trkpt><trkpt lat="46.31588752490489" lon="13.064918579321699"><ele>199.66666666666669</ele><time>2026-05-03T15:48:26.001Z</time></trkpt><trkpt lat="46.31578804466596" lon="13.064741537901844"><ele>199.33333333333331</ele><time>2026-05-03T15:48:27.001Z</time></trkpt><trkpt lat="46.31570095433082" lon="13.064552638212025"><ele>199.0</ele><time>2026-05-03T15:48:28.001Z</time></trkpt><trkpt lat="46.31562021299775" lon="13.064355895169008"><ele>199.66666666666666</ele><time>2026-05-03T15:48:29.001Z</time></trkpt><trkpt lat="46.31554430195758" lon="13.064153200068292"><ele>200.33333333333331</ele><time>2026-05-03T15:48:30.001Z</time></trkpt><trkpt lat="46.315474147118174" lon="13.063947925271345"><ele>201.0</ele><time>2026-05-03T15:48:31.001Z</time></trkpt><trkpt lat="46.31540741831809" lon="13.063738611205777"><ele>201.0</ele><time>2026-05-03T15:48:32.001Z</time></trkpt><trkpt lat="46.315341560679116" lon="13.063531364815406"><ele>201.0</ele><time>2026-05-03T15:48:33.001Z</time></trkpt><trkpt lat="46.31527137839068" lon="13.063324679026564"><ele>201.0</ele><time>2026-05-03T15:48:34.001Z</time></trkpt><trkpt lat="46.31519071650215" lon="13.06312470352828"><ele>200.33333333333331</ele><time>2026-05-03T15:48:35.001Z</time></trkpt><trkpt lat="46.3151014282997" lon="13.062936579389621"><ele>199.66666666666666</ele><time>2026-05-03T15:48:36.001Z</time></trkpt><trkpt lat="46.315006706503844" lon="13.062753903878269"><ele>199.0</ele><time>2026-05-03T15:48:37.001Z</time></trkpt><trkpt lat="46.3149115598681" lon="13.062588632526168"><ele>198.75</ele><time>2026-05-03T15:48:38.001Z</time></trkpt><trkpt lat="46.3148085231415" lon="13.062429996467666"><ele>198.5</ele><time>2026-05-03T15:48:39.001Z</time></trkpt><trkpt lat="46.31470064883181" lon="13.062280019031864"><ele>198.25</ele><time>2026-05-03T15:48:40.001Z</time></trkpt><trkpt lat="46.31459246546331" lon="13.062134284652052"><ele>198.0</ele><time>2026-05-03T15:48:41.001Z</time></trkpt><trkpt lat="46.314482319336406" lon="13.06199473602222"><ele>197.75</ele><time>2026-05-03T15:48:42.001Z</time></trkpt><trkpt lat="46.31437349190643" lon="13.061857572455516"><ele>197.5</ele><time>2026-05-03T15:48:43.001Z</time></trkpt><trkpt lat="46.314264488244895" lon="13.061715614013252"><ele>197.25</ele><time>2026-05-03T15:48:44.001Z</time></trkpt><trkpt lat="46.31415456566812" lon="13.061574650801132"><ele>197.0</ele><time>2026-05-03T15:48:45.001Z</time></trkpt><trkpt lat="46.314042498109714" lon="13.061431894808345"><ele>197.0</ele><time>2026-05-03T15:48:46.001Z</time></trkpt><trkpt lat="46.31393080701669" lon="13.061285669507926"><ele>197.0</ele><time>2026-05-03T15:48:47.001Z</time></trkpt><trkpt lat="46.31381915219474" lon="13.061136829350202"><ele>197.0</ele><time>2026-05-03T15:48:48.001Z</time></trkpt><trkpt lat="46.31370445995044" lon="13.060988804607321"><ele>197.66666666666669</ele><time>2026-05-03T15:48:49.001Z</time></trkpt><trkpt lat="46.31358923740121" lon="13.060842784274593"><ele>198.33333333333331</ele><time>2026-05-03T15:48:50.001Z</time></trkpt><trkpt lat="46.31347282119901" lon="13.060697004979174"><ele>199.0</ele><time>2026-05-03T15:48:51.001Z</time></trkpt><trkpt lat="46.31335622715377" lon="13.060552053276034"><ele>199.0</ele><time>2026-05-03T15:48:52.001Z</time></trkpt><trkpt lat="46.31324026778266" lon="13.060402449669692"><ele>199.0</ele><time>2026-05-03T15:48:53.001Z</time></trkpt><trkpt lat="46.31312494426234" lon="13.060246403930382"><ele>199.0</ele><time>2026-05-03T15:48:54.001Z</time></trkpt><trkpt lat="46.31300694577677" lon="13.060088723902314"><ele>199.0</ele><time>2026-05-03T15:48:55.001Z</time></trkpt><trkpt lat="46.312886337236" lon="13.059934256280547"><ele>199.0</ele><time>2026-05-03T15:48:56.001Z</time></trkpt><trkpt lat="46.31276484159682" lon="13.059777810258705"><ele>199.0</ele><time>2026-05-03T15:48:57.001Z</time></trkpt><trkpt lat="46.31264188536185" lon="13.059619902401227"><ele>199.0</ele><time>2026-05-03T15:48:58.001Z</time></trkpt><trkpt lat="46.3125186919859" lon="13.059458669892361"><ele>199.0</ele><time>2026-05-03T15:48:59.001Z</time></trkpt><trkpt lat="46.31239509252639" lon="13.059295563912489"><ele>199.0</ele><time>2026-05-03T15:49:00.001Z</time></trkpt><trkpt lat="46.3122712016646" lon="13.059132004411083"><ele>198.0</ele><time>2026-05-03T15:49:01.001Z</time></trkpt><trkpt lat="46.31213550504935" lon="13.058971722907843"><ele>197.0</ele><time>2026-05-03T15:49:02.001Z</time></trkpt><trkpt lat="46.31201275366797" lon="13.058817069047596"><ele>196.0</ele><time>2026-05-03T15:49:03.001Z</time></trkpt><trkpt lat="46.31188716817501" lon="13.058663220414235"><ele>196.0</ele><time>2026-05-03T15:49:04Z</time></trkpt><trkpt lat="46.31176151849478" lon="13.058504344584122"><ele>196.0</ele><time>2026-05-03T15:49:05Z</time></trkpt><trkpt lat="46.311636869261356" lon="13.058346844408677"><ele>196.0</ele><time>2026-05-03T15:49:06Z</time></trkpt><trkpt lat="46.31151306127491" lon="13.058189859194973"><ele>196.66666666666666</ele><time>2026-05-03T15:49:07Z</time></trkpt><trkpt lat="46.3113899779678" lon="13.058028991510662"><ele>197.33333333333331</ele><time>2026-05-03T15:49:08Z</time></trkpt><trkpt lat="46.31126782468237" lon="13.057871733747444"><ele>198.0</ele><time>2026-05-03T15:49:09Z</time></trkpt><trkpt lat="46.3111471876306" lon="13.057715999448744"><ele>198.0</ele><time>2026-05-03T15:49:10Z</time></trkpt><trkpt lat="46.31102939610686" lon="13.057556948625653"><ele>198.0</ele><time>2026-05-03T15:49:11Z</time></trkpt><trkpt lat="46.310911245760245" lon="13.057401536112405"><ele>198.0</ele><time>2026-05-03T15:49:12Z</time></trkpt><trkpt lat="46.31079236917256" lon="13.057251859089215"><ele>198.0</ele><time>2026-05-03T15:49:13Z</time></trkpt><trkpt lat="46.31067601185934" lon="13.057093827544453"><ele>198.0</ele><time>2026-05-03T15:49:14Z</time></trkpt><trkpt lat="46.31055723725589" lon="13.056930488306012"><ele>198.0</ele><time>2026-05-03T15:49:15Z</time></trkpt><trkpt lat="46.31044036545035" lon="13.056774118546683"><ele>198.0</ele><time>2026-05-03T15:49:16Z</time></trkpt><trkpt lat="46.31032074206131" lon="13.056636234011721"><ele>198.0</ele><time>2026-05-03T15:49:17Z</time></trkpt><trkpt lat="46.31019014769016" lon="13.056539114841268"><ele>198.0</ele><time>2026-05-03T15:49:18Z</time></trkpt><trkpt lat="46.31005849310371" lon="13.056487413687126"><ele>198.0</ele><time>2026-05-03T15:49:19Z</time></trkpt><trkpt lat="46.30993024447997" lon="13.056481832947965"><ele>198.33333333333331</ele><time>2026-05-03T15:49:20Z</time></trkpt><trkpt lat="46.30980015929155" lon="13.056519165716365"><ele>198.66666666666666</ele><time>2026-05-03T15:49:21Z</time></trkpt><trkpt lat="46.30966012035413" lon="13.05660216667555"><ele>199.0</ele><time>2026-05-03T15:49:22Z</time></trkpt><trkpt lat="46.309514225754846" lon="13.056726233124891"><ele>198.33333333333331</ele><time>2026-05-03T15:49:23Z</time></trkpt><trkpt lat="46.30936046699165" lon="13.056873445908039"><ele>197.66666666666669</ele><time>2026-05-03T15:49:24Z</time></trkpt><trkpt lat="46.30919045612376" lon="13.057039298886234"><ele>197.0</ele><time>2026-05-03T15:49:25Z</time></trkpt><trkpt lat="46.30901102225812" lon="13.057217641043747"><ele>197.5</ele><time>2026-05-03T15:49:26Z</time></trkpt><trkpt lat="46.308819628227646" lon="13.057406303750037"><ele>198.0</ele><time>2026-05-03T15:49:27Z</time></trkpt><trkpt lat="46.308613026405666" lon="13.057598528012063"><ele>198.5</ele><time>2026-05-03T15:49:28Z</time></trkpt><trkpt lat="46.30839978779819" lon="13.05779620446694"><ele>199.0</ele><time>2026-05-03T15:49:29Z</time></trkpt><trkpt lat="46.30817448946851" lon="13.058007541707164"><ele>198.5</ele><time>2026-05-03T15:49:30Z</time></trkpt><trkpt lat="46.30793815518399" lon="13.0582221250378"><ele>198.0</ele><time>2026-05-03T15:49:31Z</time></trkpt><trkpt lat="46.30771195131432" lon="13.05842223600317"><ele>198.0</ele><time>2026-05-03T15:49:32Z</time></trkpt><trkpt lat="46.307472986340166" lon="13.058628851701961"><ele>198.0</ele><time>2026-05-03T15:49:33Z</time></trkpt><trkpt lat="46.30722450820885" lon="13.058843611475368"><ele>198.0</ele><time>2026-05-03T15:49:34Z</time></trkpt><trkpt lat="46.30699636793764" lon="13.059057143185445"><ele>198.0</ele><time>2026-05-03T15:49:35.001Z</time></trkpt><trkpt lat="46.30679515894984" lon="13.059242329205924"><ele>198.0</ele><time>2026-05-03T15:49:36.001Z</time></trkpt><trkpt lat="46.30660504406613" lon="13.059415783331248"><ele>198.0</ele><time>2026-05-03T15:49:37.001Z</time></trkpt><trkpt lat="46.306422818476356" lon="13.059578044344134"><ele>198.0</ele><time>2026-05-03T15:49:38.001Z</time></trkpt><trkpt lat="46.3062213121693" lon="13.059734132599324"><ele>197.5</ele><time>2026-05-03T15:49:39.001Z</time></trkpt><trkpt lat="46.305987916173635" lon="13.05986537078043"><ele>197.0</ele><time>2026-05-03T15:49:40.001Z</time></trkpt><trkpt lat="46.30572872685407" lon="13.059980312231046"><ele>197.0</ele><time>2026-05-03T15:49:41.001Z</time></trkpt><trkpt lat="46.305446807164515" lon="13.06008113602606"><ele>197.0</ele><time>2026-05-03T15:49:42.001Z</time></trkpt><trkpt lat="46.30516135624325" lon="13.060178056925958"><ele>197.0</ele><time>2026-05-03T15:49:43.001Z</time></trkpt><trkpt lat="46.304889740703864" lon="13.06026013576216"><ele>197.0</ele><time>2026-05-03T15:49:44.001Z</time></trkpt><trkpt lat="46.304614050309276" lon="13.06034004296334"><ele>196.5</ele><time>2026-05-03T15:49:45.001Z</time></trkpt><trkpt lat="46.30433527892197" lon="13.06043494150334"><ele>196.0</ele><time>2026-05-03T15:49:46.001Z</time></trkpt><trkpt lat="46.30405058273851" lon="13.060546499513675"><ele>196.0</ele><time>2026-05-03T15:49:47.001Z</time></trkpt><trkpt lat="46.303759871726264" lon="13.06066233994518"><ele>196.0</ele><time>2026-05-03T15:49:48.001Z</time></trkpt><trkpt lat="46.30347285082868" lon="13.060762289679742"><ele>196.5</ele><time>2026-05-03T15:49:49.001Z</time></trkpt><trkpt lat="46.30319164305701" lon="13.060851008951921"><ele>197.0</ele><time>2026-05-03T15:49:50.001Z</time></trkpt><trkpt lat="46.30291591808538" lon="13.060938169244007"><ele>194.5</ele><time>2026-05-03T15:49:51.001Z</time></trkpt><trkpt lat="46.302647476558924" lon="13.06102511324509"><ele>192.0</ele><time>2026-05-03T15:49:52.001Z</time></trkpt><trkpt lat="46.3023937873348" lon="13.061107816167798"><ele>193.0</ele><time>2026-05-03T15:49:53.001Z</time></trkpt><trkpt lat="46.3021285695818" lon="13.061203736143577"><ele>194.0</ele><time>2026-05-03T15:49:54.001Z</time></trkpt><trkpt lat="46.301850572436486" lon="13.061304358530375"><ele>194.0</ele><time>2026-05-03T15:49:55.001Z</time></trkpt><trkpt lat="46.301568175164334" lon="13.061399103437807"><ele>194.0</ele><time>2026-05-03T15:49:56.001Z</time></trkpt><trkpt lat="46.3012869897831" lon="13.061484982843943"><ele>194.5</ele><time>2026-05-03T15:49:57.001Z</time></trkpt><trkpt lat="46.30101412241423" lon="13.061568203822844"><ele>195.0</ele><time>2026-05-03T15:49:58.001Z</time></trkpt><trkpt lat="46.30075719979831" lon="13.061653164307995"><ele>194.5</ele><time>2026-05-03T15:49:59.001Z</time></trkpt><trkpt lat="46.30051855084593" lon="13.061734533570577"><ele>194.0</ele><time>2026-05-03T15:50:00.001Z</time></trkpt><trkpt lat="46.30028042742829" lon="13.061816388644264"><ele>194.0</ele><time>2026-05-03T15:50:01.001Z</time></trkpt><trkpt lat="46.30003553908543" lon="13.061897927464639"><ele>194.0</ele><time>2026-05-03T15:50:02.001Z</time></trkpt><trkpt lat="46.29978816576767" lon="13.061978881539641"><ele>193.5</ele><time>2026-05-03T15:50:03.001Z</time></trkpt><trkpt lat="46.29954005487898" lon="13.062061133437489"><ele>193.0</ele><time>2026-05-03T15:50:04.001Z</time></trkpt><trkpt lat="46.29929131493952" lon="13.062141021566697"><ele>193.0</ele><time>2026-05-03T15:50:05.001Z</time></trkpt><trkpt lat="46.299040713094605" lon="13.062217265406312"><ele>193.0</ele><time>2026-05-03T15:50:06.001Z</time></trkpt><trkpt lat="46.29878882495719" lon="13.06228505676508"><ele>192.5</ele><time>2026-05-03T15:50:07.001Z</time></trkpt><trkpt lat="46.29853580817419" lon="13.062348960277204"><ele>192.0</ele><time>2026-05-03T15:50:08.001Z</time></trkpt><trkpt lat="46.29828122943556" lon="13.062408252937358"><ele>192.0</ele><time>2026-05-03T15:50:09.001Z</time></trkpt><trkpt lat="46.298027476768574" lon="13.06246305981654"><ele>192.0</ele><time>2026-05-03T15:50:10.001Z</time></trkpt><trkpt lat="46.2977737498622" lon="13.062513772809284"><ele>192.0</ele><time>2026-05-03T15:50:11.001Z</time></trkpt><trkpt lat="46.29752093986137" lon="13.06256173060132"><ele>192.0</ele><time>2026-05-03T15:50:12.001Z</time></trkpt><trkpt lat="46.29726833033277" lon="13.062613666031854"><ele>192.5</ele><time>2026-05-03T15:50:13.001Z</time></trkpt><trkpt lat="46.29701535707964" lon="13.062668503632407"><ele>193.0</ele><time>2026-05-03T15:50:14.001Z</time></trkpt><trkpt lat="46.29676502868572" lon="13.062720132891759"><ele>193.0</ele><time>2026-05-03T15:50:15.001Z</time></trkpt><trkpt lat="46.29651660388692" lon="13.06277098646639"><ele>193.0</ele><time>2026-05-03T15:50:16.001Z</time></trkpt><trkpt lat="46.296270716392954" lon="13.062820326694562"><ele>191.0</ele><time>2026-05-03T15:50:17.001Z</time></trkpt><trkpt lat="46.29602614226948" lon="13.06287297884919"><ele>189.0</ele><time>2026-05-03T15:50:18.001Z</time></trkpt><trkpt lat="46.29578108516575" lon="13.06292648447442"><ele>188.0</ele><time>2026-05-03T15:50:19.001Z</time></trkpt><trkpt lat="46.29553704202287" lon="13.062975260536515"><ele>187.0</ele><time>2026-05-03T15:50:20.001Z</time></trkpt><trkpt lat="46.295291765218295" lon="13.063024953082108"><ele>187.0</ele><time>2026-05-03T15:50:21.001Z</time></trkpt><trkpt lat="46.295048270446635" lon="13.063080665171684"><ele>187.0</ele><time>2026-05-03T15:50:22.001Z</time></trkpt><trkpt lat="46.294806554155095" lon="13.063138005828929"><ele>187.5</ele><time>2026-05-03T15:50:23.001Z</time></trkpt><trkpt lat="46.29456580431284" lon="13.063201098305438"><ele>188.0</ele><time>2026-05-03T15:50:24.001Z</time></trkpt><trkpt lat="46.294325450117256" lon="13.063268417291775"><ele>189.5</ele><time>2026-05-03T15:50:25.001Z</time></trkpt><trkpt lat="46.29408940693636" lon="13.063344729921807"><ele>191.0</ele><time>2026-05-03T15:50:26.001Z</time></trkpt><trkpt lat="46.29385919729127" lon="13.063448538611246"><ele>191.0</ele><time>2026-05-03T15:50:27.001Z</time></trkpt><trkpt lat="46.29363397008433" lon="13.063567701699435"><ele>191.0</ele><time>2026-05-03T15:50:28.001Z</time></trkpt><trkpt lat="46.29341198917613" lon="13.063699134632628"><ele>191.0</ele><time>2026-05-03T15:50:29.001Z</time></trkpt><trkpt lat="46.29319078667073" lon="13.063822948699412"><ele>191.0</ele><time>2026-05-03T15:50:30.001Z</time></trkpt><trkpt lat="46.29296564185341" lon="13.06393435629131"><ele>188.5</ele><time>2026-05-03T15:50:31.001Z</time></trkpt><trkpt lat="46.29273749979367" lon="13.064025262784938"><ele>186.0</ele><time>2026-05-03T15:50:32.001Z</time></trkpt><trkpt lat="46.29250969370335" lon="13.064106333043899"><ele>187.0</ele><time>2026-05-03T15:50:33.001Z</time></trkpt><trkpt lat="46.292281501459854" lon="13.064181482789696"><ele>188.0</ele><time>2026-05-03T15:50:34.001Z</time></trkpt><trkpt lat="46.292052286868405" lon="13.064245229128673"><ele>188.0</ele><time>2026-05-03T15:50:35.001Z</time></trkpt><trkpt lat="46.291825497010706" lon="13.064308870239481"><ele>188.0</ele><time>2026-05-03T15:50:36.001Z</time></trkpt><trkpt lat="46.291609472954015" lon="13.064373438377428"><ele>187.66666666666666</ele><time>2026-05-03T15:50:37.001Z</time></trkpt><trkpt lat="46.291405802532026" lon="13.06443725404993"><ele>187.33333333333334</ele><time>2026-05-03T15:50:38.001Z</time></trkpt><trkpt lat="46.291209928185516" lon="13.064491806865204"><ele>187.0</ele><time>2026-05-03T15:50:39.001Z</time></trkpt><trkpt lat="46.29102362202218" lon="13.06452650581434"><ele>187.0</ele><time>2026-05-03T15:50:40.001Z</time></trkpt><trkpt lat="46.29083786178907" lon="13.064517555716886"><ele>187.0</ele><time>2026-05-03T15:50:41.001Z</time></trkpt><trkpt lat="46.29064349965394" lon="13.064480234062602"><ele>187.0</ele><time>2026-05-03T15:50:42.001Z</time></trkpt><trkpt lat="46.29045071081487" lon="13.064433313836382"><ele>187.33333333333334</ele><time>2026-05-03T15:50:43.001Z</time></trkpt><trkpt lat="46.290257104910225" lon="13.06438594918917"><ele>187.66666666666666</ele><time>2026-05-03T15:50:44.001Z</time></trkpt><trkpt lat="46.29006174021413" lon="13.06433698699451"><ele>188.0</ele><time>2026-05-03T15:50:45.001Z</time></trkpt><trkpt lat="46.28986419790535" lon="13.064291039043342"><ele>188.33333333333331</ele><time>2026-05-03T15:50:46.001Z</time></trkpt><trkpt lat="46.28966600320143" lon="13.064246033831019"><ele>188.66666666666666</ele><time>2026-05-03T15:50:47.001Z</time></trkpt><trkpt lat="46.28946846220397" lon="13.064200817295843"><ele>189.0</ele><time>2026-05-03T15:50:48.001Z</time></trkpt><trkpt lat="46.289282702215836" lon="13.064155956212836"><ele>189.0</ele><time>2026-05-03T15:50:49.001Z</time></trkpt><trkpt lat="46.28910440554601" lon="13.064117752476797"><ele>189.0</ele><time>2026-05-03T15:50:50.001Z</time></trkpt><trkpt lat="46.28893500116935" lon="13.06408334347811"><ele>189.0</ele><time>2026-05-03T15:50:51.001Z</time></trkpt><trkpt lat="46.28877187651284" lon="13.064050950935824"><ele>188.75</ele><time>2026-05-03T15:50:52.002Z</time></trkpt><trkpt lat="46.288619409681075" lon="13.06402923211822"><ele>188.5</ele><time>2026-05-03T15:50:53.002Z</time></trkpt><trkpt lat="46.28847249669435" lon="13.064012850553613"><ele>188.25</ele><time>2026-05-03T15:50:54.002Z</time></trkpt><trkpt lat="46.28833290421981" lon="13.064010422760122"><ele>188.0</ele><time>2026-05-03T15:50:55.002Z</time></trkpt><trkpt lat="46.28819974191634" lon="13.06401976688021"><ele>187.25</ele><time>2026-05-03T15:50:56.002Z</time></trkpt><trkpt lat="46.288073468182986" lon="13.06402989654707"><ele>186.5</ele><time>2026-05-03T15:50:57.002Z</time></trkpt><trkpt lat="46.28795284267501" lon="13.064034831114743"><ele>185.75</ele><time>2026-05-03T15:50:58.002Z</time></trkpt><trkpt lat="46.28783852362103" lon="13.064041297594418"><ele>185.0</ele><time>2026-05-03T15:50:59.002Z</time></trkpt><trkpt lat="46.287729389867216" lon="13.064042637084782"><ele>185.0</ele><time>2026-05-03T15:51:00.002Z</time></trkpt><trkpt lat="46.28762436869653" lon="13.064030895225848"><ele>185.0</ele><time>2026-05-03T15:51:01.002Z</time></trkpt><trkpt lat="46.287514748126775" lon="13.064018242074528"><ele>185.0</ele><time>2026-05-03T15:51:02.002Z</time></trkpt><trkpt lat="46.287399979266546" lon="13.063998002883997"><ele>185.0</ele><time>2026-05-03T15:51:03.002Z</time></trkpt><trkpt lat="46.28728348286021" lon="13.063957881077277"><ele>185.5</ele><time>2026-05-03T15:51:04.002Z</time></trkpt><trkpt lat="46.28716616051103" lon="13.063902582427641"><ele>186.0</ele><time>2026-05-03T15:51:05.002Z</time></trkpt><trkpt lat="46.287047735939694" lon="13.063846710035701"><ele>186.5</ele><time>2026-05-03T15:51:06.002Z</time></trkpt><trkpt lat="46.28692789828358" lon="13.063778485511442"><ele>187.0</ele><time>2026-05-03T15:51:07.002Z</time></trkpt><trkpt lat="46.286809168781126" lon="13.06369879929541"><ele>187.0</ele><time>2026-05-03T15:51:08.002Z</time></trkpt><trkpt lat="46.28668711443153" lon="13.063620409722699"><ele>187.0</ele><time>2026-05-03T15:51:09.002Z</time></trkpt><trkpt lat="46.28656032032921" lon="13.063548569082958"><ele>187.0</ele><time>2026-05-03T15:51:10.001Z</time></trkpt><trkpt lat="46.28643139799138" lon="13.063487830597264"><ele>187.0</ele><time>2026-05-03T15:51:11.001Z</time></trkpt><trkpt lat="46.28630980189237" lon="13.063459080760694"><ele>187.39999999999998</ele><time>2026-05-03T15:51:12.001Z</time></trkpt><trkpt lat="46.28619455223274" lon="13.063451017192032"><ele>187.79999999999998</ele><time>2026-05-03T15:51:13.001Z</time></trkpt><trkpt lat="46.28609090088881" lon="13.06345875337615"><ele>188.2</ele><time>2026-05-03T15:51:14.001Z</time></trkpt><trkpt lat="46.28599153840487" lon="13.063477203503206"><ele>188.6</ele><time>2026-05-03T15:51:15.001Z</time></trkpt><trkpt lat="46.28588885514735" lon="13.06350072030319"><ele>189.0</ele><time>2026-05-03T15:51:16Z</time></trkpt><trkpt lat="46.285783892541765" lon="13.063541667074157"><ele>189.0</ele><time>2026-05-03T15:51:17Z</time></trkpt><trkpt lat="46.28568068238446" lon="13.06359920523586"><ele>189.0</ele><time>2026-05-03T15:51:18Z</time></trkpt><trkpt lat="46.28558073138138" lon="13.06366855329856"><ele>189.0</ele><time>2026-05-03T15:51:19Z</time></trkpt><trkpt lat="46.28548416716169" lon="13.063749419557336"><ele>189.0</ele><time>2026-05-03T15:51:20Z</time></trkpt><trkpt lat="46.28539160516074" lon="13.06383600517528"><ele>189.0</ele><time>2026-05-03T15:51:21Z</time></trkpt><trkpt lat="46.28529872583562" lon="13.063930076700704"><ele>188.75</ele><time>2026-05-03T15:51:22Z</time></trkpt><trkpt lat="46.28520399135744" lon="13.06402623422254"><ele>188.5</ele><time>2026-05-03T15:51:23Z</time></trkpt><trkpt lat="46.28510951228018" lon="13.064127526220263"><ele>188.25</ele><time>2026-05-03T15:51:24Z</time></trkpt><trkpt lat="46.285015979967255" lon="13.064238514093867"><ele>188.0</ele><time>2026-05-03T15:51:25Z</time></trkpt><trkpt lat="46.28492616851415" lon="13.06436248436635"><ele>187.75</ele><time>2026-05-03T15:51:26Z</time></trkpt><trkpt lat="46.28484438550527" lon="13.064501816490347"><ele>187.5</ele><time>2026-05-03T15:51:27Z</time></trkpt><trkpt lat="46.284764880895075" lon="13.064650612165158"><ele>187.25</ele><time>2026-05-03T15:51:28Z</time></trkpt><trkpt lat="46.284690302922506" lon="13.064811694448103"><ele>187.0</ele><time>2026-05-03T15:51:29Z</time></trkpt><trkpt lat="46.284621151383114" lon="13.064978467505389"><ele>188.25</ele><time>2026-05-03T15:51:30Z</time></trkpt><trkpt lat="46.2845549461449" lon="13.065153584834254"><ele>189.5</ele><time>2026-05-03T15:51:31Z</time></trkpt><trkpt lat="46.284492657366926" lon="13.065332085800526"><ele>190.75</ele><time>2026-05-03T15:51:32Z</time></trkpt><trkpt lat="46.2844317161627" lon="13.065506836043403"><ele>192.0</ele><time>2026-05-03T15:51:33Z</time></trkpt><trkpt lat="46.28436935897284" lon="13.065682586889796"><ele>192.0</ele><time>2026-05-03T15:51:34Z</time></trkpt><trkpt lat="46.284301461232516" lon="13.06585280249714"><ele>192.0</ele><time>2026-05-03T15:51:35Z</time></trkpt><trkpt lat="46.28422622997338" lon="13.06601680252706"><ele>192.0</ele><time>2026-05-03T15:51:36Z</time></trkpt><trkpt lat="46.284155361905206" lon="13.066193603324011"><ele>192.0</ele><time>2026-05-03T15:51:37Z</time></trkpt><trkpt lat="46.28408596313984" lon="13.066372419284741"><ele>192.0</ele><time>2026-05-03T15:51:38Z</time></trkpt><trkpt lat="46.28401619247899" lon="13.066549701146512"><ele>192.0</ele><time>2026-05-03T15:51:39Z</time></trkpt><trkpt lat="46.283939308386586" lon="13.066722572315566"><ele>192.0</ele><time>2026-05-03T15:51:40Z</time></trkpt><trkpt lat="46.283861246367216" lon="13.066896978636542"><ele>192.0</ele><time>2026-05-03T15:51:41Z</time></trkpt><trkpt lat="46.283781493632674" lon="13.067075660111252"><ele>192.33333333333331</ele><time>2026-05-03T15:51:42Z</time></trkpt><trkpt lat="46.283700290795416" lon="13.067258057601187"><ele>192.66666666666666</ele><time>2026-05-03T15:51:43Z</time></trkpt><trkpt lat="46.28361992988456" lon="13.067439887329252"><ele>193.0</ele><time>2026-05-03T15:51:44Z</time></trkpt><trkpt lat="46.28354155636217" lon="13.067627676075187"><ele>193.0</ele><time>2026-05-03T15:51:45Z</time></trkpt><trkpt lat="46.283467742111846" lon="13.067819647404507"><ele>193.0</ele><time>2026-05-03T15:51:46Z</time></trkpt><trkpt lat="46.28340173291392" lon="13.068022028092043"><ele>193.0</ele><time>2026-05-03T15:51:47Z</time></trkpt><trkpt lat="46.283340993397566" lon="13.068225394986042"><ele>193.5</ele><time>2026-05-03T15:51:48Z</time></trkpt><trkpt lat="46.2832880584845" lon="13.06843040153644"><ele>194.0</ele><time>2026-05-03T15:51:49Z</time></trkpt><trkpt lat="46.28324321473834" lon="13.068621390760867"><ele>194.5</ele><time>2026-05-03T15:51:50Z</time></trkpt><trkpt lat="46.28320718970556" lon="13.068807521703969"><ele>195.0</ele><time>2026-05-03T15:51:51Z</time></trkpt><trkpt lat="46.283169117819774" lon="13.068982466532075"><ele>194.8</ele><time>2026-05-03T15:51:52Z</time></trkpt><trkpt lat="46.283135326727795" lon="13.069140721628441"><ele>194.6</ele><time>2026-05-03T15:51:53Z</time></trkpt><trkpt lat="46.28309634752179" lon="13.069270332850172"><ele>194.39999999999998</ele><time>2026-05-03T15:51:54Z</time></trkpt><trkpt lat="46.28304998343701" lon="13.069380431162992"><ele>194.2</ele><time>2026-05-03T15:51:55Z</time></trkpt><trkpt lat="46.282998255974135" lon="13.069472641172366"><ele>194.0</ele><time>2026-05-03T15:51:56Z</time></trkpt><trkpt lat="46.28296804604798" lon="13.069571172060373"><ele>194.0</ele><time>2026-05-03T15:51:57Z</time></trkpt><trkpt lat="46.28298309585451" lon="13.06966996753743"><ele>194.0</ele><time>2026-05-03T15:51:58Z</time></trkpt><trkpt lat="46.28303244264788" lon="13.069729205555653"><ele>194.0</ele><time>2026-05-03T15:51:59Z</time></trkpt><trkpt lat="46.28309583988267" lon="13.069732626914233"><ele>194.0</ele><time>2026-05-03T15:52:00Z</time></trkpt><trkpt lat="46.28314540199508" lon="13.069666899908865"><ele>194.0</ele><time>2026-05-03T15:52:01Z</time></trkpt><trkpt lat="46.283153199579736" lon="13.069574666427451"><ele>194.0</ele><time>2026-05-03T15:52:02Z</time></trkpt><trkpt lat="46.28310850136131" lon="13.069493753718206"><ele>194.0</ele><time>2026-05-03T15:52:03Z</time></trkpt><trkpt lat="46.28304149816237" lon="13.069479045918234"><ele>194.00000000000003</ele><time>2026-05-03T15:52:04Z</time></trkpt><trkpt lat="46.28298125236569" lon="13.069536298165682"><ele>194.0</ele><time>2026-05-03T15:52:05Z</time></trkpt><trkpt lat="46.28296549813538" lon="13.069644248227117"><ele>194.0</ele><time>2026-05-03T15:52:06Z</time></trkpt><trkpt lat="46.28298469855277" lon="13.069778535136146"><ele>194.0</ele><time>2026-05-03T15:52:07Z</time></trkpt><trkpt lat="46.28299253408147" lon="13.069939226290943"><ele>194.00000000000003</ele><time>2026-05-03T15:52:08Z</time></trkpt><trkpt lat="46.2829826852106" lon="13.070075243348885"><ele>194.0</ele><time>2026-05-03T15:52:09Z</time></trkpt><trkpt lat="46.282967685221074" lon="13.070198305413246"><ele>194.0</ele><time>2026-05-03T15:52:10Z</time></trkpt><trkpt lat="46.282952844877464" lon="13.070316956871917"><ele>194.0</ele><time>2026-05-03T15:52:11Z</time></trkpt><trkpt lat="46.2829352954059" lon="13.070441877232353"><ele>194.0</ele><time>2026-05-03T15:52:12Z</time></trkpt><trkpt lat="46.28291707202597" lon="13.070586898566518"><ele>194.0</ele><time>2026-05-03T15:52:13Z</time></trkpt><trkpt lat="46.28289824433962" lon="13.070745645992766"><ele>194.0</ele><time>2026-05-03T15:52:14Z</time></trkpt><trkpt lat="46.2828748821156" lon="13.070911803085998"><ele>194.0</ele><time>2026-05-03T15:52:15Z</time></trkpt><trkpt lat="46.2828517520862" lon="13.07108812271097"><ele>194.0</ele><time>2026-05-03T15:52:16Z</time></trkpt><trkpt lat="46.28282846945298" lon="13.071272344637807"><ele>194.0</ele><time>2026-05-03T15:52:17Z</time></trkpt><trkpt lat="46.28280469006754" lon="13.071461849776828"><ele>194.0</ele><time>2026-05-03T15:52:18Z</time></trkpt><trkpt lat="46.282778669186015" lon="13.071661228511923"><ele>194.25</ele><time>2026-05-03T15:52:19Z</time></trkpt><trkpt lat="46.28275350721188" lon="13.07187545674899"><ele>194.5</ele><time>2026-05-03T15:52:20Z</time></trkpt><trkpt lat="46.28273008909625" lon="13.07208875576486"><ele>194.75</ele><time>2026-05-03T15:52:21Z</time></trkpt><trkpt lat="46.28271322740363" lon="13.07229561564416"><ele>195.0</ele><time>2026-05-03T15:52:22Z</time></trkpt><trkpt lat="46.2826999807811" lon="13.072493497688704"><ele>195.0</ele><time>2026-05-03T15:52:23Z</time></trkpt><trkpt lat="46.28268652610151" lon="13.072671664296424"><ele>195.0</ele><time>2026-05-03T15:52:24Z</time></trkpt><trkpt lat="46.28266914825195" lon="13.072850903389007"><ele>195.0</ele><time>2026-05-03T15:52:25Z</time></trkpt><trkpt lat="46.28265187102851" lon="13.07305805052524"><ele>195.0</ele><time>2026-05-03T15:52:26Z</time></trkpt><trkpt lat="46.28263611251946" lon="13.073255247736556"><ele>195.66666666666669</ele><time>2026-05-03T15:52:27Z</time></trkpt><trkpt lat="46.28262424018287" lon="13.073473223906909"><ele>196.33333333333334</ele><time>2026-05-03T15:52:28Z</time></trkpt><trkpt lat="46.28261171652498" lon="13.073700197581148"><ele>197.0</ele><time>2026-05-03T15:52:29Z</time></trkpt><trkpt lat="46.28260219324551" lon="13.073919244896846"><ele>197.0</ele><time>2026-05-03T15:52:30Z</time></trkpt><trkpt lat="46.28259550874378" lon="13.074101635374968"><ele>197.0</ele><time>2026-05-03T15:52:31Z</time></trkpt><trkpt lat="46.28258922959832" lon="13.074257941522124"><ele>197.0</ele><time>2026-05-03T15:52:32Z</time></trkpt><trkpt lat="46.2825870638637" lon="13.07441361549927"><ele>197.0</ele><time>2026-05-03T15:52:33Z</time></trkpt><trkpt lat="46.2825754005313" lon="13.074586493171454"><ele>196.5</ele><time>2026-05-03T15:52:34Z</time></trkpt><trkpt lat="46.282550335199346" lon="13.074755018160708"><ele>196.0</ele><time>2026-05-03T15:52:35Z</time></trkpt><trkpt lat="46.2825100667297" lon="13.074928237625606"><ele>195.5</ele><time>2026-05-03T15:52:36.001Z</time></trkpt><trkpt lat="46.28245067948711" lon="13.075097230455045"><ele>195.0</ele><time>2026-05-03T15:52:37.001Z</time></trkpt><trkpt lat="46.28236888843441" lon="13.07524733979153"><ele>195.0</ele><time>2026-05-03T15:52:38.001Z</time></trkpt><trkpt lat="46.282283527094876" lon="13.075395303824688"><ele>195.0</ele><time>2026-05-03T15:52:39.001Z</time></trkpt><trkpt lat="46.28219988686646" lon="13.075546493465144"><ele>195.0</ele><time>2026-05-03T15:52:40.001Z</time></trkpt><trkpt lat="46.28212492717428" lon="13.07571693837413"><ele>195.0</ele><time>2026-05-03T15:52:41.001Z</time></trkpt><trkpt lat="46.28206399784291" lon="13.075901107176454"><ele>194.25</ele><time>2026-05-03T15:52:42.001Z</time></trkpt><trkpt lat="46.28201490335786" lon="13.0760773813294"><ele>193.5</ele><time>2026-05-03T15:52:43.001Z</time></trkpt><trkpt lat="46.28197382970128" lon="13.07624588543593"><ele>192.75</ele><time>2026-05-03T15:52:44.001Z</time></trkpt><trkpt lat="46.28193550969955" lon="13.07641698896056"><ele>192.0</ele><time>2026-05-03T15:52:45.001Z</time></trkpt><trkpt lat="46.28189844192608" lon="13.076590719085145"><ele>192.25</ele><time>2026-05-03T15:52:46.001Z</time></trkpt><trkpt lat="46.281867037836385" lon="13.076770444443204"><ele>192.5</ele><time>2026-05-03T15:52:47.001Z</time></trkpt><trkpt lat="46.281831775424244" lon="13.076959098209583"><ele>192.75</ele><time>2026-05-03T15:52:48.001Z</time></trkpt><trkpt lat="46.28179222954588" lon="13.077153957317861"><ele>193.0</ele><time>2026-05-03T15:52:49.001Z</time></trkpt><trkpt lat="46.28175662804714" lon="13.07735506167529"><ele>193.25</ele><time>2026-05-03T15:52:50.001Z</time></trkpt><trkpt lat="46.28172479582064" lon="13.07756109905226"><ele>193.5</ele><time>2026-05-03T15:52:51.001Z</time></trkpt><trkpt lat="46.28169296846211" lon="13.077764055279646"><ele>193.75</ele><time>2026-05-03T15:52:52.001Z</time></trkpt><trkpt lat="46.28166123447915" lon="13.077965413986567"><ele>194.0</ele><time>2026-05-03T15:52:53.001Z</time></trkpt><trkpt lat="46.28162702573304" lon="13.078166876685104"><ele>194.0</ele><time>2026-05-03T15:52:54.001Z</time></trkpt><trkpt lat="46.28159172633011" lon="13.07837094190224"><ele>194.0</ele><time>2026-05-03T15:52:55.001Z</time></trkpt><trkpt lat="46.281553861855045" lon="13.078579651919387"><ele>194.0</ele><time>2026-05-03T15:52:56.001Z</time></trkpt><trkpt lat="46.28151479764418" lon="13.078778792788858"><ele>194.0</ele><time>2026-05-03T15:52:57.001Z</time></trkpt><trkpt lat="46.281461031937766" lon="13.07899834968245"><ele>192.5</ele><time>2026-05-03T15:52:58.001Z</time></trkpt><trkpt lat="46.281407250760374" lon="13.079212512896545"><ele>191.0</ele><time>2026-05-03T15:52:59.001Z</time></trkpt><trkpt lat="46.28135615529448" lon="13.079411803515637"><ele>189.5</ele><time>2026-05-03T15:53:00.001Z</time></trkpt><trkpt lat="46.2813087993858" lon="13.079601097901733"><ele>188.0</ele><time>2026-05-03T15:53:01.001Z</time></trkpt><trkpt lat="46.28125735531959" lon="13.079801795037861"><ele>188.5</ele><time>2026-05-03T15:53:02.001Z</time></trkpt><trkpt lat="46.2812167072583" lon="13.080004413517134"><ele>189.0</ele><time>2026-05-03T15:53:03.001Z</time></trkpt><trkpt lat="46.28119187760376" lon="13.0802115115708"><ele>189.5</ele><time>2026-05-03T15:53:04.001Z</time></trkpt><trkpt lat="46.281175219350374" lon="13.080417537688081"><ele>190.0</ele><time>2026-05-03T15:53:05.001Z</time></trkpt><trkpt lat="46.28116630441034" lon="13.080610921858824"><ele>191.0</ele><time>2026-05-03T15:53:06.001Z</time></trkpt><trkpt lat="46.28116195797181" lon="13.080792806436438"><ele>192.0</ele><time>2026-05-03T15:53:07.001Z</time></trkpt><trkpt lat="46.28115580945709" lon="13.08096390511697"><ele>193.0</ele><time>2026-05-03T15:53:08.001Z</time></trkpt><trkpt lat="46.28114901647156" lon="13.081107702809208"><ele>194.0</ele><time>2026-05-03T15:53:09.001Z</time></trkpt><trkpt lat="46.28114065738988" lon="13.0812396558452"><ele>195.0</ele><time>2026-05-03T15:53:10.001Z</time></trkpt><trkpt lat="46.28113263197238" lon="13.081359274882878"><ele>195.0</ele><time>2026-05-03T15:53:11.001Z</time></trkpt><trkpt lat="46.281120532213826" lon="13.081468189661118"><ele>195.0</ele><time>2026-05-03T15:53:12.001Z</time></trkpt><trkpt lat="46.281091382404135" lon="13.081584167140251"><ele>195.0</ele><time>2026-05-03T15:53:13.001Z</time></trkpt><trkpt lat="46.28105401295013" lon="13.081704586754059"><ele>195.0</ele><time>2026-05-03T15:53:14.001Z</time></trkpt><trkpt lat="46.28104378903552" lon="13.081834840715524"><ele>195.0</ele><time>2026-05-03T15:53:15.001Z</time></trkpt><trkpt lat="46.28107468384035" lon="13.081947467116322"><ele>195.0</ele><time>2026-05-03T15:53:16Z</time></trkpt><trkpt lat="46.2811448834243" lon="13.082035310176687"><ele>195.75</ele><time>2026-05-03T15:53:17Z</time></trkpt><trkpt lat="46.28122615455124" lon="13.082148789670718"><ele>196.5</ele><time>2026-05-03T15:53:18Z</time></trkpt><trkpt lat="46.28129732039488" lon="13.082324089697725"><ele>197.25</ele><time>2026-05-03T15:53:19Z</time></trkpt><trkpt lat="46.28136250681364" lon="13.082544336036591"><ele>198.0</ele><time>2026-05-03T15:53:20Z</time></trkpt><trkpt lat="46.281414987997444" lon="13.08277060011436"><ele>202.25</ele><time>2026-05-03T15:53:21Z</time></trkpt><trkpt lat="46.281456833151786" lon="13.082996823103942"><ele>206.5</ele><time>2026-05-03T15:53:22Z</time></trkpt><trkpt lat="46.28149560069926" lon="13.083197049575643"><ele>210.75</ele><time>2026-05-03T15:53:23Z</time></trkpt><trkpt lat="46.281540560601364" lon="13.083386987627177"><ele>215.0</ele><time>2026-05-03T15:53:24Z</time></trkpt><trkpt lat="46.28158358740513" lon="13.083587472351283"><ele>215.0</ele><time>2026-05-03T15:53:25Z</time></trkpt><trkpt lat="46.28161465575923" lon="13.083804238300889"><ele>215.0</ele><time>2026-05-03T15:53:26Z</time></trkpt><trkpt lat="46.28166238644558" lon="13.08403411550227"><ele>215.0</ele><time>2026-05-03T15:53:27Z</time></trkpt><trkpt lat="46.281684308207986" lon="13.084289816320686"><ele>213.0</ele><time>2026-05-03T15:53:28Z</time></trkpt><trkpt lat="46.2816995004214" lon="13.084562363895243"><ele>211.0</ele><time>2026-05-03T15:53:29Z</time></trkpt><trkpt lat="46.281732162391705" lon="13.084846453450204"><ele>209.0</ele><time>2026-05-03T15:53:30Z</time></trkpt><trkpt lat="46.28174594657926" lon="13.085138276042482"><ele>207.33333333333334</ele><time>2026-05-03T15:53:31Z</time></trkpt><trkpt lat="46.28177542083163" lon="13.08541902428187"><ele>205.66666666666669</ele><time>2026-05-03T15:53:32Z</time></trkpt><trkpt lat="46.28179959696433" lon="13.085700761224006"><ele>204.0</ele><time>2026-05-03T15:53:33Z</time></trkpt><trkpt lat="46.28182247044409" lon="13.085988778785543"><ele>201.66666666666669</ele><time>2026-05-03T15:53:34Z</time></trkpt><trkpt lat="46.28184385714687" lon="13.086254725501336"><ele>199.33333333333334</ele><time>2026-05-03T15:53:35Z</time></trkpt><trkpt lat="46.281863841343046" lon="13.086506272654983"><ele>197.0</ele><time>2026-05-03T15:53:36Z</time></trkpt><trkpt lat="46.281886025781894" lon="13.086749583697586"><ele>196.66666666666669</ele><time>2026-05-03T15:53:37Z</time></trkpt><trkpt lat="46.281918234159996" lon="13.086986187029776"><ele>196.33333333333331</ele><time>2026-05-03T15:53:38Z</time></trkpt><trkpt lat="46.28196527373869" lon="13.087230181297052"><ele>196.0</ele><time>2026-05-03T15:53:39Z</time></trkpt><trkpt lat="46.28201955915521" lon="13.087452198738296"><ele>196.0</ele><time>2026-05-03T15:53:40Z</time></trkpt><trkpt lat="46.282076375207" lon="13.087658347716813"><ele>196.0</ele><time>2026-05-03T15:53:41Z</time></trkpt><trkpt lat="46.28213158215836" lon="13.087855895209387"><ele>196.0</ele><time>2026-05-03T15:53:42Z</time></trkpt><trkpt lat="46.28218336190859" lon="13.088038493635072"><ele>196.0</ele><time>2026-05-03T15:53:43Z</time></trkpt><trkpt lat="46.28223205905304" lon="13.08820839241487"><ele>196.0</ele><time>2026-05-03T15:53:44Z</time></trkpt><trkpt lat="46.28228037850181" lon="13.088372086364581"><ele>196.0</ele><time>2026-05-03T15:53:45Z</time></trkpt><trkpt lat="46.28232773134426" lon="13.088534086711137"><ele>196.0</ele><time>2026-05-03T15:53:46Z</time></trkpt><trkpt lat="46.28237979987735" lon="13.088695197132708"><ele>196.0</ele><time>2026-05-03T15:53:47Z</time></trkpt><trkpt lat="46.28243032485914" lon="13.088859672501423"><ele>196.0</ele><time>2026-05-03T15:53:48Z</time></trkpt><trkpt lat="46.282475507677965" lon="13.08902168448724"><ele>196.0</ele><time>2026-05-03T15:53:49Z</time></trkpt><trkpt lat="46.2825195134112" lon="13.089181758074698"><ele>196.0</ele><time>2026-05-03T15:53:50Z</time></trkpt><trkpt lat="46.28256756448604" lon="13.089338779976384"><ele>196.0</ele><time>2026-05-03T15:53:51Z</time></trkpt><trkpt lat="46.282616400872946" lon="13.08949641985395"><ele>196.5</ele><time>2026-05-03T15:53:52Z</time></trkpt><trkpt lat="46.28266740728063" lon="13.089661889415023"><ele>197.0</ele><time>2026-05-03T15:53:53Z</time></trkpt><trkpt lat="46.28271982674668" lon="13.089825519809564"><ele>197.5</ele><time>2026-05-03T15:53:54Z</time></trkpt><trkpt lat="46.282778151053904" lon="13.089987868064213"><ele>198.0</ele><time>2026-05-03T15:53:55Z</time></trkpt><trkpt lat="46.282839180072465" lon="13.090147497848056"><ele>198.0</ele><time>2026-05-03T15:53:56Z</time></trkpt><trkpt lat="46.28289921119844" lon="13.090303949788806"><ele>198.0</ele><time>2026-05-03T15:53:57Z</time></trkpt><trkpt lat="46.282956263067916" lon="13.090453298411456"><ele>198.0</ele><time>2026-05-03T15:53:58Z</time></trkpt><trkpt lat="46.28300920015157" lon="13.090586972293702"><ele>198.0</ele><time>2026-05-03T15:53:59Z</time></trkpt><trkpt lat="46.28306200338738" lon="13.090704153146778"><ele>198.0</ele><time>2026-05-03T15:54:00Z</time></trkpt><trkpt lat="46.283114631035716" lon="13.090822117557142"><ele>198.2</ele><time>2026-05-03T15:54:01Z</time></trkpt><trkpt lat="46.28317228969349" lon="13.090936441477105"><ele>198.4</ele><time>2026-05-03T15:54:02Z</time></trkpt><trkpt lat="46.283239349902914" lon="13.091044179289465"><ele>198.6</ele><time>2026-05-03T15:54:03Z</time></trkpt><trkpt lat="46.283306993985875" lon="13.091136368943241"><ele>198.79999999999998</ele><time>2026-05-03T15:54:04Z</time></trkpt><trkpt lat="46.28337598243927" lon="13.091225332013023"><ele>199.0</ele><time>2026-05-03T15:54:05Z</time></trkpt><trkpt lat="46.28343834116167" lon="13.091306145779898"><ele>198.99999999999997</ele><time>2026-05-03T15:54:06Z</time></trkpt><trkpt lat="46.2834948054897" lon="13.09137945263704"><ele>199.0</ele><time>2026-05-03T15:54:07Z</time></trkpt><trkpt lat="46.28354871048722" lon="13.091445348157016"><ele>199.0</ele><time>2026-05-03T15:54:08Z</time></trkpt><trkpt lat="46.28359716322964" lon="13.09150999504937"><ele>199.0</ele><time>2026-05-03T15:54:09Z</time></trkpt><trkpt lat="46.28363483228718" lon="13.091587277836446"><ele>199.0</ele><time>2026-05-03T15:54:10Z</time></trkpt><trkpt lat="46.28368636886944" lon="13.091688968093235"><ele>198.99999999999997</ele><time>2026-05-03T15:54:11Z</time></trkpt><trkpt lat="46.28369694951539" lon="13.091794257341578"><ele>199.0</ele><time>2026-05-03T15:54:12Z</time></trkpt><trkpt lat="46.28359953807368" lon="13.092005853256365"><ele>199.2</ele><time>2026-05-03T15:54:14Z</time></trkpt><trkpt lat="46.28352704380193" lon="13.092093518107575"><ele>199.39999999999998</ele><time>2026-05-03T15:54:15Z</time></trkpt><trkpt lat="46.28345582822801" lon="13.092206105587312"><ele>199.6</ele><time>2026-05-03T15:54:16Z</time></trkpt><trkpt lat="46.28338042074904" lon="13.092319552914025"><ele>199.8</ele><time>2026-05-03T15:54:17Z</time></trkpt><trkpt lat="46.283306437043905" lon="13.092434958813572"><ele>200.0</ele><time>2026-05-03T15:54:18.001Z</time></trkpt><trkpt lat="46.28323178451936" lon="13.092562383043234"><ele>199.6</ele><time>2026-05-03T15:54:19.001Z</time></trkpt><trkpt lat="46.28315141359504" lon="13.092675106734083"><ele>199.2</ele><time>2026-05-03T15:54:20.001Z</time></trkpt><trkpt lat="46.28307815150162" lon="13.092784428083972"><ele>198.8</ele><time>2026-05-03T15:54:21.001Z</time></trkpt><trkpt lat="46.283010999123" lon="13.092887241837234"><ele>198.4</ele><time>2026-05-03T15:54:22.001Z</time></trkpt><trkpt lat="46.28294761438585" lon="13.092983498806678"><ele>198.0</ele><time>2026-05-03T15:54:23.001Z</time></trkpt><trkpt lat="46.28288393679357" lon="13.09307856301327"><ele>197.60000000000002</ele><time>2026-05-03T15:54:24.001Z</time></trkpt><trkpt lat="46.28281939129283" lon="13.093179673955404"><ele>197.20000000000002</ele><time>2026-05-03T15:54:25.001Z</time></trkpt><trkpt lat="46.282749446155044" lon="13.093285553570878"><ele>196.8</ele><time>2026-05-03T15:54:26.001Z</time></trkpt><trkpt lat="46.28267492314247" lon="13.093397840071164"><ele>196.4</ele><time>2026-05-03T15:54:27.001Z</time></trkpt><trkpt lat="46.282597835216215" lon="13.093518849017789"><ele>196.0</ele><time>2026-05-03T15:54:28.001Z</time></trkpt><trkpt lat="46.28252236449392" lon="13.093635042574421"><ele>196.0</ele><time>2026-05-03T15:54:29.001Z</time></trkpt><trkpt lat="46.28244586647164" lon="13.09375530755053"><ele>196.0</ele><time>2026-05-03T15:54:30.001Z</time></trkpt><trkpt lat="46.28236772935674" lon="13.093872981039425"><ele>196.0</ele><time>2026-05-03T15:54:31.001Z</time></trkpt><trkpt lat="46.282289515349504" lon="13.093994860834501"><ele>196.0</ele><time>2026-05-03T15:54:32.001Z</time></trkpt><trkpt lat="46.28220971499905" lon="13.09411613672914"><ele>196.25</ele><time>2026-05-03T15:54:33.001Z</time></trkpt><trkpt lat="46.28212976489911" lon="13.094238318630017"><ele>196.5</ele><time>2026-05-03T15:54:34.001Z</time></trkpt><trkpt lat="46.28205055244552" lon="13.09436252190795"><ele>196.75</ele><time>2026-05-03T15:54:35.001Z</time></trkpt><trkpt lat="46.28197053718007" lon="13.094485508564416"><ele>197.0</ele><time>2026-05-03T15:54:36.001Z</time></trkpt><trkpt lat="46.28188903999939" lon="13.094608837548789"><ele>197.0</ele><time>2026-05-03T15:54:37.001Z</time></trkpt><trkpt lat="46.28180705399223" lon="13.094733761843946"><ele>197.0</ele><time>2026-05-03T15:54:38.001Z</time></trkpt><trkpt lat="46.28172324348614" lon="13.094862743236234"><ele>197.0</ele><time>2026-05-03T15:54:39.001Z</time></trkpt><trkpt lat="46.281638710738285" lon="13.094994985854637"><ele>197.0</ele><time>2026-05-03T15:54:40.001Z</time></trkpt><trkpt lat="46.28155414216162" lon="13.095127365128128"><ele>197.2</ele><time>2026-05-03T15:54:41.001Z</time></trkpt><trkpt lat="46.28146968941724" lon="13.095255181377366"><ele>197.39999999999998</ele><time>2026-05-03T15:54:42.001Z</time></trkpt><trkpt lat="46.28139346202687" lon="13.095370705074021"><ele>197.60000000000002</ele><time>2026-05-03T15:54:43.001Z</time></trkpt><trkpt lat="46.28133090592956" lon="13.0954666711195"><ele>197.8</ele><time>2026-05-03T15:54:44.001Z</time></trkpt><trkpt lat="46.28127961169642" lon="13.095540511179275"><ele>198.0</ele><time>2026-05-03T15:54:45.001Z</time></trkpt><trkpt lat="46.28120441600678" lon="13.09564779491446"><ele>198.75</ele><time>2026-05-03T15:54:47.001Z</time></trkpt><trkpt lat="46.28114130777621" lon="13.095755645605466"><ele>199.5</ele><time>2026-05-03T15:54:49.001Z</time></trkpt><trkpt lat="46.281095116718085" lon="13.095861209841214"><ele>200.25</ele><time>2026-05-03T15:54:50.001Z</time></trkpt><trkpt lat="46.28099230553765" lon="13.096017006485663"><ele>201.0</ele><time>2026-05-03T15:54:51.001Z</time></trkpt><trkpt lat="46.280838270628465" lon="13.096210569126132"><ele>201.0</ele><time>2026-05-03T15:54:52.001Z</time></trkpt><trkpt lat="46.28070325755695" lon="13.096421677262681"><ele>201.0</ele><time>2026-05-03T15:54:53.001Z</time></trkpt><trkpt lat="46.28054256996232" lon="13.096672217791781"><ele>201.0</ele><time>2026-05-03T15:54:54.001Z</time></trkpt><trkpt lat="46.28036028316622" lon="13.09694824897916"><ele>200.33333333333331</ele><time>2026-05-03T15:54:55.001Z</time></trkpt><trkpt lat="46.280206481353076" lon="13.097195514346398"><ele>199.66666666666666</ele><time>2026-05-03T15:54:56.001Z</time></trkpt><trkpt lat="46.2800646229248" lon="13.097423638939002"><ele>199.0</ele><time>2026-05-03T15:54:57.001Z</time></trkpt><trkpt lat="46.27992545807279" lon="13.097635821680639"><ele>199.0</ele><time>2026-05-03T15:54:58.001Z</time></trkpt><trkpt lat="46.27979112540439" lon="13.097840532046947"><ele>199.0</ele><time>2026-05-03T15:54:59.001Z</time></trkpt><trkpt lat="46.27966404184134" lon="13.098038843285709"><ele>199.0</ele><time>2026-05-03T15:55:00.001Z</time></trkpt><trkpt lat="46.279549767834446" lon="13.098217793666647"><ele>198.0</ele><time>2026-05-03T15:55:01.001Z</time></trkpt><trkpt lat="46.27942727307275" lon="13.098407990503729"><ele>197.0</ele><time>2026-05-03T15:55:02.001Z</time></trkpt><trkpt lat="46.27929044999383" lon="13.098618911858132"><ele>196.0</ele><time>2026-05-03T15:55:03.001Z</time></trkpt><trkpt lat="46.279154482283744" lon="13.098829344934794"><ele>196.0</ele><time>2026-05-03T15:55:04.001Z</time></trkpt><trkpt lat="46.279027162436094" lon="13.099026463810777"><ele>196.0</ele><time>2026-05-03T15:55:05.001Z</time></trkpt><trkpt lat="46.278896808480965" lon="13.099226023981283"><ele>196.0</ele><time>2026-05-03T15:55:06.001Z</time></trkpt><trkpt lat="46.278752210072724" lon="13.099433389302439"><ele>196.0</ele><time>2026-05-03T15:55:07.001Z</time></trkpt><trkpt lat="46.27859454214248" lon="13.099630176942853"><ele>196.0</ele><time>2026-05-03T15:55:08.001Z</time></trkpt><trkpt lat="46.27843176457516" lon="13.0997969593093"><ele>196.0</ele><time>2026-05-03T15:55:09.001Z</time></trkpt><trkpt lat="46.27826890530765" lon="13.099939706301509"><ele>196.0</ele><time>2026-05-03T15:55:10.001Z</time></trkpt><trkpt lat="46.27811206812951" lon="13.100067657422736"><ele>196.0</ele><time>2026-05-03T15:55:11.001Z</time></trkpt><trkpt lat="46.277958692224345" lon="13.100170730333097"><ele>196.0</ele><time>2026-05-03T15:55:12.001Z</time></trkpt><trkpt lat="46.27780726971067" lon="13.10026543637156"><ele>196.0</ele><time>2026-05-03T15:55:13.001Z</time></trkpt><trkpt lat="46.277647939708544" lon="13.100335869426598"><ele>196.0</ele><time>2026-05-03T15:55:14.001Z</time></trkpt><trkpt lat="46.277495015325336" lon="13.100391232340305"><ele>196.0</ele><time>2026-05-03T15:55:15.001Z</time></trkpt><trkpt lat="46.27735096704781" lon="13.10042867556355"><ele>196.25</ele><time>2026-05-03T15:55:16.001Z</time></trkpt><trkpt lat="46.2772130202915" lon="13.100452702083377"><ele>196.5</ele><time>2026-05-03T15:55:17.001Z</time></trkpt><trkpt lat="46.2770788903956" lon="13.100470097269216"><ele>196.75</ele><time>2026-05-03T15:55:18.001Z</time></trkpt><trkpt lat="46.276948831625866" lon="13.100475541270331"><ele>197.0</ele><time>2026-05-03T15:55:19.001Z</time></trkpt><trkpt lat="46.2768193873017" lon="13.10047373573142"><ele>197.0</ele><time>2026-05-03T15:55:20.001Z</time></trkpt><trkpt lat="46.27668090303343" lon="13.100463556375594"><ele>197.0</ele><time>2026-05-03T15:55:21.001Z</time></trkpt><trkpt lat="46.27653122877293" lon="13.100443066586232"><ele>197.0</ele><time>2026-05-03T15:55:22Z</time></trkpt><trkpt lat="46.27638258743295" lon="13.100411998695433"><ele>197.0</ele><time>2026-05-03T15:55:23Z</time></trkpt><trkpt lat="46.2762307283137" lon="13.100366019604104"><ele>196.33333333333334</ele><time>2026-05-03T15:55:24Z</time></trkpt><trkpt lat="46.276078701800415" lon="13.10029972008772"><ele>195.66666666666669</ele><time>2026-05-03T15:55:25Z</time></trkpt><trkpt lat="46.27592851670488" lon="13.100215779982285"><ele>195.0</ele><time>2026-05-03T15:55:26Z</time></trkpt><trkpt lat="46.27578214403823" lon="13.100133791191128"><ele>195.0</ele><time>2026-05-03T15:55:27Z</time></trkpt><trkpt lat="46.27564767643313" lon="13.100038011660711"><ele>195.0</ele><time>2026-05-03T15:55:28Z</time></trkpt><trkpt lat="46.27551087179118" lon="13.099924499256232"><ele>195.0</ele><time>2026-05-03T15:55:29Z</time></trkpt><trkpt lat="46.27537129023442" lon="13.099796380573054"><ele>194.33333333333331</ele><time>2026-05-03T15:55:30Z</time></trkpt><trkpt lat="46.27523096499876" lon="13.0996534321583"><ele>193.66666666666666</ele><time>2026-05-03T15:55:31Z</time></trkpt><trkpt lat="46.275090109025285" lon="13.09950065243128"><ele>193.0</ele><time>2026-05-03T15:55:32Z</time></trkpt><trkpt lat="46.2749452643512" lon="13.099345716437782"><ele>193.0</ele><time>2026-05-03T15:55:33Z</time></trkpt><trkpt lat="46.274794641076724" lon="13.099186500032525"><ele>193.0</ele><time>2026-05-03T15:55:34Z</time></trkpt><trkpt lat="46.27463657392852" lon="13.099016812336249"><ele>193.0</ele><time>2026-05-03T15:55:35Z</time></trkpt><trkpt lat="46.27446971814017" lon="13.098814934767754"><ele>192.5</ele><time>2026-05-03T15:55:36Z</time></trkpt><trkpt lat="46.27428332355285" lon="13.098616479018947"><ele>192.0</ele><time>2026-05-03T15:55:37Z</time></trkpt><trkpt lat="46.27409083871681" lon="13.098411343734217"><ele>192.0</ele><time>2026-05-03T15:55:38Z</time></trkpt><trkpt lat="46.27389515808446" lon="13.098203981467734"><ele>192.0</ele><time>2026-05-03T15:55:39Z</time></trkpt><trkpt lat="46.273689867128745" lon="13.098006066106542"><ele>192.0</ele><time>2026-05-03T15:55:40Z</time></trkpt><trkpt lat="46.273494079933194" lon="13.097793893534"><ele>192.0</ele><time>2026-05-03T15:55:41Z</time></trkpt><trkpt lat="46.273295582880195" lon="13.097580559721113"><ele>191.5</ele><time>2026-05-03T15:55:42Z</time></trkpt><trkpt lat="46.27310861340944" lon="13.097379303157364"><ele>191.0</ele><time>2026-05-03T15:55:43Z</time></trkpt><trkpt lat="46.27292303243068" lon="13.097183221247551"><ele>191.0</ele><time>2026-05-03T15:55:44Z</time></trkpt><trkpt lat="46.27273572787066" lon="13.09698823298853"><ele>191.0</ele><time>2026-05-03T15:55:45Z</time></trkpt><trkpt lat="46.2725569327136" lon="13.09680080909226"><ele>191.0</ele><time>2026-05-03T15:55:46Z</time></trkpt><trkpt lat="46.272382519427396" lon="13.096612691070405"><ele>191.0</ele><time>2026-05-03T15:55:47Z</time></trkpt><trkpt lat="46.27220467098258" lon="13.096418449832898"><ele>191.0</ele><time>2026-05-03T15:55:48Z</time></trkpt><trkpt lat="46.27202156529565" lon="13.096224506973794"><ele>191.66666666666666</ele><time>2026-05-03T15:55:49Z</time></trkpt><trkpt lat="46.271840381655444" lon="13.096030248187013"><ele>192.33333333333331</ele><time>2026-05-03T15:55:50Z</time></trkpt><trkpt lat="46.27167139515868" lon="13.095849436837039"><ele>193.0</ele><time>2026-05-03T15:55:51Z</time></trkpt><trkpt lat="46.27151088275524" lon="13.095675982143701"><ele>192.66666666666666</ele><time>2026-05-03T15:55:52Z</time></trkpt><trkpt lat="46.27135688933982" lon="13.095512192814905"><ele>192.33333333333331</ele><time>2026-05-03T15:55:53Z</time></trkpt><trkpt lat="46.27120751374897" lon="13.095355126672688"><ele>192.0</ele><time>2026-05-03T15:55:54Z</time></trkpt><trkpt lat="46.271063629056805" lon="13.095204321580198"><ele>192.0</ele><time>2026-05-03T15:55:55Z</time></trkpt><trkpt lat="46.2709198377416" lon="13.095051947400847"><ele>192.0</ele><time>2026-05-03T15:55:56Z</time></trkpt><trkpt lat="46.27078055871986" lon="13.09489911607078"><ele>192.0</ele><time>2026-05-03T15:55:57Z</time></trkpt><trkpt lat="46.27064938169021" lon="13.094754224697583"><ele>191.33333333333334</ele><time>2026-05-03T15:55:58Z</time></trkpt><trkpt lat="46.270519328310236" lon="13.094613639118732"><ele>190.66666666666669</ele><time>2026-05-03T15:55:59Z</time></trkpt><trkpt lat="46.27038848646474" lon="13.094473726606578"><ele>190.0</ele><time>2026-05-03T15:56:00Z</time></trkpt><trkpt lat="46.27025520527288" lon="13.094334312628982"><ele>190.0</ele><time>2026-05-03T15:56:01Z</time></trkpt><trkpt lat="46.270121099808854" lon="13.094186994308805"><ele>190.0</ele><time>2026-05-03T15:56:02Z</time></trkpt><trkpt lat="46.26998217640061" lon="13.09403657380445"><ele>190.0</ele><time>2026-05-03T15:56:03Z</time></trkpt><trkpt lat="46.26983489460547" lon="13.09387906726107"><ele>189.66666666666669</ele><time>2026-05-03T15:56:04Z</time></trkpt><trkpt lat="46.26968163322507" lon="13.093715630534907"><ele>189.33333333333334</ele><time>2026-05-03T15:56:05Z</time></trkpt><trkpt lat="46.269524063909344" lon="13.093540684575617"><ele>189.0</ele><time>2026-05-03T15:56:06Z</time></trkpt><trkpt lat="46.269364513957285" lon="13.093353307878832"><ele>189.0</ele><time>2026-05-03T15:56:07.001Z</time></trkpt><trkpt lat="46.26920183121129" lon="13.093156593867093"><ele>189.0</ele><time>2026-05-03T15:56:08.001Z</time></trkpt><trkpt lat="46.26903660366039" lon="13.092954004314965"><ele>189.0</ele><time>2026-05-03T15:56:09.001Z</time></trkpt><trkpt lat="46.268871161171525" lon="13.092745514810115"><ele>189.0</ele><time>2026-05-03T15:56:10.001Z</time></trkpt><trkpt lat="46.268701109492156" lon="13.092534730005589"><ele>189.0</ele><time>2026-05-03T15:56:11.001Z</time></trkpt><trkpt lat="46.26853843852059" lon="13.09233573132727"><ele>189.0</ele><time>2026-05-03T15:56:12.001Z</time></trkpt><trkpt lat="46.26838623527899" lon="13.092149425794263"><ele>188.66666666666666</ele><time>2026-05-03T15:56:13.001Z</time></trkpt><trkpt lat="46.26824101761211" lon="13.091972272204872"><ele>188.33333333333331</ele><time>2026-05-03T15:56:14.001Z</time></trkpt><trkpt lat="46.26810225617149" lon="13.091801884797507"><ele>188.0</ele><time>2026-05-03T15:56:15.001Z</time></trkpt><trkpt lat="46.267969113223835" lon="13.091641654570846"><ele>188.33333333333331</ele><time>2026-05-03T15:56:16.001Z</time></trkpt><trkpt lat="46.267841361983216" lon="13.091492220687552"><ele>188.66666666666666</ele><time>2026-05-03T15:56:17.001Z</time></trkpt><trkpt lat="46.267720448153504" lon="13.091348462543133"><ele>189.0</ele><time>2026-05-03T15:56:18.001Z</time></trkpt><trkpt lat="46.26760570011589" lon="13.091206993895607"><ele>189.0</ele><time>2026-05-03T15:56:19.001Z</time></trkpt><trkpt lat="46.2674923392935" lon="13.091068953576057"><ele>189.0</ele><time>2026-05-03T15:56:20.001Z</time></trkpt><trkpt lat="46.26737204018713" lon="13.090923792807672"><ele>189.0</ele><time>2026-05-03T15:56:21.001Z</time></trkpt><trkpt lat="46.26724971907543" lon="13.090773676270736"><ele>189.33333333333334</ele><time>2026-05-03T15:56:22.001Z</time></trkpt><trkpt lat="46.26712281510262" lon="13.090622015632421"><ele>189.66666666666669</ele><time>2026-05-03T15:56:23.001Z</time></trkpt><trkpt lat="46.26699206270271" lon="13.09046438034169"><ele>190.0</ele><time>2026-05-03T15:56:24.001Z</time></trkpt><trkpt lat="46.26685140685062" lon="13.090301488414283"><ele>190.0</ele><time>2026-05-03T15:56:25.001Z</time></trkpt><trkpt lat="46.266697447107454" lon="13.090146252980679"><ele>190.0</ele><time>2026-05-03T15:56:26.001Z</time></trkpt><trkpt lat="46.266535447038194" lon="13.090001725748687"><ele>190.0</ele><time>2026-05-03T15:56:27.001Z</time></trkpt><trkpt lat="46.26638003426682" lon="13.089874221085523"><ele>188.33333333333334</ele><time>2026-05-03T15:56:28.001Z</time></trkpt><trkpt lat="46.2662235004233" lon="13.089772926198929"><ele>186.66666666666666</ele><time>2026-05-03T15:56:29.001Z</time></trkpt><trkpt lat="46.26606952637018" lon="13.08969143114897"><ele>185.0</ele><time>2026-05-03T15:56:30.001Z</time></trkpt><trkpt lat="46.26591767975361" lon="13.089627689076371"><ele>185.0</ele><time>2026-05-03T15:56:31.001Z</time></trkpt><trkpt lat="46.265770116303926" lon="13.089582702053276"><ele>185.0</ele><time>2026-05-03T15:56:32.001Z</time></trkpt><trkpt lat="46.26562580345588" lon="13.089539992825786"><ele>185.0</ele><time>2026-05-03T15:56:33.001Z</time></trkpt><trkpt lat="46.265479682486024" lon="13.089492301797454"><ele>185.0</ele><time>2026-05-03T15:56:34.001Z</time></trkpt><trkpt lat="46.26532662159873" lon="13.089444900887594"><ele>185.33333333333331</ele><time>2026-05-03T15:56:35.001Z</time></trkpt><trkpt lat="46.265170444073796" lon="13.089394675943906"><ele>185.66666666666666</ele><time>2026-05-03T15:56:36.001Z</time></trkpt><trkpt lat="46.26500787133541" lon="13.089345441858955"><ele>186.0</ele><time>2026-05-03T15:56:37.001Z</time></trkpt><trkpt lat="46.26484308528178" lon="13.08929346694805"><ele>185.66666666666666</ele><time>2026-05-03T15:56:38.001Z</time></trkpt><trkpt lat="46.26467895902613" lon="13.089242339676066"><ele>185.33333333333331</ele><time>2026-05-03T15:56:39.001Z</time></trkpt><trkpt lat="46.264522864285894" lon="13.089193381371622"><ele>185.0</ele><time>2026-05-03T15:56:40.001Z</time></trkpt><trkpt lat="46.26436246270376" lon="13.089143696295077"><ele>185.0</ele><time>2026-05-03T15:56:41.001Z</time></trkpt><trkpt lat="46.264175237942325" lon="13.089100364899236"><ele>185.0</ele><time>2026-05-03T15:56:42.001Z</time></trkpt><trkpt lat="46.2639607610102" lon="13.089050737513526"><ele>185.0</ele><time>2026-05-03T15:56:43.001Z</time></trkpt><trkpt lat="46.263737646098996" lon="13.088958459584452"><ele>185.66666666666666</ele><time>2026-05-03T15:56:44.001Z</time></trkpt><trkpt lat="46.26353600004719" lon="13.088896974162665"><ele>186.33333333333334</ele><time>2026-05-03T15:56:45.001Z</time></trkpt><trkpt lat="46.263339864906676" lon="13.08885872028908"><ele>187.0</ele><time>2026-05-03T15:56:46.001Z</time></trkpt><trkpt lat="46.26315339960271" lon="13.088791980866004"><ele>188.0</ele><time>2026-05-03T15:56:47.001Z</time></trkpt><trkpt lat="46.26297147189277" lon="13.08873003292376"><ele>189.0</ele><time>2026-05-03T15:56:48.001Z</time></trkpt><trkpt lat="46.26278599229603" lon="13.088678886492826"><ele>190.0</ele><time>2026-05-03T15:56:49.001Z</time></trkpt><trkpt lat="46.26258781889411" lon="13.088628081546926"><ele>190.0</ele><time>2026-05-03T15:56:50.001Z</time></trkpt><trkpt lat="46.262383288884244" lon="13.088540402630256"><ele>190.0</ele><time>2026-05-03T15:56:51.001Z</time></trkpt><trkpt lat="46.26216350773846" lon="13.088474029588465"><ele>190.0</ele><time>2026-05-03T15:56:52.001Z</time></trkpt><trkpt lat="46.2619351221439" lon="13.088403482695066"><ele>189.0</ele><time>2026-05-03T15:56:53.001Z</time></trkpt><trkpt lat="46.261703009667535" lon="13.088330885446219"><ele>188.0</ele><time>2026-05-03T15:56:54.001Z</time></trkpt><trkpt lat="46.261471843691396" lon="13.088282628515993"><ele>188.33333333333331</ele><time>2026-05-03T15:56:55.001Z</time></trkpt><trkpt lat="46.26125218448358" lon="13.088209008302895"><ele>188.66666666666666</ele><time>2026-05-03T15:56:56.001Z</time></trkpt><trkpt lat="46.261048655449244" lon="13.08813781895886"><ele>189.0</ele><time>2026-05-03T15:56:57.001Z</time></trkpt><trkpt lat="46.2608560265035" lon="13.088070217548367"><ele>189.0</ele><time>2026-05-03T15:56:58.001Z</time></trkpt><trkpt lat="46.26067875329683" lon="13.08801126589552"><ele>189.0</ele><time>2026-05-03T15:56:59.001Z</time></trkpt><trkpt lat="46.26051134778288" lon="13.087959476699995"><ele>189.0</ele><time>2026-05-03T15:57:00.001Z</time></trkpt><trkpt lat="46.26035164580646" lon="13.087910761186066"><ele>188.5</ele><time>2026-05-03T15:57:01.001Z</time></trkpt><trkpt lat="46.26021232682434" lon="13.087869083714619"><ele>188.0</ele><time>2026-05-03T15:57:02.001Z</time></trkpt><trkpt lat="46.26008048117833" lon="13.087826944181813"><ele>187.5</ele><time>2026-05-03T15:57:03.001Z</time></trkpt><trkpt lat="46.25995697471097" lon="13.087783032950137"><ele>187.0</ele><time>2026-05-03T15:57:04.001Z</time></trkpt><trkpt lat="46.25984141827202" lon="13.087743835737"><ele>186.75</ele><time>2026-05-03T15:57:05.001Z</time></trkpt><trkpt lat="46.25972932737871" lon="13.087702596427889"><ele>186.5</ele><time>2026-05-03T15:57:06.001Z</time></trkpt><trkpt lat="46.25960669163366" lon="13.087647580894563"><ele>186.25</ele><time>2026-05-03T15:57:07.001Z</time></trkpt><trkpt lat="46.25947950759798" lon="13.087576750633426"><ele>186.0</ele><time>2026-05-03T15:57:08.001Z</time></trkpt><trkpt lat="46.259353234685335" lon="13.087493813590843"><ele>185.75</ele><time>2026-05-03T15:57:09.001Z</time></trkpt><trkpt lat="46.25922923479087" lon="13.087388195181665"><ele>185.5</ele><time>2026-05-03T15:57:10.001Z</time></trkpt><trkpt lat="46.25910550627441" lon="13.087277882365262"><ele>185.25</ele><time>2026-05-03T15:57:11.001Z</time></trkpt><trkpt lat="46.25898904769899" lon="13.087163446275753"><ele>185.0</ele><time>2026-05-03T15:57:12.001Z</time></trkpt><trkpt lat="46.25888997968769" lon="13.08704934830525"><ele>185.5</ele><time>2026-05-03T15:57:13.001Z</time></trkpt><trkpt lat="46.25879692869683" lon="13.086940641903956"><ele>186.0</ele><time>2026-05-03T15:57:14.001Z</time></trkpt><trkpt lat="46.25870664190299" lon="13.0868317438653"><ele>186.5</ele><time>2026-05-03T15:57:15.001Z</time></trkpt><trkpt lat="46.25861751550568" lon="13.086723178688725"><ele>187.0</ele><time>2026-05-03T15:57:16.001Z</time></trkpt><trkpt lat="46.25853169676404" lon="13.086623911784987"><ele>186.8</ele><time>2026-05-03T15:57:17.001Z</time></trkpt><trkpt lat="46.258447756185944" lon="13.08652995189221"><ele>186.6</ele><time>2026-05-03T15:57:18.001Z</time></trkpt><trkpt lat="46.2583746502635" lon="13.08644188019293"><ele>186.4</ele><time>2026-05-03T15:57:19.001Z</time></trkpt><trkpt lat="46.25830200952412" lon="13.086350428765167"><ele>186.20000000000002</ele><time>2026-05-03T15:57:20.001Z</time></trkpt><trkpt lat="46.258230497117026" lon="13.086262122234748"><ele>186.0</ele><time>2026-05-03T15:57:21.001Z</time></trkpt><trkpt lat="46.25816344262231" lon="13.086177232265644"><ele>186.0</ele><time>2026-05-03T15:57:22.001Z</time></trkpt><trkpt lat="46.25810163710084" lon="13.086101294502757"><ele>186.0</ele><time>2026-05-03T15:57:23.002Z</time></trkpt><trkpt lat="46.25804011865551" lon="13.086029592209199"><ele>186.0</ele><time>2026-05-03T15:57:24.002Z</time></trkpt><trkpt lat="46.25797670474122" lon="13.085957974786407"><ele>186.0</ele><time>2026-05-03T15:57:25.002Z</time></trkpt><trkpt lat="46.257915282833586" lon="13.085884991323336"><ele>186.0</ele><time>2026-05-03T15:57:26.002Z</time></trkpt><trkpt lat="46.257858688580505" lon="13.085814989060404"><ele>186.0</ele><time>2026-05-03T15:57:27.002Z</time></trkpt><trkpt lat="46.25780351182391" lon="13.085748727669394"><ele>185.66666666666666</ele><time>2026-05-03T15:57:28Z</time></trkpt><trkpt lat="46.25775378794746" lon="13.085688260488988"><ele>185.33333333333334</ele><time>2026-05-03T15:57:29Z</time></trkpt><trkpt lat="46.25768557365132" lon="13.085606218679123"><ele>185.0</ele><time>2026-05-03T15:57:31Z</time></trkpt><trkpt lat="46.25762176799953" lon="13.085454703661808"><ele>184.66666666666669</ele><time>2026-05-03T15:57:33Z</time></trkpt><trkpt lat="46.257606373796804" lon="13.085347623616117"><ele>184.33333333333334</ele><time>2026-05-03T15:57:34Z</time></trkpt><trkpt lat="46.25756075832358" lon="13.085268241008855"><ele>184.0</ele><time>2026-05-03T15:57:35Z</time></trkpt><trkpt lat="46.25749709410992" lon="13.085229425610763"><ele>184.0</ele><time>2026-05-03T15:57:36Z</time></trkpt><trkpt lat="46.25743199969732" lon="13.085228027318731"><ele>184.0</ele><time>2026-05-03T15:57:37Z</time></trkpt><trkpt lat="46.257363448582915" lon="13.085249274081523"><ele>184.0</ele><time>2026-05-03T15:57:38Z</time></trkpt><trkpt lat="46.25729433678551" lon="13.085265667492443"><ele>184.0</ele><time>2026-05-03T15:57:39Z</time></trkpt><trkpt lat="46.257168188988466" lon="13.085169769160764"><ele>184.0</ele><time>2026-05-03T15:57:41Z</time></trkpt><trkpt lat="46.25712222856537" lon="13.085091225070787"><ele>184.0</ele><time>2026-05-03T15:57:42Z</time></trkpt><trkpt lat="46.25708187570091" lon="13.084990796273873"><ele>184.39999999999998</ele><time>2026-05-03T15:57:43Z</time></trkpt><trkpt lat="46.257030613752335" lon="13.084884754229067"><ele>184.8</ele><time>2026-05-03T15:57:44Z</time></trkpt><trkpt lat="46.25697234172237" lon="13.084776714510106"><ele>185.2</ele><time>2026-05-03T15:57:45Z</time></trkpt><trkpt lat="46.25691186653247" lon="13.084667314427486"><ele>185.60000000000002</ele><time>2026-05-03T15:57:46Z</time></trkpt><trkpt lat="46.25686828577935" lon="13.084584825215"><ele>186.0</ele><time>2026-05-03T15:57:47Z</time></trkpt><trkpt lat="46.25679852474967" lon="13.084456628368514"><ele>186.0</ele><time>2026-05-03T15:57:49Z</time></trkpt><trkpt lat="46.2567521082457" lon="13.084369658436737"><ele>186.0</ele><time>2026-05-03T15:57:50Z</time></trkpt><trkpt lat="46.25669292684315" lon="13.084244383261291"><ele>186.0</ele><time>2026-05-03T15:57:51Z</time></trkpt><trkpt lat="46.25662486102655" lon="13.084107641730998"><ele>186.0</ele><time>2026-05-03T15:57:52Z</time></trkpt><trkpt lat="46.25656147554302" lon="13.083987542299806"><ele>186.0</ele><time>2026-05-03T15:57:53Z</time></trkpt><trkpt lat="46.25649610932467" lon="13.083862551361527"><ele>186.0</ele><time>2026-05-03T15:57:54Z</time></trkpt><trkpt lat="46.25643011080302" lon="13.083741480706388"><ele>186.0</ele><time>2026-05-03T15:57:55Z</time></trkpt><trkpt lat="46.25636050999227" lon="13.083623009071093"><ele>186.0</ele><time>2026-05-03T15:57:56Z</time></trkpt><trkpt lat="46.256303945908286" lon="13.08349554644254"><ele>186.0</ele><time>2026-05-03T15:57:57.001Z</time></trkpt><trkpt lat="46.25623843098487" lon="13.083372913212184"><ele>186.0</ele><time>2026-05-03T15:57:58.001Z</time></trkpt><trkpt lat="46.256174002533946" lon="13.083246893252207"><ele>185.60000000000002</ele><time>2026-05-03T15:57:59.001Z</time></trkpt><trkpt lat="46.2561045800037" lon="13.083120495305415"><ele>185.2</ele><time>2026-05-03T15:58:00.001Z</time></trkpt><trkpt lat="46.25603046189062" lon="13.082997938404931"><ele>184.8</ele><time>2026-05-03T15:58:01.001Z</time></trkpt><trkpt lat="46.25595218576807" lon="13.082882460425193"><ele>184.39999999999998</ele><time>2026-05-03T15:58:02.001Z</time></trkpt><trkpt lat="46.25586881349715" lon="13.082771564523195"><ele>184.0</ele><time>2026-05-03T15:58:03.001Z</time></trkpt><trkpt lat="46.255776634031385" lon="13.082672477196002"><ele>184.0</ele><time>2026-05-03T15:58:04.001Z</time></trkpt><trkpt lat="46.25568406962555" lon="13.082594899487036"><ele>184.0</ele><time>2026-05-03T15:58:05.001Z</time></trkpt><trkpt lat="46.25558505577904" lon="13.082523296461996"><ele>184.0</ele><time>2026-05-03T15:58:06.001Z</time></trkpt><trkpt lat="46.25548081968604" lon="13.082455034176512"><ele>184.0</ele><time>2026-05-03T15:58:07.001Z</time></trkpt><trkpt lat="46.25538313396461" lon="13.082388608721304"><ele>184.0</ele><time>2026-05-03T15:58:08.001Z</time></trkpt><trkpt lat="46.25529480255335" lon="13.08232183486027"><ele>183.75</ele><time>2026-05-03T15:58:09.001Z</time></trkpt><trkpt lat="46.25519788761771" lon="13.082252052051611"><ele>183.5</ele><time>2026-05-03T15:58:10.001Z</time></trkpt><trkpt lat="46.25509909762483" lon="13.082177565064935"><ele>183.25</ele><time>2026-05-03T15:58:11.001Z</time></trkpt><trkpt lat="46.254994455774145" lon="13.082098087823615"><ele>183.0</ele><time>2026-05-03T15:58:12.001Z</time></trkpt><trkpt lat="46.25488274862787" lon="13.082016762529511"><ele>182.75</ele><time>2026-05-03T15:58:13.001Z</time></trkpt><trkpt lat="46.2547750067579" lon="13.081942330100626"><ele>182.5</ele><time>2026-05-03T15:58:14.001Z</time></trkpt><trkpt lat="46.25466601622528" lon="13.081863516662857"><ele>182.25</ele><time>2026-05-03T15:58:15.001Z</time></trkpt><trkpt lat="46.25455468085659" lon="13.081777839624932"><ele>182.0</ele><time>2026-05-03T15:58:16.001Z</time></trkpt><trkpt lat="46.254438696502056" lon="13.081692561306712"><ele>182.0</ele><time>2026-05-03T15:58:17.001Z</time></trkpt><trkpt lat="46.25432450736935" lon="13.081601880504046"><ele>182.0</ele><time>2026-05-03T15:58:18Z</time></trkpt><trkpt lat="46.25421286544892" lon="13.081512568722708"><ele>182.0</ele><time>2026-05-03T15:58:19Z</time></trkpt><trkpt lat="46.25409522656501" lon="13.08142771861833"><ele>182.0</ele><time>2026-05-03T15:58:20Z</time></trkpt><trkpt lat="46.253983500464386" lon="13.081349022285051"><ele>182.5</ele><time>2026-05-03T15:58:21Z</time></trkpt><trkpt lat="46.253879426829194" lon="13.081275681651865"><ele>183.0</ele><time>2026-05-03T15:58:22Z</time></trkpt><trkpt lat="46.25378123853933" lon="13.081205709947753"><ele>183.5</ele><time>2026-05-03T15:58:23Z</time></trkpt><trkpt lat="46.253685176284996" lon="13.08113329077463"><ele>184.0</ele><time>2026-05-03T15:58:24Z</time></trkpt><trkpt lat="46.25357826427483" lon="13.08105130248175"><ele>184.0</ele><time>2026-05-03T15:58:25Z</time></trkpt><trkpt lat="46.25346339247958" lon="13.080966127976357"><ele>184.0</ele><time>2026-05-03T15:58:26Z</time></trkpt><trkpt lat="46.25334797708921" lon="13.080875256674892"><ele>184.0</ele><time>2026-05-03T15:58:27Z</time></trkpt><trkpt lat="46.253237733362965" lon="13.080798038442337"><ele>184.0</ele><time>2026-05-03T15:58:28Z</time></trkpt><trkpt lat="46.25313314697013" lon="13.080719562574586"><ele>183.6</ele><time>2026-05-03T15:58:29Z</time></trkpt><trkpt lat="46.25303226333231" lon="13.080642799805826"><ele>183.2</ele><time>2026-05-03T15:58:30Z</time></trkpt><trkpt lat="46.25293464078181" lon="13.08056444834299"><ele>182.79999999999998</ele><time>2026-05-03T15:58:31Z</time></trkpt><trkpt lat="46.252839892086854" lon="13.080489957811555"><ele>182.39999999999998</ele><time>2026-05-03T15:58:32Z</time></trkpt><trkpt lat="46.25274721638136" lon="13.080417144208326"><ele>182.0</ele><time>2026-05-03T15:58:33Z</time></trkpt><trkpt lat="46.252652001000875" lon="13.080345981207191"><ele>182.0</ele><time>2026-05-03T15:58:34Z</time></trkpt><trkpt lat="46.25255747083409" lon="13.080273520983"><ele>182.0</ele><time>2026-05-03T15:58:35Z</time></trkpt><trkpt lat="46.25246149239338" lon="13.080201443999057"><ele>182.0</ele><time>2026-05-03T15:58:36Z</time></trkpt><trkpt lat="46.25236133060101" lon="13.080128874557902"><ele>182.0</ele><time>2026-05-03T15:58:37Z</time></trkpt><trkpt lat="46.25225822206769" lon="13.08005080220047"><ele>182.0</ele><time>2026-05-03T15:58:38Z</time></trkpt><trkpt lat="46.25214858140435" lon="13.079979709756001"><ele>181.5</ele><time>2026-05-03T15:58:39Z</time></trkpt><trkpt lat="46.25202971534051" lon="13.079918862710185"><ele>181.0</ele><time>2026-05-03T15:58:40Z</time></trkpt><trkpt lat="46.25190286323394" lon="13.079868136608267"><ele>180.5</ele><time>2026-05-03T15:58:41Z</time></trkpt><trkpt lat="46.25176580041144" lon="13.079827004635966"><ele>180.0</ele><time>2026-05-03T15:58:42Z</time></trkpt><trkpt lat="46.25162438106702" lon="13.079792781658007"><ele>180.0</ele><time>2026-05-03T15:58:43Z</time></trkpt><trkpt lat="46.25147846867985" lon="13.079759128352688"><ele>180.0</ele><time>2026-05-03T15:58:44Z</time></trkpt><trkpt lat="46.25133149623573" lon="13.079724518557923"><ele>180.0</ele><time>2026-05-03T15:58:45Z</time></trkpt><trkpt lat="46.251182269795" lon="13.079687791385023"><ele>180.0</ele><time>2026-05-03T15:58:46Z</time></trkpt><trkpt lat="46.25103442532133" lon="13.079646797154854"><ele>180.25</ele><time>2026-05-03T15:58:47Z</time></trkpt><trkpt lat="46.250890322148926" lon="13.079612635897206"><ele>180.5</ele><time>2026-05-03T15:58:48Z</time></trkpt><trkpt lat="46.2507533022705" lon="13.079575627859416"><ele>180.75</ele><time>2026-05-03T15:58:49Z</time></trkpt><trkpt lat="46.25062425297991" lon="13.079539485713884"><ele>181.0</ele><time>2026-05-03T15:58:50Z</time></trkpt><trkpt lat="46.25050240544217" lon="13.07950986758737"><ele>180.5</ele><time>2026-05-03T15:58:51Z</time></trkpt><trkpt lat="46.250385543846164" lon="13.079480257789447"><ele>180.0</ele><time>2026-05-03T15:58:52Z</time></trkpt><trkpt lat="46.25026349492541" lon="13.079451520981415"><ele>179.5</ele><time>2026-05-03T15:58:53Z</time></trkpt><trkpt lat="46.25013164085589" lon="13.079423282072398"><ele>179.0</ele><time>2026-05-03T15:58:54Z</time></trkpt><trkpt lat="46.24999005749901" lon="13.079394555693979"><ele>179.0</ele><time>2026-05-03T15:58:55Z</time></trkpt><trkpt lat="46.24984616140696" lon="13.079360856122852"><ele>179.0</ele><time>2026-05-03T15:58:56Z</time></trkpt><trkpt lat="46.2497024018557" lon="13.079325442827294"><ele>179.0</ele><time>2026-05-03T15:58:57Z</time></trkpt><trkpt lat="46.249560587480055" lon="13.079289133793386"><ele>179.0</ele><time>2026-05-03T15:58:58Z</time></trkpt><trkpt lat="46.24942137534528" lon="13.079255112296979"><ele>178.25</ele><time>2026-05-03T15:58:59Z</time></trkpt><trkpt lat="46.249287223709345" lon="13.079217137836283"><ele>177.5</ele><time>2026-05-03T15:59:00Z</time></trkpt><trkpt lat="46.24915266550356" lon="13.079180169780093"><ele>176.75</ele><time>2026-05-03T15:59:01Z</time></trkpt><trkpt lat="46.24901742205894" lon="13.079142523973164"><ele>176.0</ele><time>2026-05-03T15:59:02Z</time></trkpt><trkpt lat="46.24887842001338" lon="13.07911147293666"><ele>176.0</ele><time>2026-05-03T15:59:03Z</time></trkpt><trkpt lat="46.248737171014405" lon="13.079076146416456"><ele>176.0</ele><time>2026-05-03T15:59:04Z</time></trkpt><trkpt lat="46.24859503208362" lon="13.079042323106368"><ele>176.0</ele><time>2026-05-03T15:59:05Z</time></trkpt><trkpt lat="46.248453246234064" lon="13.079007816197961"><ele>176.0</ele><time>2026-05-03T15:59:06Z</time></trkpt><trkpt lat="46.248310131901206" lon="13.078972016740247"><ele>176.0</ele><time>2026-05-03T15:59:07Z</time></trkpt><trkpt lat="46.248167519670154" lon="13.078934503751405"><ele>176.0</ele><time>2026-05-03T15:59:08Z</time></trkpt><trkpt lat="46.248024098109056" lon="13.078891874111392"><ele>176.0</ele><time>2026-05-03T15:59:09Z</time></trkpt><trkpt lat="46.24787840654937" lon="13.078853131236905"><ele>176.0</ele><time>2026-05-03T15:59:10Z</time></trkpt><trkpt lat="46.24773132687018" lon="13.078819129110052"><ele>175.75</ele><time>2026-05-03T15:59:11Z</time></trkpt><trkpt lat="46.247582418270646" lon="13.078788152606277"><ele>175.5</ele><time>2026-05-03T15:59:12.001Z</time></trkpt><trkpt lat="46.247432425522" lon="13.078757553156718"><ele>175.25</ele><time>2026-05-03T15:59:13.001Z</time></trkpt><trkpt lat="46.24728776353142" lon="13.078723322741949"><ele>175.0</ele><time>2026-05-03T15:59:14.001Z</time></trkpt><trkpt lat="46.247156323125076" lon="13.078688180463239"><ele>175.5</ele><time>2026-05-03T15:59:15.001Z</time></trkpt><trkpt lat="46.2470290898501" lon="13.07865399868839"><ele>176.0</ele><time>2026-05-03T15:59:16.001Z</time></trkpt><trkpt lat="46.2469077993866" lon="13.078622747605994"><ele>176.5</ele><time>2026-05-03T15:59:17.001Z</time></trkpt><trkpt lat="46.24679351240765" lon="13.078591616745776"><ele>177.0</ele><time>2026-05-03T15:59:18.001Z</time></trkpt><trkpt lat="46.24668417645136" lon="13.078565033531504"><ele>177.0</ele><time>2026-05-03T15:59:19.001Z</time></trkpt><trkpt lat="46.24657791005301" lon="13.078539774890395"><ele>177.0</ele><time>2026-05-03T15:59:20.001Z</time></trkpt><trkpt lat="46.24646483274253" lon="13.078518698811868"><ele>177.0</ele><time>2026-05-03T15:59:21.001Z</time></trkpt><trkpt lat="46.246349456430465" lon="13.078517229931979"><ele>177.0</ele><time>2026-05-03T15:59:22.001Z</time></trkpt><trkpt lat="46.246231735508225" lon="13.078531042023133"><ele>177.75</ele><time>2026-05-03T15:59:23.001Z</time></trkpt><trkpt lat="46.24611357909925" lon="13.07856167005949"><ele>178.5</ele><time>2026-05-03T15:59:24.001Z</time></trkpt><trkpt lat="46.24599738382974" lon="13.078604322687976"><ele>179.25</ele><time>2026-05-03T15:59:25.001Z</time></trkpt><trkpt lat="46.24588394177098" lon="13.078660513499061"><ele>180.0</ele><time>2026-05-03T15:59:26.001Z</time></trkpt><trkpt lat="46.245772385706" lon="13.078733119977292"><ele>180.0</ele><time>2026-05-03T15:59:27.001Z</time></trkpt><trkpt lat="46.24566797342095" lon="13.078816507956859"><ele>180.0</ele><time>2026-05-03T15:59:28.001Z</time></trkpt><trkpt lat="46.245576285978714" lon="13.078903554096161"><ele>180.0</ele><time>2026-05-03T15:59:29.001Z</time></trkpt><trkpt lat="46.24549299392893" lon="13.078991970261423"><ele>180.0</ele><time>2026-05-03T15:59:30.001Z</time></trkpt><trkpt lat="46.2454164041478" lon="13.079078044724671"><ele>180.0</ele><time>2026-05-03T15:59:31.001Z</time></trkpt><trkpt lat="46.24534631325231" lon="13.079157874919298"><ele>179.16666666666666</ele><time>2026-05-03T15:59:32.001Z</time></trkpt><trkpt lat="46.245276459033555" lon="13.079235751890243"><ele>178.33333333333334</ele><time>2026-05-03T15:59:33.001Z</time></trkpt><trkpt lat="46.245207745197256" lon="13.079311929457605"><ele>177.5</ele><time>2026-05-03T15:59:33.999Z</time></trkpt><trkpt lat="46.24513904397425" lon="13.079384470368042"><ele>176.66666666666669</ele><time>2026-05-03T15:59:34.999Z</time></trkpt><trkpt lat="46.2450711626897" lon="13.079450377272636"><ele>175.83333333333334</ele><time>2026-05-03T15:59:36Z</time></trkpt><trkpt lat="46.244999171315875" lon="13.079505344187389"><ele>175.0</ele><time>2026-05-03T15:59:37Z</time></trkpt><trkpt lat="46.24491414236912" lon="13.079554480317084"><ele>175.0</ele><time>2026-05-03T15:59:38Z</time></trkpt><trkpt lat="46.24481741962148" lon="13.079594390666205"><ele>175.0</ele><time>2026-05-03T15:59:39Z</time></trkpt><trkpt lat="46.24471323945654" lon="13.079602261247267"><ele>175.0</ele><time>2026-05-03T15:59:40Z</time></trkpt><trkpt lat="46.244601686105234" lon="13.079595370005782"><ele>175.0</ele><time>2026-05-03T15:59:41Z</time></trkpt><trkpt lat="46.244486466925515" lon="13.079574641751018"><ele>175.0</ele><time>2026-05-03T15:59:42Z</time></trkpt><trkpt lat="46.24436801708098" lon="13.079541895901713"><ele>175.5</ele><time>2026-05-03T15:59:43Z</time></trkpt><trkpt lat="46.2442468596092" lon="13.079506378927164"><ele>176.0</ele><time>2026-05-03T15:59:44Z</time></trkpt><trkpt lat="46.24412053851779" lon="13.07946305474513"><ele>176.5</ele><time>2026-05-03T15:59:45Z</time></trkpt><trkpt lat="46.243987391064636" lon="13.079418262107374"><ele>177.0</ele><time>2026-05-03T15:59:46Z</time></trkpt><trkpt lat="46.24384789737707" lon="13.079366770094222"><ele>175.66666666666666</ele><time>2026-05-03T15:59:47Z</time></trkpt><trkpt lat="46.243706751589535" lon="13.079280242465938"><ele>174.33333333333331</ele><time>2026-05-03T15:59:48Z</time></trkpt><trkpt lat="46.24355392513456" lon="13.079206440361139"><ele>173.0</ele><time>2026-05-03T15:59:49Z</time></trkpt><trkpt lat="46.2433935493918" lon="13.079127454239858"><ele>173.66666666666666</ele><time>2026-05-03T15:59:50Z</time></trkpt><trkpt lat="46.243215402498436" lon="13.079039694599777"><ele>174.33333333333334</ele><time>2026-05-03T15:59:51Z</time></trkpt><trkpt lat="46.24302193561038" lon="13.078942646649276"><ele>175.0</ele><time>2026-05-03T15:59:52Z</time></trkpt><trkpt lat="46.24284958049838" lon="13.078855653018216"><ele>175.0</ele><time>2026-05-03T15:59:53Z</time></trkpt><trkpt lat="46.24262948796967" lon="13.078744371071558"><ele>175.0</ele><time>2026-05-03T15:59:54Z</time></trkpt><trkpt lat="46.2424268000718" lon="13.078641751977022"><ele>175.0</ele><time>2026-05-03T15:59:55Z</time></trkpt><trkpt lat="46.24221915647632" lon="13.07853769867665"><ele>175.0</ele><time>2026-05-03T15:59:56Z</time></trkpt><trkpt lat="46.24201001490566" lon="13.078433549042375"><ele>175.0</ele><time>2026-05-03T15:59:57Z</time></trkpt><trkpt lat="46.24179636785927" lon="13.078327155889152"><ele>175.0</ele><time>2026-05-03T15:59:58Z</time></trkpt><trkpt lat="46.24158154467068" lon="13.078220176933597"><ele>174.0</ele><time>2026-05-03T15:59:59Z</time></trkpt><trkpt lat="46.24135531495935" lon="13.078107517628936"><ele>173.0</ele><time>2026-05-03T16:00:00Z</time></trkpt><trkpt lat="46.24109809063203" lon="13.07797858284734"><ele>173.0</ele><time>2026-05-03T16:00:01Z</time></trkpt><trkpt lat="46.240864336230146" lon="13.077860366528412"><ele>173.0</ele><time>2026-05-03T16:00:02Z</time></trkpt><trkpt lat="46.24065876905757" lon="13.07775641980609"><ele>173.0</ele><time>2026-05-03T16:00:03Z</time></trkpt><trkpt lat="46.240482126902116" lon="13.07768194939448"><ele>173.0</ele><time>2026-05-03T16:00:04Z</time></trkpt><trkpt lat="46.24036790203033" lon="13.077615289488504"><ele>173.0</ele><time>2026-05-03T16:00:05Z</time></trkpt><trkpt lat="46.24027304614594" lon="13.077564018422631"><ele>173.0</ele><time>2026-05-03T16:00:06Z</time></trkpt><trkpt lat="46.240174540633404" lon="13.077519496087836"><ele>173.0</ele><time>2026-05-03T16:00:07Z</time></trkpt><trkpt lat="46.24008165648728" lon="13.07746711051224"><ele>173.0</ele><time>2026-05-03T16:00:08Z</time></trkpt><trkpt lat="46.239999443193696" lon="13.077424484579973"><ele>173.0</ele><time>2026-05-03T16:00:09Z</time></trkpt><trkpt lat="46.23992664818148" lon="13.07738882380842"><ele>173.0</ele><time>2026-05-03T16:00:10Z</time></trkpt><trkpt lat="46.23985887401031" lon="13.077355984978402"><ele>173.0</ele><time>2026-05-03T16:00:11Z</time></trkpt><trkpt lat="46.23974493907001" lon="13.07729780512734"><ele>173.33333333333331</ele><time>2026-05-03T16:00:13Z</time></trkpt><trkpt lat="46.23967722334857" lon="13.077265235118038"><ele>173.66666666666666</ele><time>2026-05-03T16:00:14Z</time></trkpt><trkpt lat="46.2396012117685" lon="13.077230265418892"><ele>174.0</ele><time>2026-05-03T16:00:15Z</time></trkpt><trkpt lat="46.23951983849723" lon="13.077190473614806"><ele>174.33333333333334</ele><time>2026-05-03T16:00:16Z</time></trkpt><trkpt lat="46.239447254244695" lon="13.077148661933629"><ele>174.66666666666669</ele><time>2026-05-03T16:00:17Z</time></trkpt><trkpt lat="46.23937958642609" lon="13.077111543255665"><ele>175.0</ele><time>2026-05-03T16:00:18Z</time></trkpt><trkpt lat="46.239311278443786" lon="13.077081296786739"><ele>175.0</ele><time>2026-05-03T16:00:19Z</time></trkpt><trkpt lat="46.23923873251166" lon="13.077046246856517"><ele>175.0</ele><time>2026-05-03T16:00:20Z</time></trkpt><trkpt lat="46.239162820878164" lon="13.077011685236817"><ele>175.0</ele><time>2026-05-03T16:00:21Z</time></trkpt><trkpt lat="46.239088617309854" lon="13.07697330993391"><ele>175.0</ele><time>2026-05-03T16:00:22Z</time></trkpt><trkpt lat="46.23901256855061" lon="13.076935233412485"><ele>175.0</ele><time>2026-05-03T16:00:23Z</time></trkpt><trkpt lat="46.23893596665935" lon="13.076895038924764"><ele>175.0</ele><time>2026-05-03T16:00:24Z</time></trkpt><trkpt lat="46.23885987030738" lon="13.076854103220942"><ele>174.85714285714286</ele><time>2026-05-03T16:00:25Z</time></trkpt><trkpt lat="46.238781840282066" lon="13.076812900925349"><ele>174.71428571428572</ele><time>2026-05-03T16:00:26Z</time></trkpt><trkpt lat="46.23870889050447" lon="13.076777858766132"><ele>174.57142857142856</ele><time>2026-05-03T16:00:27Z</time></trkpt><trkpt lat="46.23863741353231" lon="13.07673924619077"><ele>174.42857142857144</ele><time>2026-05-03T16:00:28Z</time></trkpt><trkpt lat="46.2385688670492" lon="13.076702663603406"><ele>174.28571428571428</ele><time>2026-05-03T16:00:29Z</time></trkpt><trkpt lat="46.23850372930271" lon="13.076668677111947"><ele>174.14285714285714</ele><time>2026-05-03T16:00:30Z</time></trkpt><trkpt lat="46.23843770428274" lon="13.076636233380796"><ele>174.0</ele><time>2026-05-03T16:00:31Z</time></trkpt><trkpt lat="46.23836972114761" lon="13.076604688847514"><ele>173.83333333333334</ele><time>2026-05-03T16:00:32Z</time></trkpt><trkpt lat="46.23830269312315" lon="13.076571848387596"><ele>173.66666666666666</ele><time>2026-05-03T16:00:33Z</time></trkpt><trkpt lat="46.23823576798009" lon="13.076538172720165"><ele>173.5</ele><time>2026-05-03T16:00:34Z</time></trkpt><trkpt lat="46.23816258835462" lon="13.076502305899316"><ele>173.33333333333331</ele><time>2026-05-03T16:00:35Z</time></trkpt><trkpt lat="46.238088185981184" lon="13.076462847206539"><ele>173.16666666666666</ele><time>2026-05-03T16:00:36Z</time></trkpt><trkpt lat="46.2380124349324" lon="13.076422317928536"><ele>173.0</ele><time>2026-05-03T16:00:37Z</time></trkpt><trkpt lat="46.23793445598275" lon="13.076382665765408"><ele>172.60000000000002</ele><time>2026-05-03T16:00:38Z</time></trkpt><trkpt lat="46.23785214330597" lon="13.076342145648667"><ele>172.20000000000002</ele><time>2026-05-03T16:00:39Z</time></trkpt><trkpt lat="46.237769597343274" lon="13.076301425740313"><ele>171.8</ele><time>2026-05-03T16:00:40Z</time></trkpt><trkpt lat="46.23768244271684" lon="13.076258811371295"><ele>171.4</ele><time>2026-05-03T16:00:41Z</time></trkpt><trkpt lat="46.237595941382125" lon="13.07621814681406"><ele>171.0</ele><time>2026-05-03T16:00:42Z</time></trkpt><trkpt lat="46.23750642535546" lon="13.076176781767732"><ele>171.0</ele><time>2026-05-03T16:00:43Z</time></trkpt><trkpt lat="46.23741547748595" lon="13.076132212790755"><ele>171.0</ele><time>2026-05-03T16:00:44Z</time></trkpt><trkpt lat="46.2373228519959" lon="13.076084904309566"><ele>171.0</ele><time>2026-05-03T16:00:45Z</time></trkpt><trkpt lat="46.237230198912684" lon="13.076037969449162"><ele>171.0</ele><time>2026-05-03T16:00:46Z</time></trkpt><trkpt lat="46.237139530003" lon="13.075993812343187"><ele>171.0</ele><time>2026-05-03T16:00:47.001Z</time></trkpt><trkpt lat="46.23705189246608" lon="13.075949650560625"><ele>170.83333333333334</ele><time>2026-05-03T16:00:48.001Z</time></trkpt><trkpt lat="46.236969379014184" lon="13.07590872145748"><ele>170.66666666666666</ele><time>2026-05-03T16:00:49.001Z</time></trkpt><trkpt lat="46.23689441594538" lon="13.075869526120972"><ele>170.5</ele><time>2026-05-03T16:00:50.001Z</time></trkpt><trkpt lat="46.23681995858216" lon="13.075827658481874"><ele>170.33333333333331</ele><time>2026-05-03T16:00:51.001Z</time></trkpt><trkpt lat="46.23674698758815" lon="13.075790368741213"><ele>170.16666666666666</ele><time>2026-05-03T16:00:52.001Z</time></trkpt><trkpt lat="46.23666662233428" lon="13.075753465496305"><ele>170.0</ele><time>2026-05-03T16:00:53.001Z</time></trkpt><trkpt lat="46.23657680846089" lon="13.075711448608098"><ele>170.0</ele><time>2026-05-03T16:00:54.001Z</time></trkpt><trkpt lat="46.2364816390054" lon="13.075669636169067"><ele>170.0</ele><time>2026-05-03T16:00:55.001Z</time></trkpt><trkpt lat="46.23638147444017" lon="13.075617892189065"><ele>170.0</ele><time>2026-05-03T16:00:56.001Z</time></trkpt><trkpt lat="46.23627718245168" lon="13.075573122658641"><ele>170.0</ele><time>2026-05-03T16:00:57.001Z</time></trkpt><trkpt lat="46.23617444148484" lon="13.075523803924193"><ele>170.0</ele><time>2026-05-03T16:00:58.001Z</time></trkpt><trkpt lat="46.236080784161736" lon="13.075475514397045"><ele>170.0</ele><time>2026-05-03T16:00:59.001Z</time></trkpt><trkpt lat="46.235993794287694" lon="13.075427630321276"><ele>170.0</ele><time>2026-05-03T16:01:00.001Z</time></trkpt><trkpt lat="46.23590994974522" lon="13.075385502187318"><ele>170.0</ele><time>2026-05-03T16:01:01.001Z</time></trkpt><trkpt lat="46.23582575666316" lon="13.075340319706482"><ele>170.0</ele><time>2026-05-03T16:01:02.001Z</time></trkpt><trkpt lat="46.23573553834565" lon="13.075293223310808"><ele>170.0</ele><time>2026-05-03T16:01:03.001Z</time></trkpt><trkpt lat="46.23563498889547" lon="13.07524749213771"><ele>169.6</ele><time>2026-05-03T16:01:04.001Z</time></trkpt><trkpt lat="46.23554097824866" lon="13.075201170262046"><ele>169.2</ele><time>2026-05-03T16:01:05.001Z</time></trkpt><trkpt lat="46.23544598035594" lon="13.075149393051227"><ele>168.8</ele><time>2026-05-03T16:01:06.001Z</time></trkpt><trkpt lat="46.2353512055423" lon="13.07509767013565"><ele>168.4</ele><time>2026-05-03T16:01:07.001Z</time></trkpt><trkpt lat="46.23525366545403" lon="13.075049060746888"><ele>168.0</ele><time>2026-05-03T16:01:08.001Z</time></trkpt><trkpt lat="46.235155212353014" lon="13.075002308535433"><ele>168.0</ele><time>2026-05-03T16:01:09.001Z</time></trkpt><trkpt lat="46.23505920943649" lon="13.074956012053432"><ele>168.0</ele><time>2026-05-03T16:01:10.001Z</time></trkpt><trkpt lat="46.23496633546964" lon="13.074908326302316"><ele>168.0</ele><time>2026-05-03T16:01:11.001Z</time></trkpt><trkpt lat="46.23487612310997" lon="13.07486175282707"><ele>168.0</ele><time>2026-05-03T16:01:12.001Z</time></trkpt><trkpt lat="46.23478623839079" lon="13.07481796027442"><ele>168.0</ele><time>2026-05-03T16:01:13.001Z</time></trkpt><trkpt lat="46.23469821275924" lon="13.07477382804353"><ele>167.4</ele><time>2026-05-03T16:01:14.001Z</time></trkpt><trkpt lat="46.23460957144714" lon="13.07473389933909"><ele>166.8</ele><time>2026-05-03T16:01:15.001Z</time></trkpt><trkpt lat="46.2345251874175" lon="13.074685140841162"><ele>166.2</ele><time>2026-05-03T16:01:16.001Z</time></trkpt><trkpt lat="46.234438497695876" lon="13.074642119776664"><ele>165.6</ele><time>2026-05-03T16:01:17.001Z</time></trkpt><trkpt lat="46.234350516611435" lon="13.074600455426825"><ele>165.0</ele><time>2026-05-03T16:01:18.001Z</time></trkpt><trkpt lat="46.23425998557084" lon="13.074555713971519"><ele>165.0</ele><time>2026-05-03T16:01:19.001Z</time></trkpt><trkpt lat="46.23416384630558" lon="13.074508948155943"><ele>165.0</ele><time>2026-05-03T16:01:20.001Z</time></trkpt><trkpt lat="46.234063349696974" lon="13.074459493567176"><ele>165.0</ele><time>2026-05-03T16:01:21.001Z</time></trkpt><trkpt lat="46.233959037098145" lon="13.074405143064608"><ele>165.0</ele><time>2026-05-03T16:01:22.001Z</time></trkpt><trkpt lat="46.23385356836273" lon="13.074349731563412"><ele>165.0</ele><time>2026-05-03T16:01:23.001Z</time></trkpt><trkpt lat="46.233744466364676" lon="13.074297737267859"><ele>164.8</ele><time>2026-05-03T16:01:24.001Z</time></trkpt><trkpt lat="46.233636066215944" lon="13.074246184097934"><ele>164.6</ele><time>2026-05-03T16:01:25.001Z</time></trkpt><trkpt lat="46.23353156271853" lon="13.07419291392796"><ele>164.39999999999998</ele><time>2026-05-03T16:01:26.001Z</time></trkpt><trkpt lat="46.23342951166254" lon="13.074137220714043"><ele>164.2</ele><time>2026-05-03T16:01:27.001Z</time></trkpt><trkpt lat="46.23332567402777" lon="13.074086097942853"><ele>164.0</ele><time>2026-05-03T16:01:28.001Z</time></trkpt><trkpt lat="46.23322357562187" lon="13.07403358255017"><ele>164.2</ele><time>2026-05-03T16:01:29.001Z</time></trkpt><trkpt lat="46.233120156159" lon="13.073983075125362"><ele>164.39999999999998</ele><time>2026-05-03T16:01:30.001Z</time></trkpt><trkpt lat="46.233020561729745" lon="13.07392770810537"><ele>164.6</ele><time>2026-05-03T16:01:31.001Z</time></trkpt><trkpt lat="46.232915594146604" lon="13.073875625668457"><ele>164.8</ele><time>2026-05-03T16:01:32.001Z</time></trkpt><trkpt lat="46.232812641178676" lon="13.073823596100151"><ele>165.0</ele><time>2026-05-03T16:01:33.001Z</time></trkpt><trkpt lat="46.23270602294372" lon="13.07377581084627"><ele>165.0</ele><time>2026-05-03T16:01:34.001Z</time></trkpt><trkpt lat="46.232605978351486" lon="13.073724289221296"><ele>165.0</ele><time>2026-05-03T16:01:35.001Z</time></trkpt><trkpt lat="46.232497568970985" lon="13.07367737916829"><ele>165.0</ele><time>2026-05-03T16:01:36.001Z</time></trkpt><trkpt lat="46.232401995303846" lon="13.073624131128389"><ele>165.0</ele><time>2026-05-03T16:01:37.001Z</time></trkpt><trkpt lat="46.23229462263988" lon="13.073569799105739"><ele>165.0</ele><time>2026-05-03T16:01:38.001Z</time></trkpt><trkpt lat="46.23218699481929" lon="13.073518194116263"><ele>165.25</ele><time>2026-05-03T16:01:39.001Z</time></trkpt><trkpt lat="46.23207910947541" lon="13.07346549207182"><ele>165.5</ele><time>2026-05-03T16:01:40Z</time></trkpt><trkpt lat="46.23196650804006" lon="13.073406243696418"><ele>165.75</ele><time>2026-05-03T16:01:41Z</time></trkpt><trkpt lat="46.23185043096116" lon="13.073345218599696"><ele>166.0</ele><time>2026-05-03T16:01:42Z</time></trkpt><trkpt lat="46.23173661889456" lon="13.073289108814434"><ele>166.20000000000002</ele><time>2026-05-03T16:01:43Z</time></trkpt><trkpt lat="46.231630040752876" lon="13.073237456251936"><ele>166.4</ele><time>2026-05-03T16:01:44Z</time></trkpt><trkpt lat="46.23153012908223" lon="13.073190210108356"><ele>166.6</ele><time>2026-05-03T16:01:45Z</time></trkpt><trkpt lat="46.23143986076458" lon="13.073143235067564"><ele>166.8</ele><time>2026-05-03T16:01:46Z</time></trkpt><trkpt lat="46.23135056189413" lon="13.073092622159782"><ele>167.0</ele><time>2026-05-03T16:01:47Z</time></trkpt><trkpt lat="46.23125040182404" lon="13.073039542699455"><ele>166.25</ele><time>2026-05-03T16:01:48Z</time></trkpt><trkpt lat="46.23114613860928" lon="13.072982374463322"><ele>165.5</ele><time>2026-05-03T16:01:49Z</time></trkpt><trkpt lat="46.23103116892083" lon="13.072933707220194"><ele>164.75</ele><time>2026-05-03T16:01:50Z</time></trkpt><trkpt lat="46.23090704308942" lon="13.07287947427706"><ele>164.0</ele><time>2026-05-03T16:01:51Z</time></trkpt><trkpt lat="46.23076785236548" lon="13.072812352271022"><ele>164.33333333333331</ele><time>2026-05-03T16:01:52Z</time></trkpt><trkpt lat="46.230618888380135" lon="13.072744738048693"><ele>164.66666666666666</ele><time>2026-05-03T16:01:53Z</time></trkpt><trkpt lat="46.23046612978496" lon="13.072672266057847"><ele>165.0</ele><time>2026-05-03T16:01:54Z</time></trkpt><trkpt lat="46.2303079132663" lon="13.072598624728931"><ele>165.0</ele><time>2026-05-03T16:01:55Z</time></trkpt><trkpt lat="46.23015496268343" lon="13.072520209168353"><ele>165.0</ele><time>2026-05-03T16:01:56Z</time></trkpt><trkpt lat="46.23000591259105" lon="13.072444334862213"><ele>165.0</ele><time>2026-05-03T16:01:57Z</time></trkpt><trkpt lat="46.22986599525115" lon="13.072375174907089"><ele>165.0</ele><time>2026-05-03T16:01:58Z</time></trkpt><trkpt lat="46.22971504350409" lon="13.07230546653212"><ele>165.0</ele><time>2026-05-03T16:01:59Z</time></trkpt><trkpt lat="46.22954212974954" lon="13.072209364111032"><ele>165.0</ele><time>2026-05-03T16:02:00Z</time></trkpt><trkpt lat="46.22937234688847" lon="13.07211219125901"><ele>165.0</ele><time>2026-05-03T16:02:01Z</time></trkpt><trkpt lat="46.22921140081394" lon="13.072023133256078"><ele>165.0</ele><time>2026-05-03T16:02:02Z</time></trkpt><trkpt lat="46.22906636341435" lon="13.071942751693818"><ele>165.0</ele><time>2026-05-03T16:02:03Z</time></trkpt><trkpt lat="46.228923316319154" lon="13.071869896700314"><ele>165.66666666666666</ele><time>2026-05-03T16:02:04Z</time></trkpt><trkpt lat="46.228776686233786" lon="13.071801606314738"><ele>166.33333333333331</ele><time>2026-05-03T16:02:05Z</time></trkpt><trkpt lat="46.2286311960064" lon="13.071728346929621"><ele>167.0</ele><time>2026-05-03T16:02:06Z</time></trkpt><trkpt lat="46.22848044346796" lon="13.071657031077958"><ele>166.66666666666666</ele><time>2026-05-03T16:02:07Z</time></trkpt><trkpt lat="46.228329667001056" lon="13.071579682824279"><ele>166.33333333333334</ele><time>2026-05-03T16:02:08Z</time></trkpt><trkpt lat="46.228173778350225" lon="13.071501227829371"><ele>166.0</ele><time>2026-05-03T16:02:09Z</time></trkpt><trkpt lat="46.22801584684262" lon="13.071421927601191"><ele>166.0</ele><time>2026-05-03T16:02:10Z</time></trkpt><trkpt lat="46.227858500561155" lon="13.071344251882367"><ele>166.0</ele><time>2026-05-03T16:02:11Z</time></trkpt><trkpt lat="46.2277132645137" lon="13.071270859459037"><ele>166.0</ele><time>2026-05-03T16:02:12Z</time></trkpt><trkpt lat="46.227582356354375" lon="13.071212002317402"><ele>166.0</ele><time>2026-05-03T16:02:13Z</time></trkpt><trkpt lat="46.227465660282235" lon="13.071151696406995"><ele>166.0</ele><time>2026-05-03T16:02:14Z</time></trkpt><trkpt lat="46.22732569111951" lon="13.071083720306287"><ele>166.0</ele><time>2026-05-03T16:02:15Z</time></trkpt><trkpt lat="46.22716316365618" lon="13.071000915739118"><ele>166.0</ele><time>2026-05-03T16:02:16Z</time></trkpt><trkpt lat="46.226979327887996" lon="13.070910270347108"><ele>165.33333333333334</ele><time>2026-05-03T16:02:17Z</time></trkpt><trkpt lat="46.22680566887373" lon="13.070821249972349"><ele>164.66666666666666</ele><time>2026-05-03T16:02:18Z</time></trkpt><trkpt lat="46.22662094856851" lon="13.070729594747142"><ele>164.0</ele><time>2026-05-03T16:02:19Z</time></trkpt><trkpt lat="46.226420149911725" lon="13.070632526281893"><ele>163.66666666666666</ele><time>2026-05-03T16:02:20Z</time></trkpt><trkpt lat="46.22621087137203" lon="13.070532358241927"><ele>163.33333333333334</ele><time>2026-05-03T16:02:21Z</time></trkpt><trkpt lat="46.22601485362581" lon="13.070439360266816"><ele>163.0</ele><time>2026-05-03T16:02:22Z</time></trkpt><trkpt lat="46.22582762560055" lon="13.070340105769253"><ele>163.66666666666669</ele><time>2026-05-03T16:02:23Z</time></trkpt><trkpt lat="46.225635606652986" lon="13.070244759405949"><ele>164.33333333333334</ele><time>2026-05-03T16:02:24Z</time></trkpt><trkpt lat="46.22544613879168" lon="13.070149675727688"><ele>165.0</ele><time>2026-05-03T16:02:25Z</time></trkpt><trkpt lat="46.22525316229009" lon="13.070062595984067"><ele>165.0</ele><time>2026-05-03T16:02:26Z</time></trkpt><trkpt lat="46.225070935990985" lon="13.069976080020737"><ele>165.0</ele><time>2026-05-03T16:02:27Z</time></trkpt><trkpt lat="46.22489873013005" lon="13.069885559185"><ele>165.0</ele><time>2026-05-03T16:02:28Z</time></trkpt><trkpt lat="46.2247288995203" lon="13.069798509877124"><ele>165.0</ele><time>2026-05-03T16:02:29.001Z</time></trkpt><trkpt lat="46.224570732774495" lon="13.069722156834116"><ele>165.0</ele><time>2026-05-03T16:02:30.001Z</time></trkpt><trkpt lat="46.2244254401526" lon="13.069650718404937"><ele>165.0</ele><time>2026-05-03T16:02:31.001Z</time></trkpt><trkpt lat="46.224291631028144" lon="13.069582314710413"><ele>165.0</ele><time>2026-05-03T16:02:32.001Z</time></trkpt><trkpt lat="46.2241667572361" lon="13.069518756173322"><ele>165.0</ele><time>2026-05-03T16:02:33.001Z</time></trkpt><trkpt lat="46.22404894233039" lon="13.069464839319949"><ele>165.0</ele><time>2026-05-03T16:02:34.001Z</time></trkpt><trkpt lat="46.223936498029474" lon="13.069434282297856"><ele>165.0</ele><time>2026-05-03T16:02:35.001Z</time></trkpt><trkpt lat="46.22383963708702" lon="13.069429703161669"><ele>164.83333333333334</ele><time>2026-05-03T16:02:36.001Z</time></trkpt><trkpt lat="46.22375990681802" lon="13.069440011821943"><ele>164.66666666666666</ele><time>2026-05-03T16:02:37.001Z</time></trkpt><trkpt lat="46.22368729564499" lon="13.069427520606864"><ele>164.5</ele><time>2026-05-03T16:02:38.001Z</time></trkpt><trkpt lat="46.223615273132694" lon="13.069403843671807"><ele>164.33333333333331</ele><time>2026-05-03T16:02:39.001Z</time></trkpt><trkpt lat="46.223542366445564" lon="13.06943208532726"><ele>164.16666666666666</ele><time>2026-05-03T16:02:40.001Z</time></trkpt><trkpt lat="46.22348121307829" lon="13.069520731671192"><ele>164.0</ele><time>2026-05-03T16:02:41.001Z</time></trkpt><trkpt lat="46.22345986922855" lon="13.069651800581479"><ele>164.0</ele><time>2026-05-03T16:02:42.001Z</time></trkpt><trkpt lat="46.22348568998466" lon="13.069781602839582"><ele>164.0</ele><time>2026-05-03T16:02:43.001Z</time></trkpt><trkpt lat="46.22355436857189" lon="13.069909122164868"><ele>164.0</ele><time>2026-05-03T16:02:44.001Z</time></trkpt><trkpt lat="46.22361395966529" lon="13.070060301223018"><ele>164.0</ele><time>2026-05-03T16:02:45.001Z</time></trkpt><trkpt lat="46.22362163566536" lon="13.070276260692927"><ele>164.0</ele><time>2026-05-03T16:02:46.001Z</time></trkpt><trkpt lat="46.22361108458406" lon="13.070533755672521"><ele>164.0</ele><time>2026-05-03T16:02:47.001Z</time></trkpt><trkpt lat="46.22358005473319" lon="13.070827483176906"><ele>164.0</ele><time>2026-05-03T16:02:48.001Z</time></trkpt><trkpt lat="46.2235317535481" lon="13.071129477306787"><ele>164.0</ele><time>2026-05-03T16:02:49.001Z</time></trkpt><trkpt lat="46.22347182120658" lon="13.071409805794445"><ele>164.0</ele><time>2026-05-03T16:02:50.001Z</time></trkpt><trkpt lat="46.223415421504264" lon="13.071665417464718"><ele>164.0</ele><time>2026-05-03T16:02:51.001Z</time></trkpt><trkpt lat="46.22336803748958" lon="13.07194652719119"><ele>164.0</ele><time>2026-05-03T16:02:52.001Z</time></trkpt><trkpt lat="46.22331319079341" lon="13.072238190958684"><ele>164.0</ele><time>2026-05-03T16:02:53.001Z</time></trkpt><trkpt lat="46.223232238106235" lon="13.072541841014575"><ele>164.0</ele><time>2026-05-03T16:02:54.001Z</time></trkpt><trkpt lat="46.223123648114736" lon="13.072854473288768"><ele>163.5</ele><time>2026-05-03T16:02:55.001Z</time></trkpt><trkpt lat="46.22300430183714" lon="13.07315304443871"><ele>163.0</ele><time>2026-05-03T16:02:56.001Z</time></trkpt><trkpt lat="46.22288393781499" lon="13.07342161928693"><ele>163.66666666666669</ele><time>2026-05-03T16:02:57.001Z</time></trkpt><trkpt lat="46.222765691798585" lon="13.073676017989753"><ele>164.33333333333334</ele><time>2026-05-03T16:02:58.001Z</time></trkpt><trkpt lat="46.22265427715495" lon="13.07391631123459"><ele>165.0</ele><time>2026-05-03T16:02:59.001Z</time></trkpt><trkpt lat="46.222548062535154" lon="13.074144957971157"><ele>165.33333333333334</ele><time>2026-05-03T16:03:00.001Z</time></trkpt><trkpt lat="46.22244035822691" lon="13.074383729128627"><ele>165.66666666666669</ele><time>2026-05-03T16:03:01.001Z</time></trkpt><trkpt lat="46.22232811490148" lon="13.074637630426947"><ele>166.0</ele><time>2026-05-03T16:03:02.001Z</time></trkpt><trkpt lat="46.222211460448236" lon="13.074901684641105"><ele>165.0</ele><time>2026-05-03T16:03:03.001Z</time></trkpt><trkpt lat="46.222091045676635" lon="13.075172423853045"><ele>164.0</ele><time>2026-05-03T16:03:04.001Z</time></trkpt><trkpt lat="46.221967456243554" lon="13.075452069960516"><ele>164.0</ele><time>2026-05-03T16:03:05.001Z</time></trkpt><trkpt lat="46.22184963774464" lon="13.075720976988556"><ele>164.0</ele><time>2026-05-03T16:03:06.001Z</time></trkpt><trkpt lat="46.22172919379506" lon="13.07598218979945"><ele>164.0</ele><time>2026-05-03T16:03:07.001Z</time></trkpt><trkpt lat="46.22160616682329" lon="13.076250664310479"><ele>164.0</ele><time>2026-05-03T16:03:08.001Z</time></trkpt><trkpt lat="46.22148209399322" lon="13.07651970678983"><ele>164.0</ele><time>2026-05-03T16:03:09.001Z</time></trkpt><trkpt lat="46.22136057408247" lon="13.076787779313069"><ele>164.0</ele><time>2026-05-03T16:03:10.001Z</time></trkpt><trkpt lat="46.22123893803248" lon="13.077064881300801"><ele>164.0</ele><time>2026-05-03T16:03:11.001Z</time></trkpt><trkpt lat="46.221118869810695" lon="13.077342931977086"><ele>164.0</ele><time>2026-05-03T16:03:12.001Z</time></trkpt><trkpt lat="46.22099713979247" lon="13.077622585913572"><ele>163.0</ele><time>2026-05-03T16:03:13.001Z</time></trkpt><trkpt lat="46.220871282110615" lon="13.077905740809818"><ele>162.0</ele><time>2026-05-03T16:03:14.001Z</time></trkpt><trkpt lat="46.22073566820844" lon="13.078203134712975"><ele>162.5</ele><time>2026-05-03T16:03:15.001Z</time></trkpt><trkpt lat="46.220602746965646" lon="13.07849514013379"><ele>163.0</ele><time>2026-05-03T16:03:16.001Z</time></trkpt><trkpt lat="46.22047388928644" lon="13.078781546607281"><ele>163.0</ele><time>2026-05-03T16:03:17.001Z</time></trkpt><trkpt lat="46.22034666477497" lon="13.07906608121082"><ele>163.0</ele><time>2026-05-03T16:03:18.001Z</time></trkpt><trkpt lat="46.22021992467063" lon="13.079349292883949"><ele>164.0</ele><time>2026-05-03T16:03:19.001Z</time></trkpt><trkpt lat="46.22009673243908" lon="13.079634903111888"><ele>165.0</ele><time>2026-05-03T16:03:20.001Z</time></trkpt><trkpt lat="46.21997099027197" lon="13.079921906631421"><ele>165.0</ele><time>2026-05-03T16:03:21.001Z</time></trkpt><trkpt lat="46.21984756352001" lon="13.080205407939856"><ele>165.0</ele><time>2026-05-03T16:03:22.001Z</time></trkpt><trkpt lat="46.21971968586488" lon="13.080485038565714"><ele>165.0</ele><time>2026-05-03T16:03:23.001Z</time></trkpt><trkpt lat="46.21959457985282" lon="13.080764777365001"><ele>165.0</ele><time>2026-05-03T16:03:24.001Z</time></trkpt><trkpt lat="46.21946979753738" lon="13.081037595113788"><ele>165.0</ele><time>2026-05-03T16:03:25.001Z</time></trkpt><trkpt lat="46.21934886700407" lon="13.081317374842525"><ele>165.0</ele><time>2026-05-03T16:03:26.001Z</time></trkpt><trkpt lat="46.21922704922944" lon="13.081593949141592"><ele>164.5</ele><time>2026-05-03T16:03:27.001Z</time></trkpt><trkpt lat="46.21910112597041" lon="13.081867550000528"><ele>164.0</ele><time>2026-05-03T16:03:28.001Z</time></trkpt><trkpt lat="46.21897679315532" lon="13.082144859211155"><ele>164.0</ele><time>2026-05-03T16:03:29.001Z</time></trkpt><trkpt lat="46.2188545331668" lon="13.082425463498769"><ele>164.0</ele><time>2026-05-03T16:03:30.001Z</time></trkpt><trkpt lat="46.218732817781465" lon="13.082701808074113"><ele>164.5</ele><time>2026-05-03T16:03:31.001Z</time></trkpt><trkpt lat="46.21860905588281" lon="13.082978026768297"><ele>165.0</ele><time>2026-05-03T16:03:32.001Z</time></trkpt><trkpt lat="46.21848319624845" lon="13.083251104417084"><ele>164.5</ele><time>2026-05-03T16:03:33.001Z</time></trkpt><trkpt lat="46.21835997585272" lon="13.0835238117683"><ele>164.0</ele><time>2026-05-03T16:03:34.001Z</time></trkpt><trkpt lat="46.21823754323602" lon="13.08380170143871"><ele>164.0</ele><time>2026-05-03T16:03:35.001Z</time></trkpt><trkpt lat="46.21811440304719" lon="13.084075981882476"><ele>164.0</ele><time>2026-05-03T16:03:36.001Z</time></trkpt><trkpt lat="46.217991944445025" lon="13.08435248838326"><ele>164.0</ele><time>2026-05-03T16:03:37.001Z</time></trkpt><trkpt lat="46.217869220552636" lon="13.084628865314317"><ele>164.0</ele><time>2026-05-03T16:03:38.001Z</time></trkpt><trkpt lat="46.21774686554556" lon="13.084905918557727"><ele>164.33333333333331</ele><time>2026-05-03T16:03:39.001Z</time></trkpt><trkpt lat="46.217630048767994" lon="13.08516920341999"><ele>164.66666666666666</ele><time>2026-05-03T16:03:40.002Z</time></trkpt><trkpt lat="46.217519732219266" lon="13.08540972668261"><ele>165.0</ele><time>2026-05-03T16:03:41.002Z</time></trkpt><trkpt lat="46.217414987595426" lon="13.085642068045324"><ele>165.0</ele><time>2026-05-03T16:03:42.002Z</time></trkpt><trkpt lat="46.21731794019521" lon="13.085864834508305"><ele>165.0</ele><time>2026-05-03T16:03:43.002Z</time></trkpt><trkpt lat="46.2172298882109" lon="13.086067268478097"><ele>165.0</ele><time>2026-05-03T16:03:44.002Z</time></trkpt><trkpt lat="46.217161994513646" lon="13.086251323883864"><ele>165.0</ele><time>2026-05-03T16:03:45.002Z</time></trkpt><trkpt lat="46.2171054753148" lon="13.086401106458537"><ele>165.0</ele><time>2026-05-03T16:03:46Z</time></trkpt><trkpt lat="46.217083300396766" lon="13.08652036857338"><ele>165.0</ele><time>2026-05-03T16:03:47Z</time></trkpt><trkpt lat="46.217036138293814" lon="13.086631907572022"><ele>165.0</ele><time>2026-05-03T16:03:50Z</time></trkpt><trkpt lat="46.21693464474996" lon="13.086793372984337"><ele>165.0</ele><time>2026-05-03T16:03:52Z</time></trkpt><trkpt lat="46.216901188284005" lon="13.086915628992259"><ele>165.0</ele><time>2026-05-03T16:03:53Z</time></trkpt><trkpt lat="46.216866109390196" lon="13.087055284047556"><ele>165.0</ele><time>2026-05-03T16:03:54Z</time></trkpt><trkpt lat="46.21678115924773" lon="13.087167461317035"><ele>165.0</ele><time>2026-05-03T16:03:55Z</time></trkpt><trkpt lat="46.216692310481626" lon="13.087280683837538"><ele>165.0</ele><time>2026-05-03T16:03:56Z</time></trkpt><trkpt lat="46.216606714558374" lon="13.087434774881553"><ele>164.33333333333334</ele><time>2026-05-03T16:03:57Z</time></trkpt><trkpt lat="46.21652382785504" lon="13.087629413369013"><ele>163.66666666666669</ele><time>2026-05-03T16:03:58Z</time></trkpt><trkpt lat="46.216433054454036" lon="13.087841746474991"><ele>163.0</ele><time>2026-05-03T16:03:59Z</time></trkpt><trkpt lat="46.216345004678104" lon="13.0880408834837"><ele>163.33333333333334</ele><time>2026-05-03T16:04:00Z</time></trkpt><trkpt lat="46.21625477446158" lon="13.088245175962879"><ele>163.66666666666666</ele><time>2026-05-03T16:04:01Z</time></trkpt><trkpt lat="46.21615311019372" lon="13.088466076512436"><ele>164.0</ele><time>2026-05-03T16:04:02Z</time></trkpt><trkpt lat="46.21605227816156" lon="13.088692997084975"><ele>164.0</ele><time>2026-05-03T16:04:03Z</time></trkpt><trkpt lat="46.2159558223823" lon="13.088908047693764"><ele>164.0</ele><time>2026-05-03T16:04:04Z</time></trkpt><trkpt lat="46.21585392420123" lon="13.089138318782092"><ele>164.0</ele><time>2026-05-03T16:04:05Z</time></trkpt><trkpt lat="46.21574135604421" lon="13.089401988189188"><ele>163.0</ele><time>2026-05-03T16:04:06Z</time></trkpt><trkpt lat="46.21561882133228" lon="13.089691373264197"><ele>162.0</ele><time>2026-05-03T16:04:07Z</time></trkpt><trkpt lat="46.21548208875714" lon="13.090027628292738"><ele>162.0</ele><time>2026-05-03T16:04:08Z</time></trkpt><trkpt lat="46.21532472545495" lon="13.090392236183863"><ele>162.0</ele><time>2026-05-03T16:04:09Z</time></trkpt><trkpt lat="46.21514386675403" lon="13.090777613454414"><ele>163.0</ele><time>2026-05-03T16:04:10Z</time></trkpt><trkpt lat="46.21497727127024" lon="13.091114539261662"><ele>164.0</ele><time>2026-05-03T16:04:11Z</time></trkpt><trkpt lat="46.21482764099883" lon="13.09144893592255"><ele>164.5</ele><time>2026-05-03T16:04:12Z</time></trkpt><trkpt lat="46.21467806369337" lon="13.09179720629603"><ele>165.0</ele><time>2026-05-03T16:04:13Z</time></trkpt><trkpt lat="46.214535844013376" lon="13.092108101815814"><ele>165.0</ele><time>2026-05-03T16:04:14Z</time></trkpt><trkpt lat="46.21440283944845" lon="13.092402201175918"><ele>165.0</ele><time>2026-05-03T16:04:15.001Z</time></trkpt><trkpt lat="46.214282376362554" lon="13.092666526738647"><ele>164.33333333333334</ele><time>2026-05-03T16:04:16.001Z</time></trkpt><trkpt lat="46.21416557586927" lon="13.092915053100336"><ele>163.66666666666669</ele><time>2026-05-03T16:04:17.001Z</time></trkpt><trkpt lat="46.214058815857584" lon="13.093174131097213"><ele>163.0</ele><time>2026-05-03T16:04:18.001Z</time></trkpt><trkpt lat="46.21395129472404" lon="13.093436517876379"><ele>163.0</ele><time>2026-05-03T16:04:19.001Z</time></trkpt><trkpt lat="46.21383457204316" lon="13.09370452676077"><ele>163.0</ele><time>2026-05-03T16:04:20.001Z</time></trkpt><trkpt lat="46.21371320671747" lon="13.093977817520399"><ele>163.0</ele><time>2026-05-03T16:04:21.001Z</time></trkpt><trkpt lat="46.21358493612725" lon="13.094255714149263"><ele>165.0</ele><time>2026-05-03T16:04:22.001Z</time></trkpt><trkpt lat="46.213456407839274" lon="13.09454300918704"><ele>167.0</ele><time>2026-05-03T16:04:23.001Z</time></trkpt><trkpt lat="46.2133378560937" lon="13.094819840120893"><ele>166.5</ele><time>2026-05-03T16:04:24.001Z</time></trkpt><trkpt lat="46.21322954213553" lon="13.095097070622852"><ele>166.0</ele><time>2026-05-03T16:04:25.001Z</time></trkpt><trkpt lat="46.213112880479486" lon="13.09538410039739"><ele>165.5</ele><time>2026-05-03T16:04:26.001Z</time></trkpt><trkpt lat="46.21296804063657" lon="13.095633152798985"><ele>165.0</ele><time>2026-05-03T16:04:27.001Z</time></trkpt><trkpt lat="46.21284680019837" lon="13.095912003516492"><ele>164.66666666666666</ele><time>2026-05-03T16:04:28.001Z</time></trkpt><trkpt lat="46.212729331810856" lon="13.096181502491987"><ele>164.33333333333331</ele><time>2026-05-03T16:04:29.001Z</time></trkpt><trkpt lat="46.212617227768604" lon="13.096430032225799"><ele>164.0</ele><time>2026-05-03T16:04:30.001Z</time></trkpt><trkpt lat="46.21250745685505" lon="13.096668496008883"><ele>164.0</ele><time>2026-05-03T16:04:31.001Z</time></trkpt><trkpt lat="46.21240513145305" lon="13.096906835640672"><ele>164.0</ele><time>2026-05-03T16:04:32.001Z</time></trkpt><trkpt lat="46.212298849474294" lon="13.097153000975512"><ele>164.0</ele><time>2026-05-03T16:04:33.001Z</time></trkpt><trkpt lat="46.21218814621977" lon="13.097420459750223"><ele>162.0</ele><time>2026-05-03T16:04:34.001Z</time></trkpt><trkpt lat="46.212071813530514" lon="13.097704848772516"><ele>160.0</ele><time>2026-05-03T16:04:35.001Z</time></trkpt><trkpt lat="46.211930765525075" lon="13.0979828477717"><ele>160.0</ele><time>2026-05-03T16:04:36.001Z</time></trkpt><trkpt lat="46.21179817519115" lon="13.098285903181846"><ele>160.0</ele><time>2026-05-03T16:04:37.001Z</time></trkpt><trkpt lat="46.21165418176378" lon="13.098594888611347"><ele>160.0</ele><time>2026-05-03T16:04:38.001Z</time></trkpt><trkpt lat="46.211510076404714" lon="13.098908349374147"><ele>160.0</ele><time>2026-05-03T16:04:39.001Z</time></trkpt><trkpt lat="46.211379895106674" lon="13.099195448860137"><ele>163.0</ele><time>2026-05-03T16:04:40.001Z</time></trkpt><trkpt lat="46.211255751724245" lon="13.099473995371833"><ele>166.0</ele><time>2026-05-03T16:04:41.001Z</time></trkpt><trkpt lat="46.21112925842857" lon="13.099761685518649"><ele>165.0</ele><time>2026-05-03T16:04:42.001Z</time></trkpt><trkpt lat="46.211001262897895" lon="13.100054852012017"><ele>164.0</ele><time>2026-05-03T16:04:43.001Z</time></trkpt><trkpt lat="46.21086989131221" lon="13.10033739808164"><ele>164.0</ele><time>2026-05-03T16:04:44.001Z</time></trkpt><trkpt lat="46.210744750854985" lon="13.100623349505963"><ele>164.0</ele><time>2026-05-03T16:04:45.001Z</time></trkpt><trkpt lat="46.21062068450928" lon="13.100905478174468"><ele>163.0</ele><time>2026-05-03T16:04:46.001Z</time></trkpt><trkpt lat="46.21049249295368" lon="13.10118660842694"><ele>162.0</ele><time>2026-05-03T16:04:47.001Z</time></trkpt><trkpt lat="46.210365529026916" lon="13.101471622478494"><ele>162.0</ele><time>2026-05-03T16:04:48.001Z</time></trkpt><trkpt lat="46.21023871877433" lon="13.101751418545446"><ele>162.0</ele><time>2026-05-03T16:04:49.001Z</time></trkpt><trkpt lat="46.21011181720482" lon="13.102031473502171"><ele>162.0</ele><time>2026-05-03T16:04:50.001Z</time></trkpt><trkpt lat="46.20999634217117" lon="13.102295640602591"><ele>162.0</ele><time>2026-05-03T16:04:51.001Z</time></trkpt><trkpt lat="46.20988257402591" lon="13.1025458695569"><ele>162.0</ele><time>2026-05-03T16:04:52.001Z</time></trkpt><trkpt lat="46.20977147290796" lon="13.10280032132617"><ele>162.0</ele><time>2026-05-03T16:04:53.001Z</time></trkpt><trkpt lat="46.209656676634424" lon="13.10305787943508"><ele>162.0</ele><time>2026-05-03T16:04:54.001Z</time></trkpt><trkpt lat="46.20954224303539" lon="13.103320200829444"><ele>162.0</ele><time>2026-05-03T16:04:55.001Z</time></trkpt><trkpt lat="46.20942604766715" lon="13.103588831890336"><ele>162.0</ele><time>2026-05-03T16:04:56.001Z</time></trkpt><trkpt lat="46.2092956196383" lon="13.103854956030887"><ele>162.0</ele><time>2026-05-03T16:04:57.001Z</time></trkpt><trkpt lat="46.209189175619144" lon="13.104114692466004"><ele>162.0</ele><time>2026-05-03T16:04:58.001Z</time></trkpt><trkpt lat="46.20907807258791" lon="13.104358027164947"><ele>161.66666666666666</ele><time>2026-05-03T16:04:59.001Z</time></trkpt><trkpt lat="46.20898072088501" lon="13.104587082579211"><ele>161.33333333333331</ele><time>2026-05-03T16:05:00.001Z</time></trkpt><trkpt lat="46.20889152377426" lon="13.104806949981187"><ele>161.0</ele><time>2026-05-03T16:05:01.001Z</time></trkpt><trkpt lat="46.208811066839424" lon="13.105017557077813"><ele>161.0</ele><time>2026-05-03T16:05:02.001Z</time></trkpt><trkpt lat="46.208740411987314" lon="13.105220873095861"><ele>161.0</ele><time>2026-05-03T16:05:03.001Z</time></trkpt><trkpt lat="46.20867669301044" lon="13.105410272427607"><ele>161.0</ele><time>2026-05-03T16:05:04.001Z</time></trkpt><trkpt lat="46.20862017799312" lon="13.105579600493664"><ele>161.0</ele><time>2026-05-03T16:05:05.001Z</time></trkpt><trkpt lat="46.20856847629716" lon="13.105738203961366"><ele>161.83333333333331</ele><time>2026-05-03T16:05:06.001Z</time></trkpt><trkpt lat="46.2085181559649" lon="13.105884354554288"><ele>162.66666666666666</ele><time>2026-05-03T16:05:07.001Z</time></trkpt><trkpt lat="46.20847235032166" lon="13.106013817708906"><ele>163.5</ele><time>2026-05-03T16:05:08.001Z</time></trkpt><trkpt lat="46.20843366267444" lon="13.106121884552596"><ele>164.33333333333334</ele><time>2026-05-03T16:05:09.001Z</time></trkpt><trkpt lat="46.208400316102704" lon="13.106218221962102"><ele>165.16666666666669</ele><time>2026-05-03T16:05:10.001Z</time></trkpt><trkpt lat="46.208372553971714" lon="13.106304475076563"><ele>166.0</ele><time>2026-05-03T16:05:11.001Z</time></trkpt><trkpt lat="46.20832840125113" lon="13.106432522220247"><ele>166.0</ele><time>2026-05-03T16:05:13.001Z</time></trkpt><trkpt lat="46.20829314138625" lon="13.106540010350685"><ele>166.0</ele><time>2026-05-03T16:05:16.001Z</time></trkpt><trkpt lat="46.20825964208168" lon="13.106619536441489"><ele>166.0</ele><time>2026-05-03T16:05:19.001Z</time></trkpt><trkpt lat="46.20822177316457" lon="13.106701845382105"><ele>166.0</ele><time>2026-05-03T16:05:20Z</time></trkpt><trkpt lat="46.20818271776601" lon="13.106792920108454"><ele>166.0</ele><time>2026-05-03T16:05:21Z</time></trkpt><trkpt lat="46.208137116104" lon="13.106955297742404"><ele>166.0</ele><time>2026-05-03T16:05:22Z</time></trkpt><trkpt lat="46.20808292474623" lon="13.107112751750087"><ele>166.75</ele><time>2026-05-03T16:05:23Z</time></trkpt><trkpt lat="46.20803065713086" lon="13.10726234287096"><ele>167.5</ele><time>2026-05-03T16:05:24.001Z</time></trkpt><trkpt lat="46.20796824342838" lon="13.107433070776002"><ele>168.25</ele><time>2026-05-03T16:05:25.001Z</time></trkpt><trkpt lat="46.207908210179674" lon="13.107619508009485"><ele>169.0</ele><time>2026-05-03T16:05:26.001Z</time></trkpt><trkpt lat="46.20783817556621" lon="13.107832838892387"><ele>170.0</ele><time>2026-05-03T16:05:27.001Z</time></trkpt><trkpt lat="46.207765960997605" lon="13.108045171304575"><ele>171.0</ele><time>2026-05-03T16:05:28.001Z</time></trkpt><trkpt lat="46.207698497634276" lon="13.108249978711033"><ele>172.0</ele><time>2026-05-03T16:05:29.001Z</time></trkpt><trkpt lat="46.20763574157366" lon="13.108480417573388"><ele>173.66666666666669</ele><time>2026-05-03T16:05:30.001Z</time></trkpt><trkpt lat="46.20755135521291" lon="13.108691851867516"><ele>175.33333333333334</ele><time>2026-05-03T16:05:31.001Z</time></trkpt><trkpt lat="46.20746924982313" lon="13.108922897110743"><ele>177.0</ele><time>2026-05-03T16:05:32.001Z</time></trkpt><trkpt lat="46.207385510146835" lon="13.109172842205274"><ele>176.33333333333334</ele><time>2026-05-03T16:05:33.001Z</time></trkpt><trkpt lat="46.207307879997245" lon="13.109414829178133"><ele>175.66666666666669</ele><time>2026-05-03T16:05:34.001Z</time></trkpt><trkpt lat="46.207225536762664" lon="13.109660809135454"><ele>175.0</ele><time>2026-05-03T16:05:35.001Z</time></trkpt><trkpt lat="46.20713928811365" lon="13.109903386712462"><ele>175.33333333333334</ele><time>2026-05-03T16:05:36.001Z</time></trkpt><trkpt lat="46.207054305059515" lon="13.110159194914033"><ele>175.66666666666666</ele><time>2026-05-03T16:05:37.001Z</time></trkpt><trkpt lat="46.20694939053277" lon="13.110407634544762"><ele>176.0</ele><time>2026-05-03T16:05:38.001Z</time></trkpt><trkpt lat="46.206849218901816" lon="13.110647365751017"><ele>176.66666666666666</ele><time>2026-05-03T16:05:39.001Z</time></trkpt><trkpt lat="46.206752333861246" lon="13.110887358576521"><ele>177.33333333333334</ele><time>2026-05-03T16:05:40.001Z</time></trkpt><trkpt lat="46.20665211853534" lon="13.111113030667669"><ele>178.0</ele><time>2026-05-03T16:05:41.001Z</time></trkpt><trkpt lat="46.20654915905782" lon="13.111332904221362"><ele>178.33333333333334</ele><time>2026-05-03T16:05:42.001Z</time></trkpt><trkpt lat="46.20644011816848" lon="13.11154747675403"><ele>178.66666666666666</ele><time>2026-05-03T16:05:43.001Z</time></trkpt><trkpt lat="46.20632725252225" lon="13.11176750791054"><ele>179.0</ele><time>2026-05-03T16:05:44.001Z</time></trkpt><trkpt lat="46.20620660709632" lon="13.111996330340958"><ele>179.0</ele><time>2026-05-03T16:05:45.001Z</time></trkpt><trkpt lat="46.206081461253646" lon="13.112231866913044"><ele>179.0</ele><time>2026-05-03T16:05:46.001Z</time></trkpt><trkpt lat="46.20595452641152" lon="13.112471744832503"><ele>179.0</ele><time>2026-05-03T16:05:47.001Z</time></trkpt><trkpt lat="46.20583136067405" lon="13.11270700702626"><ele>179.0</ele><time>2026-05-03T16:05:48.001Z</time></trkpt><trkpt lat="46.2057081460961" lon="13.112938940396251"><ele>179.0</ele><time>2026-05-03T16:05:49.001Z</time></trkpt><trkpt lat="46.20558660867588" lon="13.113173691794811"><ele>179.0</ele><time>2026-05-03T16:05:50.001Z</time></trkpt><trkpt lat="46.20546466221241" lon="13.113415026062919"><ele>178.33333333333331</ele><time>2026-05-03T16:05:51.001Z</time></trkpt><trkpt lat="46.205339101379394" lon="13.113657776685601"><ele>177.66666666666666</ele><time>2026-05-03T16:05:52Z</time></trkpt><trkpt lat="46.20521139057554" lon="13.113904996750117"><ele>177.0</ele><time>2026-05-03T16:05:53Z</time></trkpt><trkpt lat="46.20508270083116" lon="13.114150602914169"><ele>177.0</ele><time>2026-05-03T16:05:54Z</time></trkpt><trkpt lat="46.20495141410327" lon="13.11440349204612"><ele>177.0</ele><time>2026-05-03T16:05:55Z</time></trkpt><trkpt lat="46.204816296750046" lon="13.114656199781846"><ele>177.0</ele><time>2026-05-03T16:05:56Z</time></trkpt><trkpt lat="46.204677631609066" lon="13.114916921559953"><ele>176.5</ele><time>2026-05-03T16:05:57Z</time></trkpt><trkpt lat="46.20453877112659" lon="13.115179236510349"><ele>176.0</ele><time>2026-05-03T16:05:58Z</time></trkpt><trkpt lat="46.204394329911295" lon="13.115444068477373"><ele>176.0</ele><time>2026-05-03T16:05:59Z</time></trkpt><trkpt lat="46.20424971252076" lon="13.115715511508313"><ele>176.0</ele><time>2026-05-03T16:06:00Z</time></trkpt><trkpt lat="46.20410360773293" lon="13.115987333709004"><ele>176.0</ele><time>2026-05-03T16:06:01Z</time></trkpt><trkpt lat="46.20395849248801" lon="13.116261836152523"><ele>176.0</ele><time>2026-05-03T16:06:02Z</time></trkpt><trkpt lat="46.20381301704934" lon="13.11653459054468"><ele>175.66666666666666</ele><time>2026-05-03T16:06:03Z</time></trkpt><trkpt lat="46.203676948332514" lon="13.116794271220208"><ele>175.33333333333334</ele><time>2026-05-03T16:06:04Z</time></trkpt><trkpt lat="46.203551933262766" lon="13.117032443719562"><ele>175.0</ele><time>2026-05-03T16:06:05Z</time></trkpt><trkpt lat="46.203430320058345" lon="13.117262070503187"><ele>175.0</ele><time>2026-05-03T16:06:06Z</time></trkpt><trkpt lat="46.20330757165097" lon="13.117494347376487"><ele>175.0</ele><time>2026-05-03T16:06:07Z</time></trkpt><trkpt lat="46.2031880171528" lon="13.117717855230042"><ele>175.0</ele><time>2026-05-03T16:06:08Z</time></trkpt><trkpt lat="46.20307664546441" lon="13.117930631110312"><ele>175.0</ele><time>2026-05-03T16:06:09Z</time></trkpt><trkpt lat="46.20297138056831" lon="13.118125219267226"><ele>175.0</ele><time>2026-05-03T16:06:10Z</time></trkpt><trkpt lat="46.202879531851615" lon="13.118292274458756"><ele>175.0</ele><time>2026-05-03T16:06:11Z</time></trkpt><trkpt lat="46.202787992510295" lon="13.118446479948092"><ele>175.25</ele><time>2026-05-03T16:06:12Z</time></trkpt><trkpt lat="46.20270885944012" lon="13.118567014972465"><ele>175.5</ele><time>2026-05-03T16:06:13Z</time></trkpt><trkpt lat="46.202626025103584" lon="13.118672461152027"><ele>175.75</ele><time>2026-05-03T16:06:14Z</time></trkpt><trkpt lat="46.20253102228781" lon="13.118769369608252"><ele>176.0</ele><time>2026-05-03T16:06:15Z</time></trkpt><trkpt lat="46.20243001993191" lon="13.118889541731017"><ele>176.0</ele><time>2026-05-03T16:06:16Z</time></trkpt><trkpt lat="46.202349167329345" lon="13.119074277828128"><ele>176.0</ele><time>2026-05-03T16:06:17Z</time></trkpt><trkpt lat="46.20226432140743" lon="13.119282191543862"><ele>176.0</ele><time>2026-05-03T16:06:18Z</time></trkpt><trkpt lat="46.20217079589748" lon="13.119476950548018"><ele>175.66666666666666</ele><time>2026-05-03T16:06:19Z</time></trkpt><trkpt lat="46.202033504289034" lon="13.119670248501418"><ele>175.33333333333334</ele><time>2026-05-03T16:06:20Z</time></trkpt><trkpt lat="46.201874941761766" lon="13.119873426438351"><ele>175.0</ele><time>2026-05-03T16:06:21Z</time></trkpt><trkpt lat="46.20172484452564" lon="13.120044894638989"><ele>175.0</ele><time>2026-05-03T16:06:22Z</time></trkpt><trkpt lat="46.20157969370084" lon="13.120197182978773"><ele>175.0</ele><time>2026-05-03T16:06:23Z</time></trkpt><trkpt lat="46.201429265158126" lon="13.120338812469328"><ele>175.0</ele><time>2026-05-03T16:06:24Z</time></trkpt><trkpt lat="46.20127547668901" lon="13.120475888714921"><ele>175.66666666666669</ele><time>2026-05-03T16:06:25Z</time></trkpt><trkpt lat="46.201124043652705" lon="13.12059593522495"><ele>176.33333333333334</ele><time>2026-05-03T16:06:26Z</time></trkpt><trkpt lat="46.20098227874173" lon="13.120710950401998"><ele>177.0</ele><time>2026-05-03T16:06:27Z</time></trkpt><trkpt lat="46.20084307491664" lon="13.120817074761911"><ele>177.0</ele><time>2026-05-03T16:06:28Z</time></trkpt><trkpt lat="46.2007021752987" lon="13.120917858686981"><ele>177.0</ele><time>2026-05-03T16:06:29Z</time></trkpt><trkpt lat="46.20055514287383" lon="13.121010702861856"><ele>177.0</ele><time>2026-05-03T16:06:30Z</time></trkpt><trkpt lat="46.20040264231155" lon="13.121101760301181"><ele>176.66666666666666</ele><time>2026-05-03T16:06:31Z</time></trkpt><trkpt lat="46.20024810040014" lon="13.121183990625694"><ele>176.33333333333331</ele><time>2026-05-03T16:06:32Z</time></trkpt><trkpt lat="46.20009481868703" lon="13.121261002159327"><ele>176.0</ele><time>2026-05-03T16:06:33Z</time></trkpt><trkpt lat="46.199938449686805" lon="13.121330115148062"><ele>175.33333333333331</ele><time>2026-05-03T16:06:34Z</time></trkpt><trkpt lat="46.19978098723037" lon="13.121392275922071"><ele>174.66666666666666</ele><time>2026-05-03T16:06:35Z</time></trkpt><trkpt lat="46.19962346469813" lon="13.121449838007486"><ele>174.0</ele><time>2026-05-03T16:06:36Z</time></trkpt><trkpt lat="46.199464754497264" lon="13.121505231979164"><ele>174.0</ele><time>2026-05-03T16:06:37Z</time></trkpt><trkpt lat="46.19930112595245" lon="13.121551762883712"><ele>174.0</ele><time>2026-05-03T16:06:38Z</time></trkpt><trkpt lat="46.19912126789996" lon="13.121590613844345"><ele>174.0</ele><time>2026-05-03T16:06:39Z</time></trkpt><trkpt lat="46.198931080711155" lon="13.121621891629031"><ele>173.66666666666666</ele><time>2026-05-03T16:06:40Z</time></trkpt><trkpt lat="46.19874237786893" lon="13.12164511155512"><ele>173.33333333333331</ele><time>2026-05-03T16:06:41Z</time></trkpt><trkpt lat="46.19856480098928" lon="13.121656413378963"><ele>173.0</ele><time>2026-05-03T16:06:42Z</time></trkpt><trkpt lat="46.198395534899475" lon="13.121659583109823"><ele>173.0</ele><time>2026-05-03T16:06:43Z</time></trkpt><trkpt lat="46.198210710435504" lon="13.12165133308974"><ele>173.0</ele><time>2026-05-03T16:06:44Z</time></trkpt><trkpt lat="46.19800509098619" lon="13.12163883395276"><ele>173.0</ele><time>2026-05-03T16:06:45Z</time></trkpt><trkpt lat="46.19778084568121" lon="13.121608381616806"><ele>173.0</ele><time>2026-05-03T16:06:46Z</time></trkpt><trkpt lat="46.19753624321245" lon="13.121572458283952"><ele>173.0</ele><time>2026-05-03T16:06:47Z</time></trkpt><trkpt lat="46.19726476110387" lon="13.121519636185193"><ele>175.5</ele><time>2026-05-03T16:06:48Z</time></trkpt><trkpt lat="46.19699455012668" lon="13.121456429114994"><ele>178.0</ele><time>2026-05-03T16:06:49Z</time></trkpt><trkpt lat="46.196723096144005" lon="13.121379999180103"><ele>176.5</ele><time>2026-05-03T16:06:50Z</time></trkpt><trkpt lat="46.19645559618454" lon="13.121301371469848"><ele>175.0</ele><time>2026-05-03T16:06:51Z</time></trkpt><trkpt lat="46.19621906521482" lon="13.121231754088715"><ele>175.0</ele><time>2026-05-03T16:06:52Z</time></trkpt><trkpt lat="46.195972332723706" lon="13.121183431645731"><ele>175.0</ele><time>2026-05-03T16:06:53Z</time></trkpt><trkpt lat="46.19570090243123" lon="13.121122323867555"><ele>172.5</ele><time>2026-05-03T16:06:54Z</time></trkpt><trkpt lat="46.19542684913191" lon="13.121063707855766"><ele>170.0</ele><time>2026-05-03T16:06:55Z</time></trkpt><trkpt lat="46.19516469897524" lon="13.121008223757597"><ele>170.0</ele><time>2026-05-03T16:06:56Z</time></trkpt><trkpt lat="46.19489732836109" lon="13.120943757798637"><ele>170.0</ele><time>2026-05-03T16:06:57Z</time></trkpt><trkpt lat="46.19462238471377" lon="13.12087647512303"><ele>168.5</ele><time>2026-05-03T16:06:58Z</time></trkpt><trkpt lat="46.19436389168134" lon="13.120816012012634"><ele>167.0</ele><time>2026-05-03T16:06:59Z</time></trkpt><trkpt lat="46.19411121557722" lon="13.1207616888505"><ele>167.5</ele><time>2026-05-03T16:07:00Z</time></trkpt><trkpt lat="46.19384798716814" lon="13.12070239423801"><ele>168.0</ele><time>2026-05-03T16:07:01Z</time></trkpt><trkpt lat="46.19357731651588" lon="13.120636207661564"><ele>168.0</ele><time>2026-05-03T16:07:02Z</time></trkpt><trkpt lat="46.193300188496636" lon="13.120572363130789"><ele>168.0</ele><time>2026-05-03T16:07:03Z</time></trkpt><trkpt lat="46.19302628818073" lon="13.120507346254593"><ele>167.0</ele><time>2026-05-03T16:07:04Z</time></trkpt><trkpt lat="46.192758542430134" lon="13.120447791972238"><ele>166.0</ele><time>2026-05-03T16:07:05Z</time></trkpt><trkpt lat="46.19249346302146" lon="13.12039095290052"><ele>165.5</ele><time>2026-05-03T16:07:06Z</time></trkpt><trkpt lat="46.1922313540554" lon="13.120333834532826"><ele>165.0</ele><time>2026-05-03T16:07:07.001Z</time></trkpt><trkpt lat="46.191972735013415" lon="13.120273324793747"><ele>165.0</ele><time>2026-05-03T16:07:08.001Z</time></trkpt><trkpt lat="46.191714420150845" lon="13.12022723079266"><ele>165.0</ele><time>2026-05-03T16:07:09.001Z</time></trkpt><trkpt lat="46.19145752609599" lon="13.120189888539466"><ele>165.0</ele><time>2026-05-03T16:07:10.001Z</time></trkpt><trkpt lat="46.191199209119645" lon="13.120161253314437"><ele>165.0</ele><time>2026-05-03T16:07:11.001Z</time></trkpt><trkpt lat="46.19094073135559" lon="13.120153927303937"><ele>165.0</ele><time>2026-05-03T16:07:12.001Z</time></trkpt><trkpt lat="46.190684444356826" lon="13.120163576786307"><ele>165.0</ele><time>2026-05-03T16:07:13.001Z</time></trkpt><trkpt lat="46.19042935218144" lon="13.120186270340811"><ele>165.5</ele><time>2026-05-03T16:07:14.001Z</time></trkpt><trkpt lat="46.190179847170945" lon="13.12021555914176"><ele>166.0</ele><time>2026-05-03T16:07:15.001Z</time></trkpt><trkpt lat="46.18994827287448" lon="13.120251548982283"><ele>168.0</ele><time>2026-05-03T16:07:16.001Z</time></trkpt><trkpt lat="46.18971873585897" lon="13.120313207174494"><ele>170.0</ele><time>2026-05-03T16:07:17.001Z</time></trkpt><trkpt lat="46.189479852782235" lon="13.120390091015809"><ele>170.0</ele><time>2026-05-03T16:07:18.001Z</time></trkpt><trkpt lat="46.18923405007159" lon="13.120455594785659"><ele>170.0</ele><time>2026-05-03T16:07:19.001Z</time></trkpt><trkpt lat="46.18898659376545" lon="13.120548875616926"><ele>171.5</ele><time>2026-05-03T16:07:20.001Z</time></trkpt><trkpt lat="46.18875025855488" lon="13.12060675986823"><ele>173.0</ele><time>2026-05-03T16:07:21.001Z</time></trkpt><trkpt lat="46.188504402221106" lon="13.120730086399803"><ele>173.0</ele><time>2026-05-03T16:07:22.001Z</time></trkpt><trkpt lat="46.18824289598256" lon="13.120851676465236"><ele>173.0</ele><time>2026-05-03T16:07:23.001Z</time></trkpt><trkpt lat="46.1880014779835" lon="13.120994613019437"><ele>173.0</ele><time>2026-05-03T16:07:24.001Z</time></trkpt><trkpt lat="46.18776470246001" lon="13.121113324181833"><ele>173.0</ele><time>2026-05-03T16:07:25.001Z</time></trkpt><trkpt lat="46.187557170441615" lon="13.121334848598252"><ele>172.0</ele><time>2026-05-03T16:07:26.001Z</time></trkpt><trkpt lat="46.187294136909664" lon="13.121491174590577"><ele>171.0</ele><time>2026-05-03T16:07:27.001Z</time></trkpt><trkpt lat="46.187074515617425" lon="13.121613205602708"><ele>171.0</ele><time>2026-05-03T16:07:28.001Z</time></trkpt><trkpt lat="46.186839605501774" lon="13.121767905464274"><ele>171.0</ele><time>2026-05-03T16:07:29.001Z</time></trkpt><trkpt lat="46.186613279809215" lon="13.121917249803175"><ele>170.33333333333334</ele><time>2026-05-03T16:07:30.001Z</time></trkpt><trkpt lat="46.18640679715629" lon="13.122049702310873"><ele>169.66666666666669</ele><time>2026-05-03T16:07:31.001Z</time></trkpt><trkpt lat="46.18620548094341" lon="13.12218162129953"><ele>169.0</ele><time>2026-05-03T16:07:32.001Z</time></trkpt><trkpt lat="46.18599855551707" lon="13.12231312645547"><ele>171.0</ele><time>2026-05-03T16:07:33.001Z</time></trkpt><trkpt lat="46.18578471247014" lon="13.12244548657704"><ele>173.0</ele><time>2026-05-03T16:07:34.001Z</time></trkpt><trkpt lat="46.185573153234984" lon="13.122580959969131"><ele>173.0</ele><time>2026-05-03T16:07:35.001Z</time></trkpt><trkpt lat="46.18536088594357" lon="13.122720669689791"><ele>173.0</ele><time>2026-05-03T16:07:36.001Z</time></trkpt><trkpt lat="46.185160886699194" lon="13.122865965156272"><ele>173.0</ele><time>2026-05-03T16:07:37.001Z</time></trkpt><trkpt lat="46.18493584240177" lon="13.123010166597778"><ele>173.0</ele><time>2026-05-03T16:07:38.001Z</time></trkpt><trkpt lat="46.18471443117311" lon="13.123147866239794"><ele>175.5</ele><time>2026-05-03T16:07:39.001Z</time></trkpt><trkpt lat="46.184490766663416" lon="13.123284818042151"><ele>178.0</ele><time>2026-05-03T16:07:40.001Z</time></trkpt><trkpt lat="46.18427458838299" lon="13.123424122298697"><ele>178.0</ele><time>2026-05-03T16:07:41.001Z</time></trkpt><trkpt lat="46.184056680578045" lon="13.12356859624978"><ele>178.0</ele><time>2026-05-03T16:07:42.001Z</time></trkpt><trkpt lat="46.18383472319066" lon="13.123713579313"><ele>177.5</ele><time>2026-05-03T16:07:43.001Z</time></trkpt><trkpt lat="46.1836099172248" lon="13.123859994199279"><ele>177.0</ele><time>2026-05-03T16:07:44.001Z</time></trkpt><trkpt lat="46.18337620753828" lon="13.124013231070982"><ele>176.5</ele><time>2026-05-03T16:07:45.001Z</time></trkpt><trkpt lat="46.18313157120919" lon="13.124168823354676"><ele>176.0</ele><time>2026-05-03T16:07:46.001Z</time></trkpt><trkpt lat="46.18287739530668" lon="13.12433085071745"><ele>176.0</ele><time>2026-05-03T16:07:47.001Z</time></trkpt><trkpt lat="46.18261237697061" lon="13.124503435027927"><ele>176.0</ele><time>2026-05-03T16:07:48.001Z</time></trkpt><trkpt lat="46.182340160171485" lon="13.12468735429364"><ele>178.5</ele><time>2026-05-03T16:07:49.001Z</time></trkpt><trkpt lat="46.182071935657625" lon="13.124862137866028"><ele>181.0</ele><time>2026-05-03T16:07:50.001Z</time></trkpt><trkpt lat="46.181832707488205" lon="13.125013711902703"><ele>181.0</ele><time>2026-05-03T16:07:51.001Z</time></trkpt><trkpt lat="46.18160536457493" lon="13.125166789950153"><ele>181.0</ele><time>2026-05-03T16:07:52.001Z</time></trkpt><trkpt lat="46.18137478920578" lon="13.12530917787962"><ele>181.5</ele><time>2026-05-03T16:07:53.001Z</time></trkpt><trkpt lat="46.1811427873193" lon="13.12545668157256"><ele>182.0</ele><time>2026-05-03T16:07:54.001Z</time></trkpt><trkpt lat="46.180918439400585" lon="13.125605736943346"><ele>182.5</ele><time>2026-05-03T16:07:55.001Z</time></trkpt><trkpt lat="46.18068723928979" lon="13.125756125401708"><ele>183.0</ele><time>2026-05-03T16:07:56.001Z</time></trkpt><trkpt lat="46.18045648617381" lon="13.12590831360229"><ele>183.0</ele><time>2026-05-03T16:07:57.001Z</time></trkpt><trkpt lat="46.180226171598584" lon="13.126056796795721"><ele>183.0</ele><time>2026-05-03T16:07:58Z</time></trkpt><trkpt lat="46.180000115608024" lon="13.126204651648917"><ele>183.5</ele><time>2026-05-03T16:07:59Z</time></trkpt><trkpt lat="46.179787989720516" lon="13.12633868393082"><ele>184.0</ele><time>2026-05-03T16:08:00Z</time></trkpt><trkpt lat="46.17957868206203" lon="13.126473418012644"><ele>183.0</ele><time>2026-05-03T16:08:01Z</time></trkpt><trkpt lat="46.179370098919236" lon="13.126612954578237"><ele>182.0</ele><time>2026-05-03T16:08:02Z</time></trkpt><trkpt lat="46.17915994292801" lon="13.126752344615795"><ele>183.0</ele><time>2026-05-03T16:08:03Z</time></trkpt><trkpt lat="46.17895104383408" lon="13.126889055921614"><ele>184.0</ele><time>2026-05-03T16:08:04Z</time></trkpt><trkpt lat="46.178742736349626" lon="13.12702123947577"><ele>184.0</ele><time>2026-05-03T16:08:05Z</time></trkpt><trkpt lat="46.178534542740294" lon="13.12715381499911"><ele>184.0</ele><time>2026-05-03T16:08:06Z</time></trkpt><trkpt lat="46.178336976097256" lon="13.12728514955698"><ele>184.0</ele><time>2026-05-03T16:08:07Z</time></trkpt><trkpt lat="46.17815423613723" lon="13.127400286050595"><ele>184.33333333333334</ele><time>2026-05-03T16:08:08Z</time></trkpt><trkpt lat="46.17798250251654" lon="13.127509437783207"><ele>184.66666666666666</ele><time>2026-05-03T16:08:09Z</time></trkpt><trkpt lat="46.17782691106564" lon="13.127609449904893"><ele>185.0</ele><time>2026-05-03T16:08:10Z</time></trkpt><trkpt lat="46.17767702132085" lon="13.127706594837706"><ele>185.0</ele><time>2026-05-03T16:08:11Z</time></trkpt><trkpt lat="46.177544490490845" lon="13.127791148126878"><ele>185.0</ele><time>2026-05-03T16:08:12Z</time></trkpt><trkpt lat="46.177423386646154" lon="13.127860206884757"><ele>185.0</ele><time>2026-05-03T16:08:13Z</time></trkpt><trkpt lat="46.177314060509076" lon="13.127882322813662"><ele>185.0</ele><time>2026-05-03T16:08:14Z</time></trkpt><trkpt lat="46.17721745164736" lon="13.127849347577554"><ele>185.6</ele><time>2026-05-03T16:08:15Z</time></trkpt><trkpt lat="46.17712621405773" lon="13.127786306200688"><ele>186.2</ele><time>2026-05-03T16:08:16Z</time></trkpt><trkpt lat="46.17704382643213" lon="13.127770826440077"><ele>186.8</ele><time>2026-05-03T16:08:17Z</time></trkpt><trkpt lat="46.176961106207514" lon="13.127864747753687"><ele>187.4</ele><time>2026-05-03T16:08:18Z</time></trkpt><trkpt lat="46.176902423344345" lon="13.128008655310655"><ele>188.0</ele><time>2026-05-03T16:08:19Z</time></trkpt><trkpt lat="46.17683894356055" lon="13.12817827819913"><ele>189.0</ele><time>2026-05-03T16:08:20Z</time></trkpt><trkpt lat="46.17672584514646" lon="13.128334982341539"><ele>190.0</ele><time>2026-05-03T16:08:21Z</time></trkpt><trkpt lat="46.176564435977696" lon="13.128476431232915"><ele>191.0</ele><time>2026-05-03T16:08:22Z</time></trkpt><trkpt lat="46.17637569075505" lon="13.128578111258868"><ele>191.66666666666666</ele><time>2026-05-03T16:08:23Z</time></trkpt><trkpt lat="46.17618421849611" lon="13.128670390201085"><ele>192.33333333333331</ele><time>2026-05-03T16:08:24Z</time></trkpt><trkpt lat="46.17600841138162" lon="13.128782897124035"><ele>193.0</ele><time>2026-05-03T16:08:25Z</time></trkpt><trkpt lat="46.17583929701654" lon="13.128891061758459"><ele>193.33333333333331</ele><time>2026-05-03T16:08:26Z</time></trkpt><trkpt lat="46.17566310492775" lon="13.129001359624578"><ele>193.66666666666669</ele><time>2026-05-03T16:08:27Z</time></trkpt><trkpt lat="46.17546739844352" lon="13.12913259581115"><ele>194.0</ele><time>2026-05-03T16:08:28Z</time></trkpt><trkpt lat="46.17527725033686" lon="13.1292484883301"><ele>194.0</ele><time>2026-05-03T16:08:29Z</time></trkpt><trkpt lat="46.17509144827171" lon="13.12936409115733"><ele>194.0</ele><time>2026-05-03T16:08:30Z</time></trkpt><trkpt lat="46.17490124183962" lon="13.129492047220578"><ele>194.0</ele><time>2026-05-03T16:08:31Z</time></trkpt><trkpt lat="46.17470524515421" lon="13.12962064263157"><ele>192.66666666666669</ele><time>2026-05-03T16:08:32Z</time></trkpt><trkpt lat="46.17450550921161" lon="13.129756487973076"><ele>191.33333333333334</ele><time>2026-05-03T16:08:33Z</time></trkpt><trkpt lat="46.17430177033451" lon="13.129890333361626"><ele>190.0</ele><time>2026-05-03T16:08:34Z</time></trkpt><trkpt lat="46.1740947047811" lon="13.130023746549583"><ele>189.5</ele><time>2026-05-03T16:08:35Z</time></trkpt><trkpt lat="46.173887285946726" lon="13.130158305241354"><ele>189.0</ele><time>2026-05-03T16:08:36Z</time></trkpt><trkpt lat="46.17368191869916" lon="13.130294811069165"><ele>189.0</ele><time>2026-05-03T16:08:37Z</time></trkpt><trkpt lat="46.173475908506816" lon="13.130428776802368"><ele>189.0</ele><time>2026-05-03T16:08:38Z</time></trkpt><trkpt lat="46.173267471122855" lon="13.130562804444052"><ele>189.0</ele><time>2026-05-03T16:08:39Z</time></trkpt><trkpt lat="46.17304662472381" lon="13.13070509745389"><ele>189.0</ele><time>2026-05-03T16:08:40Z</time></trkpt><trkpt lat="46.17282882635757" lon="13.130840992054015"><ele>187.5</ele><time>2026-05-03T16:08:41Z</time></trkpt><trkpt lat="46.17261861259236" lon="13.130973950335074"><ele>186.0</ele><time>2026-05-03T16:08:42Z</time></trkpt><trkpt lat="46.17239191790063" lon="13.131110461570817"><ele>184.5</ele><time>2026-05-03T16:08:43Z</time></trkpt><trkpt lat="46.17218181838621" lon="13.131259844696645"><ele>183.0</ele><time>2026-05-03T16:08:44.001Z</time></trkpt><trkpt lat="46.17196176347566" lon="13.131401611902628"><ele>183.0</ele><time>2026-05-03T16:08:45.001Z</time></trkpt><trkpt lat="46.171736820580435" lon="13.131547910254168"><ele>183.0</ele><time>2026-05-03T16:08:46.001Z</time></trkpt><trkpt lat="46.17150929125952" lon="13.131695688975995"><ele>184.5</ele><time>2026-05-03T16:08:47.001Z</time></trkpt><trkpt lat="46.1712831464281" lon="13.131839179752966"><ele>186.0</ele><time>2026-05-03T16:08:48.001Z</time></trkpt><trkpt lat="46.171055529885464" lon="13.131982516167378"><ele>186.0</ele><time>2026-05-03T16:08:49.001Z</time></trkpt><trkpt lat="46.170827143398576" lon="13.13213899770867"><ele>186.0</ele><time>2026-05-03T16:08:50.001Z</time></trkpt><trkpt lat="46.170593608664554" lon="13.132291632159953"><ele>187.0</ele><time>2026-05-03T16:08:51.001Z</time></trkpt><trkpt lat="46.170361757716485" lon="13.132438749596558"><ele>188.0</ele><time>2026-05-03T16:08:52.001Z</time></trkpt><trkpt lat="46.170132978191695" lon="13.132586255869644"><ele>188.0</ele><time>2026-05-03T16:08:53.001Z</time></trkpt><trkpt lat="46.169906627795946" lon="13.13272757527116"><ele>188.0</ele><time>2026-05-03T16:08:54.001Z</time></trkpt><trkpt lat="46.169683137681645" lon="13.13285738009112"><ele>188.0</ele><time>2026-05-03T16:08:55.001Z</time></trkpt><trkpt lat="46.169465681563665" lon="13.1329739555839"><ele>188.0</ele><time>2026-05-03T16:08:56.001Z</time></trkpt><trkpt lat="46.1692548646877" lon="13.133075737639459"><ele>188.0</ele><time>2026-05-03T16:08:57.001Z</time></trkpt><trkpt lat="46.16904197694288" lon="13.133164512888712"><ele>188.0</ele><time>2026-05-03T16:08:58.001Z</time></trkpt><trkpt lat="46.168818203930876" lon="13.133251956303932"><ele>193.0</ele><time>2026-05-03T16:08:59.001Z</time></trkpt><trkpt lat="46.16859585354059" lon="13.133331864493337"><ele>198.0</ele><time>2026-05-03T16:09:00.001Z</time></trkpt><trkpt lat="46.168377188868284" lon="13.133405594619266"><ele>200.0</ele><time>2026-05-03T16:09:01.001Z</time></trkpt><trkpt lat="46.1681562598648" lon="13.133460742231959"><ele>202.0</ele><time>2026-05-03T16:09:02.001Z</time></trkpt><trkpt lat="46.167930563896654" lon="13.133514739247142"><ele>202.0</ele><time>2026-05-03T16:09:03.001Z</time></trkpt><trkpt lat="46.16769798766288" lon="13.133554631648716"><ele>202.0</ele><time>2026-05-03T16:09:04.001Z</time></trkpt><trkpt lat="46.16746418581925" lon="13.133585948992279"><ele>201.0</ele><time>2026-05-03T16:09:05.001Z</time></trkpt><trkpt lat="46.1672283961277" lon="13.133609595837594"><ele>200.0</ele><time>2026-05-03T16:09:06.001Z</time></trkpt><trkpt lat="46.16699742013652" lon="13.13362551284185"><ele>200.0</ele><time>2026-05-03T16:09:07.001Z</time></trkpt><trkpt lat="46.16676881609937" lon="13.133625228264979"><ele>200.0</ele><time>2026-05-03T16:09:08.001Z</time></trkpt><trkpt lat="46.166540293238114" lon="13.133617782639284"><ele>195.5</ele><time>2026-05-03T16:09:09.001Z</time></trkpt><trkpt lat="46.166312308548704" lon="13.133613021065942"><ele>191.0</ele><time>2026-05-03T16:09:10.001Z</time></trkpt><trkpt lat="46.16608431257435" lon="13.133605945504382"><ele>191.0</ele><time>2026-05-03T16:09:11.001Z</time></trkpt><trkpt lat="46.165859022095695" lon="13.13359134823059"><ele>191.0</ele><time>2026-05-03T16:09:12.001Z</time></trkpt><trkpt lat="46.16563875434249" lon="13.133579695113777"><ele>191.0</ele><time>2026-05-03T16:09:13.001Z</time></trkpt><trkpt lat="46.165422281569356" lon="13.133575314145624"><ele>190.66666666666666</ele><time>2026-05-03T16:09:14.001Z</time></trkpt><trkpt lat="46.16521012578916" lon="13.13356914767938"><ele>190.33333333333334</ele><time>2026-05-03T16:09:15.001Z</time></trkpt><trkpt lat="46.16499197577372" lon="13.13356379118051"><ele>190.0</ele><time>2026-05-03T16:09:16.001Z</time></trkpt><trkpt lat="46.16476670770505" lon="13.133555500950404"><ele>189.0</ele><time>2026-05-03T16:09:17.001Z</time></trkpt><trkpt lat="46.164536957340246" lon="13.13354126259659"><ele>188.0</ele><time>2026-05-03T16:09:18.001Z</time></trkpt><trkpt lat="46.164302899329954" lon="13.133526716059116"><ele>188.0</ele><time>2026-05-03T16:09:19.001Z</time></trkpt><trkpt lat="46.16406908605488" lon="13.133518821000939"><ele>188.0</ele><time>2026-05-03T16:09:20.001Z</time></trkpt><trkpt lat="46.16383518097344" lon="13.133510933376195"><ele>189.5</ele><time>2026-05-03T16:09:21.001Z</time></trkpt><trkpt lat="46.16360189452089" lon="13.133501286625885"><ele>191.0</ele><time>2026-05-03T16:09:22.001Z</time></trkpt><trkpt lat="46.1633665795457" lon="13.133491362320402"><ele>191.5</ele><time>2026-05-03T16:09:23.001Z</time></trkpt><trkpt lat="46.163127686185454" lon="13.133479439843184"><ele>192.0</ele><time>2026-05-03T16:09:24.001Z</time></trkpt><trkpt lat="46.16288636688797" lon="13.133468104702319"><ele>192.0</ele><time>2026-05-03T16:09:25.001Z</time></trkpt><trkpt lat="46.16264329087979" lon="13.133462022254516"><ele>192.0</ele><time>2026-05-03T16:09:26.001Z</time></trkpt><trkpt lat="46.16239889507587" lon="13.133457750607496"><ele>192.0</ele><time>2026-05-03T16:09:27.001Z</time></trkpt><trkpt lat="46.16215039886167" lon="13.133459802234103"><ele>192.0</ele><time>2026-05-03T16:09:28.001Z</time></trkpt><trkpt lat="46.16190690358966" lon="13.133465801437387"><ele>192.0</ele><time>2026-05-03T16:09:29.001Z</time></trkpt><trkpt lat="46.161651291117415" lon="13.133486043028457"><ele>192.0</ele><time>2026-05-03T16:09:30.001Z</time></trkpt><trkpt lat="46.16139953775805" lon="13.133518840914792"><ele>194.0</ele><time>2026-05-03T16:09:31.001Z</time></trkpt><trkpt lat="46.16114729708343" lon="13.133568140333173"><ele>196.0</ele><time>2026-05-03T16:09:32.001Z</time></trkpt><trkpt lat="46.16089473304185" lon="13.133618315365128"><ele>196.0</ele><time>2026-05-03T16:09:33.001Z</time></trkpt><trkpt lat="46.16064484818392" lon="13.13367815245507"><ele>196.0</ele><time>2026-05-03T16:09:34.001Z</time></trkpt><trkpt lat="46.16039686129897" lon="13.133761033472332"><ele>196.0</ele><time>2026-05-03T16:09:35.001Z</time></trkpt><trkpt lat="46.16015134330669" lon="13.133821977098458"><ele>196.0</ele><time>2026-05-03T16:09:36.001Z</time></trkpt><trkpt lat="46.15989973646473" lon="13.13390625018864"><ele>194.0</ele><time>2026-05-03T16:09:37.001Z</time></trkpt><trkpt lat="46.15966185337925" lon="13.134007264795533"><ele>192.0</ele><time>2026-05-03T16:09:38.001Z</time></trkpt><trkpt lat="46.159421342665794" lon="13.134109861828922"><ele>191.5</ele><time>2026-05-03T16:09:39.001Z</time></trkpt><trkpt lat="46.15918183809764" lon="13.134221883787367"><ele>191.0</ele><time>2026-05-03T16:09:40.001Z</time></trkpt><trkpt lat="46.158943917756254" lon="13.134348888008764"><ele>188.5</ele><time>2026-05-03T16:09:41.001Z</time></trkpt><trkpt lat="46.15871179945717" lon="13.134486817011167"><ele>186.0</ele><time>2026-05-03T16:09:42.001Z</time></trkpt><trkpt lat="46.15848363465781" lon="13.13464067093162"><ele>186.0</ele><time>2026-05-03T16:09:43.001Z</time></trkpt><trkpt lat="46.15826166807239" lon="13.134807153399988"><ele>186.0</ele><time>2026-05-03T16:09:44.001Z</time></trkpt><trkpt lat="46.158039705080846" lon="13.134978307857619"><ele>184.5</ele><time>2026-05-03T16:09:45.001Z</time></trkpt><trkpt lat="46.1578181563767" lon="13.13515505848599"><ele>183.0</ele><time>2026-05-03T16:09:46.001Z</time></trkpt><trkpt lat="46.15759823102439" lon="13.135333134245526"><ele>183.0</ele><time>2026-05-03T16:09:47.001Z</time></trkpt><trkpt lat="46.15738199038098" lon="13.135513707480012"><ele>183.0</ele><time>2026-05-03T16:09:48.001Z</time></trkpt><trkpt lat="46.15717045513961" lon="13.135709761935825"><ele>182.0</ele><time>2026-05-03T16:09:49.001Z</time></trkpt><trkpt lat="46.15696421517319" lon="13.135919930979798"><ele>181.0</ele><time>2026-05-03T16:09:50.001Z</time></trkpt><trkpt lat="46.15676201039264" lon="13.136137505702564"><ele>181.0</ele><time>2026-05-03T16:09:51.001Z</time></trkpt><trkpt lat="46.15656098097784" lon="13.136362163579546"><ele>181.0</ele><time>2026-05-03T16:09:52.001Z</time></trkpt><trkpt lat="46.1563704089184" lon="13.136597739280393"><ele>181.0</ele><time>2026-05-03T16:09:53.001Z</time></trkpt><trkpt lat="46.15618217249725" lon="13.136835832607606"><ele>181.0</ele><time>2026-05-03T16:09:54.001Z</time></trkpt><trkpt lat="46.15599896341535" lon="13.137082232151792"><ele>181.0</ele><time>2026-05-03T16:09:55.001Z</time></trkpt><trkpt lat="46.15581985295903" lon="13.13733279389708"><ele>181.0</ele><time>2026-05-03T16:09:56.001Z</time></trkpt><trkpt lat="46.155645091250705" lon="13.1375885951102"><ele>181.0</ele><time>2026-05-03T16:09:57.002Z</time></trkpt><trkpt lat="46.15547552408128" lon="13.137857114590526"><ele>181.0</ele><time>2026-05-03T16:09:58.002Z</time></trkpt><trkpt lat="46.15531164276759" lon="13.138130930870842"><ele>180.5</ele><time>2026-05-03T16:09:59.002Z</time></trkpt><trkpt lat="46.15515131318555" lon="13.138414987511627"><ele>180.0</ele><time>2026-05-03T16:10:00.002Z</time></trkpt><trkpt lat="46.154998659468355" lon="13.138704637663064"><ele>180.0</ele><time>2026-05-03T16:10:01.002Z</time></trkpt><trkpt lat="46.15485260851303" lon="13.139001690614272"><ele>180.0</ele><time>2026-05-03T16:10:02.002Z</time></trkpt><trkpt lat="46.15471223690745" lon="13.139305514539554"><ele>180.0</ele><time>2026-05-03T16:10:03.002Z</time></trkpt><trkpt lat="46.15457198582897" lon="13.1396119228122"><ele>180.0</ele><time>2026-05-03T16:10:04Z</time></trkpt><trkpt lat="46.15443693694674" lon="13.139926722027376"><ele>180.5</ele><time>2026-05-03T16:10:05Z</time></trkpt><trkpt lat="46.15431268569073" lon="13.140261002234714"><ele>181.0</ele><time>2026-05-03T16:10:06Z</time></trkpt><trkpt lat="46.154192429639984" lon="13.140596768281442"><ele>181.0</ele><time>2026-05-03T16:10:07Z</time></trkpt><trkpt lat="46.15407937921715" lon="13.140937644045872"><ele>181.0</ele><time>2026-05-03T16:10:08Z</time></trkpt><trkpt lat="46.153969487503396" lon="13.141280050048566"><ele>185.5</ele><time>2026-05-03T16:10:09Z</time></trkpt><trkpt lat="46.15386701968262" lon="13.141637871335929"><ele>190.0</ele><time>2026-05-03T16:10:10Z</time></trkpt><trkpt lat="46.153768204766784" lon="13.142004282785916"><ele>190.0</ele><time>2026-05-03T16:10:11Z</time></trkpt><trkpt lat="46.15366996022231" lon="13.142373551205964"><ele>190.0</ele><time>2026-05-03T16:10:12Z</time></trkpt><trkpt lat="46.15357018267506" lon="13.142743463618258"><ele>188.0</ele><time>2026-05-03T16:10:13Z</time></trkpt><trkpt lat="46.15346474855861" lon="13.143112107443818"><ele>186.0</ele><time>2026-05-03T16:10:14Z</time></trkpt><trkpt lat="46.15335400532202" lon="13.143480251646606"><ele>185.0</ele><time>2026-05-03T16:10:15Z</time></trkpt><trkpt lat="46.15324540589261" lon="13.143855466680197"><ele>184.0</ele><time>2026-05-03T16:10:16Z</time></trkpt><trkpt lat="46.15314330782019" lon="13.14423673631369"><ele>186.0</ele><time>2026-05-03T16:10:17Z</time></trkpt><trkpt lat="46.15303927559858" lon="13.144618613983784"><ele>188.0</ele><time>2026-05-03T16:10:18Z</time></trkpt><trkpt lat="46.15293163256486" lon="13.144999410020501"><ele>188.0</ele><time>2026-05-03T16:10:19Z</time></trkpt><trkpt lat="46.15283223540535" lon="13.145387624295797"><ele>188.0</ele><time>2026-05-03T16:10:20Z</time></trkpt><trkpt lat="46.152732363934234" lon="13.145772886177541"><ele>186.5</ele><time>2026-05-03T16:10:21Z</time></trkpt><trkpt lat="46.1526297595424" lon="13.146158725819179"><ele>185.0</ele><time>2026-05-03T16:10:22Z</time></trkpt><trkpt lat="46.15252444932683" lon="13.14653954979976"><ele>184.5</ele><time>2026-05-03T16:10:23Z</time></trkpt><trkpt lat="46.15241815309742" lon="13.146924983420597"><ele>184.0</ele><time>2026-05-03T16:10:24Z</time></trkpt><trkpt lat="46.152315928166466" lon="13.147313512652063"><ele>184.0</ele><time>2026-05-03T16:10:25.001Z</time></trkpt><trkpt lat="46.15220192043125" lon="13.14769587366793"><ele>184.0</ele><time>2026-05-03T16:10:26.001Z</time></trkpt><trkpt lat="46.15209214773359" lon="13.148079167418052"><ele>184.5</ele><time>2026-05-03T16:10:27.001Z</time></trkpt><trkpt lat="46.151986150703294" lon="13.148462534577604"><ele>185.0</ele><time>2026-05-03T16:10:28.001Z</time></trkpt><trkpt lat="46.15188188929055" lon="13.148841642360326"><ele>184.0</ele><time>2026-05-03T16:10:29.001Z</time></trkpt><trkpt lat="46.151779485691456" lon="13.149223485456211"><ele>183.0</ele><time>2026-05-03T16:10:30.001Z</time></trkpt><trkpt lat="46.15167417099438" lon="13.14960372520271"><ele>182.0</ele><time>2026-05-03T16:10:31.001Z</time></trkpt><trkpt lat="46.15156542407887" lon="13.149985327022538"><ele>181.0</ele><time>2026-05-03T16:10:32.001Z</time></trkpt><trkpt lat="46.151456712973136" lon="13.150368007141315"><ele>180.0</ele><time>2026-05-03T16:10:33.001Z</time></trkpt><trkpt lat="46.151341810330756" lon="13.150746893943564"><ele>179.0</ele><time>2026-05-03T16:10:34.001Z</time></trkpt><trkpt lat="46.1512180925154" lon="13.151121149816234"><ele>179.0</ele><time>2026-05-03T16:10:35.001Z</time></trkpt><trkpt lat="46.151085890527405" lon="13.151494637987382"><ele>179.0</ele><time>2026-05-03T16:10:36.001Z</time></trkpt><trkpt lat="46.15094317441931" lon="13.151860077795359"><ele>179.0</ele><time>2026-05-03T16:10:37.001Z</time></trkpt><trkpt lat="46.150792020970336" lon="13.152217310676525"><ele>179.0</ele><time>2026-05-03T16:10:38.001Z</time></trkpt><trkpt lat="46.15062994651171" lon="13.152561803889295"><ele>179.0</ele><time>2026-05-03T16:10:39.001Z</time></trkpt><trkpt lat="46.15046395909955" lon="13.152901156128777"><ele>179.0</ele><time>2026-05-03T16:10:40.001Z</time></trkpt><trkpt lat="46.15029265953825" lon="13.153234052512058"><ele>180.0</ele><time>2026-05-03T16:10:41.001Z</time></trkpt><trkpt lat="46.150117773599426" lon="13.153561805986259"><ele>181.0</ele><time>2026-05-03T16:10:42.001Z</time></trkpt><trkpt lat="46.14993788985077" lon="13.153882952657364"><ele>181.5</ele><time>2026-05-03T16:10:43.001Z</time></trkpt><trkpt lat="46.14974671189947" lon="13.154190518435211"><ele>182.0</ele><time>2026-05-03T16:10:44.001Z</time></trkpt><trkpt lat="46.14954872073499" lon="13.154490481261007"><ele>182.0</ele><time>2026-05-03T16:10:45.001Z</time></trkpt><trkpt lat="46.14933662739021" lon="13.1548038166752"><ele>182.0</ele><time>2026-05-03T16:10:46.001Z</time></trkpt><trkpt lat="46.14911549212345" lon="13.155114185995249"><ele>182.5</ele><time>2026-05-03T16:10:47.001Z</time></trkpt><trkpt lat="46.14889920192517" lon="13.155392241625695"><ele>183.0</ele><time>2026-05-03T16:10:48.001Z</time></trkpt><trkpt lat="46.14867945505804" lon="13.155653725737839"><ele>182.5</ele><time>2026-05-03T16:10:49.001Z</time></trkpt><trkpt lat="46.148471323367986" lon="13.155877230353406"><ele>182.0</ele><time>2026-05-03T16:10:50.001Z</time></trkpt><trkpt lat="46.14826027206513" lon="13.156092390503389"><ele>183.0</ele><time>2026-05-03T16:10:51.001Z</time></trkpt><trkpt lat="46.14804373721464" lon="13.156298413960977"><ele>184.0</ele><time>2026-05-03T16:10:52.001Z</time></trkpt><trkpt lat="46.14782198576808" lon="13.156509636334262"><ele>184.5</ele><time>2026-05-03T16:10:53.001Z</time></trkpt><trkpt lat="46.14759686491598" lon="13.156724264629556"><ele>185.0</ele><time>2026-05-03T16:10:54.001Z</time></trkpt><trkpt lat="46.14737147744617" lon="13.156936523519327"><ele>185.0</ele><time>2026-05-03T16:10:55.001Z</time></trkpt><trkpt lat="46.147143548279864" lon="13.157157636229998"><ele>185.0</ele><time>2026-05-03T16:10:56.001Z</time></trkpt><trkpt lat="46.14691449521657" lon="13.15737488853737"><ele>185.0</ele><time>2026-05-03T16:10:57.001Z</time></trkpt><trkpt lat="46.146683738795744" lon="13.157595430643989"><ele>185.0</ele><time>2026-05-03T16:10:58.001Z</time></trkpt><trkpt lat="46.14645043418222" lon="13.157813121244903"><ele>185.0</ele><time>2026-05-03T16:10:59.001Z</time></trkpt><trkpt lat="46.146215875324266" lon="13.15803472779636"><ele>185.0</ele><time>2026-05-03T16:11:00.001Z</time></trkpt><trkpt lat="46.14598005870143" lon="13.15826240768915"><ele>185.0</ele><time>2026-05-03T16:11:01.001Z</time></trkpt><trkpt lat="46.14574022266637" lon="13.158493128627262"><ele>185.0</ele><time>2026-05-03T16:11:02.001Z</time></trkpt><trkpt lat="46.145500971190586" lon="13.15872376542978"><ele>185.5</ele><time>2026-05-03T16:11:03.001Z</time></trkpt><trkpt lat="46.14525827626481" lon="13.158953696062303"><ele>186.0</ele><time>2026-05-03T16:11:04.001Z</time></trkpt><trkpt lat="46.14501438778637" lon="13.15919267955849"><ele>185.0</ele><time>2026-05-03T16:11:05.001Z</time></trkpt><trkpt lat="46.14477243320626" lon="13.159442455403829"><ele>184.0</ele><time>2026-05-03T16:11:06.001Z</time></trkpt><trkpt lat="46.1445297926888" lon="13.15965535272497"><ele>182.5</ele><time>2026-05-03T16:11:07.001Z</time></trkpt><trkpt lat="46.14428797958125" lon="13.159879921743086"><ele>181.0</ele><time>2026-05-03T16:11:08.001Z</time></trkpt><trkpt lat="46.14405053999507" lon="13.16010801317491"><ele>182.5</ele><time>2026-05-03T16:11:09.001Z</time></trkpt><trkpt lat="46.143813869860125" lon="13.160341941967882"><ele>184.0</ele><time>2026-05-03T16:11:10.001Z</time></trkpt><trkpt lat="46.14357613403153" lon="13.16057150277558"><ele>184.0</ele><time>2026-05-03T16:11:11.001Z</time></trkpt><trkpt lat="46.14333639884327" lon="13.160796201500188"><ele>184.0</ele><time>2026-05-03T16:11:12.001Z</time></trkpt><trkpt lat="46.14309853788678" lon="13.161022265847189"><ele>184.0</ele><time>2026-05-03T16:11:13.001Z</time></trkpt><trkpt lat="46.142859897348806" lon="13.161249576530492"><ele>184.0</ele><time>2026-05-03T16:11:14.001Z</time></trkpt><trkpt lat="46.1426192631355" lon="13.161469484344956"><ele>182.5</ele><time>2026-05-03T16:11:15.001Z</time></trkpt><trkpt lat="46.14237944033956" lon="13.161699628631894"><ele>181.0</ele><time>2026-05-03T16:11:16.001Z</time></trkpt><trkpt lat="46.142160185757035" lon="13.161922167848264"><ele>181.0</ele><time>2026-05-03T16:11:17.001Z</time></trkpt><trkpt lat="46.14195069698533" lon="13.162125384267588"><ele>181.0</ele><time>2026-05-03T16:11:18.001Z</time></trkpt><trkpt lat="46.14174524697424" lon="13.162316190231875"><ele>181.0</ele><time>2026-05-03T16:11:19.001Z</time></trkpt><trkpt lat="46.141549899123156" lon="13.16250075556486"><ele>181.0</ele><time>2026-05-03T16:11:20.001Z</time></trkpt><trkpt lat="46.14136999827197" lon="13.162674659544829"><ele>181.0</ele><time>2026-05-03T16:11:21.001Z</time></trkpt><trkpt lat="46.141197527173205" lon="13.162836229017028"><ele>181.0</ele><time>2026-05-03T16:11:22.001Z</time></trkpt><trkpt lat="46.14103168463839" lon="13.162992114817314"><ele>181.0</ele><time>2026-05-03T16:11:23.001Z</time></trkpt><trkpt lat="46.14087522830717" lon="13.163141534134827"><ele>181.33333333333334</ele><time>2026-05-03T16:11:24.001Z</time></trkpt><trkpt lat="46.14072864303345" lon="13.16328681235295"><ele>181.66666666666666</ele><time>2026-05-03T16:11:25.001Z</time></trkpt><trkpt lat="46.14058811866635" lon="13.163424164048518"><ele>182.0</ele><time>2026-05-03T16:11:26.001Z</time></trkpt><trkpt lat="46.14044423787855" lon="13.163558389853454"><ele>181.33333333333331</ele><time>2026-05-03T16:11:27.001Z</time></trkpt><trkpt lat="46.14030565010114" lon="13.163714738154567"><ele>180.66666666666666</ele><time>2026-05-03T16:11:28.001Z</time></trkpt><trkpt lat="46.14017774060329" lon="13.163894154776521"><ele>180.0</ele><time>2026-05-03T16:11:29.001Z</time></trkpt><trkpt lat="46.140061944298374" lon="13.164091533498356"><ele>179.66666666666666</ele><time>2026-05-03T16:11:30.001Z</time></trkpt><trkpt lat="46.13995735181239" lon="13.164305070940792"><ele>179.33333333333331</ele><time>2026-05-03T16:11:31.001Z</time></trkpt><trkpt lat="46.13986433461957" lon="13.164534058150787"><ele>179.0</ele><time>2026-05-03T16:11:32.001Z</time></trkpt><trkpt lat="46.13977292827625" lon="13.164768856252296"><ele>179.66666666666666</ele><time>2026-05-03T16:11:33.001Z</time></trkpt><trkpt lat="46.13968931697469" lon="13.165000489152723"><ele>180.33333333333334</ele><time>2026-05-03T16:11:34.001Z</time></trkpt><trkpt lat="46.13959877370451" lon="13.165210795096906"><ele>181.0</ele><time>2026-05-03T16:11:35.001Z</time></trkpt><trkpt lat="46.13950201474478" lon="13.165416557617275"><ele>181.0</ele><time>2026-05-03T16:11:36.001Z</time></trkpt><trkpt lat="46.139394651475364" lon="13.165599580019462"><ele>181.0</ele><time>2026-05-03T16:11:37.001Z</time></trkpt><trkpt lat="46.139277626886006" lon="13.165766359381141"><ele>181.0</ele><time>2026-05-03T16:11:38.001Z</time></trkpt><trkpt lat="46.13914647572087" lon="13.165922988884708"><ele>182.0</ele><time>2026-05-03T16:11:39.001Z</time></trkpt><trkpt lat="46.139008746698224" lon="13.16605647746113"><ele>183.0</ele><time>2026-05-03T16:11:40.001Z</time></trkpt><trkpt lat="46.138876333708524" lon="13.166164928688081"><ele>184.0</ele><time>2026-05-03T16:11:41.001Z</time></trkpt><trkpt lat="46.13874999661176" lon="13.166260077232337"><ele>184.0</ele><time>2026-05-03T16:11:42.001Z</time></trkpt><trkpt lat="46.138618674816335" lon="13.166366471168473"><ele>184.0</ele><time>2026-05-03T16:11:43.001Z</time></trkpt><trkpt lat="46.1384950893199" lon="13.16647232522214"><ele>184.0</ele><time>2026-05-03T16:11:44.001Z</time></trkpt><trkpt lat="46.138384863639665" lon="13.16657595942174"><ele>184.0</ele><time>2026-05-03T16:11:45.001Z</time></trkpt><trkpt lat="46.138279755260044" lon="13.166699585932971"><ele>185.25</ele><time>2026-05-03T16:11:46.002Z</time></trkpt><trkpt lat="46.138174553688835" lon="13.166837557622056"><ele>186.5</ele><time>2026-05-03T16:11:47.002Z</time></trkpt><trkpt lat="46.13806661355111" lon="13.16698336057872"><ele>187.75</ele><time>2026-05-03T16:11:48.002Z</time></trkpt><trkpt lat="46.137957464984275" lon="13.167136127468929"><ele>189.0</ele><time>2026-05-03T16:11:49.002Z</time></trkpt><trkpt lat="46.1378537943214" lon="13.167295908836298"><ele>188.33333333333334</ele><time>2026-05-03T16:11:50.002Z</time></trkpt><trkpt lat="46.137751113431534" lon="13.167456841731736"><ele>187.66666666666669</ele><time>2026-05-03T16:11:51.002Z</time></trkpt><trkpt lat="46.13765002919427" lon="13.167619855082563"><ele>187.0</ele><time>2026-05-03T16:11:52.002Z</time></trkpt><trkpt lat="46.13755615339278" lon="13.167790663959646"><ele>187.0</ele><time>2026-05-03T16:11:53.002Z</time></trkpt><trkpt lat="46.137471455511424" lon="13.167971157950168"><ele>187.0</ele><time>2026-05-03T16:11:54.002Z</time></trkpt><trkpt lat="46.13739717456253" lon="13.168162258601578"><ele>187.0</ele><time>2026-05-03T16:11:55.002Z</time></trkpt><trkpt lat="46.137326025381505" lon="13.168354437856859"><ele>188.66666666666669</ele><time>2026-05-03T16:11:56.002Z</time></trkpt><trkpt lat="46.1372569451678" lon="13.168550204890252"><ele>190.33333333333334</ele><time>2026-05-03T16:11:57.002Z</time></trkpt><trkpt lat="46.137192574439766" lon="13.168744364575474"><ele>192.0</ele><time>2026-05-03T16:11:58.002Z</time></trkpt><trkpt lat="46.13712504753963" lon="13.16894681249167"><ele>190.66666666666666</ele><time>2026-05-03T16:11:59.002Z</time></trkpt><trkpt lat="46.137051186024344" lon="13.169152254022032"><ele>189.33333333333331</ele><time>2026-05-03T16:12:00.002Z</time></trkpt><trkpt lat="46.13697421576449" lon="13.169339476731373"><ele>188.0</ele><time>2026-05-03T16:12:01.002Z</time></trkpt><trkpt lat="46.13689374299504" lon="13.16950531746708"><ele>188.0</ele><time>2026-05-03T16:12:02.002Z</time></trkpt><trkpt lat="46.13680814651119" lon="13.169649494529759"><ele>188.0</ele><time>2026-05-03T16:12:03.002Z</time></trkpt><trkpt lat="46.13671241099671" lon="13.169782649392285"><ele>188.0</ele><time>2026-05-03T16:12:04.002Z</time></trkpt><trkpt lat="46.13660049575651" lon="13.169906924463021"><ele>188.0</ele><time>2026-05-03T16:12:05.002Z</time></trkpt><trkpt lat="46.13647551164081" lon="13.170029249703665"><ele>189.33333333333331</ele><time>2026-05-03T16:12:06.002Z</time></trkpt><trkpt lat="46.136331050543255" lon="13.170159467602739"><ele>190.66666666666666</ele><time>2026-05-03T16:12:07.002Z</time></trkpt><trkpt lat="46.13615845595928" lon="13.170292583756726"><ele>192.0</ele><time>2026-05-03T16:12:08.002Z</time></trkpt><trkpt lat="46.13596013772617" lon="13.170442032026186"><ele>192.0</ele><time>2026-05-03T16:12:09.002Z</time></trkpt><trkpt lat="46.13573425458666" lon="13.170602066248335"><ele>192.0</ele><time>2026-05-03T16:12:10.001Z</time></trkpt><trkpt lat="46.13549145698518" lon="13.170764396131567"><ele>192.0</ele><time>2026-05-03T16:12:11.001Z</time></trkpt><trkpt lat="46.13525211558366" lon="13.170915317480304"><ele>192.0</ele><time>2026-05-03T16:12:12.001Z</time></trkpt><trkpt lat="46.13503072525706" lon="13.171063962151022"><ele>193.33333333333331</ele><time>2026-05-03T16:12:13.001Z</time></trkpt><trkpt lat="46.134835640393106" lon="13.171203405704388"><ele>194.66666666666666</ele><time>2026-05-03T16:12:14.001Z</time></trkpt><trkpt lat="46.134650852990085" lon="13.171333531237755"><ele>196.0</ele><time>2026-05-03T16:12:15.001Z</time></trkpt><trkpt lat="46.13447993889478" lon="13.171465558790976"><ele>195.66666666666666</ele><time>2026-05-03T16:12:16.001Z</time></trkpt><trkpt lat="46.13432358786421" lon="13.171604737941747"><ele>195.33333333333331</ele><time>2026-05-03T16:12:17.001Z</time></trkpt><trkpt lat="46.13417862810442" lon="13.171744903691618"><ele>195.0</ele><time>2026-05-03T16:12:18.001Z</time></trkpt><trkpt lat="46.13404502575754" lon="13.171885033787238"><ele>195.0</ele><time>2026-05-03T16:12:19.001Z</time></trkpt><trkpt lat="46.13392623958074" lon="13.172029630567625"><ele>195.0</ele><time>2026-05-03T16:12:20.001Z</time></trkpt><trkpt lat="46.133810658122755" lon="13.172186344741373"><ele>195.0</ele><time>2026-05-03T16:12:21.001Z</time></trkpt><trkpt lat="46.13370015207033" lon="13.172347297015678"><ele>195.0</ele><time>2026-05-03T16:12:22.001Z</time></trkpt><trkpt lat="46.13360306234868" lon="13.172508581215249"><ele>195.0</ele><time>2026-05-03T16:12:23Z</time></trkpt><trkpt lat="46.133519404184014" lon="13.172666964413363"><ele>195.0</ele><time>2026-05-03T16:12:24Z</time></trkpt><trkpt lat="46.133441119275645" lon="13.172819195995789"><ele>195.0</ele><time>2026-05-03T16:12:25Z</time></trkpt><trkpt lat="46.133365608138" lon="13.172963745305104"><ele>195.0</ele><time>2026-05-03T16:12:26Z</time></trkpt><trkpt lat="46.13327803502276" lon="13.173111990393988"><ele>195.0</ele><time>2026-05-03T16:12:27Z</time></trkpt><trkpt lat="46.1331867684107" lon="13.173241550947441"><ele>195.0</ele><time>2026-05-03T16:12:28Z</time></trkpt><trkpt lat="46.13310555871547" lon="13.17336058468549"><ele>195.0</ele><time>2026-05-03T16:12:29Z</time></trkpt><trkpt lat="46.13305528295228" lon="13.17352834710217"><ele>195.75</ele><time>2026-05-03T16:12:30Z</time></trkpt><trkpt lat="46.132986933209764" lon="13.173683274496847"><ele>196.5</ele><time>2026-05-03T16:12:31Z</time></trkpt><trkpt lat="46.132912075638046" lon="13.17383752664654"><ele>197.25</ele><time>2026-05-03T16:12:32Z</time></trkpt><trkpt lat="46.13284207240127" lon="13.173995902548196"><ele>198.0</ele><time>2026-05-03T16:12:33Z</time></trkpt><trkpt lat="46.13277506585462" lon="13.174157336049324"><ele>198.5</ele><time>2026-05-03T16:12:34Z</time></trkpt><trkpt lat="46.13269352757023" lon="13.174305333411034"><ele>199.0</ele><time>2026-05-03T16:12:35Z</time></trkpt><trkpt lat="46.13259690375752" lon="13.17443932227632"><ele>199.5</ele><time>2026-05-03T16:12:36Z</time></trkpt><trkpt lat="46.13248144092845" lon="13.174542074960392"><ele>200.0</ele><time>2026-05-03T16:12:37Z</time></trkpt><trkpt lat="46.13236273448597" lon="13.174617915847355"><ele>200.0</ele><time>2026-05-03T16:12:38Z</time></trkpt><trkpt lat="46.1322411080366" lon="13.17466231475192"><ele>200.0</ele><time>2026-05-03T16:12:39Z</time></trkpt><trkpt lat="46.13211937292415" lon="13.17469400789587"><ele>200.0</ele><time>2026-05-03T16:12:40Z</time></trkpt><trkpt lat="46.13200129216881" lon="13.17472623702112"><ele>200.0</ele><time>2026-05-03T16:12:41Z</time></trkpt><trkpt lat="46.13188333728345" lon="13.174763415408693"><ele>200.0</ele><time>2026-05-03T16:12:42Z</time></trkpt><trkpt lat="46.1317584241907" lon="13.1747954230024"><ele>200.0</ele><time>2026-05-03T16:12:43Z</time></trkpt><trkpt lat="46.13162762918921" lon="13.174817464075556"><ele>200.0</ele><time>2026-05-03T16:12:44Z</time></trkpt><trkpt lat="46.13148901805881" lon="13.17482919520798"><ele>200.0</ele><time>2026-05-03T16:12:45Z</time></trkpt><trkpt lat="46.131350435154715" lon="13.174857283932244"><ele>199.75</ele><time>2026-05-03T16:12:46Z</time></trkpt><trkpt lat="46.13120585692894" lon="13.174866328441988"><ele>199.5</ele><time>2026-05-03T16:12:47Z</time></trkpt><trkpt lat="46.13106199041885" lon="13.174875135404342"><ele>199.25</ele><time>2026-05-03T16:12:48Z</time></trkpt><trkpt lat="46.13090775451338" lon="13.1748810085723"><ele>199.0</ele><time>2026-05-03T16:12:49Z</time></trkpt><trkpt lat="46.13076055675375" lon="13.174877177667575"><ele>198.25</ele><time>2026-05-03T16:12:50Z</time></trkpt><trkpt lat="46.13061926532385" lon="13.174886252605896"><ele>197.5</ele><time>2026-05-03T16:12:51Z</time></trkpt><trkpt lat="46.13048099608948" lon="13.17489471650223"><ele>196.75</ele><time>2026-05-03T16:12:52Z</time></trkpt><trkpt lat="46.130337402794375" lon="13.174917773422548"><ele>196.0</ele><time>2026-05-03T16:12:53Z</time></trkpt><trkpt lat="46.13018798797203" lon="13.174954200209301"><ele>196.0</ele><time>2026-05-03T16:12:54Z</time></trkpt><trkpt lat="46.130036603557556" lon="13.175033521555996"><ele>196.0</ele><time>2026-05-03T16:12:55Z</time></trkpt><trkpt lat="46.12989922690729" lon="13.175114125527225"><ele>196.0</ele><time>2026-05-03T16:12:56Z</time></trkpt><trkpt lat="46.12976438496617" lon="13.175193099152807"><ele>195.66666666666666</ele><time>2026-05-03T16:12:57Z</time></trkpt><trkpt lat="46.12962193522218" lon="13.175289384977265"><ele>195.33333333333331</ele><time>2026-05-03T16:12:58Z</time></trkpt><trkpt lat="46.12947575683383" lon="13.175404326323358"><ele>195.0</ele><time>2026-05-03T16:12:59Z</time></trkpt><trkpt lat="46.129344458595725" lon="13.175522831499642"><ele>195.0</ele><time>2026-05-03T16:13:00Z</time></trkpt><trkpt lat="46.129217340939704" lon="13.17566802515435"><ele>195.0</ele><time>2026-05-03T16:13:01Z</time></trkpt><trkpt lat="46.1290901377542" lon="13.175828319734915"><ele>195.0</ele><time>2026-05-03T16:13:02Z</time></trkpt><trkpt lat="46.12896596432661" lon="13.176003236740792"><ele>194.66666666666669</ele><time>2026-05-03T16:13:03Z</time></trkpt><trkpt lat="46.12885175650954" lon="13.176174008687829"><ele>194.33333333333334</ele><time>2026-05-03T16:13:04Z</time></trkpt><trkpt lat="46.1287539299404" lon="13.176352275861582"><ele>194.0</ele><time>2026-05-03T16:13:05Z</time></trkpt><trkpt lat="46.12866800979739" lon="13.176531785864308"><ele>193.25</ele><time>2026-05-03T16:13:06Z</time></trkpt><trkpt lat="46.12858783098322" lon="13.17671545857609"><ele>192.5</ele><time>2026-05-03T16:13:07Z</time></trkpt><trkpt lat="46.12851459833465" lon="13.176893315353432"><ele>191.75</ele><time>2026-05-03T16:13:08Z</time></trkpt><trkpt lat="46.12844055445945" lon="13.177079250877881"><ele>191.0</ele><time>2026-05-03T16:13:09Z</time></trkpt><trkpt lat="46.128365770332245" lon="13.177275821787665"><ele>190.33333333333331</ele><time>2026-05-03T16:13:10Z</time></trkpt><trkpt lat="46.12828564303179" lon="13.177475530558333"><ele>189.66666666666666</ele><time>2026-05-03T16:13:11Z</time></trkpt><trkpt lat="46.12820566665102" lon="13.177659755603429"><ele>189.0</ele><time>2026-05-03T16:13:12Z</time></trkpt><trkpt lat="46.12812860490473" lon="13.177837718340141"><ele>188.5</ele><time>2026-05-03T16:13:13Z</time></trkpt><trkpt lat="46.12805535959716" lon="13.178012173624502"><ele>188.0</ele><time>2026-05-03T16:13:14Z</time></trkpt><trkpt lat="46.12798765052482" lon="13.178183392754505"><ele>187.5</ele><time>2026-05-03T16:13:15Z</time></trkpt><trkpt lat="46.127917985382155" lon="13.178357300629957"><ele>187.0</ele><time>2026-05-03T16:13:16Z</time></trkpt><trkpt lat="46.127845009191155" lon="13.178528953997446"><ele>186.25</ele><time>2026-05-03T16:13:17Z</time></trkpt><trkpt lat="46.12777426886614" lon="13.178700384795958"><ele>185.5</ele><time>2026-05-03T16:13:18Z</time></trkpt><trkpt lat="46.127706023944086" lon="13.178880940653922"><ele>184.75</ele><time>2026-05-03T16:13:19Z</time></trkpt><trkpt lat="46.127633078929854" lon="13.179062360432287"><ele>184.0</ele><time>2026-05-03T16:13:20Z</time></trkpt><trkpt lat="46.12756032091287" lon="13.179243477616204"><ele>183.0</ele><time>2026-05-03T16:13:21Z</time></trkpt><trkpt lat="46.12748795471528" lon="13.179421949671761"><ele>182.0</ele><time>2026-05-03T16:13:22Z</time></trkpt><trkpt lat="46.127415619832846" lon="13.17959275781895"><ele>181.0</ele><time>2026-05-03T16:13:23Z</time></trkpt><trkpt lat="46.127342373021584" lon="13.179759547071592"><ele>180.0</ele><time>2026-05-03T16:13:24Z</time></trkpt><trkpt lat="46.12726557717314" lon="13.179919095328252"><ele>178.0</ele><time>2026-05-03T16:13:25Z</time></trkpt><trkpt lat="46.12718525772442" lon="13.18009321939685"><ele>176.0</ele><time>2026-05-03T16:13:26.001Z</time></trkpt><trkpt lat="46.12710673627286" lon="13.180285170787403"><ele>174.0</ele><time>2026-05-03T16:13:27.001Z</time></trkpt><trkpt lat="46.12702557572764" lon="13.180486606053426"><ele>173.33333333333334</ele><time>2026-05-03T16:13:28.001Z</time></trkpt><trkpt lat="46.12694437793554" lon="13.180700235011775"><ele>172.66666666666669</ele><time>2026-05-03T16:13:29.001Z</time></trkpt><trkpt lat="46.126864880699294" lon="13.180920939699437"><ele>172.0</ele><time>2026-05-03T16:13:30.001Z</time></trkpt><trkpt lat="46.126788753211905" lon="13.18113284742758"><ele>172.0</ele><time>2026-05-03T16:13:31.001Z</time></trkpt><trkpt lat="46.12670317681337" lon="13.181335003142651"><ele>172.0</ele><time>2026-05-03T16:13:32.001Z</time></trkpt><trkpt lat="46.12661666201646" lon="13.181538748462389"><ele>172.0</ele><time>2026-05-03T16:13:33.001Z</time></trkpt><trkpt lat="46.12653291431886" lon="13.18174540564723"><ele>171.33333333333334</ele><time>2026-05-03T16:13:34.001Z</time></trkpt><trkpt lat="46.12644846562514" lon="13.181968473433326"><ele>170.66666666666666</ele><time>2026-05-03T16:13:35.001Z</time></trkpt><trkpt lat="46.12635096855735" lon="13.182243658612258"><ele>170.0</ele><time>2026-05-03T16:13:36.001Z</time></trkpt><trkpt lat="46.126233356727575" lon="13.18253821885941"><ele>168.0</ele><time>2026-05-03T16:13:37.001Z</time></trkpt><trkpt lat="46.12609739020733" lon="13.18284396740615"><ele>166.0</ele><time>2026-05-03T16:13:38.001Z</time></trkpt><trkpt lat="46.12597012576389" lon="13.183132469624864"><ele>166.0</ele><time>2026-05-03T16:13:39.001Z</time></trkpt><trkpt lat="46.12584046827523" lon="13.183429082911477"><ele>166.0</ele><time>2026-05-03T16:13:40.001Z</time></trkpt><trkpt lat="46.12570464898789" lon="13.183759212966905"><ele>164.5</ele><time>2026-05-03T16:13:41.001Z</time></trkpt><trkpt lat="46.125578973216385" lon="13.184056820474503"><ele>163.0</ele><time>2026-05-03T16:13:42.001Z</time></trkpt><trkpt lat="46.125466947178595" lon="13.184331925026218"><ele>163.0</ele><time>2026-05-03T16:13:43.001Z</time></trkpt><trkpt lat="46.12536495062325" lon="13.184611439138683"><ele>163.0</ele><time>2026-05-03T16:13:44.001Z</time></trkpt><trkpt lat="46.125279899165506" lon="13.184893047511363"><ele>163.0</ele><time>2026-05-03T16:13:45.001Z</time></trkpt><trkpt lat="46.1252054903176" lon="13.185163031743537"><ele>163.0</ele><time>2026-05-03T16:13:46.001Z</time></trkpt><trkpt lat="46.12513396475029" lon="13.185419702570584"><ele>163.0</ele><time>2026-05-03T16:13:47.001Z</time></trkpt><trkpt lat="46.12505807140521" lon="13.185649870274567"><ele>163.0</ele><time>2026-05-03T16:13:48.001Z</time></trkpt><trkpt lat="46.124973142717444" lon="13.185851089936742"><ele>163.5</ele><time>2026-05-03T16:13:49.001Z</time></trkpt><trkpt lat="46.12488132029948" lon="13.186017439551335"><ele>164.0</ele><time>2026-05-03T16:13:50.001Z</time></trkpt><trkpt lat="46.12478235092524" lon="13.18615652458524"><ele>164.5</ele><time>2026-05-03T16:13:51.001Z</time></trkpt><trkpt lat="46.124687489533365" lon="13.186287418648355"><ele>165.0</ele><time>2026-05-03T16:13:52.001Z</time></trkpt><trkpt lat="46.12460104282001" lon="13.186413430878666"><ele>165.2</ele><time>2026-05-03T16:13:53.001Z</time></trkpt><trkpt lat="46.12452930114914" lon="13.186516060004847"><ele>165.4</ele><time>2026-05-03T16:13:54.001Z</time></trkpt><trkpt lat="46.12446895639039" lon="13.186604288359415"><ele>165.60000000000002</ele><time>2026-05-03T16:13:55.001Z</time></trkpt><trkpt lat="46.12441100094148" lon="13.186671447208157"><ele>165.8</ele><time>2026-05-03T16:13:56.001Z</time></trkpt><trkpt lat="46.12429354787868" lon="13.186734729229785"><ele>166.0</ele><time>2026-05-03T16:13:58.001Z</time></trkpt><trkpt lat="46.124212080940254" lon="13.186759086979693"><ele>166.0</ele><time>2026-05-03T16:13:59.001Z</time></trkpt><trkpt lat="46.12413769950029" lon="13.186823558071096"><ele>166.0</ele><time>2026-05-03T16:14:00.001Z</time></trkpt><trkpt lat="46.12408126491509" lon="13.186928159289172"><ele>166.0</ele><time>2026-05-03T16:14:01.001Z</time></trkpt><trkpt lat="46.124021864869306" lon="13.187033990309681"><ele>166.0</ele><time>2026-05-03T16:14:02.001Z</time></trkpt><trkpt lat="46.12393264579197" lon="13.18711061707759"><ele>166.0</ele><time>2026-05-03T16:14:03.001Z</time></trkpt><trkpt lat="46.1238389374973" lon="13.187188536024406"><ele>165.5</ele><time>2026-05-03T16:14:04.001Z</time></trkpt><trkpt lat="46.123730737756944" lon="13.18725320172414"><ele>165.0</ele><time>2026-05-03T16:14:05.001Z</time></trkpt><trkpt lat="46.123623828112" lon="13.187304146824594"><ele>164.5</ele><time>2026-05-03T16:14:06.001Z</time></trkpt><trkpt lat="46.12352116236929" lon="13.18735023312783"><ele>164.0</ele><time>2026-05-03T16:14:07.001Z</time></trkpt><trkpt lat="46.123414059368905" lon="13.187404301534968"><ele>164.0</ele><time>2026-05-03T16:14:08.001Z</time></trkpt><trkpt lat="46.12330999474415" lon="13.187471746148134"><ele>164.0</ele><time>2026-05-03T16:14:09.001Z</time></trkpt><trkpt lat="46.12321629337139" lon="13.187550007347287"><ele>164.0</ele><time>2026-05-03T16:14:10.001Z</time></trkpt><trkpt lat="46.1231313192766" lon="13.18764229696981"><ele>164.0</ele><time>2026-05-03T16:14:11.001Z</time></trkpt><trkpt lat="46.12304730829486" lon="13.187742564543283"><ele>164.0</ele><time>2026-05-03T16:14:12.001Z</time></trkpt><trkpt lat="46.12295793128754" lon="13.18783741933448"><ele>163.75</ele><time>2026-05-03T16:14:13.001Z</time></trkpt><trkpt lat="46.12286737799902" lon="13.187933788949028"><ele>163.5</ele><time>2026-05-03T16:14:14.001Z</time></trkpt><trkpt lat="46.12277427167557" lon="13.18803374043317"><ele>163.25</ele><time>2026-05-03T16:14:15.001Z</time></trkpt><trkpt lat="46.12268142153656" lon="13.188140236988293"><ele>163.0</ele><time>2026-05-03T16:14:16Z</time></trkpt><trkpt lat="46.12259026642903" lon="13.188250640822357"><ele>162.75</ele><time>2026-05-03T16:14:17Z</time></trkpt><trkpt lat="46.122497383893545" lon="13.18836324707301"><ele>162.5</ele><time>2026-05-03T16:14:18Z</time></trkpt><trkpt lat="46.1224034023871" lon="13.188476081389169"><ele>162.25</ele><time>2026-05-03T16:14:19Z</time></trkpt><trkpt lat="46.122306974861395" lon="13.188587850751857"><ele>162.0</ele><time>2026-05-03T16:14:20Z</time></trkpt><trkpt lat="46.12220820146334" lon="13.188704528234252"><ele>161.5</ele><time>2026-05-03T16:14:21Z</time></trkpt><trkpt lat="46.12210511724437" lon="13.188827170683771"><ele>161.0</ele><time>2026-05-03T16:14:22Z</time></trkpt><trkpt lat="46.12199454450892" lon="13.188961434123623"><ele>160.5</ele><time>2026-05-03T16:14:23Z</time></trkpt><trkpt lat="46.1218984610763" lon="13.189083816340158"><ele>160.0</ele><time>2026-05-03T16:14:24Z</time></trkpt><trkpt lat="46.12180750188277" lon="13.189193161750206"><ele>160.0</ele><time>2026-05-03T16:14:25Z</time></trkpt><trkpt lat="46.12172962055861" lon="13.189284236135215"><ele>160.0</ele><time>2026-05-03T16:14:26Z</time></trkpt><trkpt lat="46.12166013774629" lon="13.189355837393657"><ele>160.0</ele><time>2026-05-03T16:14:27Z</time></trkpt><trkpt lat="46.12158452730788" lon="13.189409873287397"><ele>160.0</ele><time>2026-05-03T16:14:28Z</time></trkpt><trkpt lat="46.12150840395764" lon="13.189445631817076"><ele>160.0</ele><time>2026-05-03T16:14:29Z</time></trkpt><trkpt lat="46.12143801566644" lon="13.189511904841176"><ele>160.0</ele><time>2026-05-03T16:14:30Z</time></trkpt><trkpt lat="46.12138431076086" lon="13.189619153362933"><ele>159.5</ele><time>2026-05-03T16:14:31Z</time></trkpt><trkpt lat="46.12132324567941" lon="13.18972507746473"><ele>159.0</ele><time>2026-05-03T16:14:32Z</time></trkpt><trkpt lat="46.12124349661831" lon="13.189843033315764"><ele>158.5</ele><time>2026-05-03T16:14:33Z</time></trkpt><trkpt lat="46.12114666203416" lon="13.189979685826177"><ele>158.0</ele><time>2026-05-03T16:14:34Z</time></trkpt><trkpt lat="46.121057610465726" lon="13.190098392222007"><ele>158.0</ele><time>2026-05-03T16:14:35Z</time></trkpt><trkpt lat="46.120956018480015" lon="13.190224652445147"><ele>158.0</ele><time>2026-05-03T16:14:36Z</time></trkpt><trkpt lat="46.12084921687075" lon="13.190361208402818"><ele>158.0</ele><time>2026-05-03T16:14:37Z</time></trkpt><trkpt lat="46.12073579679006" lon="13.190501708743755"><ele>158.0</ele><time>2026-05-03T16:14:38Z</time></trkpt><trkpt lat="46.1206254983638" lon="13.190637886773484"><ele>157.75</ele><time>2026-05-03T16:14:39Z</time></trkpt><trkpt lat="46.12052093849892" lon="13.190766088981428"><ele>157.5</ele><time>2026-05-03T16:14:40Z</time></trkpt><trkpt lat="46.120411828319554" lon="13.190896818270032"><ele>157.25</ele><time>2026-05-03T16:14:41Z</time></trkpt><trkpt lat="46.12030016055682" lon="13.191034291444243"><ele>157.0</ele><time>2026-05-03T16:14:42Z</time></trkpt><trkpt lat="46.12017994687722" lon="13.191179207409267"><ele>157.0</ele><time>2026-05-03T16:14:43Z</time></trkpt><trkpt lat="46.120049408821615" lon="13.191329841631172"><ele>157.0</ele><time>2026-05-03T16:14:44Z</time></trkpt><trkpt lat="46.11991142656852" lon="13.191480783279118"><ele>157.0</ele><time>2026-05-03T16:14:45Z</time></trkpt><trkpt lat="46.11977298558855" lon="13.191614529222695"><ele>157.66666666666669</ele><time>2026-05-03T16:14:46Z</time></trkpt><trkpt lat="46.11962768374239" lon="13.191733960313563"><ele>158.33333333333334</ele><time>2026-05-03T16:14:47Z</time></trkpt><trkpt lat="46.1194814027527" lon="13.191849116893057"><ele>159.0</ele><time>2026-05-03T16:14:48Z</time></trkpt><trkpt lat="46.119331667102365" lon="13.19195622165518"><ele>159.0</ele><time>2026-05-03T16:14:49Z</time></trkpt><trkpt lat="46.11918087387114" lon="13.192058720872634"><ele>159.0</ele><time>2026-05-03T16:14:50Z</time></trkpt><trkpt lat="46.119033168773605" lon="13.192163720676975"><ele>159.0</ele><time>2026-05-03T16:14:51Z</time></trkpt><trkpt lat="46.118887000328094" lon="13.192266614904625"><ele>154.66666666666666</ele><time>2026-05-03T16:14:52Z</time></trkpt><trkpt lat="46.11874173915537" lon="13.192370610298305"><ele>150.33333333333331</ele><time>2026-05-03T16:14:53Z</time></trkpt><trkpt lat="46.11859911435886" lon="13.192471969269349"><ele>146.0</ele><time>2026-05-03T16:14:54Z</time></trkpt><trkpt lat="46.11845981405787" lon="13.192569797255063"><ele>146.0</ele><time>2026-05-03T16:14:55Z</time></trkpt><trkpt lat="46.11832462828774" lon="13.192667848303163"><ele>146.0</ele><time>2026-05-03T16:14:56Z</time></trkpt><trkpt lat="46.11819243725609" lon="13.192761633552704"><ele>146.0</ele><time>2026-05-03T16:14:57Z</time></trkpt><trkpt lat="46.11806758757815" lon="13.192852538627774"><ele>146.0</ele><time>2026-05-03T16:14:58Z</time></trkpt><trkpt lat="46.117937725858134" lon="13.192947048172734"><ele>145.66666666666666</ele><time>2026-05-03T16:14:59Z</time></trkpt><trkpt lat="46.11779828878168" lon="13.193044522199436"><ele>145.33333333333334</ele><time>2026-05-03T16:15:00Z</time></trkpt><trkpt lat="46.11765480025716" lon="13.1931493847974"><ele>145.0</ele><time>2026-05-03T16:15:01Z</time></trkpt><trkpt lat="46.11750826271831" lon="13.193256323245553"><ele>145.66666666666669</ele><time>2026-05-03T16:15:02Z</time></trkpt><trkpt lat="46.117358267919315" lon="13.193369713136361"><ele>146.33333333333334</ele><time>2026-05-03T16:15:03Z</time></trkpt><trkpt lat="46.11719985261521" lon="13.193480648557347"><ele>147.0</ele><time>2026-05-03T16:15:04Z</time></trkpt><trkpt lat="46.11704097795957" lon="13.193590699780353"><ele>147.0</ele><time>2026-05-03T16:15:05Z</time></trkpt><trkpt lat="46.11688064528818" lon="13.193703364823174"><ele>147.0</ele><time>2026-05-03T16:15:06Z</time></trkpt><trkpt lat="46.11671991737701" lon="13.193822117653019"><ele>147.0</ele><time>2026-05-03T16:15:07Z</time></trkpt><trkpt lat="46.116562258504835" lon="13.19393759832833"><ele>145.0</ele><time>2026-05-03T16:15:08Z</time></trkpt><trkpt lat="46.116418970922105" lon="13.194059473306183"><ele>143.0</ele><time>2026-05-03T16:15:09.001Z</time></trkpt><trkpt lat="46.11628699153202" lon="13.194189441311357"><ele>141.0</ele><time>2026-05-03T16:15:10.001Z</time></trkpt><trkpt lat="46.11615681169571" lon="13.194322756764548"><ele>141.0</ele><time>2026-05-03T16:15:11.001Z</time></trkpt><trkpt lat="46.11603089151645" lon="13.194455500000256"><ele>141.0</ele><time>2026-05-03T16:15:12.001Z</time></trkpt><trkpt lat="46.1158954039258" lon="13.194585597408954"><ele>141.0</ele><time>2026-05-03T16:15:13.001Z</time></trkpt><trkpt lat="46.11574143655077" lon="13.194722123752207"><ele>135.66666666666666</ele><time>2026-05-03T16:15:14.001Z</time></trkpt><trkpt lat="46.115582255339426" lon="13.194886330620498"><ele>130.33333333333331</ele><time>2026-05-03T16:15:15.001Z</time></trkpt><trkpt lat="46.11542376153435" lon="13.195060903758982"><ele>125.0</ele><time>2026-05-03T16:15:16.001Z</time></trkpt><trkpt lat="46.11526988120956" lon="13.1952150430035"><ele>125.0</ele><time>2026-05-03T16:15:17.001Z</time></trkpt><trkpt lat="46.115122036801914" lon="13.195358863141697"><ele>125.0</ele><time>2026-05-03T16:15:18.001Z</time></trkpt><trkpt lat="46.11497983254711" lon="13.195503637720273"><ele>125.0</ele><time>2026-05-03T16:15:19.001Z</time></trkpt><trkpt lat="46.11484778598498" lon="13.195649641558978"><ele>125.0</ele><time>2026-05-03T16:15:20.001Z</time></trkpt><trkpt lat="46.11471990564218" lon="13.19578055008074"><ele>125.0</ele><time>2026-05-03T16:15:21.001Z</time></trkpt><trkpt lat="46.114593894006774" lon="13.195909396109592"><ele>125.0</ele><time>2026-05-03T16:15:22.001Z</time></trkpt><trkpt lat="46.114469678082465" lon="13.196041657656098"><ele>125.0</ele><time>2026-05-03T16:15:23.001Z</time></trkpt><trkpt lat="46.11433696025336" lon="13.196177873404567"><ele>125.0</ele><time>2026-05-03T16:15:24.001Z</time></trkpt><trkpt lat="46.11419949543562" lon="13.196310466719666"><ele>125.0</ele><time>2026-05-03T16:15:25.001Z</time></trkpt><trkpt lat="46.11406334269408" lon="13.196447886089834"><ele>126.66666666666666</ele><time>2026-05-03T16:15:26.001Z</time></trkpt><trkpt lat="46.11392809894045" lon="13.196583843920582"><ele>128.33333333333334</ele><time>2026-05-03T16:15:27.001Z</time></trkpt><trkpt lat="46.113794335056035" lon="13.196721915264561"><ele>130.0</ele><time>2026-05-03T16:15:28.001Z</time></trkpt><trkpt lat="46.11366085435413" lon="13.196860798416475"><ele>130.0</ele><time>2026-05-03T16:15:29.001Z</time></trkpt><trkpt lat="46.11353130503138" lon="13.196991741749256"><ele>130.0</ele><time>2026-05-03T16:15:30.001Z</time></trkpt><trkpt lat="46.113404267118845" lon="13.197113559237819"><ele>130.0</ele><time>2026-05-03T16:15:31.001Z</time></trkpt><trkpt lat="46.11327402617024" lon="13.197232566100874"><ele>129.66666666666669</ele><time>2026-05-03T16:15:32.001Z</time></trkpt><trkpt lat="46.113128061357465" lon="13.197349162417487"><ele>129.33333333333334</ele><time>2026-05-03T16:15:33.001Z</time></trkpt><trkpt lat="46.11296874435064" lon="13.19744698946841"><ele>129.0</ele><time>2026-05-03T16:15:34.001Z</time></trkpt><trkpt lat="46.112812001958595" lon="13.197524451270361"><ele>129.0</ele><time>2026-05-03T16:15:35.001Z</time></trkpt><trkpt lat="46.11266783631276" lon="13.197588207392531"><ele>129.0</ele><time>2026-05-03T16:15:36.001Z</time></trkpt><trkpt lat="46.11252177921524" lon="13.197632966677642"><ele>129.0</ele><time>2026-05-03T16:15:37.001Z</time></trkpt><trkpt lat="46.11237364707428" lon="13.1976528888086"><ele>129.0</ele><time>2026-05-03T16:15:38.001Z</time></trkpt><trkpt lat="46.11222720528169" lon="13.197668098899085"><ele>129.25</ele><time>2026-05-03T16:15:39.001Z</time></trkpt><trkpt lat="46.11209046151532" lon="13.197668238518752"><ele>129.5</ele><time>2026-05-03T16:15:40.001Z</time></trkpt><trkpt lat="46.11196006029651" lon="13.197659911829764"><ele>129.75</ele><time>2026-05-03T16:15:41.001Z</time></trkpt><trkpt lat="46.111832746279084" lon="13.197641243095784"><ele>130.0</ele><time>2026-05-03T16:15:42.001Z</time></trkpt><trkpt lat="46.11170954394849" lon="13.197613797179676"><ele>130.0</ele><time>2026-05-03T16:15:43.001Z</time></trkpt><trkpt lat="46.11158610120609" lon="13.197581777426816"><ele>130.0</ele><time>2026-05-03T16:15:44.001Z</time></trkpt><trkpt lat="46.1114464339649" lon="13.197542001821898"><ele>130.0</ele><time>2026-05-03T16:15:45.001Z</time></trkpt><trkpt lat="46.11129043181875" lon="13.197488763847916"><ele>130.0</ele><time>2026-05-03T16:15:46.001Z</time></trkpt><trkpt lat="46.11112596618993" lon="13.197427373814435"><ele>130.0</ele><time>2026-05-03T16:15:47.001Z</time></trkpt><trkpt lat="46.110962505752276" lon="13.197366116406533"><ele>130.0</ele><time>2026-05-03T16:15:48.001Z</time></trkpt><trkpt lat="46.110807474551" lon="13.197309412252777"><ele>130.0</ele><time>2026-05-03T16:15:49.001Z</time></trkpt><trkpt lat="46.110653723181215" lon="13.197254288479003"><ele>129.33333333333334</ele><time>2026-05-03T16:15:50.001Z</time></trkpt><trkpt lat="46.110503634365095" lon="13.197204124754995"><ele>128.66666666666666</ele><time>2026-05-03T16:15:51.001Z</time></trkpt><trkpt lat="46.110356155197614" lon="13.19715681143064"><ele>128.0</ele><time>2026-05-03T16:15:52.001Z</time></trkpt><trkpt lat="46.11020427329099" lon="13.197102933954026"><ele>128.0</ele><time>2026-05-03T16:15:53.001Z</time></trkpt><trkpt lat="46.110047281550166" lon="13.197044979062612"><ele>128.0</ele><time>2026-05-03T16:15:54.001Z</time></trkpt><trkpt lat="46.10989712151056" lon="13.196984405576794"><ele>128.0</ele><time>2026-05-03T16:15:55.001Z</time></trkpt><trkpt lat="46.10975111294425" lon="13.196928553423543"><ele>128.25</ele><time>2026-05-03T16:15:56.001Z</time></trkpt><trkpt lat="46.10961269936677" lon="13.196875166888868"><ele>128.5</ele><time>2026-05-03T16:15:57.001Z</time></trkpt><trkpt lat="46.10948278565659" lon="13.196826131157927"><ele>128.75</ele><time>2026-05-03T16:15:58.001Z</time></trkpt><trkpt lat="46.10935146963306" lon="13.196781591253423"><ele>129.0</ele><time>2026-05-03T16:15:59.001Z</time></trkpt><trkpt lat="46.10921850138848" lon="13.196740360801014"><ele>129.0</ele><time>2026-05-03T16:16:00.001Z</time></trkpt><trkpt lat="46.10908137910831" lon="13.196703659470712"><ele>129.0</ele><time>2026-05-03T16:16:01.001Z</time></trkpt><trkpt lat="46.10894267446246" lon="13.196683528348661"><ele>129.0</ele><time>2026-05-03T16:16:02.001Z</time></trkpt><trkpt lat="46.10879735679156" lon="13.19667910941196"><ele>129.0</ele><time>2026-05-03T16:16:03.001Z</time></trkpt><trkpt lat="46.10865006589507" lon="13.196683321729596"><ele>129.25</ele><time>2026-05-03T16:16:04.001Z</time></trkpt><trkpt lat="46.108502566090365" lon="13.196705346398343"><ele>129.5</ele><time>2026-05-03T16:16:05.001Z</time></trkpt><trkpt lat="46.10835701242382" lon="13.19673968476163"><ele>129.75</ele><time>2026-05-03T16:16:06.001Z</time></trkpt><trkpt lat="46.108216449875044" lon="13.19678950704616"><ele>130.0</ele><time>2026-05-03T16:16:07.001Z</time></trkpt><trkpt lat="46.10807880195956" lon="13.19685346606775"><ele>129.5</ele><time>2026-05-03T16:16:08.001Z</time></trkpt><trkpt lat="46.10794424226717" lon="13.19692494557629"><ele>129.0</ele><time>2026-05-03T16:16:09.001Z</time></trkpt><trkpt lat="46.107813087877105" lon="13.197007563884815"><ele>128.5</ele><time>2026-05-03T16:16:10.001Z</time></trkpt><trkpt lat="46.10768115548677" lon="13.197105902963829"><ele>128.0</ele><time>2026-05-03T16:16:11.001Z</time></trkpt><trkpt lat="46.107549823650146" lon="13.197222482118052"><ele>128.0</ele><time>2026-05-03T16:16:12.001Z</time></trkpt><trkpt lat="46.10742269021719" lon="13.197356836163946"><ele>128.0</ele><time>2026-05-03T16:16:13.001Z</time></trkpt><trkpt lat="46.107297136003275" lon="13.197500200895819"><ele>128.0</ele><time>2026-05-03T16:16:14.001Z</time></trkpt><trkpt lat="46.107174094202406" lon="13.197654237362162"><ele>128.0</ele><time>2026-05-03T16:16:15.001Z</time></trkpt><trkpt lat="46.10705493273893" lon="13.19781434931854"><ele>128.0</ele><time>2026-05-03T16:16:16.001Z</time></trkpt><trkpt lat="46.10693260534652" lon="13.19796989573167"><ele>128.0</ele><time>2026-05-03T16:16:17.001Z</time></trkpt><trkpt lat="46.106807619990775" lon="13.198125093586986"><ele>128.0</ele><time>2026-05-03T16:16:18.001Z</time></trkpt><trkpt lat="46.10667841234515" lon="13.198278380546965"><ele>128.0</ele><time>2026-05-03T16:16:19.001Z</time></trkpt><trkpt lat="46.10654537604262" lon="13.198440808348948"><ele>128.0</ele><time>2026-05-03T16:16:20.001Z</time></trkpt><trkpt lat="46.10640973629461" lon="13.198607162824954"><ele>128.0</ele><time>2026-05-03T16:16:21.001Z</time></trkpt><trkpt lat="46.10626829445266" lon="13.198779223517313"><ele>128.0</ele><time>2026-05-03T16:16:22Z</time></trkpt><trkpt lat="46.10611834450143" lon="13.198960602183215"><ele>128.0</ele><time>2026-05-03T16:16:23Z</time></trkpt><trkpt lat="46.10596461056935" lon="13.199152784955198"><ele>128.0</ele><time>2026-05-03T16:16:24Z</time></trkpt><trkpt lat="46.105806583266464" lon="13.199346442230365"><ele>128.0</ele><time>2026-05-03T16:16:25Z</time></trkpt><trkpt lat="46.10565053827565" lon="13.199557736618415"><ele>128.0</ele><time>2026-05-03T16:16:26Z</time></trkpt><trkpt lat="46.10544894929156" lon="13.199799997507151"><ele>128.5</ele><time>2026-05-03T16:16:27Z</time></trkpt><trkpt lat="46.10521783909058" lon="13.200051162573912"><ele>129.0</ele><time>2026-05-03T16:16:28Z</time></trkpt><trkpt lat="46.10498701703648" lon="13.200335803164595"><ele>128.0</ele><time>2026-05-03T16:16:29Z</time></trkpt><trkpt lat="46.10482305892379" lon="13.200618952824577"><ele>127.0</ele><time>2026-05-03T16:16:30Z</time></trkpt><trkpt lat="46.10466652478266" lon="13.200840687667368"><ele>127.0</ele><time>2026-05-03T16:16:31Z</time></trkpt><trkpt lat="46.10450844241198" lon="13.20102469420429"><ele>127.0</ele><time>2026-05-03T16:16:32Z</time></trkpt><trkpt lat="46.10435005194042" lon="13.201230021403438"><ele>127.0</ele><time>2026-05-03T16:16:33Z</time></trkpt><trkpt lat="46.104187087581614" lon="13.201429601007357"><ele>126.66666666666667</ele><time>2026-05-03T16:16:34Z</time></trkpt><trkpt lat="46.104047829951384" lon="13.201604677915535"><ele>126.33333333333334</ele><time>2026-05-03T16:16:35Z</time></trkpt><trkpt lat="46.10391410337258" lon="13.201773816816047"><ele>126.0</ele><time>2026-05-03T16:16:36Z</time></trkpt><trkpt lat="46.10378007298825" lon="13.201943848949137"><ele>126.0</ele><time>2026-05-03T16:16:37Z</time></trkpt><trkpt lat="46.10364509689668" lon="13.202119623020415"><ele>126.0</ele><time>2026-05-03T16:16:38Z</time></trkpt><trkpt lat="46.10350634907126" lon="13.202297011085111"><ele>126.0</ele><time>2026-05-03T16:16:39Z</time></trkpt><trkpt lat="46.10336501959679" lon="13.20247983537261"><ele>126.0</ele><time>2026-05-03T16:16:40Z</time></trkpt><trkpt lat="46.10322449528181" lon="13.202651644033704"><ele>126.0</ele><time>2026-05-03T16:16:41Z</time></trkpt><trkpt lat="46.1030802129647" lon="13.20283013826754"><ele>126.0</ele><time>2026-05-03T16:16:42Z</time></trkpt><trkpt lat="46.1029370904334" lon="13.20301437999163"><ele>126.33333333333334</ele><time>2026-05-03T16:16:43Z</time></trkpt><trkpt lat="46.10279108103868" lon="13.203202488892998"><ele>126.66666666666667</ele><time>2026-05-03T16:16:44Z</time></trkpt><trkpt lat="46.10264490735951" lon="13.203388021470586"><ele>127.0</ele><time>2026-05-03T16:16:45.001Z</time></trkpt><trkpt lat="46.102497996865" lon="13.203574110658362"><ele>126.66666666666667</ele><time>2026-05-03T16:16:46.001Z</time></trkpt><trkpt lat="46.1023491972175" lon="13.203763871948421"><ele>126.33333333333334</ele><time>2026-05-03T16:16:47.001Z</time></trkpt><trkpt lat="46.102189241158136" lon="13.203967784862522"><ele>126.0</ele><time>2026-05-03T16:16:48.001Z</time></trkpt><trkpt lat="46.10203475800144" lon="13.204176770285722"><ele>126.33333333333334</ele><time>2026-05-03T16:16:49.001Z</time></trkpt><trkpt lat="46.10187205911457" lon="13.204404829858085"><ele>126.66666666666667</ele><time>2026-05-03T16:16:50.001Z</time></trkpt><trkpt lat="46.10171643894461" lon="13.204595032046608"><ele>127.0</ele><time>2026-05-03T16:16:51.001Z</time></trkpt><trkpt lat="46.10156066052725" lon="13.204796419953794"><ele>127.33333333333334</ele><time>2026-05-03T16:16:52.001Z</time></trkpt><trkpt lat="46.1014122956568" lon="13.204988841666356"><ele>127.66666666666666</ele><time>2026-05-03T16:16:53.001Z</time></trkpt><trkpt lat="46.10127380329528" lon="13.205175309584186"><ele>128.0</ele><time>2026-05-03T16:16:54.001Z</time></trkpt><trkpt lat="46.10113636114017" lon="13.205349019531802"><ele>128.0</ele><time>2026-05-03T16:16:55.001Z</time></trkpt><trkpt lat="46.10100560924709" lon="13.205516024850228"><ele>128.0</ele><time>2026-05-03T16:16:56.001Z</time></trkpt><trkpt lat="46.10088267278595" lon="13.205669808821048"><ele>128.0</ele><time>2026-05-03T16:16:57.001Z</time></trkpt><trkpt lat="46.10076905154343" lon="13.20581141307402"><ele>128.0</ele><time>2026-05-03T16:16:58.001Z</time></trkpt><trkpt lat="46.10066488143445" lon="13.20594378425928"><ele>128.0</ele><time>2026-05-03T16:16:59.001Z</time></trkpt><trkpt lat="46.10056780682921" lon="13.20605645371251"><ele>128.0</ele><time>2026-05-03T16:17:00.001Z</time></trkpt><trkpt lat="46.10046165584873" lon="13.20612832038853"><ele>128.0</ele><time>2026-05-03T16:17:01.001Z</time></trkpt><trkpt lat="46.10036559952917" lon="13.206166595292999"><ele>127.99999999999999</ele><time>2026-05-03T16:17:02.001Z</time></trkpt><trkpt lat="46.10028411206324" lon="13.206191686474664"><ele>128.0</ele><time>2026-05-03T16:17:03.001Z</time></trkpt><trkpt lat="46.100197270339024" lon="13.20625285889562"><ele>128.0</ele><time>2026-05-03T16:17:05.001Z</time></trkpt><trkpt lat="46.100147454872136" lon="13.206350525614928"><ele>128.0</ele><time>2026-05-03T16:23:16Z</time></trkpt><trkpt lat="46.10013369728739" lon="13.206444257856935"><ele>127.99999999999999</ele><time>2026-05-03T16:23:17Z</time></trkpt><trkpt lat="46.1001191869298" lon="13.206534774562323"><ele>128.0</ele><time>2026-05-03T16:23:18Z</time></trkpt><trkpt lat="46.100095437712895" lon="13.206630916942538"><ele>128.0</ele><time>2026-05-03T16:23:19Z</time></trkpt><trkpt lat="46.100042224664904" lon="13.206729848317005"><ele>128.0</ele><time>2026-05-03T16:23:20Z</time></trkpt><trkpt lat="46.099957083713605" lon="13.20684181894455"><ele>128.0</ele><time>2026-05-03T16:23:21Z</time></trkpt><trkpt lat="46.09982759075918" lon="13.207000445420222"><ele>128.0</ele><time>2026-05-03T16:23:22Z</time></trkpt><trkpt lat="46.099649166011645" lon="13.207223898163779"><ele>128.0</ele><time>2026-05-03T16:23:23Z</time></trkpt><trkpt lat="46.099426271274524" lon="13.20750397542669"><ele>128.0</ele><time>2026-05-03T16:23:24Z</time></trkpt><trkpt lat="46.09919847599998" lon="13.20778815941664"><ele>128.5</ele><time>2026-05-03T16:23:25Z</time></trkpt><trkpt lat="46.09893881406038" lon="13.208122784224132"><ele>129.0</ele><time>2026-05-03T16:23:26Z</time></trkpt><trkpt lat="46.09865795658977" lon="13.208476657540919"><ele>129.0</ele><time>2026-05-03T16:23:27.001Z</time></trkpt><trkpt lat="46.098365380538816" lon="13.208837507792513"><ele>129.0</ele><time>2026-05-03T16:23:28.001Z</time></trkpt><trkpt lat="46.09807059519276" lon="13.209239978017559"><ele>127.5</ele><time>2026-05-03T16:23:29.001Z</time></trkpt><trkpt lat="46.09774914859026" lon="13.209645883234408"><ele>126.0</ele><time>2026-05-03T16:23:30.001Z</time></trkpt><trkpt lat="46.09741954758148" lon="13.21006213346068"><ele>127.0</ele><time>2026-05-03T16:23:31.001Z</time></trkpt><trkpt lat="46.09711249215847" lon="13.210455234601616"><ele>128.0</ele><time>2026-05-03T16:23:32.001Z</time></trkpt><trkpt lat="46.09683918429868" lon="13.210808375638482"><ele>127.5</ele><time>2026-05-03T16:23:33.001Z</time></trkpt><trkpt lat="46.09658271716853" lon="13.211134355246614"><ele>127.0</ele><time>2026-05-03T16:23:34.001Z</time></trkpt><trkpt lat="46.09634542609274" lon="13.211442639269203"><ele>125.5</ele><time>2026-05-03T16:23:35.001Z</time></trkpt><trkpt lat="46.096108985395986" lon="13.211748596592127"><ele>124.0</ele><time>2026-05-03T16:23:36.001Z</time></trkpt><trkpt lat="46.095860626199915" lon="13.212063891579444"><ele>125.0</ele><time>2026-05-03T16:23:37.001Z</time></trkpt><trkpt lat="46.095606076858765" lon="13.212392099504546"><ele>126.0</ele><time>2026-05-03T16:23:38.001Z</time></trkpt><trkpt lat="46.095363870427505" lon="13.212701763019059"><ele>126.0</ele><time>2026-05-03T16:23:39.001Z</time></trkpt><trkpt lat="46.095148045659165" lon="13.212976340497363"><ele>126.0</ele><time>2026-05-03T16:23:40.001Z</time></trkpt><trkpt lat="46.094954683560495" lon="13.213223421857364"><ele>125.66666666666666</ele><time>2026-05-03T16:23:41.001Z</time></trkpt><trkpt lat="46.094780636727954" lon="13.213440362744535"><ele>125.33333333333333</ele><time>2026-05-03T16:23:42.001Z</time></trkpt><trkpt lat="46.094600464052206" lon="13.213611774438364"><ele>125.0</ele><time>2026-05-03T16:23:43.001Z</time></trkpt><trkpt lat="46.09443226692614" lon="13.213770800029403"><ele>125.0</ele><time>2026-05-03T16:23:44.001Z</time></trkpt><trkpt lat="46.09425319948248" lon="13.213919119826826"><ele>125.0</ele><time>2026-05-03T16:23:45.001Z</time></trkpt><trkpt lat="46.09405198062872" lon="13.214063632022146"><ele>125.0</ele><time>2026-05-03T16:23:46.001Z</time></trkpt><trkpt lat="46.09383994478985" lon="13.214179252997525"><ele>124.66666666666666</ele><time>2026-05-03T16:23:47.001Z</time></trkpt><trkpt lat="46.0936537050976" lon="13.21427057377867"><ele>124.33333333333334</ele><time>2026-05-03T16:23:48.001Z</time></trkpt><trkpt lat="46.09346413687476" lon="13.214337703334802"><ele>124.0</ele><time>2026-05-03T16:23:49.001Z</time></trkpt><trkpt lat="46.0932866351488" lon="13.214378454514389"><ele>123.66666666666667</ele><time>2026-05-03T16:23:50.001Z</time></trkpt><trkpt lat="46.09312833415273" lon="13.214438573706762"><ele>123.33333333333334</ele><time>2026-05-03T16:23:51.001Z</time></trkpt><trkpt lat="46.09297524601584" lon="13.214454616057528"><ele>123.0</ele><time>2026-05-03T16:23:52.001Z</time></trkpt><trkpt lat="46.09284381625711" lon="13.214545667310484"><ele>123.0</ele><time>2026-05-03T16:23:53.001Z</time></trkpt><trkpt lat="46.0927335124714" lon="13.21468342155426"><ele>123.0</ele><time>2026-05-03T16:23:54.001Z</time></trkpt><trkpt lat="46.0926553869609" lon="13.21485862835134"><ele>123.0</ele><time>2026-05-03T16:23:55.001Z</time></trkpt><trkpt lat="46.09261149437567" lon="13.215058682151296"><ele>123.0</ele><time>2026-05-03T16:23:56.001Z</time></trkpt><trkpt lat="46.092617149876844" lon="13.215274469300986"><ele>123.0</ele><time>2026-05-03T16:23:57.001Z</time></trkpt><trkpt lat="46.09266900430548" lon="13.215474535448235"><ele>123.0</ele><time>2026-05-03T16:23:58.001Z</time></trkpt><trkpt lat="46.092770360037406" lon="13.215646594305"><ele>123.0</ele><time>2026-05-03T16:23:59.001Z</time></trkpt><trkpt lat="46.09290616859569" lon="13.215764381214436"><ele>123.0</ele><time>2026-05-03T16:24:00.001Z</time></trkpt><trkpt lat="46.09305945887793" lon="13.21581126677656"><ele>123.0</ele><time>2026-05-03T16:24:01.001Z</time></trkpt><trkpt lat="46.09321103325439" lon="13.21576958485313"><ele>123.0</ele><time>2026-05-03T16:24:02.001Z</time></trkpt><trkpt lat="46.09336621476182" lon="13.215632102585005"><ele>123.0</ele><time>2026-05-03T16:24:03.001Z</time></trkpt><trkpt lat="46.09348149355792" lon="13.215423366144163"><ele>123.0</ele><time>2026-05-03T16:24:04.001Z</time></trkpt><trkpt lat="46.09355550455748" lon="13.215182439537255"><ele>123.0</ele><time>2026-05-03T16:24:05.001Z</time></trkpt><trkpt lat="46.093624119499566" lon="13.214920927567416"><ele>123.33333333333334</ele><time>2026-05-03T16:24:06.001Z</time></trkpt><trkpt lat="46.09373904362949" lon="13.214731049506259"><ele>123.66666666666667</ele><time>2026-05-03T16:24:07.001Z</time></trkpt><trkpt lat="46.09389647238353" lon="13.214588830521185"><ele>124.0</ele><time>2026-05-03T16:24:08.001Z</time></trkpt><trkpt lat="46.09404749999273" lon="13.214398273256245"><ele>124.5</ele><time>2026-05-03T16:24:09.001Z</time></trkpt><trkpt lat="46.09431408520379" lon="13.214349402749843"><ele>125.0</ele><time>2026-05-03T16:24:10.001Z</time></trkpt><trkpt lat="46.0945744185078" lon="13.214212521208989"><ele>125.0</ele><time>2026-05-03T16:24:11.001Z</time></trkpt><trkpt lat="46.094865167041846" lon="13.214066978202915"><ele>125.0</ele><time>2026-05-03T16:24:12.001Z</time></trkpt><trkpt lat="46.095167228407874" lon="13.213903097945064"><ele>125.0</ele><time>2026-05-03T16:24:13.001Z</time></trkpt><trkpt lat="46.09543308564876" lon="13.213762409720033"><ele>125.0</ele><time>2026-05-03T16:24:14.001Z</time></trkpt><trkpt lat="46.095680937439475" lon="13.21362332085207"><ele>125.5</ele><time>2026-05-03T16:24:15.001Z</time></trkpt><trkpt lat="46.09590949776592" lon="13.213493697042352"><ele>126.0</ele><time>2026-05-03T16:24:16.001Z</time></trkpt><trkpt lat="46.09611920301732" lon="13.213374299523162"><ele>126.0</ele><time>2026-05-03T16:24:17.001Z</time></trkpt><trkpt lat="46.096316285842555" lon="13.213264789725303"><ele>126.0</ele><time>2026-05-03T16:24:18.001Z</time></trkpt><trkpt lat="46.096504421664335" lon="13.213164692452022"><ele>126.0</ele><time>2026-05-03T16:24:19.001Z</time></trkpt><trkpt lat="46.09668313703681" lon="13.213068971024539"><ele>126.33333333333334</ele><time>2026-05-03T16:24:20.001Z</time></trkpt><trkpt lat="46.0968539511882" lon="13.212980837383741"><ele>126.66666666666667</ele><time>2026-05-03T16:24:21.001Z</time></trkpt><trkpt lat="46.09701868508566" lon="13.212892919770148"><ele>127.0</ele><time>2026-05-03T16:24:22.001Z</time></trkpt><trkpt lat="46.0971826310725" lon="13.212804028732531"><ele>127.0</ele><time>2026-05-03T16:24:23.001Z</time></trkpt><trkpt lat="46.097342768571686" lon="13.212716341455835"><ele>127.0</ele><time>2026-05-03T16:24:24.001Z</time></trkpt><trkpt lat="46.09750184922159" lon="13.212629350048028"><ele>127.0</ele><time>2026-05-03T16:24:25.001Z</time></trkpt><trkpt lat="46.09765952465816" lon="13.212542320997422"><ele>126.66666666666667</ele><time>2026-05-03T16:24:26.001Z</time></trkpt><trkpt lat="46.0978102495819" lon="13.212462447157757"><ele>126.33333333333334</ele><time>2026-05-03T16:24:27.001Z</time></trkpt><trkpt lat="46.0979529980218" lon="13.212387784300637"><ele>126.0</ele><time>2026-05-03T16:24:28.001Z</time></trkpt><trkpt lat="46.09808812835939" lon="13.212315656870576"><ele>126.0</ele><time>2026-05-03T16:24:29.001Z</time></trkpt><trkpt lat="46.098215206652576" lon="13.212248636266192"><ele>126.0</ele><time>2026-05-03T16:24:30.001Z</time></trkpt><trkpt lat="46.09834488815155" lon="13.212181563110143"><ele>126.0</ele><time>2026-05-03T16:24:31.001Z</time></trkpt><trkpt lat="46.09848481898001" lon="13.2121067503697"><ele>126.0</ele><time>2026-05-03T16:24:32.001Z</time></trkpt><trkpt lat="46.09863488598839" lon="13.212028148797161"><ele>126.33333333333334</ele><time>2026-05-03T16:24:33.001Z</time></trkpt><trkpt lat="46.098790351263084" lon="13.21194254274935"><ele>126.66666666666667</ele><time>2026-05-03T16:24:34.001Z</time></trkpt><trkpt lat="46.0989494325907" lon="13.211856739197502"><ele>127.0</ele><time>2026-05-03T16:24:35.001Z</time></trkpt><trkpt lat="46.099102679066426" lon="13.211777509410444"><ele>127.5</ele><time>2026-05-03T16:24:36.001Z</time></trkpt><trkpt lat="46.09924839812026" lon="13.211702692678598"><ele>128.0</ele><time>2026-05-03T16:24:37.001Z</time></trkpt><trkpt lat="46.09938857698547" lon="13.211632722507275"><ele>128.5</ele><time>2026-05-03T16:24:38.001Z</time></trkpt><trkpt lat="46.099518031190414" lon="13.21155760000809"><ele>129.0</ele><time>2026-05-03T16:24:39.001Z</time></trkpt><trkpt lat="46.09964162166332" lon="13.211489297434694"><ele>129.0</ele><time>2026-05-03T16:24:40.001Z</time></trkpt><trkpt lat="46.099755478879345" lon="13.21141852346506"><ele>129.0</ele><time>2026-05-03T16:24:41.001Z</time></trkpt><trkpt lat="46.099862639480314" lon="13.21134038867708"><ele>129.0</ele><time>2026-05-03T16:24:42.001Z</time></trkpt><trkpt lat="46.099976350540246" lon="13.211249334961657"><ele>129.0</ele><time>2026-05-03T16:24:43.001Z</time></trkpt><trkpt lat="46.10009962376582" lon="13.211137633449889"><ele>129.33333333333334</ele><time>2026-05-03T16:24:44.001Z</time></trkpt><trkpt lat="46.10022865246476" lon="13.211012521599065"><ele>129.66666666666669</ele><time>2026-05-03T16:24:45Z</time></trkpt><trkpt lat="46.100362858674075" lon="13.2108965871243"><ele>130.0</ele><time>2026-05-03T16:24:46Z</time></trkpt><trkpt lat="46.100488954088355" lon="13.210792020129446"><ele>130.0</ele><time>2026-05-03T16:24:47Z</time></trkpt><trkpt lat="46.10060759481091" lon="13.210705538333526"><ele>130.0</ele><time>2026-05-03T16:24:48Z</time></trkpt><trkpt lat="46.10071612181551" lon="13.210626745344973"><ele>130.0</ele><time>2026-05-03T16:24:49Z</time></trkpt><trkpt lat="46.10081542837244" lon="13.210575105996563"><ele>130.0</ele><time>2026-05-03T16:24:50Z</time></trkpt><trkpt lat="46.10090467919182" lon="13.210525401306379"><ele>129.75</ele><time>2026-05-03T16:24:51Z</time></trkpt><trkpt lat="46.10097529058359" lon="13.21048089952738"><ele>129.5</ele><time>2026-05-03T16:24:52Z</time></trkpt><trkpt lat="46.101101172595" lon="13.21041561323765"><ele>129.25</ele><time>2026-05-03T16:24:54Z</time></trkpt><trkpt lat="46.10120785441385" lon="13.210340603554714"><ele>129.0</ele><time>2026-05-03T16:24:55Z</time></trkpt><trkpt lat="46.10132733203043" lon="13.21026215420258"><ele>129.0</ele><time>2026-05-03T16:24:56Z</time></trkpt><trkpt lat="46.10145522674695" lon="13.210175611106543"><ele>129.0</ele><time>2026-05-03T16:24:57Z</time></trkpt><trkpt lat="46.10160647891904" lon="13.210067154423916"><ele>129.0</ele><time>2026-05-03T16:24:58Z</time></trkpt><trkpt lat="46.10174414944152" lon="13.209967779883256"><ele>129.33333333333334</ele><time>2026-05-03T16:24:59Z</time></trkpt><trkpt lat="46.10189772167309" lon="13.209859901787402"><ele>129.66666666666669</ele><time>2026-05-03T16:25:00Z</time></trkpt><trkpt lat="46.102034296005115" lon="13.209767033585187"><ele>130.0</ele><time>2026-05-03T16:25:01Z</time></trkpt><trkpt lat="46.102175209530806" lon="13.209683251177921"><ele>130.0</ele><time>2026-05-03T16:25:02Z</time></trkpt><trkpt lat="46.10233094914679" lon="13.209576119381811"><ele>130.0</ele><time>2026-05-03T16:25:03Z</time></trkpt><trkpt lat="46.10251787104635" lon="13.209442704445312"><ele>130.0</ele><time>2026-05-03T16:25:04Z</time></trkpt><trkpt lat="46.102689442189096" lon="13.209324501057804"><ele>130.66666666666669</ele><time>2026-05-03T16:25:05.001Z</time></trkpt><trkpt lat="46.10284797591875" lon="13.209212501138841"><ele>131.33333333333334</ele><time>2026-05-03T16:25:06.001Z</time></trkpt><trkpt lat="46.102994551436666" lon="13.209111179360795"><ele>132.0</ele><time>2026-05-03T16:25:07.001Z</time></trkpt><trkpt lat="46.10312880640694" lon="13.209016880009848"><ele>132.0</ele><time>2026-05-03T16:25:08.001Z</time></trkpt><trkpt lat="46.10323450315256" lon="13.208941749486494"><ele>132.0</ele><time>2026-05-03T16:25:09.001Z</time></trkpt><trkpt lat="46.103328176658046" lon="13.208874834339376"><ele>132.0</ele><time>2026-05-03T16:25:10.001Z</time></trkpt><trkpt lat="46.103402952043574" lon="13.208818512192774"><ele>132.0</ele><time>2026-05-03T16:25:11.001Z</time></trkpt><trkpt lat="46.10346172619968" lon="13.2087777940752"><ele>132.0</ele><time>2026-05-03T16:25:12.001Z</time></trkpt><trkpt lat="46.103549479820046" lon="13.208718804747999"><ele>132.0</ele><time>2026-05-03T16:25:14.001Z</time></trkpt><trkpt lat="46.10364142139179" lon="13.208666005690482"><ele>132.0</ele><time>2026-05-03T16:25:16.001Z</time></trkpt><trkpt lat="46.103714772685414" lon="13.208615811978639"><ele>132.0</ele><time>2026-05-03T16:25:17.001Z</time></trkpt><trkpt lat="46.10380168411021" lon="13.208554048753529"><ele>132.0</ele><time>2026-05-03T16:25:18.001Z</time></trkpt><trkpt lat="46.10386908555226" lon="13.208495761911378"><ele>132.0</ele><time>2026-05-03T16:25:19.001Z</time></trkpt><trkpt lat="46.10390455763331" lon="13.208416182679235"><ele>132.0</ele><time>2026-05-03T16:25:20.001Z</time></trkpt><trkpt lat="46.103851656160124" lon="13.208068897227236"><ele>132.0</ele><time>2026-05-03T16:25:25.001Z</time></trkpt><trkpt lat="46.103802667332594" lon="13.207975759042526"><ele>132.0</ele><time>2026-05-03T16:25:27.001Z</time></trkpt><trkpt lat="46.103737148746035" lon="13.207996207637239"><ele>132.0</ele><time>2026-05-03T16:25:29.001Z</time></trkpt><trkpt lat="46.103699717819836" lon="13.2080802014337"><ele>132.0</ele><time>2026-05-03T16:25:31.001Z</time></trkpt><trkpt lat="46.103682941149266" lon="13.208212084376418"><ele>132.0</ele><time>2026-05-03T16:25:38.06Z</time></trkpt><trkpt lat="46.10369356661382" lon="13.208323948037414"><ele>132.0</ele><time>2026-05-03T16:25:41.034Z</time></trkpt><trkpt lat="46.10368976484346" lon="13.20841945671414"><ele>132.0</ele><time>2026-05-03T16:25:43.036Z</time></trkpt><trkpt lat="46.10362351591913" lon="13.208461646759286"><ele>132.0</ele><time>2026-05-03T16:25:48.033Z</time></trkpt><trkpt lat="46.103593287942665" lon="13.207780622650127"><ele>132.0</ele><time>2026-05-03T16:27:19.012Z</time></trkpt><trkpt lat="46.1037801491352" lon="13.207948819331666"><ele>132.0</ele><time>2026-05-03T16:27:24.018Z</time></trkpt><trkpt lat="46.103847103023185" lon="13.207932923374807"><ele>132.0</ele><time>2026-05-03T16:27:25.017Z</time></trkpt><trkpt lat="46.10378230309333" lon="13.207922000676088"><ele>132.0</ele><time>2026-05-03T16:28:54Z</time></trkpt><trkpt lat="46.10371804694191" lon="13.208344396913406"><ele>132.0</ele><time>2026-05-03T16:34:25.869Z</time></trkpt></trkseg></trk></gpx>